
Distance (Route):
Temperature : 0°C
Humidity : 0%
Pressure : 0hPa| Receiver | Frames | First received | Last received |
|---|---|---|---|
| DO3MHA-11 | 598 | 2026-09-02 08:40:30 | 2026-09-02 10:46:01 |
| OE5MMP-10 | 354 | 2026-09-02 09:17:53 | 2026-09-02 10:44:08 |
| BIOWL1-15 | 277 | 2026-09-02 09:16:52 | 2026-09-02 10:11:15 |
| DM0DOS-11 | 213 | 2026-09-02 09:16:59 | 2026-09-02 10:09:06 |
| OE5DRO-10 | 189 | 2026-09-02 09:01:36 | 2026-09-02 10:39:22 |
| PETON7-10 | 174 | 2026-09-02 09:21:45 | 2026-09-02 10:24:04 |
| DB0NH | 161 | 2026-09-02 08:41:16 | 2026-09-02 10:39:57 |
| OE5WHR-10 | 157 | 2026-09-02 09:10:59 | 2026-09-02 10:21:45 |
| NBG1-10 | 150 | 2026-09-02 08:41:02 | 2026-09-02 10:42:27 |
| DK7TD | 144 | 2026-09-02 09:27:36 | 2026-09-02 10:03:02 |
| OE5DXL-15 | 139 | 2026-09-02 08:56:36 | 2026-09-02 10:35:52 |
| DF8AY | 124 | 2026-09-02 09:39:51 | 2026-09-02 10:04:35 |
| OE3JTB-15 | 122 | 2026-09-02 08:58:50 | 2026-09-02 10:41:40 |
| DB0UT-7 | 112 | 2026-09-02 08:58:18 | 2026-09-02 10:22:04 |
| DO8TBO-1 | 99 | 2026-09-02 08:51:24 | 2026-09-02 10:27:10 |
| DF2AP-13 | 99 | 2026-09-02 09:03:30 | 2026-09-02 10:19:35 |
| SP3BTT-10 | 50 | 2026-09-02 09:30:28 | 2026-09-02 10:11:16 |
| OK1ALN | 9 | 2026-09-02 10:03:37 | 2026-09-02 10:20:28 |
| DL6DJ-15 | 5 | 2026-09-02 08:46:03 | 2026-09-02 10:27:02 |
| OE5HKT-10 | 5 | 2026-09-02 09:03:47 | 2026-09-02 09:05:27 |
| DF7PN | 4 | 2026-09-02 08:53:08 | 2026-09-02 09:49:02 |
| EDDB2-11 | 4 | 2026-09-02 09:32:02 | 2026-09-02 10:17:02 |
| DB0ND-19 | 3 | 2026-09-02 09:02:03 | 2026-09-02 10:17:03 |
| SONCRA | 2 | 2026-09-02 09:13:02 | 2026-09-02 09:43:02 |
| SONDE2-11 | 2 | 2026-09-02 09:18:02 | 2026-09-02 09:49:05 |
| BIOWL9-15 | 2 | 2026-09-02 09:46:01 | 2026-09-02 09:49:08 |
| DH7VM-15 | 1 | 2026-09-02 09:22:49 | 2026-09-02 09:22:49 |
| BIOWL7-15 | 1 | 2026-09-02 09:29:51 | 2026-09-02 09:29:51 |
| DL1ZP-14 | 1 | 2026-09-02 09:30:03 | 2026-09-02 09:30:03 |
| THATR2-17 | 1 | 2026-09-02 09:58:29 | 2026-09-02 09:58:29 |
| OE3OSB-13 | 1 | 2026-09-02 10:26:03 | 2026-09-02 10:26:03 |
| Receiver | Date | Latitude | Longitude | Direction | Speed | Altitude | Climb | Temperature | Humidity | Pressure | Voltage | Killtimer | Uptime | BKT | XDATA |
|---|---|---|---|---|---|---|---|---|---|---|---|---|---|---|---|
| DO3MHA-11 | 2026-09-02 10:46:01 | 49.41152 | 13.44457 | 76° | 15km/h | 1672m | -5.5m/s | 0°C | 0% | 0hPa | 4.5V | 00:00:00 | 00:00:00 | 00:00:00 | |
| DO3MHA-11 | 2026-09-02 10:45:56 | 49.41147 | 13.44433 | 70° | 16km/h | 1699m | -5.2m/s | 0°C | 0% | 0hPa | 4.5V | 00:00:00 | 00:00:00 | 00:00:00 | |
| DO3MHA-11 | 2026-09-02 10:45:52 | 49.41139 | 13.44402 | 72° | 18km/h | 1727m | -5.6m/s | 0°C | 0% | 0hPa | 4.5V | 00:00:00 | 00:00:00 | 00:00:00 | |
| DO3MHA-11 | 2026-09-02 10:45:45 | 49.41134 | 13.44364 | 78° | 18km/h | 1765m | -5.3m/s | 0°C | 0% | 0hPa | 4.5V | 00:00:00 | 00:00:00 | 00:00:00 | |
| DO3MHA-11 | 2026-09-02 10:45:39 | 49.41129 | 13.44324 | 73° | 18km/h | 1793m | -5.5m/s | 0°C | 0% | 0hPa | 4.5V | 00:00:00 | 00:00:00 | 00:00:00 | |
| DO3MHA-11 | 2026-09-02 10:45:34 | 49.41120 | 13.44294 | 66° | 16km/h | 1823m | -4.8m/s | 0°C | 0% | 0hPa | 4.5V | 00:00:00 | 00:00:00 | 00:00:00 | |
| DO3MHA-11 | 2026-09-02 10:45:29 | 49.41111 | 13.44266 | 73° | 13km/h | 1843m | -4.9m/s | 0°C | 0% | 0hPa | 4.5V | 00:00:00 | 00:00:00 | 00:00:00 | |
| DO3MHA-11 | 2026-09-02 10:45:23 | 49.41103 | 13.44230 | 67° | 18km/h | 1876m | -4.6m/s | 0°C | 0% | 0hPa | 4.5V | 00:00:00 | 00:00:00 | 00:00:00 | |
| DO3MHA-11 | 2026-09-02 10:45:17 | 49.41090 | 13.44194 | 72° | 18km/h | 1903m | -4.7m/s | 0°C | 0% | 0hPa | 4.5V | 00:00:00 | 00:00:00 | 00:00:00 | |
| DO3MHA-11 | 2026-09-02 10:45:11 | 49.41085 | 13.44151 | 79° | 20km/h | 1927m | -4.8m/s | 0°C | 0% | 0hPa | 4.5V | 00:00:00 | 00:00:00 | 00:00:00 | |
| DO3MHA-11 | 2026-09-02 10:45:06 | 49.41078 | 13.44114 | 79° | 20km/h | 1953m | -4.3m/s | 0°C | 0% | 0hPa | 4.5V | 00:00:00 | 00:00:00 | 00:00:00 | |
| DO3MHA-11 | 2026-09-02 10:45:01 | 49.41075 | 13.44075 | 80° | 20km/h | 1972m | -4.8m/s | 0°C | 0% | 0hPa | 4.5V | 00:00:00 | 00:00:00 | 00:00:00 | |
| DO3MHA-11 | 2026-09-02 10:44:56 | 49.41069 | 13.44030 | 81° | 22km/h | 2004m | -4.6m/s | 0°C | 0% | 0hPa | 4.5V | 00:00:00 | 00:00:00 | 00:00:00 | |
| DO3MHA-11 | 2026-09-02 10:44:49 | 49.41065 | 13.43977 | 86° | 26km/h | 2031m | -4.3m/s | 0°C | 0% | 0hPa | 4.5V | 00:00:00 | 00:00:00 | 00:00:00 | |
| DO3MHA-11 | 2026-09-02 10:44:43 | 49.41061 | 13.43919 | 84° | 24km/h | 2054m | -4.5m/s | 0°C | 0% | 0hPa | 4.5V | 00:00:00 | 00:00:00 | 00:00:00 | |
| DO3MHA-11 | 2026-09-02 10:44:38 | 49.41057 | 13.43872 | 86° | 26km/h | 2081m | -4.4m/s | 0°C | 0% | 0hPa | 4.5V | 00:00:00 | 00:00:00 | 00:00:00 | |
| DO3MHA-11 | 2026-09-02 10:44:32 | 49.41055 | 13.43811 | 86° | 26km/h | 2108m | -4.4m/s | 0°C | 0% | 0hPa | 4.5V | 00:00:00 | 00:00:00 | 00:00:00 | |
| DO3MHA-11 | 2026-09-02 10:44:27 | 49.41053 | 13.43760 | 87° | 27km/h | 2131m | -4.4m/s | 0°C | 0% | 0hPa | 4.5V | 00:00:00 | 00:00:00 | 00:00:00 | |
| DO3MHA-11 | 2026-09-02 10:44:21 | 49.41052 | 13.43697 | 88° | 31km/h | 2158m | -4.4m/s | 0°C | 0% | 0hPa | 4.5V | 00:00:00 | 00:00:00 | 00:00:00 | |
| DO3MHA-11 | 2026-09-02 10:44:15 | 49.41048 | 13.43624 | 88° | 29km/h | 2184m | -4.3m/s | 0°C | 0% | 0hPa | 4.5V | 00:00:00 | 00:00:00 | 00:00:00 | |
| DO3MHA-11 | 2026-09-02 10:44:10 | 49.41047 | 13.43568 | 85° | 31km/h | 2206m | -4.3m/s | 0°C | 0% | 0hPa | 4.5V | 00:00:00 | 00:00:00 | 00:00:00 | |
| OE5MMP-10 | 2026-09-02 10:44:08 | 49.41045 | 13.43544 | 83° | 33km/h | 2237m | -4.3m/s | 0°C | 0% | 0hPa | 4.5V | 00:00:00 | 00:00:00 | 00:00:00 | |
| DO3MHA-11 | 2026-09-02 10:44:05 | 49.41043 | 13.43507 | 84° | 33km/h | 2223m | -4.3m/s | 0°C | 0% | 0hPa | 4.5V | 00:00:00 | 00:00:00 | 00:00:00 | |
| DO3MHA-11 | 2026-09-02 10:43:59 | 49.41038 | 13.43433 | 83° | 33km/h | 2255m | -4.4m/s | 0°C | 0% | 0hPa | 4.5V | 00:00:00 | 00:00:00 | 00:00:00 | |
| OE5MMP-10 | 2026-09-02 10:43:55 | 49.41034 | 13.43382 | 80° | 33km/h | 2276m | -4.1m/s | 0°C | 0% | 0hPa | 4.5V | 00:00:00 | 00:00:00 | 00:00:00 | |
| DO3MHA-11 | 2026-09-02 10:43:53 | 49.41030 | 13.43357 | 81° | 33km/h | 2281m | -4.1m/s | 0°C | 0% | 0hPa | 4.5V | 00:00:00 | 00:00:00 | 00:00:00 | |
| DO3MHA-11 | 2026-09-02 10:43:48 | 49.41023 | 13.43283 | 77° | 33km/h | 2303m | -4.5m/s | 0°C | 0% | 0hPa | 4.5V | 00:00:00 | 00:00:00 | 00:00:00 | |
| OE5MMP-10 | 2026-09-02 10:43:45 | 49.41019 | 13.43259 | 76° | 31km/h | 2312m | -4.1m/s | 0°C | 0% | 0hPa | 4.5V | 00:00:00 | 00:00:00 | 00:00:00 | |
| DO3MHA-11 | 2026-09-02 10:43:42 | 49.41010 | 13.43221 | 76° | 31km/h | 2330m | -4.4m/s | 0°C | 0% | 0hPa | 4.5V | 00:00:00 | 00:00:00 | 00:00:00 | |
| DO3MHA-11 | 2026-09-02 10:43:36 | 49.40997 | 13.43152 | 74° | 31km/h | 2356m | -4.3m/s | 0°C | 0% | 0hPa | 4.5V | 00:00:00 | 00:00:00 | 00:00:00 | |
| OE5MMP-10 | 2026-09-02 10:43:35 | 49.40998 | 13.43141 | 73° | 31km/h | 2356m | -4.4m/s | 0°C | 0% | 0hPa | 4.5V | 00:00:00 | 00:00:00 | 00:00:00 | |
| DO3MHA-11 | 2026-09-02 10:43:31 | 49.40985 | 13.43094 | 70° | 29km/h | 2378m | -4.1m/s | 0°C | 0% | 0hPa | 4.5V | 00:00:00 | 00:00:00 | 00:00:00 | |
| OE5MMP-10 | 2026-09-02 10:43:25 | 49.40969 | 13.43028 | 70° | 29km/h | 2402m | -3.9m/s | 0°C | 0% | 0hPa | 4.5V | 00:00:00 | 00:00:00 | 00:00:00 | |
| DO3MHA-11 | 2026-09-02 10:43:19 | 49.40955 | 13.42962 | 68° | 29km/h | 2423m | -4.2m/s | 0°C | 0% | 0hPa | 4.5V | 00:00:00 | 00:00:00 | 00:00:00 | |
| DO3MHA-11 | 2026-09-02 10:43:15 | 49.40938 | 13.42912 | 65° | 27km/h | 2448m | -4.1m/s | 0°C | 0% | 0hPa | 4.5V | 00:00:00 | 00:00:00 | 00:00:00 | |
| OE5MMP-10 | 2026-09-02 10:43:14 | 49.40938 | 13.42912 | 65° | 27km/h | 2448m | -4.1m/s | 0°C | 0% | 0hPa | 4.5V | 00:00:00 | 00:00:00 | 00:00:00 | |
| DO3MHA-11 | 2026-09-02 10:43:09 | 49.40927 | 13.42862 | 65° | 27km/h | 2465m | -4.0m/s | 0°C | 0% | 0hPa | 4.5V | 00:00:00 | 00:00:00 | 00:00:00 | |
| OE5MMP-10 | 2026-09-02 10:43:04 | 49.40908 | 13.42807 | 65° | 27km/h | 2489m | -4.1m/s | 0°C | 0% | 0hPa | 4.5V | 00:00:00 | 00:00:00 | 00:00:00 | |
| DO3MHA-11 | 2026-09-02 10:43:03 | 49.40905 | 13.42806 | 67° | 27km/h | 2494m | -4.1m/s | 0°C | 0% | 0hPa | 4.5V | 00:00:00 | 00:00:00 | 00:00:00 | |
| DO3MHA-11 | 2026-09-02 10:42:57 | 49.40886 | 13.42748 | 59° | 27km/h | 2518m | -4.1m/s | 0°C | 0% | 0hPa | 4.5V | 00:00:00 | 00:00:00 | 00:00:00 | |
| OE5MMP-10 | 2026-09-02 10:42:52 | 49.40873 | 13.42703 | 63° | 27km/h | 2534m | -4.2m/s | 0°C | 0% | 0hPa | 4.5V | 00:00:00 | 00:00:00 | 00:00:00 | |
| DO3MHA-11 | 2026-09-02 10:42:51 | 49.40869 | 13.42693 | 61° | 27km/h | 2538m | -4.0m/s | 0°C | 0% | 0hPa | 4.5V | 00:00:00 | 00:00:00 | 00:00:00 | |
| DO3MHA-11 | 2026-09-02 10:42:46 | 49.40848 | 13.42648 | 56° | 27km/h | 2563m | -4.1m/s | 0°C | 0% | 0hPa | 4.5V | 00:00:00 | 00:00:00 | 00:00:00 | |
| OE5MMP-10 | 2026-09-02 10:42:42 | 49.40832 | 13.42614 | 55° | 26km/h | 2580m | -4.1m/s | 0°C | 0% | 0hPa | 4.5V | 00:00:00 | 00:00:00 | 00:00:00 | |
| DO3MHA-11 | 2026-09-02 10:42:40 | 49.40824 | 13.42596 | 56° | 26km/h | 2589m | -4.1m/s | 0°C | 0% | 0hPa | 4.5V | 00:00:00 | 00:00:00 | 00:00:00 | |
| DO3MHA-11 | 2026-09-02 10:42:35 | 49.40805 | 13.42557 | 51° | 24km/h | 2609m | -4.1m/s | 0°C | 0% | 0hPa | 4.5V | 00:00:00 | 00:00:00 | 00:00:00 | |
| OE5MMP-10 | 2026-09-02 10:42:31 | 49.40790 | 13.42527 | 57° | 24km/h | 2626m | -4.0m/s | 0°C | 0% | 0hPa | 4.5V | 00:00:00 | 00:00:00 | 00:00:00 | |
| DO3MHA-11 | 2026-09-02 10:42:29 | 49.40784 | 13.42510 | 58° | 24km/h | 2634m | -4.1m/s | 0°C | 0% | 0hPa | 4.5V | 00:00:00 | 00:00:00 | 00:00:00 | |
| NBG1-10 | 2026-09-02 10:42:27 | 49.40777 | 13.42495 | 57° | 24km/h | 2650m | -4.0m/s | 0°C | 0% | 0hPa | 4.5V | 00:00:00 | 00:00:00 | 00:00:00 | |
| DO3MHA-11 | 2026-09-02 10:42:23 | 49.40764 | 13.42466 | 57° | 24km/h | 2659m | -4.2m/s | 0°C | 0% | 0hPa | 4.5V | 00:00:00 | 00:00:00 | 00:00:00 | |
| OE5MMP-10 | 2026-09-02 10:42:20 | 49.40754 | 13.42443 | 58° | 24km/h | 2671m | -4.3m/s | 0°C | 0% | 0hPa | 4.5V | 00:00:00 | 00:00:00 | 00:00:00 | |
| DO3MHA-11 | 2026-09-02 10:42:18 | 49.40748 | 13.42428 | 60° | 24km/h | 2679m | -4.2m/s | 0°C | 0% | 0hPa | 4.5V | 00:00:00 | 00:00:00 | 00:00:00 | |
| OE5MMP-10 | 2026-09-02 10:42:09 | 49.40723 | 13.42354 | 57° | 24km/h | 2713m | -4.2m/s | 0°C | 0% | 0hPa | 4.5V | 00:00:00 | 00:00:00 | 00:00:00 | |
| DO3MHA-11 | 2026-09-02 10:42:07 | 49.40713 | 13.42338 | 56° | 24km/h | 2725m | -4.3m/s | 0°C | 0% | 0hPa | 4.5V | 00:00:00 | 00:00:00 | 00:00:00 | |
| NBG1-10 | 2026-09-02 10:42:03 | 49.40699 | 13.42307 | 58° | 22km/h | 2742m | -4.2m/s | 0°C | 0% | 0hPa | 4.5V | 00:00:00 | 00:00:00 | 00:00:00 | |
| DO3MHA-11 | 2026-09-02 10:42:01 | 49.40693 | 13.42292 | 56° | 22km/h | 2751m | -4.2m/s | 0°C | 0% | 0hPa | 4.5V | 00:00:00 | 00:00:00 | 00:00:00 | |
| OE5MMP-10 | 2026-09-02 10:41:59 | 49.40686 | 13.42277 | 57° | 22km/h | 2759m | -4.2m/s | 0°C | 0% | 0hPa | 4.5V | 00:00:00 | 00:00:00 | 00:00:00 | |
| DO3MHA-11 | 2026-09-02 10:41:55 | 49.40677 | 13.42248 | 56° | 22km/h | 2771m | -4.0m/s | 0°C | 0% | 0hPa | 4.5V | 00:00:00 | 00:00:00 | 00:00:00 | |
| DO3MHA-11 | 2026-09-02 10:41:50 | 49.40658 | 13.42212 | 56° | 24km/h | 2796m | -3.9m/s | 0°C | 0% | 0hPa | 4.5V | 00:00:00 | 00:00:00 | 00:00:00 | |
| OE5MMP-10 | 2026-09-02 10:41:48 | 49.40651 | 13.42198 | 56° | 22km/h | 2804m | -4.1m/s | 0°C | 0% | 0hPa | 4.5V | 00:00:00 | 00:00:00 | 00:00:00 | |
| DO3MHA-11 | 2026-09-02 10:41:44 | 49.40639 | 13.42169 | 59° | 22km/h | 2820m | -4.0m/s | 0°C | 0% | 0hPa | 4.5V | 00:00:00 | 00:00:00 | 00:00:00 | |
| NBG1-10 | 2026-09-02 10:41:41 | 49.40636 | 13.42147 | 57° | 24km/h | 2829m | -4.1m/s | 0°C | 0% | 0hPa | 4.5V | 00:00:00 | 00:00:00 | 00:00:00 | |
| OE3JTB-15 | 2026-09-02 10:41:40 | 49.40630 | 13.42142 | 57° | 24km/h | 2853m | -4.0m/s | 0°C | 0% | 0hPa | 4.5V | 00:00:00 | 00:00:00 | 00:00:00 | |
| DO3MHA-11 | 2026-09-02 10:41:39 | 49.40623 | 13.42132 | 56° | 24km/h | 2841m | -4.0m/s | 0°C | 0% | 0hPa | 4.5V | 00:00:00 | 00:00:00 | 00:00:00 | |
| OE5MMP-10 | 2026-09-02 10:41:37 | 49.40617 | 13.42118 | 59° | 24km/h | 2849m | -4.0m/s | 0°C | 0% | 0hPa | 4.5V | 00:00:00 | 00:00:00 | 00:00:00 | |
| DO3MHA-11 | 2026-09-02 10:41:33 | 49.40603 | 13.42086 | 57° | 24km/h | 2865m | -4.0m/s | 0°C | 0% | 0hPa | 4.5V | 00:00:00 | 00:00:00 | 00:00:00 | |
| DO3MHA-11 | 2026-09-02 10:41:27 | 49.40585 | 13.42041 | 59° | 22km/h | 2890m | -4.1m/s | 0°C | 0% | 0hPa | 4.5V | 00:00:00 | 00:00:00 | 00:00:00 | |
| DO3MHA-11 | 2026-09-02 10:41:22 | 49.40570 | 13.42004 | 60° | 22km/h | 2910m | -4.0m/s | 0°C | 0% | 0hPa | 4.5V | 00:00:00 | 00:00:00 | 00:00:00 | |
| OE3JTB-15 | 2026-09-02 10:41:20 | 49.40564 | 13.41989 | 58° | 24km/h | 2918m | -3.9m/s | 0°C | 0% | 0hPa | 4.5V | 00:00:00 | 00:00:00 | 00:00:00 | |
| NBG1-10 | 2026-09-02 10:41:19 | 49.40556 | 13.41982 | 58° | 24km/h | 2918m | -4.0m/s | 0°C | 0% | 0hPa | 4.5V | 00:00:00 | 00:00:00 | 00:00:00 | |
| OE5MMP-10 | 2026-09-02 10:41:17 | 49.40558 | 13.41967 | 57° | 22km/h | 2926m | -4.0m/s | 0°C | 0% | 0hPa | 4.5V | 00:00:00 | 00:00:00 | 00:00:00 | |
| DO3MHA-11 | 2026-09-02 10:41:16 | 49.40552 | 13.41960 | 60° | 22km/h | 2933m | -3.9m/s | 0°C | 0% | 0hPa | 4.5V | 00:00:00 | 00:00:00 | 00:00:00 | |
| DO3MHA-11 | 2026-09-02 10:41:11 | 49.40536 | 13.41923 | 54° | 24km/h | 2954m | -3.9m/s | 0°C | 0% | 0hPa | 4.5V | 00:00:00 | 00:00:00 | 00:00:00 | |
| OE5MMP-10 | 2026-09-02 10:41:07 | 49.40524 | 13.41892 | 60° | 26km/h | 2969m | -3.9m/s | 0°C | 0% | 0hPa | 4.5V | 00:00:00 | 00:00:00 | 00:00:00 | |
| DO3MHA-11 | 2026-09-02 10:41:05 | 49.40517 | 13.41876 | 55° | 26km/h | 2977m | -4.0m/s | 0°C | 0% | 0hPa | 4.5V | 00:00:00 | 00:00:00 | 00:00:00 | |
| OE3JTB-15 | 2026-09-02 10:41:00 | 49.40501 | 13.41837 | 55° | 26km/h | 2993m | -4.0m/s | 0°C | 0% | 0hPa | 4.5V | 00:00:00 | 00:00:00 | 00:00:00 | |
| DO3MHA-11 | 2026-09-02 10:40:59 | 49.40497 | 13.41830 | 55° | 24km/h | 2997m | -4.0m/s | 0°C | 0% | 0hPa | 4.5V | 00:00:00 | 00:00:00 | 00:00:00 | |
| OE5MMP-10 | 2026-09-02 10:40:57 | 49.40492 | 13.41813 | 63° | 27km/h | 3006m | -4.1m/s | 0°C | 0% | 0hPa | 4.5V | 00:00:00 | 00:00:00 | 00:00:00 | |
| DO3MHA-11 | 2026-09-02 10:40:55 | 49.40477 | 13.41789 | 52° | 26km/h | 3021m | -3.9m/s | 0°C | 0% | 0hPa | 4.5V | 00:00:00 | 00:00:00 | 00:00:00 | |
| DO3MHA-11 | 2026-09-02 10:40:48 | 49.40453 | 13.41742 | 59° | 27km/h | 3045m | -3.9m/s | 0°C | 0% | 0hPa | 4.5V | 00:00:00 | 00:00:00 | 00:00:00 | |
| OE5MMP-10 | 2026-09-02 10:40:44 | 49.40441 | 13.41709 | 44° | 24km/h | 3057m | -3.9m/s | 0°C | 0% | 0hPa | 4.5V | 00:00:00 | 00:00:00 | 00:00:00 | |
| DO3MHA-11 | 2026-09-02 10:40:43 | 49.40432 | 13.41704 | 55° | 27km/h | 3065m | -3.9m/s | 0°C | 0% | 0hPa | 4.5V | 00:00:00 | 00:00:00 | 00:00:00 | |
| OE3JTB-15 | 2026-09-02 10:40:41 | 49.40427 | 13.41687 | 65° | 27km/h | 3073m | -3.7m/s | 0°C | 0% | 0hPa | 4.5V | 00:00:00 | 00:00:00 | 00:00:00 | |
| DO3MHA-11 | 2026-09-02 10:40:37 | 49.40406 | 13.41653 | 41° | 27km/h | 3089m | -3.8m/s | 0°C | 0% | 0hPa | 4.5V | 00:00:00 | 00:00:00 | 00:00:00 | |
| NBG1-10 | 2026-09-02 10:40:35 | 49.40402 | 13.41642 | 78° | 26km/h | 3106m | -4.0m/s | 0°C | 0% | 0hPa | 4.5V | 00:00:00 | 00:00:00 | 00:00:00 | |
| OE5MMP-10 | 2026-09-02 10:40:34 | 49.40402 | 13.41634 | 79° | 31km/h | 3097m | -3.9m/s | 0°C | 0% | 0hPa | 4.5V | 00:00:00 | 00:00:00 | 00:00:00 | |
| DO3MHA-11 | 2026-09-02 10:40:31 | 49.40397 | 13.41598 | 58° | 37km/h | 3110m | -4.4m/s | 0°C | 0% | 0hPa | 4.5V | 00:00:00 | 00:00:00 | 00:00:00 | |
| DO3MHA-11 | 2026-09-02 10:40:26 | 49.40361 | 13.41558 | 46° | 24km/h | 3135m | -3.9m/s | 0°C | 0% | 0hPa | 4.5V | 00:00:00 | 00:00:00 | 00:00:00 | |
| OE5MMP-10 | 2026-09-02 10:40:24 | 49.40358 | 13.41547 | 79° | 24km/h | 3143m | -3.9m/s | 0°C | 0% | 0hPa | 4.5V | 00:00:00 | 00:00:00 | 00:00:00 | |
| DO3MHA-11 | 2026-09-02 10:40:21 | 49.40355 | 13.41514 | 56° | 24km/h | 3151m | -3.9m/s | 0°C | 0% | 0hPa | 4.5V | 00:00:00 | 00:00:00 | 00:00:00 | |
| DO3MHA-11 | 2026-09-02 10:40:15 | 49.40325 | 13.41475 | 79° | 31km/h | 3180m | -4.0m/s | 0°C | 0% | 0hPa | 4.5V | 00:00:00 | 00:00:00 | 00:00:00 | |
| OE5MMP-10 | 2026-09-02 10:40:13 | 49.40321 | 13.41453 | 70° | 27km/h | 3188m | -3.9m/s | 0°C | 0% | 0hPa | 4.5V | 00:00:00 | 00:00:00 | 00:00:00 | |
| OE3JTB-15 | 2026-09-02 10:40:11 | 49.40312 | 13.41428 | 54° | 29km/h | 3197m | -4.4m/s | 0°C | 0% | 0hPa | 4.5V | 00:00:00 | 00:00:00 | 00:00:00 | |
| DO3MHA-11 | 2026-09-02 10:40:09 | 49.40301 | 13.41410 | 35° | 24km/h | 3205m | -3.8m/s | 0°C | 0% | 0hPa | 4.5V | 00:00:00 | 00:00:00 | 00:00:00 | |
| DO3MHA-11 | 2026-09-02 10:40:03 | 49.40290 | 13.41365 | 76° | 35km/h | 3227m | -4.3m/s | 0°C | 0% | 0hPa | 4.5V | 00:00:00 | 00:00:00 | 00:00:00 | |
| DO3MHA-11 | 2026-09-02 10:39:58 | 49.40263 | 13.41317 | 43° | 24km/h | 3250m | -4.0m/s | 0°C | 0% | 0hPa | 4.5V | 00:00:00 | 00:00:00 | 00:00:00 | |
| DB0NH | 2026-09-02 10:39:57 | 49.40261 | 13.41312 | 66° | 29km/h | 3250m | -4.1m/s | 0°C | 0% | 0hPa | 4.5V | 00:00:00 | 00:00:00 | 00:00:00 | |
| DO3MHA-11 | 2026-09-02 10:39:52 | 49.40247 | 13.41262 | 51° | 26km/h | 3275m | -4.0m/s | 0°C | 0% | 0hPa | 4.5V | 00:00:00 | 00:00:00 | 00:00:00 | |
| OE5MMP-10 | 2026-09-02 10:39:51 | 49.40246 | 13.41253 | 40° | 26km/h | 3275m | -4.1m/s | 0°C | 0% | 0hPa | 4.5V | 00:00:00 | 00:00:00 | 00:00:00 | |
| DO3MHA-11 | 2026-09-02 10:39:47 | 49.40227 | 13.41228 | 81° | 31km/h | 3295m | -4.0m/s | 0°C | 0% | 0hPa | 4.5V | 00:00:00 | 00:00:00 | 00:00:00 | |
| NBG1-10 | 2026-09-02 10:39:43 | 49.40215 | 13.41182 | 48° | 29km/h | 3312m | -4.1m/s | 0°C | 0% | 0hPa | 4.5V | 00:00:00 | 00:00:00 | 00:00:00 | |
| OE5MMP-10 | 2026-09-02 10:39:41 | 49.40204 | 13.41167 | 45° | 29km/h | 3320m | -4.0m/s | 0°C | 0% | 0hPa | 4.5V | 00:00:00 | 00:00:00 | 00:00:00 | |
| DO3MHA-11 | 2026-09-02 10:39:35 | 49.40195 | 13.41108 | 55° | 31km/h | 3342m | -4.0m/s | 0°C | 0% | 0hPa | 4.5V | 00:00:00 | 00:00:00 | 00:00:00 | |
| OE5MMP-10 | 2026-09-02 10:39:30 | 49.40170 | 13.41070 | 84° | 27km/h | 3368m | -4.0m/s | 0°C | 0% | 0hPa | 4.5V | 00:00:00 | 00:00:00 | 00:00:00 | |
| DO3MHA-11 | 2026-09-02 10:39:24 | 49.40149 | 13.41003 | 49° | 24km/h | 3393m | -4.0m/s | 0°C | 0% | 0hPa | 4.5V | 00:00:00 | 00:00:00 | 00:00:00 | |
| DB0NH | 2026-09-02 10:39:23 | 49.40147 | 13.40997 | 72° | 27km/h | 3393m | -4.1m/s | 0°C | 0% | 0hPa | 4.5V | 00:00:00 | 00:00:00 | 00:00:00 | |
| OE5DRO-10 | 2026-09-02 10:39:22 | 49.40145 | 13.40993 | 86° | 29km/h | 3401m | -4.1m/s | 0°C | 0% | 0hPa | 4.5V | 00:00:00 | 00:00:00 | 00:00:00 | |
| DO3MHA-11 | 2026-09-02 10:39:19 | 49.40142 | 13.40957 | 71° | 27km/h | 3414m | -4.1m/s | 0°C | 0% | 0hPa | 4.5V | 00:00:00 | 00:00:00 | 00:00:00 | |
| DO3MHA-11 | 2026-09-02 10:39:13 | 49.40125 | 13.40903 | 90° | 31km/h | 3439m | -4.1m/s | 0°C | 0% | 0hPa | 4.5V | 00:00:00 | 00:00:00 | 00:00:00 | |
| OE3JTB-15 | 2026-09-02 10:39:11 | 49.40122 | 13.40878 | 74° | 33km/h | 3472m | -4.2m/s | 0°C | 0% | 0hPa | 4.5V | 00:00:00 | 00:00:00 | 00:00:00 | |
| NBG1-10 | 2026-09-02 10:39:09 | 49.40114 | 13.40853 | 53° | 33km/h | 3456m | -4.0m/s | 0°C | 0% | 0hPa | 4.5V | 00:00:00 | 00:00:00 | 00:00:00 | |
| OE5MMP-10 | 2026-09-02 10:39:08 | 49.40112 | 13.40845 | 50° | 27km/h | 3456m | -4.0m/s | 0°C | 0% | 0hPa | 4.5V | 00:00:00 | 00:00:00 | 00:00:00 | |
| OE5DRO-10 | 2026-09-02 10:39:06 | 49.40105 | 13.40830 | 85° | 31km/h | 3464m | -4.0m/s | 0°C | 0% | 0hPa | 4.5V | 00:00:00 | 00:00:00 | 00:00:00 | |
| DO3MHA-11 | 2026-09-02 10:39:02 | 49.40098 | 13.40779 | 62° | 29km/h | 3485m | -4.1m/s | 0°C | 0% | 0hPa | 4.5V | 00:00:00 | 00:00:00 | 00:00:00 | |
| OE5MMP-10 | 2026-09-02 10:38:58 | 49.40083 | 13.40742 | 82° | 35km/h | 3502m | -4.0m/s | 0°C | 0% | 0hPa | 4.5V | 00:00:00 | 00:00:00 | 00:00:00 | |
| DO3MHA-11 | 2026-09-02 10:38:56 | 49.40081 | 13.40718 | 80° | 38km/h | 3511m | -4.0m/s | 0°C | 0% | 0hPa | 4.5V | 00:00:00 | 00:00:00 | 00:00:00 | |
| DB0NH | 2026-09-02 10:38:53 | 49.40073 | 13.40677 | 50° | 35km/h | 3519m | -4.1m/s | 0°C | 0% | 0hPa | 4.5V | 00:00:00 | 00:00:00 | 00:00:00 | |
| DO3MHA-11 | 2026-09-02 10:38:51 | 49.40058 | 13.40660 | 61° | 33km/h | 3531m | -4.3m/s | 0°C | 0% | 0hPa | 4.5V | 00:00:00 | 00:00:00 | 00:00:00 | |
| OE5DRO-10 | 2026-09-02 10:38:50 | 49.40056 | 13.40653 | 76° | 35km/h | 3535m | -4.0m/s | 0°C | 0% | 0hPa | 4.5V | 00:00:00 | 00:00:00 | 00:00:00 | |
| OE5MMP-10 | 2026-09-02 10:38:47 | 49.40049 | 13.40610 | 68° | 38km/h | 3548m | -4.3m/s | 0°C | 0% | 0hPa | 4.5V | 00:00:00 | 00:00:00 | 00:00:00 | |
| DO3MHA-11 | 2026-09-02 10:38:45 | 49.40039 | 13.40583 | 52° | 33km/h | 3556m | -3.9m/s | 0°C | 0% | 0hPa | 4.5V | 00:00:00 | 00:00:00 | 00:00:00 | |
| OE3JTB-15 | 2026-09-02 10:38:41 | 49.40028 | 13.40544 | 84° | 35km/h | 3573m | -4.2m/s | 0°C | 0% | 0hPa | 4.5V | 00:00:00 | 00:00:00 | 00:00:00 | |
| DO3MHA-11 | 2026-09-02 10:38:39 | 49.40028 | 13.40512 | 68° | 38km/h | 3577m | -4.1m/s | 0°C | 0% | 0hPa | 4.5V | 00:00:00 | 00:00:00 | 00:00:00 | |
| OE5MMP-10 | 2026-09-02 10:38:36 | 49.40008 | 13.40475 | 53° | 31km/h | 3595m | -4.3m/s | 0°C | 0% | 0hPa | 4.5V | 00:00:00 | 00:00:00 | 00:00:00 | |
| DO3MHA-11 | 2026-09-02 10:38:34 | 49.40003 | 13.40458 | 84° | 37km/h | 3604m | -4.3m/s | 0°C | 0% | 0hPa | 4.5V | 00:00:00 | 00:00:00 | 00:00:00 | |
| OE5MMP-10 | 2026-09-02 10:38:25 | 49.39978 | 13.40349 | 88° | 35km/h | 3639m | -4.2m/s | 0°C | 0% | 0hPa | 4.5V | 00:00:00 | 00:00:00 | 00:00:00 | |
| DO3MHA-11 | 2026-09-02 10:38:23 | 49.39975 | 13.40318 | 74° | 37km/h | 3652m | -4.5m/s | 0°C | 0% | 0hPa | 4.5V | 00:00:00 | 00:00:00 | 00:00:00 | |
| DO3MHA-11 | 2026-09-02 10:38:17 | 49.39950 | 13.40251 | 85° | 38km/h | 3678m | -4.4m/s | 0°C | 0% | 0hPa | 4.5V | 00:00:00 | 00:00:00 | 00:00:00 | |
| OE5MMP-10 | 2026-09-02 10:38:15 | 49.39948 | 13.40224 | 79° | 35km/h | 3687m | -4.3m/s | 0°C | 0% | 0hPa | 4.5V | 00:00:00 | 00:00:00 | 00:00:00 | |
| OE3JTB-15 | 2026-09-02 10:38:13 | 49.39940 | 13.40180 | 60° | 35km/h | 3696m | -4.3m/s | 0°C | 0% | 0hPa | 4.5V | 00:00:00 | 00:00:00 | 00:00:00 | |
| DO3MHA-11 | 2026-09-02 10:38:11 | 49.39933 | 13.40170 | 52° | 27km/h | 3701m | -4.2m/s | 0°C | 0% | 0hPa | 4.5V | 00:00:00 | 00:00:00 | 00:00:00 | |
| DO3MHA-11 | 2026-09-02 10:38:06 | 49.39917 | 13.40112 | 70° | 37km/h | 3728m | -4.3m/s | 0°C | 0% | 0hPa | 4.5V | 00:00:00 | 00:00:00 | 00:00:00 | |
| OE5MMP-10 | 2026-09-02 10:38:04 | 49.39906 | 13.40084 | 52° | 37km/h | 3737m | -4.3m/s | 0°C | 0% | 0hPa | 4.5V | 00:00:00 | 00:00:00 | 00:00:00 | |
| NBG1-10 | 2026-09-02 10:38:02 | 49.39897 | 13.40065 | 60° | 35km/h | 3745m | -4.1m/s | 0°C | 0% | 0hPa | 4.5V | 00:00:00 | 00:00:00 | 00:00:00 | |
| DO3MHA-11 | 2026-09-02 10:38:00 | 49.39893 | 13.40044 | 83° | 40km/h | 3755m | -4.4m/s | 0°C | 0% | 0hPa | 4.5V | 00:00:00 | 00:00:00 | 00:00:00 | |
| DO3MHA-11 | 2026-09-02 10:37:55 | 49.39872 | 13.39976 | 50° | 33km/h | 3777m | -4.4m/s | 0°C | 0% | 0hPa | 4.5V | 00:00:00 | 00:00:00 | 00:00:00 | |
| OE5MMP-10 | 2026-09-02 10:37:53 | 49.39866 | 13.39958 | 76° | 33km/h | 3786m | -4.3m/s | 0°C | 0% | 0hPa | 4.5V | 00:00:00 | 00:00:00 | 00:00:00 | |
| DO3MHA-11 | 2026-09-02 10:37:49 | 49.39857 | 13.39902 | 63° | 33km/h | 3803m | -4.2m/s | 0°C | 0% | 0hPa | 4.5V | 00:00:00 | 00:00:00 | 00:00:00 | |
| OE5DRO-10 | 2026-09-02 10:37:43 | 49.39839 | 13.39832 | 83° | 35km/h | 3830m | -4.5m/s | 0°C | 0% | 0hPa | 4.5V | 00:00:00 | 00:00:00 | 00:00:00 | |
| DO3MHA-11 | 2026-09-02 10:37:38 | 49.39822 | 13.39767 | 73° | 35km/h | 3852m | -4.4m/s | 0°C | 0% | 0hPa | 4.5V | 00:00:00 | 00:00:00 | 00:00:00 | |
| OE5MMP-10 | 2026-09-02 10:37:33 | 49.39816 | 13.39698 | 65° | 35km/h | 3870m | -4.3m/s | 0°C | 0% | 0hPa | 4.5V | 00:00:00 | 00:00:00 | 00:00:00 | |
| NBG1-10 | 2026-09-02 10:37:28 | 49.39803 | 13.39638 | 90° | 35km/h | 3892m | -4.5m/s | 0°C | 0% | 0hPa | 4.5V | 00:00:00 | 00:00:00 | 00:00:00 | |
| DO3MHA-11 | 2026-09-02 10:37:27 | 49.39802 | 13.39625 | 86° | 31km/h | 3901m | -4.4m/s | 0°C | 0% | 0hPa | 4.5V | 00:00:00 | 00:00:00 | 00:00:00 | |
| OE5DRO-10 | 2026-09-02 10:37:26 | 49.39801 | 13.39612 | 82° | 31km/h | 3906m | -4.6m/s | 0°C | 0% | 0hPa | 4.5V | 00:00:00 | 00:00:00 | 00:00:00 | |
| OE5MMP-10 | 2026-09-02 10:37:23 | 49.39797 | 13.39578 | 82° | 38km/h | 3920m | -4.5m/s | 0°C | 0% | 0hPa | 4.5V | 00:00:00 | 00:00:00 | 00:00:00 | |
| DO3MHA-11 | 2026-09-02 10:37:21 | 49.39796 | 13.39557 | 90° | 38km/h | 3929m | -4.5m/s | 0°C | 0% | 0hPa | 4.5V | 00:00:00 | 00:00:00 | 00:00:00 | |
| DO3MHA-11 | 2026-09-02 10:37:16 | 49.39798 | 13.39470 | 72° | 38km/h | 3953m | -4.4m/s | 0°C | 0% | 0hPa | 4.5V | 00:00:00 | 00:00:00 | 00:00:00 | |
| OE3JTB-15 | 2026-09-02 10:37:15 | 49.39794 | 13.39452 | 72° | 35km/h | 3962m | -4.5m/s | 0°C | 0% | 0hPa | 4.5V | 00:00:00 | 00:00:00 | 00:00:00 | |
| OE5MMP-10 | 2026-09-02 10:37:13 | 49.39790 | 13.39442 | 64° | 37km/h | 3962m | -4.5m/s | 0°C | 0% | 0hPa | 4.5V | 00:00:00 | 00:00:00 | 00:00:00 | |
| DO3MHA-11 | 2026-09-02 10:37:10 | 49.39778 | 13.39413 | 89° | 37km/h | 3982m | -4.8m/s | 0°C | 0% | 0hPa | 4.5V | 00:00:00 | 00:00:00 | 00:00:00 | |
| DO3MHA-11 | 2026-09-02 10:37:04 | 49.39773 | 13.39325 | 65° | 29km/h | 4011m | -4.5m/s | 0°C | 0% | 0hPa | 4.5V | 00:00:00 | 00:00:00 | 00:00:00 | |
| OE5MMP-10 | 2026-09-02 10:37:03 | 49.39772 | 13.39312 | 60° | 33km/h | 4011m | -4.6m/s | 0°C | 0% | 0hPa | 4.5V | 00:00:00 | 00:00:00 | 00:00:00 | |
| DO3MHA-11 | 2026-09-02 10:36:59 | 49.39763 | 13.39273 | 101° | 40km/h | 4035m | -4.8m/s | 0°C | 0% | 0hPa | 4.5V | 00:00:00 | 00:00:00 | 00:00:00 | |
| NBG1-10 | 2026-09-02 10:36:55 | 49.39763 | 13.39210 | 76° | 37km/h | 4054m | -4.6m/s | 0°C | 0% | 0hPa | 4.5V | 00:00:00 | 00:00:00 | 00:00:00 | |
| OE5DRO-10 | 2026-09-02 10:36:54 | 49.39760 | 13.39191 | 69° | 35km/h | 4058m | -4.8m/s | 0°C | 0% | 0hPa | 4.5V | 00:00:00 | 00:00:00 | 00:00:00 | |
| OE5MMP-10 | 2026-09-02 10:36:53 | 49.39756 | 13.39180 | 62° | 35km/h | 4063m | -4.8m/s | 0°C | 0% | 0hPa | 4.5V | 00:00:00 | 00:00:00 | 00:00:00 | |
| DO3MHA-11 | 2026-09-02 10:36:47 | 49.39751 | 13.39112 | 101° | 42km/h | 4087m | -4.9m/s | 0°C | 0% | 0hPa | 4.5V | 00:00:00 | 00:00:00 | 00:00:00 | |
| OE3JTB-15 | 2026-09-02 10:36:45 | 49.39750 | 13.39058 | 77° | 38km/h | 4102m | -4.7m/s | 0°C | 0% | 0hPa | 4.5V | 00:00:00 | 00:00:00 | 00:00:00 | |
| OE5MMP-10 | 2026-09-02 10:36:44 | 49.39744 | 13.39047 | 63° | 40km/h | 4106m | -4.7m/s | 0°C | 0% | 0hPa | 4.5V | 00:00:00 | 00:00:00 | 00:00:00 | |
| DO3MHA-11 | 2026-09-02 10:36:42 | 49.39740 | 13.39036 | 66° | 31km/h | 4116m | -4.5m/s | 0°C | 0% | 0hPa | 4.5V | 00:00:00 | 00:00:00 | 00:00:00 | |
| OE5DRO-10 | 2026-09-02 10:36:38 | 49.39740 | 13.38993 | 101° | 38km/h | 4135m | -4.6m/s | 0°C | 0% | 0hPa | 4.5V | 00:00:00 | 00:00:00 | 00:00:00 | |
| DO3MHA-11 | 2026-09-02 10:36:36 | 49.39742 | 13.38960 | 87° | 42km/h | 4145m | -4.7m/s | 0°C | 0% | 0hPa | 4.5V | 00:00:00 | 00:00:00 | 00:00:00 | |
| DO3MHA-11 | 2026-09-02 10:36:31 | 49.39725 | 13.38887 | 65° | 33km/h | 4169m | -4.7m/s | 0°C | 0% | 0hPa | 4.5V | 00:00:00 | 00:00:00 | 00:00:00 | |
| OE5MMP-10 | 2026-09-02 10:36:27 | 49.39724 | 13.38840 | 93° | 35km/h | 4197m | -4.5m/s | 0°C | 0% | 0hPa | 4.5V | 00:00:00 | 00:00:00 | 00:00:00 | |
| DO3MHA-11 | 2026-09-02 10:36:25 | 49.39723 | 13.38805 | 78° | 35km/h | 4197m | -4.6m/s | 0°C | 0% | 0hPa | 4.5V | 00:00:00 | 00:00:00 | 00:00:00 | |
| DB0NH | 2026-09-02 10:36:22 | 49.39713 | 13.38760 | 56° | 38km/h | 4208m | -4.5m/s | 0°C | 0% | 0hPa | 4.5V | 00:00:00 | 00:00:00 | 00:00:00 | |
| NBG1-10 | 2026-09-02 10:36:21 | 49.39705 | 13.38749 | 58° | 38km/h | 4217m | -4.5m/s | 0°C | 0% | 0hPa | 4.5V | 00:00:00 | 00:00:00 | 00:00:00 | |
| DO3MHA-11 | 2026-09-02 10:36:19 | 49.39701 | 13.38731 | 87° | 33km/h | 4221m | -4.5m/s | 0°C | 0% | 0hPa | 4.5V | 00:00:00 | 00:00:00 | 00:00:00 | |
| OE5MMP-10 | 2026-09-02 10:36:17 | 49.39701 | 13.38706 | 93° | 35km/h | 4231m | -4.7m/s | 0°C | 0% | 0hPa | 4.5V | 00:00:00 | 00:00:00 | 00:00:00 | |
| DO3MHA-11 | 2026-09-02 10:36:15 | 49.39694 | 13.38655 | 67° | 37km/h | 4249m | -4.7m/s | 0°C | 0% | 0hPa | 4.5V | 00:00:00 | 00:00:00 | 00:00:00 | |
| DO3MHA-11 | 2026-09-02 10:36:09 | 49.39675 | 13.38583 | 92° | 46km/h | 4278m | -4.8m/s | 0°C | 0% | 0hPa | 4.5V | 00:00:00 | 00:00:00 | 00:00:00 | |
| OE5MMP-10 | 2026-09-02 10:36:07 | 49.39675 | 13.38568 | 91° | 44km/h | 4278m | -4.5m/s | 0°C | 0% | 0hPa | 4.5V | 00:00:00 | 00:00:00 | 00:00:00 | |
| OE5DRO-10 | 2026-09-02 10:36:04 | 49.39669 | 13.38509 | 71° | 40km/h | 4296m | -4.4m/s | 0°C | 0% | 0hPa | 4.5V | 00:00:00 | 00:00:00 | 00:00:00 | |
| DO3MHA-11 | 2026-09-02 10:36:03 | 49.39664 | 13.38494 | 64° | 37km/h | 4301m | -4.4m/s | 0°C | 0% | 0hPa | 4.5V | 00:00:00 | 00:00:00 | 00:00:00 | |
| DO3MHA-11 | 2026-09-02 10:35:57 | 49.39652 | 13.38417 | 94° | 47km/h | 4328m | -4.5m/s | 0°C | 0% | 0hPa | 4.5V | 00:00:00 | 00:00:00 | 00:00:00 | |
| OE5DXL-15 | 2026-09-02 10:35:52 | 49.39633 | 13.38330 | 71° | 35km/h | 4346m | -4.8m/s | 0°C | 0% | 0hPa | 4.5V | 00:00:00 | 00:00:00 | 00:00:00 | |
| DO3MHA-11 | 2026-09-02 10:35:51 | 49.39633 | 13.38318 | 59° | 29km/h | 4355m | -4.5m/s | 0°C | 0% | 0hPa | 4.5V | 00:00:00 | 00:00:00 | 00:00:00 | |
| OE5DRO-10 | 2026-09-02 10:35:48 | 49.39628 | 13.38287 | 96° | 38km/h | 4370m | -4.4m/s | 0°C | 0% | 0hPa | 4.5V | 00:00:00 | 00:00:00 | 00:00:00 | |
| NBG1-10 | 2026-09-02 10:35:47 | 49.39629 | 13.38276 | 95° | 40km/h | 4374m | -4.5m/s | 0°C | 0% | 0hPa | 4.5V | 00:00:00 | 00:00:00 | 00:00:00 | |
| OE5MMP-10 | 2026-09-02 10:35:46 | 49.39630 | 13.38258 | 92° | 37km/h | 4379m | -4.5m/s | 0°C | 0% | 0hPa | 4.5V | 00:00:00 | 00:00:00 | 00:00:00 | |
| OE3JTB-15 | 2026-09-02 10:35:45 | 49.39629 | 13.38206 | 84° | 40km/h | 4398m | -4.6m/s | 0°C | 0% | 0hPa | 4.5V | 00:00:00 | 00:00:00 | 00:00:00 | |
| DO3MHA-11 | 2026-09-02 10:35:42 | 49.39617 | 13.38177 | 58° | 33km/h | 4398m | -4.6m/s | 0°C | 0% | 0hPa | 4.5V | 00:00:00 | 00:00:00 | 00:00:00 | |
| DO3MHA-11 | 2026-09-02 10:35:35 | 49.39608 | 13.38101 | 83° | 42km/h | 4430m | -4.5m/s | 0°C | 0% | 0hPa | 4.5V | 00:00:00 | 00:00:00 | 00:00:00 | |
| OE5DRO-10 | 2026-09-02 10:35:32 | 49.39596 | 13.38047 | 60° | 38km/h | 4443m | -4.5m/s | 0°C | 0% | 0hPa | 4.5V | 00:00:00 | 00:00:00 | 00:00:00 | |
| DO3MHA-11 | 2026-09-02 10:35:29 | 49.39584 | 13.38018 | 76° | 40km/h | 4457m | -4.3m/s | 0°C | 0% | 0hPa | 4.5V | 00:00:00 | 00:00:00 | 00:00:00 | |
| OE5MMP-10 | 2026-09-02 10:35:24 | 49.39586 | 13.37943 | 76° | 40km/h | 4476m | -4.4m/s | 0°C | 0% | 0hPa | 4.5V | 00:00:00 | 00:00:00 | 00:00:00 | |
| DO3MHA-11 | 2026-09-02 10:35:23 | 49.39583 | 13.37925 | 68° | 42km/h | 4481m | -4.7m/s | 0°C | 0% | 0hPa | 4.5V | 00:00:00 | 00:00:00 | 00:00:00 | |
| DB0NH | 2026-09-02 10:35:22 | 49.39579 | 13.37909 | 60° | 40km/h | 4485m | -4.5m/s | 0°C | 0% | 0hPa | 4.5V | 00:00:00 | 00:00:00 | 00:00:00 | |
| DO3MHA-11 | 2026-09-02 10:35:18 | 49.39559 | 13.37865 | 85° | 40km/h | 4509m | -4.5m/s | 0°C | 0% | 0hPa | 4.5V | 00:00:00 | 00:00:00 | 00:00:00 | |
| OE5DRO-10 | 2026-09-02 10:35:16 | 49.39559 | 13.37839 | 94° | 40km/h | 4517m | -4.5m/s | 0°C | 0% | 0hPa | 4.5V | 00:00:00 | 00:00:00 | 00:00:00 | |
| OE5MMP-10 | 2026-09-02 10:35:14 | 49.39558 | 13.37803 | 81° | 38km/h | 4527m | -4.7m/s | 0°C | 0% | 0hPa | 4.5V | 00:00:00 | 00:00:00 | 00:00:00 | |
| DO3MHA-11 | 2026-09-02 10:35:12 | 49.39551 | 13.37767 | 65° | 38km/h | 4537m | -4.5m/s | 0°C | 0% | 0hPa | 4.5V | 00:00:00 | 00:00:00 | 00:00:00 | |
| DO3MHA-11 | 2026-09-02 10:35:07 | 49.39532 | 13.37706 | 89° | 42km/h | 4560m | -4.3m/s | 0°C | 0% | 0hPa | 4.5V | 00:00:00 | 00:00:00 | 00:00:00 | |
| OE5MMP-10 | 2026-09-02 10:35:04 | 49.39535 | 13.37659 | 84° | 42km/h | 4570m | -4.5m/s | 0°C | 0% | 0hPa | 4.5V | 00:00:00 | 00:00:00 | 00:00:00 | |
| OE5DRO-10 | 2026-09-02 10:35:00 | 49.39514 | 13.37590 | 56° | 40km/h | 4592m | -4.5m/s | 0°C | 0% | 0hPa | 4.5V | 00:00:00 | 00:00:00 | 00:00:00 | |
| DO3MHA-11 | 2026-09-02 10:34:55 | 49.39506 | 13.37528 | 90° | 49km/h | 4610m | -4.4m/s | 0°C | 0% | 0hPa | 4.5V | 00:00:00 | 00:00:00 | 00:00:00 | |
| OE5DXL-15 | 2026-09-02 10:34:53 | 49.39502 | 13.37487 | 76° | 40km/h | 4624m | -4.4m/s | 0°C | 0% | 0hPa | 4.5V | 00:00:00 | 00:00:00 | 00:00:00 | |
| OE5MMP-10 | 2026-09-02 10:34:52 | 49.39498 | 13.37471 | 69° | 42km/h | 4629m | -4.4m/s | 0°C | 0% | 0hPa | 4.5V | 00:00:00 | 00:00:00 | 00:00:00 | |
| DO3MHA-11 | 2026-09-02 10:34:50 | 49.39488 | 13.37438 | 58° | 35km/h | 4638m | -4.4m/s | 0°C | 0% | 0hPa | 4.5V | 00:00:00 | 00:00:00 | 00:00:00 | |
| DO3MHA-11 | 2026-09-02 10:34:45 | 49.39477 | 13.37376 | 91° | 49km/h | 4656m | -4.5m/s | 0°C | 0% | 0hPa | 4.5V | 00:00:00 | 00:00:00 | 00:00:00 | |
| OE5DRO-10 | 2026-09-02 10:34:44 | 49.39476 | 13.37358 | 87° | 47km/h | 4665m | -4.2m/s | 0°C | 0% | 0hPa | 4.5V | 00:00:00 | 00:00:00 | 00:00:00 | |
| OE3JTB-15 | 2026-09-02 10:34:43 | 49.39478 | 13.37339 | 82° | 44km/h | 4665m | -4.5m/s | 0°C | 0% | 0hPa | 4.5V | 00:00:00 | 00:00:00 | 00:00:00 | |
| OE5MMP-10 | 2026-09-02 10:34:41 | 49.39473 | 13.37300 | 66° | 44km/h | 4674m | -4.5m/s | 0°C | 0% | 0hPa | 4.5V | 00:00:00 | 00:00:00 | 00:00:00 | |
| NBG1-10 | 2026-09-02 10:34:40 | 49.39467 | 13.37283 | 66° | 40km/h | 4679m | -4.5m/s | 0°C | 0% | 0hPa | 4.5V | 00:00:00 | 00:00:00 | 00:00:00 | |
| DO3MHA-11 | 2026-09-02 10:34:39 | 49.39456 | 13.37269 | 58° | 37km/h | 4688m | -4.6m/s | 0°C | 0% | 0hPa | 4.5V | 00:00:00 | 00:00:00 | 00:00:00 | |
| DO3MHA-11 | 2026-09-02 10:34:33 | 49.39445 | 13.37186 | 86° | 49km/h | 4716m | -4.5m/s | 0°C | 0% | 0hPa | 4.5V | 00:00:00 | 00:00:00 | 00:00:00 | |
| OE5MMP-10 | 2026-09-02 10:34:31 | 49.39441 | 13.37145 | 73° | 46km/h | 4738m | -4.4m/s | 0°C | 0% | 0hPa | 4.5V | 00:00:00 | 00:00:00 | 00:00:00 | |
| OE5DRO-10 | 2026-09-02 10:34:27 | 49.39421 | 13.37081 | 66° | 42km/h | 4743m | -4.3m/s | 0°C | 0% | 0hPa | 4.5V | 00:00:00 | 00:00:00 | 00:00:00 | |
| DO3MHA-11 | 2026-09-02 10:34:22 | 49.39416 | 13.37006 | 85° | 51km/h | 4765m | -4.1m/s | 0°C | 0% | 0hPa | 4.5V | 00:00:00 | 00:00:00 | 00:00:00 | |
| DO3MHA-11 | 2026-09-02 10:34:16 | 49.39393 | 13.36900 | 69° | 37km/h | 4792m | -4.4m/s | 0°C | 0% | 0hPa | 4.5V | 00:00:00 | 00:00:00 | 00:00:00 | |
| OE5MMP-10 | 2026-09-02 10:34:15 | 49.39393 | 13.36886 | 71° | 38km/h | 4792m | -4.5m/s | 0°C | 0% | 0hPa | 4.5V | 00:00:00 | 00:00:00 | 00:00:00 | |
| OE3JTB-15 | 2026-09-02 10:34:14 | 49.39390 | 13.36873 | 73° | 44km/h | 4797m | -4.6m/s | 0°C | 0% | 0hPa | 4.5V | 00:00:00 | 00:00:00 | 00:00:00 | |
| DO3MHA-11 | 2026-09-02 10:34:11 | 49.39381 | 13.36833 | 80° | 40km/h | 4817m | -4.8m/s | 0°C | 0% | 0hPa | 4.5V | 00:00:00 | 00:00:00 | 00:00:00 | |
| NBG1-10 | 2026-09-02 10:34:07 | 49.39376 | 13.36769 | 86° | 46km/h | 4836m | -4.3m/s | 0°C | 0% | 0hPa | 4.5V | 00:00:00 | 00:00:00 | 00:00:00 | |
| OE5MMP-10 | 2026-09-02 10:34:05 | 49.39374 | 13.36735 | 86° | 42km/h | 4845m | -4.4m/s | 0°C | 0% | 0hPa | 4.5V | 00:00:00 | 00:00:00 | 00:00:00 | |
| DO3MHA-11 | 2026-09-02 10:33:59 | 49.39367 | 13.36636 | 83° | 42km/h | 4872m | -4.2m/s | 0°C | 0% | 0hPa | 4.5V | 00:00:00 | 00:00:00 | 00:00:00 | |
| OE5MMP-10 | 2026-09-02 10:33:54 | 49.39364 | 13.36553 | 90° | 46km/h | 4895m | -4.5m/s | 0°C | 0% | 0hPa | 4.5V | 00:00:00 | 00:00:00 | 00:00:00 | |
| OE5DXL-15 | 2026-09-02 10:33:52 | 49.39362 | 13.36511 | 86° | 47km/h | 4904m | -4.3m/s | 0°C | 0% | 0hPa | 4.5V | 00:00:00 | 00:00:00 | 00:00:00 | |
| DO3MHA-11 | 2026-09-02 10:33:49 | 49.39358 | 13.36446 | 69° | 44km/h | 4913m | -4.7m/s | 0°C | 0% | 0hPa | 4.5V | 00:00:00 | 00:00:00 | 00:00:00 | |
| OE3JTB-15 | 2026-09-02 10:33:45 | 49.39334 | 13.36383 | 72° | 47km/h | 4932m | -4.5m/s | 0°C | 0% | 0hPa | 4.5V | 00:00:00 | 00:00:00 | 00:00:00 | |
| OE5MMP-10 | 2026-09-02 10:33:43 | 49.39331 | 13.36356 | 92° | 47km/h | 4945m | -4.4m/s | 0°C | 0% | 0hPa | 4.5V | 00:00:00 | 00:00:00 | 00:00:00 | |
| DO3MHA-11 | 2026-09-02 10:33:37 | 49.39319 | 13.36239 | 67° | 47km/h | 4972m | -4.1m/s | 0°C | 0% | 0hPa | 4.5V | 00:00:00 | 00:00:00 | 00:00:00 | |
| NBG1-10 | 2026-09-02 10:33:33 | 49.39309 | 13.36175 | 85° | 47km/h | 4990m | -4.5m/s | 0°C | 0% | 0hPa | 4.5V | 00:00:00 | 00:00:00 | 00:00:00 | |
| OE5MMP-10 | 2026-09-02 10:33:32 | 49.39310 | 13.36156 | 81° | 49km/h | 4990m | -4.5m/s | 0°C | 0% | 0hPa | 4.5V | 00:00:00 | 00:00:00 | 00:00:00 | |
| DO3MHA-11 | 2026-09-02 10:33:31 | 49.39308 | 13.36136 | 75° | 47km/h | 4994m | -4.4m/s | 0°C | 0% | 0hPa | 4.5V | 00:00:00 | 00:00:00 | 00:00:00 | |
| DO3MHA-11 | 2026-09-02 10:33:26 | 49.39292 | 13.36049 | 83° | 47km/h | 5020m | -4.3m/s | 0°C | 0% | 0hPa | 4.5V | 00:00:00 | 00:00:00 | 00:00:00 | |
| OE5MMP-10 | 2026-09-02 10:33:22 | 49.39282 | 13.35976 | 81° | 47km/h | 5038m | -4.5m/s | 0°C | 0% | 0hPa | 4.5V | 00:00:00 | 00:00:00 | 00:00:00 | |
| DB0NH | 2026-09-02 10:33:21 | 49.39281 | 13.35959 | 85° | 47km/h | 5038m | -4.3m/s | 0°C | 0% | 0hPa | 4.5V | 00:00:00 | 00:00:00 | 00:00:00 | |
| OE5DRO-10 | 2026-09-02 10:33:20 | 49.39279 | 13.35940 | 83° | 47km/h | 5047m | -4.4m/s | 0°C | 0% | 0hPa | 4.5V | 00:00:00 | 00:00:00 | 00:00:00 | |
| DO3MHA-11 | 2026-09-02 10:33:16 | 49.39271 | 13.35869 | 77° | 46km/h | 5061m | -4.4m/s | 0°C | 0% | 0hPa | 4.5V | 00:00:00 | 00:00:00 | 00:00:00 | |
| OE3JTB-15 | 2026-09-02 10:33:15 | 49.39267 | 13.35851 | 83° | 46km/h | 5079m | -4.5m/s | 0°C | 0% | 0hPa | 4.5V | 00:00:00 | 00:00:00 | 00:00:00 | |
| OE5MMP-10 | 2026-09-02 10:33:11 | 49.39259 | 13.35781 | 82° | 47km/h | 5089m | -4.4m/s | 0°C | 0% | 0hPa | 4.5V | 00:00:00 | 00:00:00 | 00:00:00 | |
| DO3MHA-11 | 2026-09-02 10:33:06 | 49.39252 | 13.35692 | 82° | 47km/h | 5108m | -4.9m/s | 0°C | 0% | 0hPa | 4.5V | 00:00:00 | 00:00:00 | 00:00:00 | |
| OE5DRO-10 | 2026-09-02 10:33:03 | 49.39245 | 13.35638 | 83° | 49km/h | 5128m | -4.9m/s | 0°C | 0% | 0hPa | 4.5V | 00:00:00 | 00:00:00 | 00:00:00 | |
| OE5MMP-10 | 2026-09-02 10:33:01 | 49.39244 | 13.35601 | 84° | 49km/h | 5133m | -4.7m/s | 0°C | 0% | 0hPa | 4.5V | 00:00:00 | 00:00:00 | 00:00:00 | |
| NBG1-10 | 2026-09-02 10:33:00 | 49.39241 | 13.35583 | 85° | 51km/h | 5143m | -5.0m/s | 0°C | 0% | 0hPa | 4.5V | 00:00:00 | 00:00:00 | 00:00:00 | |
| DO3MHA-11 | 2026-09-02 10:32:53 | 49.39234 | 13.35449 | 87° | 51km/h | 5172m | -4.9m/s | 0°C | 0% | 0hPa | 4.5V | 00:00:00 | 00:00:00 | 00:00:00 | |
| OE5MMP-10 | 2026-09-02 10:32:51 | 49.39233 | 13.35410 | 86° | 51km/h | 5182m | -4.8m/s | 0°C | 0% | 0hPa | 4.5V | 00:00:00 | 00:00:00 | 00:00:00 | |
| OE5DRO-10 | 2026-09-02 10:32:47 | 49.39228 | 13.35332 | 87° | 51km/h | 5207m | -5.0m/s | 0°C | 0% | 0hPa | 4.5V | 00:00:00 | 00:00:00 | 00:00:00 | |
| OE3JTB-15 | 2026-09-02 10:32:45 | 49.39226 | 13.35293 | 87° | 51km/h | 5221m | -4.7m/s | 0°C | 0% | 0hPa | 4.5V | 00:00:00 | 00:00:00 | 00:00:00 | |
| DO3MHA-11 | 2026-09-02 10:32:43 | 49.39224 | 13.35254 | 87° | 51km/h | 5226m | -4.8m/s | 0°C | 0% | 0hPa | 4.5V | 00:00:00 | 00:00:00 | 00:00:00 | |
| OE5MMP-10 | 2026-09-02 10:32:41 | 49.39222 | 13.35214 | 86° | 51km/h | 5236m | -4.9m/s | 0°C | 0% | 0hPa | 4.5V | 00:00:00 | 00:00:00 | 00:00:00 | |
| OE5DXL-15 | 2026-09-02 10:32:39 | 49.39221 | 13.35195 | 86° | 53km/h | 5241m | -4.9m/s | 0°C | 0% | 0hPa | 4.5V | 00:00:00 | 00:00:00 | 00:00:00 | |
| DO3MHA-11 | 2026-09-02 10:32:33 | 49.39216 | 13.35056 | 87° | 51km/h | 5271m | -5.0m/s | 0°C | 0% | 0hPa | 4.5V | 00:00:00 | 00:00:00 | 00:00:00 | |
| OE5MMP-10 | 2026-09-02 10:32:30 | 49.39212 | 13.34996 | 87° | 53km/h | 5290m | -4.8m/s | 0°C | 0% | 0hPa | 4.5V | 00:00:00 | 00:00:00 | 00:00:00 | |
| NBG1-10 | 2026-09-02 10:32:26 | 49.39210 | 13.34917 | 87° | 53km/h | 5305m | -4.9m/s | 0°C | 0% | 0hPa | 4.5V | 00:00:00 | 00:00:00 | 00:00:00 | |
| DO3MHA-11 | 2026-09-02 10:32:23 | 49.39208 | 13.34855 | 87° | 53km/h | 5320m | -4.9m/s | 0°C | 0% | 0hPa | 4.5V | 00:00:00 | 00:00:00 | 00:00:00 | |
| DB0NH | 2026-09-02 10:32:21 | 49.39206 | 13.34814 | 87° | 53km/h | 5329m | -4.6m/s | 0°C | 0% | 0hPa | 4.5V | 00:00:00 | 00:00:00 | 00:00:00 | |
| OE5MMP-10 | 2026-09-02 10:32:19 | 49.39204 | 13.34773 | 87° | 53km/h | 5344m | -4.9m/s | 0°C | 0% | 0hPa | 4.5V | 00:00:00 | 00:00:00 | 00:00:00 | |
| OE3JTB-15 | 2026-09-02 10:32:15 | 49.39200 | 13.34692 | 87° | 120km/h | 5374m | -4.9m/s | 0°C | 0% | 0hPa | 4.5V | 00:00:00 | 00:00:00 | 00:00:00 | |
| DO3MHA-11 | 2026-09-02 10:32:13 | 49.39198 | 13.34651 | 86° | 53km/h | 5374m | -4.8m/s | 0°C | 0% | 0hPa | 4.5V | 00:00:00 | 00:00:00 | 00:00:00 | |
| OE5DXL-15 | 2026-09-02 10:32:09 | 49.39194 | 13.34566 | 87° | 55km/h | 5393m | -4.8m/s | 0°C | 0% | 0hPa | 4.5V | 00:00:00 | 00:00:00 | 00:00:00 | |
| OE5MMP-10 | 2026-09-02 10:32:08 | 49.39193 | 13.34545 | 87° | 53km/h | 5393m | -4.8m/s | 0°C | 0% | 0hPa | 4.5V | 00:00:00 | 00:00:00 | 00:00:00 | |
| DO3MHA-11 | 2026-09-02 10:32:02 | 49.39188 | 13.34425 | 85° | 55km/h | 5427m | -4.8m/s | 0°C | 0% | 0hPa | 4.5V | 00:00:00 | 00:00:00 | 00:00:00 | |
| OE5MMP-10 | 2026-09-02 10:31:58 | 49.39183 | 13.34338 | 87° | 55km/h | 5446m | -4.9m/s | 0°C | 0% | 0hPa | 4.5V | 00:00:00 | 00:00:00 | 00:00:00 | |
| OE5DRO-10 | 2026-09-02 10:31:56 | 49.39181 | 13.34293 | 88° | 55km/h | 5456m | -4.8m/s | 0°C | 0% | 0hPa | 4.5V | 00:00:00 | 00:00:00 | 00:00:00 | |
| NBG1-10 | 2026-09-02 10:31:53 | 49.39180 | 13.34230 | 87° | 55km/h | 5465m | -4.5m/s | 0°C | 0% | 0hPa | 4.5V | 00:00:00 | 00:00:00 | 00:00:00 | |
| DO3MHA-11 | 2026-09-02 10:31:51 | 49.39178 | 13.34189 | 86° | 55km/h | 5480m | -4.7m/s | 0°C | 0% | 0hPa | 4.5V | 00:00:00 | 00:00:00 | 00:00:00 | |
| OE5MMP-10 | 2026-09-02 10:31:47 | 49.39173 | 13.34103 | 87° | 55km/h | 5499m | -4.6m/s | 0°C | 0% | 0hPa | 4.5V | 00:00:00 | 00:00:00 | 00:00:00 | |
| OE3JTB-15 | 2026-09-02 10:31:45 | 49.39172 | 13.34060 | 89° | 55km/h | 5517m | -4.4m/s | 0°C | 0% | 0hPa | 4.5V | 00:00:00 | 00:00:00 | 00:00:00 | |
| DO3MHA-11 | 2026-09-02 10:31:40 | 49.39172 | 13.33958 | 85° | 55km/h | 5527m | -4.8m/s | 0°C | 0% | 0hPa | 4.5V | 00:00:00 | 00:00:00 | 00:00:00 | |
| OE5DXL-15 | 2026-09-02 10:31:39 | 49.39169 | 13.33938 | 83° | 57km/h | 5537m | -4.6m/s | 0°C | 0% | 0hPa | 4.5V | 00:00:00 | 00:00:00 | 00:00:00 | |
| OE5MMP-10 | 2026-09-02 10:31:37 | 49.39167 | 13.33894 | 83° | 57km/h | 5542m | -4.6m/s | 0°C | 0% | 0hPa | 4.5V | 00:00:00 | 00:00:00 | 00:00:00 | |
| DO3MHA-11 | 2026-09-02 10:31:30 | 49.39161 | 13.33741 | 90° | 57km/h | 5580m | -4.3m/s | 0°C | 0% | 0hPa | 4.5V | 00:00:00 | 00:00:00 | 00:00:00 | |
| OE5MMP-10 | 2026-09-02 10:31:27 | 49.39160 | 13.33677 | 86° | 57km/h | 5589m | -4.8m/s | 0°C | 0% | 0hPa | 4.5V | 00:00:00 | 00:00:00 | 00:00:00 | |
| DB0NH | 2026-09-02 10:31:21 | 49.39154 | 13.33548 | 85° | 58km/h | 5623m | -4.8m/s | 0°C | 0% | 0hPa | 4.5V | 00:00:00 | 00:00:00 | 00:00:00 | |
| NBG1-10 | 2026-09-02 10:31:20 | 49.39153 | 13.33525 | 85° | 58km/h | 5623m | -4.7m/s | 0°C | 0% | 0hPa | 4.5V | 00:00:00 | 00:00:00 | 00:00:00 | |
| DO3MHA-11 | 2026-09-02 10:31:19 | 49.39151 | 13.33502 | 87° | 58km/h | 5632m | -4.7m/s | 0°C | 0% | 0hPa | 4.5V | 00:00:00 | 00:00:00 | 00:00:00 | |
| OE5MMP-10 | 2026-09-02 10:31:17 | 49.39151 | 13.33455 | 93° | 58km/h | 5647m | -5.2m/s | 0°C | 0% | 0hPa | 4.5V | 00:00:00 | 00:00:00 | 00:00:00 | |
| OE3JTB-15 | 2026-09-02 10:31:15 | 49.39151 | 13.33410 | 88° | 60km/h | 5685m | -4.3m/s | 0°C | 0% | 0hPa | 4.5V | 00:00:00 | 00:00:00 | 00:00:00 | |
| OE5DXL-15 | 2026-09-02 10:31:09 | 49.39143 | 13.33277 | 92° | 60km/h | 5681m | -5.0m/s | 0°C | 0% | 0hPa | 4.5V | 00:00:00 | 00:00:00 | 00:00:00 | |
| DO3MHA-11 | 2026-09-02 10:31:08 | 49.39143 | 13.33255 | 93° | 62km/h | 5685m | -5.0m/s | 0°C | 0% | 0hPa | 4.5V | 00:00:00 | 00:00:00 | 00:00:00 | |
| OE5MMP-10 | 2026-09-02 10:31:06 | 49.39146 | 13.33211 | 100° | 60km/h | 5697m | -5.4m/s | 0°C | 0% | 0hPa | 4.5V | 00:00:00 | 00:00:00 | 00:00:00 | |
| OE5DRO-10 | 2026-09-02 10:31:00 | 49.39149 | 13.33063 | 81° | 60km/h | 5726m | -4.8m/s | 0°C | 0% | 0hPa | 4.5V | 00:00:00 | 00:00:00 | 00:00:00 | |
| DO3MHA-11 | 2026-09-02 10:30:57 | 49.39145 | 13.32995 | 91° | 60km/h | 5736m | -4.7m/s | 0°C | 0% | 0hPa | 4.5V | 00:00:00 | 00:00:00 | 00:00:00 | |
| OE5MMP-10 | 2026-09-02 10:30:56 | 49.39146 | 13.32947 | 93° | 60km/h | 5745m | -5.3m/s | 0°C | 0% | 0hPa | 4.5V | 00:00:00 | 00:00:00 | 00:00:00 | |
| DB0NH | 2026-09-02 10:30:51 | 49.39148 | 13.32856 | 92° | 64km/h | 5771m | -5.2m/s | 0°C | 0% | 0hPa | 4.5V | 00:00:00 | 00:00:00 | 00:00:00 | |
| DO3MHA-11 | 2026-09-02 10:30:47 | 49.39148 | 13.32761 | 91° | 62km/h | 5791m | -4.8m/s | 0°C | 0% | 0hPa | 4.5V | 00:00:00 | 00:00:00 | 00:00:00 | |
| OE5MMP-10 | 2026-09-02 10:30:44 | 49.39146 | 13.32688 | 89° | 62km/h | 5801m | -4.8m/s | 0°C | 0% | 0hPa | 4.5V | 00:00:00 | 00:00:00 | 00:00:00 | |
| OE3JTB-15 | 2026-09-02 10:30:43 | 49.39145 | 13.32664 | 93° | 62km/h | 5806m | -4.6m/s | 0°C | 0% | 0hPa | 4.5V | 00:00:00 | 00:00:00 | 00:00:00 | |
| OE5DRO-10 | 2026-09-02 10:30:40 | 49.39150 | 13.32594 | 97° | 66km/h | 5827m | -5.3m/s | 0°C | 0% | 0hPa | 4.5V | 00:00:00 | 00:00:00 | 00:00:00 | |
| OE5DXL-15 | 2026-09-02 10:30:39 | 49.39152 | 13.32571 | 98° | 64km/h | 5827m | -5.5m/s | 0°C | 0% | 0hPa | 4.5V | 00:00:00 | 00:00:00 | 00:00:00 | |
| DO3MHA-11 | 2026-09-02 10:30:36 | 49.39154 | 13.32493 | 86° | 66km/h | 5849m | -5.1m/s | 0°C | 0% | 0hPa | 4.5V | 00:00:00 | 00:00:00 | 00:00:00 | |
| OE5MMP-10 | 2026-09-02 10:30:35 | 49.39151 | 13.32443 | 87° | 64km/h | 5859m | -5.1m/s | 0°C | 0% | 0hPa | 4.5V | 00:00:00 | 00:00:00 | 00:00:00 | |
| DO3MHA-11 | 2026-09-02 10:30:25 | 49.39154 | 13.32218 | 92° | 64km/h | 5903m | -4.6m/s | 0°C | 0% | 0hPa | 4.5V | 00:00:00 | 00:00:00 | 00:00:00 | |
| OE5MMP-10 | 2026-09-02 10:30:23 | 49.39155 | 13.32166 | 90° | 64km/h | 5913m | -4.7m/s | 0°C | 0% | 0hPa | 4.5V | 00:00:00 | 00:00:00 | 00:00:00 | |
| OE5DRO-10 | 2026-09-02 10:30:21 | 49.39155 | 13.32115 | 89° | 64km/h | 5923m | -5.1m/s | 0°C | 0% | 0hPa | 4.5V | 00:00:00 | 00:00:00 | 00:00:00 | |
| DO3MHA-11 | 2026-09-02 10:30:15 | 49.39153 | 13.31971 | 94° | 64km/h | 5948m | -4.8m/s | 0°C | 0% | 0hPa | 4.5V | 00:00:00 | 00:00:00 | 00:00:00 | |
| OE5MMP-10 | 2026-09-02 10:30:13 | 49.39155 | 13.31921 | 93° | 64km/h | 5958m | -4.9m/s | 0°C | 0% | 0hPa | 4.5V | 00:00:00 | 00:00:00 | 00:00:00 | |
| NBG1-10 | 2026-09-02 10:30:12 | 49.39156 | 13.31895 | 92° | 64km/h | 5968m | -5.0m/s | 0°C | 0% | 0hPa | 4.5V | 00:00:00 | 00:00:00 | 00:00:00 | |
| OE5DXL-15 | 2026-09-02 10:30:09 | 49.39156 | 13.31819 | 91° | 64km/h | 5978m | -4.9m/s | 0°C | 0% | 0hPa | 4.5V | 00:00:00 | 00:00:00 | 00:00:00 | |
| DO3MHA-11 | 2026-09-02 10:30:05 | 49.39157 | 13.31722 | 91° | 64km/h | 5998m | -4.8m/s | 0°C | 0% | 0hPa | 4.5V | 00:00:00 | 00:00:00 | 00:00:00 | |
| OE5DRO-10 | 2026-09-02 10:30:02 | 49.39158 | 13.31649 | 91° | 64km/h | 6017m | -4.9m/s | 0°C | 0% | 0hPa | 4.5V | 00:00:00 | 00:00:00 | 00:00:00 | |
| OE3JTB-15 | 2026-09-02 10:29:56 | 49.39157 | 13.31500 | 90° | 60km/h | 6041m | -4.4m/s | 0°C | 0% | 0hPa | 4.5V | 00:00:00 | 00:00:00 | 00:00:00 | |
| DO3MHA-11 | 2026-09-02 10:29:55 | 49.39158 | 13.31476 | 92° | 64km/h | 6051m | -4.4m/s | 0°C | 0% | 0hPa | 4.5V | 00:00:00 | 00:00:00 | 00:00:00 | |
| OE5MMP-10 | 2026-09-02 10:29:53 | 49.39158 | 13.31427 | 91° | 64km/h | 6059m | -4.4m/s | 0°C | 0% | 0hPa | 4.5V | 00:00:00 | 00:00:00 | 00:00:00 | |
| DB0NH | 2026-09-02 10:29:50 | 49.39158 | 13.31353 | 90° | 62km/h | 6068m | -4.5m/s | 0°C | 0% | 0hPa | 4.5V | 00:00:00 | 00:00:00 | 00:00:00 | |
| DO3MHA-11 | 2026-09-02 10:29:45 | 49.39158 | 13.31229 | 92° | 62km/h | 6091m | -4.3m/s | 0°C | 0% | 0hPa | 4.5V | 00:00:00 | 00:00:00 | 00:00:00 | |
| OE5DXL-15 | 2026-09-02 10:29:39 | 49.39160 | 13.31080 | 88° | 58km/h | 6118m | -4.3m/s | 0°C | 0% | 0hPa | 4.5V | 00:00:00 | 00:00:00 | 00:00:00 | |
| NBG1-10 | 2026-09-02 10:29:38 | 49.39160 | 13.31056 | 87° | 58km/h | 6127m | -4.6m/s | 0°C | 0% | 0hPa | 4.5V | 00:00:00 | 00:00:00 | 00:00:00 | |
| DO3MHA-11 | 2026-09-02 10:29:35 | 49.39159 | 13.30985 | 90° | 60km/h | 6137m | -4.6m/s | 0°C | 0% | 0hPa | 4.5V | 00:00:00 | 00:00:00 | 00:00:00 | |
| OE5MMP-10 | 2026-09-02 10:29:31 | 49.39158 | 13.30891 | 89° | 60km/h | 6159m | -4.5m/s | 0°C | 0% | 0hPa | 4.5V | 00:00:00 | 00:00:00 | 00:00:00 | |
| DO3MHA-11 | 2026-09-02 10:29:25 | 49.39156 | 13.30751 | 90° | 58km/h | 6187m | -4.7m/s | 0°C | 0% | 0hPa | 4.5V | 00:00:00 | 00:00:00 | 00:00:00 | |
| OE3JTB-15 | 2026-09-02 10:29:23 | 49.39155 | 13.30706 | 89° | 68km/h | 6197m | -4.8m/s | 0°C | 0% | 0hPa | 4.5V | 00:00:00 | 00:00:00 | 00:00:00 | |
| OE5MMP-10 | 2026-09-02 10:29:20 | 49.39154 | 13.30637 | 90° | 58km/h | 6207m | -4.9m/s | 0°C | 0% | 0hPa | 4.5V | 00:00:00 | 00:00:00 | 00:00:00 | |
| DO3MHA-11 | 2026-09-02 10:29:14 | 49.39151 | 13.30502 | 89° | 57km/h | 6241m | -4.8m/s | 0°C | 0% | 0hPa | 4.5V | 00:00:00 | 00:00:00 | 00:00:00 | |
| OE5MMP-10 | 2026-09-02 10:29:10 | 49.39150 | 13.30414 | 90° | 57km/h | 6261m | -4.6m/s | 0°C | 0% | 0hPa | 4.5V | 00:00:00 | 00:00:00 | 00:00:00 | |
| OE5DXL-15 | 2026-09-02 10:29:09 | 49.39150 | 13.30392 | 91° | 58km/h | 6261m | -4.6m/s | 0°C | 0% | 0hPa | 4.5V | 00:00:00 | 00:00:00 | 00:00:00 | |
| NBG1-10 | 2026-09-02 10:29:04 | 49.39150 | 13.30282 | 89° | 58km/h | 6285m | -4.6m/s | 0°C | 0% | 0hPa | 4.5V | 00:00:00 | 00:00:00 | 00:00:00 | |
| DO3MHA-11 | 2026-09-02 10:29:03 | 49.39150 | 13.30263 | 93° | 57km/h | 6295m | -4.6m/s | 0°C | 0% | 0hPa | 4.5V | 00:00:00 | 00:00:00 | 00:00:00 | |
| OE5MMP-10 | 2026-09-02 10:28:59 | 49.39153 | 13.30180 | 94° | 60km/h | 6314m | -4.4m/s | 0°C | 0% | 0hPa | 4.5V | 00:00:00 | 00:00:00 | 00:00:00 | |
| DO3MHA-11 | 2026-09-02 10:28:52 | 49.39156 | 13.30016 | 97° | 58km/h | 6343m | -5.3m/s | 0°C | 0% | 0hPa | 4.5V | 00:00:00 | 00:00:00 | 00:00:00 | |
| OE5MMP-10 | 2026-09-02 10:28:49 | 49.39160 | 13.29949 | 93° | 60km/h | 6362m | -6.3m/s | 0°C | 0% | 0hPa | 4.5V | 00:00:00 | 00:00:00 | 00:00:00 | |
| OE5DRO-10 | 2026-09-02 10:28:44 | 49.39164 | 13.29833 | 95° | 60km/h | 6391m | -3.8m/s | 0°C | 0% | 0hPa | 4.5V | 00:00:00 | 00:00:00 | 00:00:00 | |
| DO3MHA-11 | 2026-09-02 10:28:42 | 49.39166 | 13.29787 | 94° | 60km/h | 6399m | -3.9m/s | 0°C | 0% | 0hPa | 4.5V | 00:00:00 | 00:00:00 | 00:00:00 | |
| OE5MMP-10 | 2026-09-02 10:28:39 | 49.39168 | 13.29716 | 94° | 60km/h | 6409m | -5.1m/s | 0°C | 0% | 0hPa | 4.5V | 00:00:00 | 00:00:00 | 00:00:00 | |
| NBG1-10 | 2026-09-02 10:28:31 | 49.39175 | 13.29528 | 93° | 64km/h | 6458m | -3.7m/s | 0°C | 0% | 0hPa | 4.5V | 00:00:00 | 00:00:00 | 00:00:00 | |
| OE5MMP-10 | 2026-09-02 10:28:29 | 49.39176 | 13.29481 | 93° | 64km/h | 6468m | -3.9m/s | 0°C | 0% | 0hPa | 4.5V | 00:00:00 | 00:00:00 | 00:00:00 | |
| OE5DRO-10 | 2026-09-02 10:28:25 | 49.39179 | 13.29382 | 94° | 64km/h | 6493m | -5.0m/s | 0°C | 0% | 0hPa | 4.5V | 00:00:00 | 00:00:00 | 00:00:00 | |
| DO3MHA-11 | 2026-09-02 10:28:21 | 49.39182 | 13.29286 | 94° | 64km/h | 6506m | -4.2m/s | 0°C | 0% | 0hPa | 4.5V | 00:00:00 | 00:00:00 | 00:00:00 | |
| DB0NH | 2026-09-02 10:28:20 | 49.39184 | 13.29261 | 94° | 68km/h | 6514m | -4.1m/s | 0°C | 0% | 0hPa | 4.5V | 00:00:00 | 00:00:00 | 00:00:00 | |
| OE5MMP-10 | 2026-09-02 10:28:18 | 49.39186 | 13.29211 | 94° | 66km/h | 6523m | -4.1m/s | 0°C | 0% | 0hPa | 4.5V | 00:00:00 | 00:00:00 | 00:00:00 | |
| DO3MHA-11 | 2026-09-02 10:28:12 | 49.39192 | 13.29060 | 93° | 66km/h | 6548m | -4.0m/s | 0°C | 0% | 0hPa | 4.5V | 00:00:00 | 00:00:00 | 00:00:00 | |
| OE5DXL-15 | 2026-09-02 10:28:09 | 49.39195 | 13.28984 | 93° | 69km/h | 6557m | -4.1m/s | 0°C | 0% | 0hPa | 4.5V | 00:00:00 | 00:00:00 | 00:00:00 | |
| OE5MMP-10 | 2026-09-02 10:28:07 | 49.39197 | 13.28933 | 94° | 68km/h | 6570m | -4.2m/s | 0°C | 0% | 0hPa | 4.5V | 00:00:00 | 00:00:00 | 00:00:00 | |
| OE5DRO-10 | 2026-09-02 10:28:06 | 49.39197 | 13.28907 | 93° | 68km/h | 6574m | -4.1m/s | 0°C | 0% | 0hPa | 4.5V | 00:00:00 | 00:00:00 | 00:00:00 | |
| DO3MHA-11 | 2026-09-02 10:28:01 | 49.39200 | 13.28779 | 92° | 69km/h | 6596m | -4.1m/s | 0°C | 0% | 0hPa | 4.5V | 00:00:00 | 00:00:00 | 00:00:00 | |
| NBG1-10 | 2026-09-02 10:27:57 | 49.39202 | 13.28672 | 92° | 71km/h | 6613m | -4.1m/s | 0°C | 0% | 0hPa | 4.5V | 00:00:00 | 00:00:00 | 00:00:00 | |
| OE5MMP-10 | 2026-09-02 10:27:56 | 49.39202 | 13.28646 | 91° | 69km/h | 6613m | -4.1m/s | 0°C | 0% | 0hPa | 4.5V | 00:00:00 | 00:00:00 | 00:00:00 | |
| DO3MHA-11 | 2026-09-02 10:27:50 | 49.39205 | 13.28484 | 92° | 71km/h | 6643m | -4.1m/s | 0°C | 0% | 0hPa | 4.5V | 00:00:00 | 00:00:00 | 00:00:00 | |
| OE5DRO-10 | 2026-09-02 10:27:47 | 49.39206 | 13.28402 | 92° | 71km/h | 6655m | -4.1m/s | 0°C | 0% | 0hPa | 4.5V | 00:00:00 | 00:00:00 | 00:00:00 | |
| OE5MMP-10 | 2026-09-02 10:27:46 | 49.39207 | 13.28375 | 92° | 71km/h | 6659m | -4.1m/s | 0°C | 0% | 0hPa | 4.5V | 00:00:00 | 00:00:00 | 00:00:00 | |
| DO3MHA-11 | 2026-09-02 10:27:40 | 49.39209 | 13.28210 | 92° | 71km/h | 6680m | -4.0m/s | 0°C | 0% | 0hPa | 4.5V | 00:00:00 | 00:00:00 | 00:00:00 | |
| OE5DXL-15 | 2026-09-02 10:27:39 | 49.39210 | 13.28183 | 92° | 73km/h | 6689m | -4.2m/s | 0°C | 0% | 0hPa | 4.5V | 00:00:00 | 00:00:00 | 00:00:00 | |
| OE5MMP-10 | 2026-09-02 10:27:35 | 49.39212 | 13.28072 | 92° | 73km/h | 6707m | -4.2m/s | 0°C | 0% | 0hPa | 4.5V | 00:00:00 | 00:00:00 | 00:00:00 | |
| DO3MHA-11 | 2026-09-02 10:27:30 | 49.39214 | 13.27931 | 92° | 73km/h | 6724m | -4.2m/s | 0°C | 0% | 0hPa | 4.5V | 00:00:00 | 00:00:00 | 00:00:00 | |
| OE5DRO-10 | 2026-09-02 10:27:26 | 49.39217 | 13.27819 | 93° | 73km/h | 6741m | -4.3m/s | 0°C | 0% | 0hPa | 4.5V | 00:00:00 | 00:00:00 | 00:00:00 | |
| OE5MMP-10 | 2026-09-02 10:27:24 | 49.39220 | 13.27762 | 94° | 73km/h | 6755m | -4.1m/s | 0°C | 0% | 0hPa | 4.5V | 00:00:00 | 00:00:00 | 00:00:00 | |
| DO3MHA-11 | 2026-09-02 10:27:20 | 49.39225 | 13.27648 | 94° | 73km/h | 6772m | -4.2m/s | 0°C | 0% | 0hPa | 4.5V | 00:00:00 | 00:00:00 | 00:00:00 | |
| OE5MMP-10 | 2026-09-02 10:27:13 | 49.39232 | 13.27450 | 95° | 75km/h | 6797m | -4.2m/s | 0°C | 0% | 0hPa | 4.5V | 00:00:00 | 00:00:00 | 00:00:00 | |
| DO8TBO-1 | 2026-09-02 10:27:10 | 49.39240 | 13.27308 | 95° | 77km/h | 6823m | -4.2m/s | 0°C | 0% | 0hPa | 4.5V | 00:00:00 | 00:00:00 | 00:00:00 | |
| OE5DXL-15 | 2026-09-02 10:27:09 | 49.39238 | 13.27336 | 94° | 75km/h | 6818m | -4.2m/s | 0°C | 0% | 0hPa | 4.5V | 00:00:00 | 00:00:00 | 00:00:00 | |
| OE5DRO-10 | 2026-09-02 10:27:07 | 49.39242 | 13.27278 | 95° | 77km/h | 6828m | -4.2m/s | 0°C | 0% | 0hPa | 4.5V | 00:00:00 | 00:00:00 | 00:00:00 | |
| DL6DJ-15 | 2026-09-02 10:27:02 | 49.39255 | 13.27102 | 96° | 75km/h | 6850m | -4.5m/s | -24.3°C | -1.0% | -1.0hPa | 4.5V | 00:00:00 | 00:00:00 | 00:00:00 | |
| DO3MHA-11 | 2026-09-02 10:26:57 | 49.39261 | 13.26984 | 97° | 77km/h | 6867m | -4.2m/s | 0°C | 0% | 0hPa | 4.5V | 00:00:00 | 00:00:00 | 00:00:00 | |
| OE5MMP-10 | 2026-09-02 10:26:52 | 49.39277 | 13.26836 | 99° | 75km/h | 6894m | -4.3m/s | 0°C | 0% | 0hPa | 4.5V | 00:00:00 | 00:00:00 | 00:00:00 | |
| NBG1-10 | 2026-09-02 10:26:50 | 49.39282 | 13.26778 | 98° | 73km/h | 6903m | -4.0m/s | 0°C | 0% | 0hPa | 4.5V | 00:00:00 | 00:00:00 | 00:00:00 | |
| DB0NH | 2026-09-02 10:26:49 | 49.39282 | 13.26749 | 98° | 73km/h | 6903m | -4.4m/s | 0°C | 0% | 0hPa | 4.5V | 00:00:00 | 00:00:00 | 00:00:00 | |
| OE5DRO-10 | 2026-09-02 10:26:48 | 49.39287 | 13.26720 | 98° | 73km/h | 6912m | -4.6m/s | 0°C | 0% | 0hPa | 4.5V | 00:00:00 | 00:00:00 | 00:00:00 | |
| DO3MHA-11 | 2026-09-02 10:26:47 | 49.39287 | 13.26691 | 98° | 75km/h | 6912m | -4.5m/s | 0°C | 0% | 0hPa | 4.5V | 00:00:00 | 00:00:00 | 00:00:00 | |
| OE5MMP-10 | 2026-09-02 10:26:41 | 49.39305 | 13.26519 | 99° | 73km/h | 6945m | -4.3m/s | 0°C | 0% | 0hPa | 4.5V | 00:00:00 | 00:00:00 | 00:00:00 | |
| OE5DXL-15 | 2026-09-02 10:26:39 | 49.39310 | 13.26463 | 100° | 71km/h | 6954m | -4.7m/s | 0°C | 0% | 0hPa | 4.5V | 00:00:00 | 00:00:00 | 00:00:00 | |
| DO3MHA-11 | 2026-09-02 10:26:37 | 49.39316 | 13.26407 | 99° | 73km/h | 6964m | -4.6m/s | 0°C | 0% | 0hPa | 4.5V | 00:00:00 | 00:00:00 | 00:00:00 | |
| OE5MMP-10 | 2026-09-02 10:26:30 | 49.39338 | 13.26212 | 102° | 71km/h | 6996m | -4.4m/s | 0°C | 0% | 0hPa | 4.5V | 00:00:00 | 00:00:00 | 00:00:00 | |
| OE5DRO-10 | 2026-09-02 10:26:28 | 49.39345 | 13.26157 | 101° | 71km/h | 7006m | -4.5m/s | 0°C | 0% | 0hPa | 4.5V | 00:00:00 | 00:00:00 | 00:00:00 | |
| DO3MHA-11 | 2026-09-02 10:26:26 | 49.39352 | 13.26102 | 101° | 71km/h | 7015m | -4.5m/s | 0°C | 0% | 0hPa | 4.5V | 00:00:00 | 00:00:00 | 00:00:00 | |
| OE3JTB-15 | 2026-09-02 10:26:20 | 49.39374 | 13.25940 | 102° | 69km/h | 7044m | -4.9m/s | 0°C | 0% | 0hPa | 4.5V | 00:00:00 | 00:00:00 | 00:00:00 | |
| OE5MMP-10 | 2026-09-02 10:26:19 | 49.39374 | 13.25913 | 102° | 69km/h | 7044m | -4.6m/s | 0°C | 0% | 0hPa | 4.5V | 00:00:00 | 00:00:00 | 00:00:00 | |
| NBG1-10 | 2026-09-02 10:26:16 | 49.39385 | 13.25834 | 103° | 69km/h | 7058m | -4.7m/s | 0°C | 0% | 0hPa | 4.5V | 00:00:00 | 00:00:00 | 00:00:00 | |
| DO3MHA-11 | 2026-09-02 10:26:15 | 49.39392 | 13.25807 | 102° | 68km/h | 7068m | -4.8m/s | 0°C | 0% | 0hPa | 4.5V | 00:00:00 | 00:00:00 | 00:00:00 | |
| OE5MMP-10 | 2026-09-02 10:26:09 | 49.39412 | 13.25650 | 101° | 68km/h | 7097m | -4.8m/s | 0°C | 0% | 0hPa | 4.5V | 00:00:00 | 00:00:00 | 00:00:00 | |
| DO3MHA-11 | 2026-09-02 10:26:04 | 49.39424 | 13.25521 | 102° | 69km/h | 7117m | -5.0m/s | 0°C | 0% | 0hPa | 4.5V | 00:00:00 | 00:00:00 | 00:00:00 | |
| OE3OSB-13 | 2026-09-02 10:26:03 | 49.39435 | 13.25469 | 101° | 68km/h | 7127m | -4.9m/s | -25.0°C | -1.0% | -1.0hPa | 4.5V | 00:00:00 | 00:00:00 | 00:00:00 | |
| OE5MMP-10 | 2026-09-02 10:25:58 | 49.39448 | 13.25362 | 102° | 73km/h | 7152m | -4.9m/s | 0°C | 0% | 0hPa | 4.5V | 00:00:00 | 00:00:00 | 00:00:00 | |
| DO3MHA-11 | 2026-09-02 10:25:54 | 49.39463 | 13.25258 | 104° | 73km/h | 7172m | -4.9m/s | 0°C | 0% | 0hPa | 4.5V | 00:00:00 | 00:00:00 | 00:00:00 | |
| OE3JTB-15 | 2026-09-02 10:25:50 | 49.39480 | 13.25152 | 104° | 133km/h | 7191m | -5.6m/s | 0°C | 0% | 0hPa | 4.5V | 00:00:00 | 00:00:00 | 00:00:00 | |
| DB0NH | 2026-09-02 10:25:49 | 49.39480 | 13.25123 | 105° | 73km/h | 7191m | -5.6m/s | 0°C | 0% | 0hPa | 4.5V | 00:00:00 | 00:00:00 | 00:00:00 | |
| OE5MMP-10 | 2026-09-02 10:25:47 | 49.39495 | 13.25067 | 106° | 73km/h | 7209m | -5.9m/s | 0°C | 0% | 0hPa | 4.5V | 00:00:00 | 00:00:00 | 00:00:00 | |
| NBG1-10 | 2026-09-02 10:25:43 | 49.39513 | 13.24960 | 104° | 73km/h | 7228m | -4.4m/s | 0°C | 0% | 0hPa | 4.5V | 00:00:00 | 00:00:00 | 00:00:00 | |
| OE5DXL-15 | 2026-09-02 10:25:39 | 49.39530 | 13.24851 | 103° | 73km/h | 7246m | -4.4m/s | 0°C | 0% | 0hPa | 4.5V | 00:00:00 | 00:00:00 | 00:00:00 | |
| OE5MMP-10 | 2026-09-02 10:25:36 | 49.39538 | 13.24765 | 104° | 71km/h | 7255m | -4.0m/s | 0°C | 0% | 0hPa | 4.5V | 00:00:00 | 00:00:00 | 00:00:00 | |
| DO3MHA-11 | 2026-09-02 10:25:33 | 49.39552 | 13.24684 | 106° | 73km/h | 7268m | -4.6m/s | 0°C | 0% | 0hPa | 4.5V | 00:00:00 | 00:00:00 | 00:00:00 | |
| OE5DRO-10 | 2026-09-02 10:25:30 | 49.39570 | 13.24605 | 104° | 73km/h | 7285m | -4.0m/s | 0°C | 0% | 0hPa | 4.5V | 00:00:00 | 00:00:00 | 00:00:00 | |
| OE5MMP-10 | 2026-09-02 10:25:26 | 49.39587 | 13.24493 | 104° | 73km/h | 7301m | -4.0m/s | 0°C | 0% | 0hPa | 4.5V | 00:00:00 | 00:00:00 | 00:00:00 | |
| DO3MHA-11 | 2026-09-02 10:25:24 | 49.39596 | 13.24437 | 104° | 73km/h | 7310m | -4.1m/s | 0°C | 0% | 0hPa | 4.5V | 00:00:00 | 00:00:00 | 00:00:00 | |
| DB0NH | 2026-09-02 10:25:19 | 49.39617 | 13.24299 | 104° | 71km/h | 7330m | -4.0m/s | 0°C | 0% | 0hPa | 4.5V | 00:00:00 | 00:00:00 | 00:00:00 | |
| OE5MMP-10 | 2026-09-02 10:25:15 | 49.39634 | 13.24188 | 103° | 73km/h | 7347m | -4.1m/s | 0°C | 0% | 0hPa | 4.5V | 00:00:00 | 00:00:00 | 00:00:00 | |
| DO3MHA-11 | 2026-09-02 10:25:13 | 49.39642 | 13.24133 | 104° | 73km/h | 7355m | -4.0m/s | 0°C | 0% | 0hPa | 4.5V | 00:00:00 | 00:00:00 | 00:00:00 | |
| OE5DRO-10 | 2026-09-02 10:25:11 | 49.39650 | 13.24077 | 103° | 71km/h | 7363m | -4.0m/s | 0°C | 0% | 0hPa | 4.5V | 00:00:00 | 00:00:00 | 00:00:00 | |
| DO8TBO-1 | 2026-09-02 10:25:10 | 49.39658 | 13.24022 | 104° | 71km/h | 7371m | -3.9m/s | 0°C | 0% | 0hPa | 4.5V | 00:00:00 | 00:00:00 | 00:00:00 | |
| NBG1-10 | 2026-09-02 10:25:09 | 49.39658 | 13.24022 | 104° | 71km/h | 7371m | -3.9m/s | 0°C | 0% | 0hPa | 4.5V | 00:00:00 | 00:00:00 | 00:00:00 | |
| OE5MMP-10 | 2026-09-02 10:25:05 | 49.39671 | 13.23914 | 105° | 71km/h | 7383m | -4.1m/s | 0°C | 0% | 0hPa | 4.5V | 00:00:00 | 00:00:00 | 00:00:00 | |
| DO3MHA-11 | 2026-09-02 10:25:02 | 49.39688 | 13.23832 | 103° | 71km/h | 7399m | -4.0m/s | 0°C | 0% | 0hPa | 4.5V | 00:00:00 | 00:00:00 | 00:00:00 | |
| OE5MMP-10 | 2026-09-02 10:24:55 | 49.39712 | 13.23643 | 104° | 71km/h | 7424m | -4.1m/s | 0°C | 0% | 0hPa | 4.5V | 00:00:00 | 00:00:00 | 00:00:00 | |
| OE3JTB-15 | 2026-09-02 10:24:52 | 49.39728 | 13.23563 | 104° | 69km/h | 7436m | -4.0m/s | 0°C | 0% | 0hPa | 4.5V | 00:00:00 | 00:00:00 | 00:00:00 | |
| OE5DRO-10 | 2026-09-02 10:24:51 | 49.39732 | 13.23536 | 104° | 69km/h | 7445m | -4.0m/s | 0°C | 0% | 0hPa | 4.5V | 00:00:00 | 00:00:00 | 00:00:00 | |
| DB0NH | 2026-09-02 10:24:50 | 49.39737 | 13.23483 | 103° | 69km/h | 7449m | -4.0m/s | 0°C | 0% | 0hPa | 4.5V | 00:00:00 | 00:00:00 | 00:00:00 | |
| OE5MMP-10 | 2026-09-02 10:24:45 | 49.39756 | 13.23375 | 104° | 69km/h | 7470m | -4.3m/s | 0°C | 0% | 0hPa | 4.5V | 00:00:00 | 00:00:00 | 00:00:00 | |
| DO3MHA-11 | 2026-09-02 10:24:42 | 49.39765 | 13.23296 | 105° | 69km/h | 7478m | -4.2m/s | 0°C | 0% | 0hPa | 4.5V | 00:00:00 | 00:00:00 | 00:00:00 | |
| DO8TBO-1 | 2026-09-02 10:24:40 | 49.39786 | 13.23191 | 103° | 68km/h | 7499m | -4.1m/s | 0°C | 0% | 0hPa | 4.5V | 00:00:00 | 00:00:00 | 00:00:00 | |
| OE5DXL-15 | 2026-09-02 10:24:39 | 49.39782 | 13.23217 | 104° | 68km/h | 7491m | -4.3m/s | 0°C | 0% | 0hPa | 4.5V | 00:00:00 | 00:00:00 | 00:00:00 | |
| NBG1-10 | 2026-09-02 10:24:36 | 49.39794 | 13.23138 | 104° | 68km/h | 7508m | -4.0m/s | 0°C | 0% | 0hPa | 4.5V | 00:00:00 | 00:00:00 | 00:00:00 | |
| OE5MMP-10 | 2026-09-02 10:24:34 | 49.39802 | 13.23085 | 104° | 69km/h | 7515m | -4.2m/s | 0°C | 0% | 0hPa | 4.5V | 00:00:00 | 00:00:00 | 00:00:00 | |
| DO3MHA-11 | 2026-09-02 10:24:32 | 49.39811 | 13.23032 | 106° | 69km/h | 7524m | -4.2m/s | 0°C | 0% | 0hPa | 4.5V | 00:00:00 | 00:00:00 | 00:00:00 | |
| OE5DRO-10 | 2026-09-02 10:24:31 | 49.39816 | 13.23006 | 105° | 68km/h | 7528m | -4.0m/s | 0°C | 0% | 0hPa | 4.5V | 00:00:00 | 00:00:00 | 00:00:00 | |
| OE5MMP-10 | 2026-09-02 10:24:23 | 49.39847 | 13.22800 | 104° | 68km/h | 7561m | -4.3m/s | 0°C | 0% | 0hPa | 4.5V | 00:00:00 | 00:00:00 | 00:00:00 | |
| DO3MHA-11 | 2026-09-02 10:24:21 | 49.39856 | 13.22749 | 105° | 68km/h | 7569m | -4.2m/s | 0°C | 0% | 0hPa | 4.5V | 00:00:00 | 00:00:00 | 00:00:00 | |
| DB0NH | 2026-09-02 10:24:19 | 49.39864 | 13.22698 | 104° | 66km/h | 7578m | -4.2m/s | 0°C | 0% | 0hPa | 4.5V | 00:00:00 | 00:00:00 | 00:00:00 | |
| DO8TBO-1 | 2026-09-02 10:24:10 | 49.39903 | 13.22445 | 105° | 66km/h | 7620m | -4.2m/s | 0°C | 0% | 0hPa | 4.5V | 00:00:00 | 00:00:00 | 00:00:00 | |
| OE5DXL-15 | 2026-09-02 10:24:09 | 49.39903 | 13.22445 | 105° | 66km/h | 7616m | -4.3m/s | 0°C | 0% | 0hPa | 4.5V | 00:00:00 | 00:00:00 | 00:00:00 | |
| PETON7-10 | 2026-09-02 10:24:04 | 49.39924 | 13.22321 | 104° | 66km/h | 7641m | -4.2m/s | 0°C | 0% | 0hPa | 4.5V | 00:00:00 | 00:00:00 | 00:00:00 | |
| OE5MMP-10 | 2026-09-02 10:24:02 | 49.39931 | 13.22270 | 103° | 66km/h | 7649m | -4.1m/s | 0°C | 0% | 0hPa | 4.5V | 00:00:00 | 00:00:00 | 00:00:00 | |
| DO3MHA-11 | 2026-09-02 10:23:59 | 49.39938 | 13.22195 | 105° | 66km/h | 7658m | -4.1m/s | 0°C | 0% | 0hPa | 4.5V | 00:00:00 | 00:00:00 | 00:00:00 | |
| OE5DRO-10 | 2026-09-02 10:23:53 | 49.39968 | 13.22050 | 105° | 64km/h | 7687m | -4.2m/s | 0°C | 0% | 0hPa | 4.5V | 00:00:00 | 00:00:00 | 00:00:00 | |
| OE5MMP-10 | 2026-09-02 10:23:51 | 49.39976 | 13.22000 | 104° | 64km/h | 7696m | -4.2m/s | 0°C | 0% | 0hPa | 4.5V | 00:00:00 | 00:00:00 | 00:00:00 | |
| DO3MHA-11 | 2026-09-02 10:23:49 | 49.39984 | 13.21951 | 104° | 64km/h | 7705m | -4.3m/s | 0°C | 0% | 0hPa | 4.5V | 00:00:00 | 00:00:00 | 00:00:00 | |
| PETON7-10 | 2026-09-02 10:23:47 | 49.39988 | 13.21903 | 104° | 62km/h | 7717m | -4.1m/s | 0°C | 0% | 0hPa | 4.5V | 00:00:00 | 00:00:00 | 00:00:00 | |
| OE3JTB-15 | 2026-09-02 10:23:45 | 49.40000 | 13.21855 | 105° | 62km/h | 7726m | -4.2m/s | 0°C | 0% | 0hPa | 4.5V | 00:00:00 | 00:00:00 | 00:00:00 | |
| OE5MMP-10 | 2026-09-02 10:23:40 | 49.40020 | 13.21735 | 105° | 62km/h | 7743m | -4.2m/s | 0°C | 0% | 0hPa | 4.5V | 00:00:00 | 00:00:00 | 00:00:00 | |
| OE5DXL-15 | 2026-09-02 10:23:39 | 49.40024 | 13.21711 | 106° | 62km/h | 7743m | -4.2m/s | 0°C | 0% | 0hPa | 4.5V | 00:00:00 | 00:00:00 | 00:00:00 | |
| OE5DRO-10 | 2026-09-02 10:23:34 | 49.40043 | 13.21594 | 104° | 62km/h | 7769m | -4.2m/s | 0°C | 0% | 0hPa | 4.5V | 00:00:00 | 00:00:00 | 00:00:00 | |
| OE5MMP-10 | 2026-09-02 10:23:29 | 49.40058 | 13.21475 | 104° | 62km/h | 7786m | -4.2m/s | 0°C | 0% | 0hPa | 4.5V | 00:00:00 | 00:00:00 | 00:00:00 | |
| PETON7-10 | 2026-09-02 10:23:28 | 49.40067 | 13.21451 | 105° | 62km/h | 7790m | -4.3m/s | 0°C | 0% | 0hPa | 4.5V | 00:00:00 | 00:00:00 | 00:00:00 | |
| DO3MHA-11 | 2026-09-02 10:23:27 | 49.40069 | 13.21428 | 105° | 62km/h | 7799m | -4.4m/s | 0°C | 0% | 0hPa | 4.5V | 00:00:00 | 00:00:00 | 00:00:00 | |
| OE5MMP-10 | 2026-09-02 10:23:19 | 49.40097 | 13.21241 | 103° | 62km/h | 7833m | -4.3m/s | 0°C | 0% | 0hPa | 4.5V | 00:00:00 | 00:00:00 | 00:00:00 | |
| DB0NH | 2026-09-02 10:23:18 | 49.40097 | 13.21217 | 103° | 60km/h | 7833m | -4.3m/s | 0°C | 0% | 0hPa | 4.5V | 00:00:00 | 00:00:00 | 00:00:00 | |
| DO3MHA-11 | 2026-09-02 10:23:16 | 49.40103 | 13.21171 | 103° | 60km/h | 7842m | -4.3m/s | 0°C | 0% | 0hPa | 4.5V | 00:00:00 | 00:00:00 | 00:00:00 | |
| OE5DRO-10 | 2026-09-02 10:23:15 | 49.40110 | 13.21147 | 104° | 60km/h | 7851m | -4.2m/s | 0°C | 0% | 0hPa | 4.5V | 00:00:00 | 00:00:00 | 00:00:00 | |
| PETON7-10 | 2026-09-02 10:23:13 | 49.40114 | 13.21101 | 100° | 60km/h | 7855m | -4.3m/s | 0°C | 0% | 0hPa | 4.5V | 00:00:00 | 00:00:00 | 00:00:00 | |
| DO8TBO-1 | 2026-09-02 10:23:10 | 49.40128 | 13.21008 | 100° | 58km/h | 7877m | -4.3m/s | 0°C | 0% | 0hPa | 4.5V | 00:00:00 | 00:00:00 | 00:00:00 | |
| OE5DXL-15 | 2026-09-02 10:23:09 | 49.40128 | 13.21008 | 100° | 58km/h | 7872m | -4.4m/s | 0°C | 0% | 0hPa | 4.5V | 00:00:00 | 00:00:00 | 00:00:00 | |
| OE5MMP-10 | 2026-09-02 10:23:08 | 49.40131 | 13.20985 | 101° | 60km/h | 7881m | -4.3m/s | 0°C | 0% | 0hPa | 4.5V | 00:00:00 | 00:00:00 | 00:00:00 | |
| DO3MHA-11 | 2026-09-02 10:23:06 | 49.40137 | 13.20939 | 103° | 60km/h | 7889m | -4.2m/s | 0°C | 0% | 0hPa | 4.5V | 00:00:00 | 00:00:00 | 00:00:00 | |
| OE3JTB-15 | 2026-09-02 10:23:04 | 49.40143 | 13.20893 | 102° | 57km/h | 7898m | -4.2m/s | 0°C | 0% | 0hPa | 4.5V | 00:00:00 | 00:00:00 | 00:00:00 | |
| OE5MMP-10 | 2026-09-02 10:22:57 | 49.40162 | 13.20734 | 101° | 58km/h | 7928m | -4.2m/s | 0°C | 0% | 0hPa | 4.5V | 00:00:00 | 00:00:00 | 00:00:00 | |
| PETON7-10 | 2026-09-02 10:22:55 | 49.40168 | 13.20689 | 102° | 58km/h | 7937m | -4.3m/s | 0°C | 0% | 0hPa | 4.5V | 00:00:00 | 00:00:00 | 00:00:00 | |
| OE5MMP-10 | 2026-09-02 10:22:48 | 49.40188 | 13.20510 | 101° | 58km/h | 7967m | -4.3m/s | 0°C | 0% | 0hPa | 4.5V | 00:00:00 | 00:00:00 | 00:00:00 | |
| DO3MHA-11 | 2026-09-02 10:22:44 | 49.40199 | 13.20444 | 101° | 58km/h | 7985m | -4.3m/s | 0°C | 0% | 0hPa | 4.5V | 00:00:00 | 00:00:00 | 00:00:00 | |
| PETON7-10 | 2026-09-02 10:22:40 | 49.40208 | 13.20356 | 100° | 57km/h | 8024m | -4.2m/s | 0°C | 0% | 0hPa | 4.5V | 00:00:00 | 00:00:00 | 00:00:00 | |
| OE5DXL-15 | 2026-09-02 10:22:39 | 49.40211 | 13.20334 | 100° | 57km/h | 8003m | -4.3m/s | 0°C | 0% | 0hPa | 4.5V | 00:00:00 | 00:00:00 | 00:00:00 | |
| OE5MMP-10 | 2026-09-02 10:22:37 | 49.40213 | 13.20289 | 100° | 58km/h | 8011m | -4.3m/s | 0°C | 0% | 0hPa | 4.5V | 00:00:00 | 00:00:00 | 00:00:00 | |
| OE5DRO-10 | 2026-09-02 10:22:36 | 49.40219 | 13.20267 | 100° | 57km/h | 8020m | -4.2m/s | 0°C | 0% | 0hPa | 4.5V | 00:00:00 | 00:00:00 | 00:00:00 | |
| DO3MHA-11 | 2026-09-02 10:22:33 | 49.40224 | 13.20200 | 101° | 57km/h | 8028m | -4.3m/s | 0°C | 0% | 0hPa | 4.5V | 00:00:00 | 00:00:00 | 00:00:00 | |
| OE5MMP-10 | 2026-09-02 10:22:27 | 49.40241 | 13.20069 | 98° | 57km/h | 8058m | -4.2m/s | 0°C | 0% | 0hPa | 4.5V | 00:00:00 | 00:00:00 | 00:00:00 | |
| PETON7-10 | 2026-09-02 10:22:25 | 49.40243 | 13.20025 | 99° | 57km/h | 8080m | -4.3m/s | 0°C | 0% | 0hPa | 4.5V | 00:00:00 | 00:00:00 | 00:00:00 | |
| DO3MHA-11 | 2026-09-02 10:22:23 | 49.40249 | 13.19982 | 100° | 57km/h | 8075m | -4.3m/s | 0°C | 0% | 0hPa | 4.5V | 00:00:00 | 00:00:00 | 00:00:00 | |
| NBG1-10 | 2026-09-02 10:22:21 | 49.40254 | 13.19940 | 100° | 55km/h | 8084m | -4.3m/s | 0°C | 0% | 0hPa | 4.5V | 00:00:00 | 00:00:00 | 00:00:00 | |
| DB0NH | 2026-09-02 10:22:19 | 49.40258 | 13.19873 | 100° | 55km/h | 8101m | -4.4m/s | 0°C | 0% | 0hPa | 4.5V | 00:00:00 | 00:00:00 | 00:00:00 | |
| OE5MMP-10 | 2026-09-02 10:22:17 | 49.40261 | 13.19853 | 100° | 55km/h | 8097m | -4.4m/s | 0°C | 0% | 0hPa | 4.5V | 00:00:00 | 00:00:00 | 00:00:00 | |
| OE5DRO-10 | 2026-09-02 10:22:16 | 49.40265 | 13.19831 | 98° | 55km/h | 8106m | -4.4m/s | 0°C | 0% | 0hPa | 4.5V | 00:00:00 | 00:00:00 | 00:00:00 | |
| DO3MHA-11 | 2026-09-02 10:22:12 | 49.40273 | 13.19746 | 97° | 55km/h | 8124m | -4.5m/s | 0°C | 0% | 0hPa | 4.5V | 00:00:00 | 00:00:00 | 00:00:00 | |
| PETON7-10 | 2026-09-02 10:22:10 | 49.40276 | 13.19703 | 98° | 53km/h | 8150m | -4.3m/s | 0°C | 0% | 0hPa | 4.5V | 00:00:00 | 00:00:00 | 00:00:00 | |
| OE5DXL-15 | 2026-09-02 10:22:09 | 49.40278 | 13.19682 | 98° | 53km/h | 8132m | -4.3m/s | 0°C | 0% | 0hPa | 4.5V | 00:00:00 | 00:00:00 | 00:00:00 | |
| OE5MMP-10 | 2026-09-02 10:22:07 | 49.40279 | 13.19641 | 97° | 53km/h | 8141m | -4.5m/s | 0°C | 0% | 0hPa | 4.5V | 00:00:00 | 00:00:00 | 00:00:00 | |
| DB0UT-7 | 2026-09-02 10:22:04 | 49.40286 | 13.19579 | 98° | 51km/h | 8163m | -4.4m/s | 0°C | 0% | 0hPa | 4.5V | 00:00:00 | 00:00:00 | 00:00:00 | |
| DO3MHA-11 | 2026-09-02 10:22:01 | 49.40291 | 13.19518 | 96° | 53km/h | 8171m | -4.3m/s | 0°C | 0% | 0hPa | 4.5V | 00:00:00 | 00:00:00 | 00:00:00 | |
| OE5MMP-10 | 2026-09-02 10:21:57 | 49.40295 | 13.19438 | 95° | 53km/h | 8190m | -4.6m/s | 0°C | 0% | 0hPa | 4.5V | 00:00:00 | 00:00:00 | 00:00:00 | |
| PETON7-10 | 2026-09-02 10:21:51 | 49.40306 | 13.19294 | 96° | 40km/h | 8224m | -4.4m/s | 0°C | 0% | 0hPa | 4.5V | 00:00:00 | 00:00:00 | 00:00:00 | |
| DO3MHA-11 | 2026-09-02 10:21:50 | 49.40307 | 13.19294 | 94° | 53km/h | 8224m | -4.7m/s | 0°C | 0% | 0hPa | 4.5V | 00:00:00 | 00:00:00 | 00:00:00 | |
| NBG1-10 | 2026-09-02 10:21:48 | 49.40308 | 13.19252 | 92° | 49km/h | 8233m | -4.7m/s | 0°C | 0% | 0hPa | 4.5V | 00:00:00 | 00:00:00 | 00:00:00 | |
| DB0NH | 2026-09-02 10:21:46 | 49.40309 | 13.19210 | 94° | 49km/h | 8242m | -4.7m/s | 0°C | 0% | 0hPa | 4.5V | 00:00:00 | 00:00:00 | 00:00:00 | |
| OE5WHR-10 | 2026-09-02 10:21:45 | 49.40309 | 13.19190 | 96° | 51km/h | 8242m | -4.7m/s | 0°C | 0% | 0hPa | 4.5V | 00:00:00 | 00:00:00 | 00:00:00 | |
| DO3MHA-11 | 2026-09-02 10:21:40 | 49.40315 | 13.19089 | 91° | 49km/h | 8270m | -4.5m/s | 0°C | 0% | 0hPa | 4.5V | 00:00:00 | 00:00:00 | 00:00:00 | |
| OE5DXL-15 | 2026-09-02 10:21:39 | 49.40315 | 13.19070 | 89° | 49km/h | 8270m | -4.5m/s | 0°C | 0% | 0hPa | 4.5V | 00:00:00 | 00:00:00 | 00:00:00 | |
| OE5DRO-10 | 2026-09-02 10:21:38 | 49.40314 | 13.19051 | 88° | 49km/h | 8280m | -4.4m/s | 0°C | 0% | 0hPa | 4.5V | 00:00:00 | 00:00:00 | 00:00:00 | |
| OE5MMP-10 | 2026-09-02 10:21:35 | 49.40312 | 13.18992 | 88° | 49km/h | 8293m | -4.5m/s | 0°C | 0% | 0hPa | 4.5V | 00:00:00 | 00:00:00 | 00:00:00 | |
| DB0UT-7 | 2026-09-02 10:21:33 | 49.40312 | 13.18953 | 93° | 51km/h | 8302m | -4.6m/s | 0°C | 0% | 0hPa | 4.5V | 00:00:00 | 00:00:00 | 00:00:00 | |
| DO3MHA-11 | 2026-09-02 10:21:29 | 49.40314 | 13.18879 | 91° | 49km/h | 8320m | -4.5m/s | 0°C | 0% | 0hPa | 4.5V | 00:00:00 | 00:00:00 | 00:00:00 | |
| OE5WHR-10 | 2026-09-02 10:21:24 | 49.40311 | 13.18781 | 90° | 49km/h | 8338m | -4.4m/s | 0°C | 0% | 0hPa | 4.5V | 00:00:00 | 00:00:00 | 00:00:00 | |
| PETON7-10 | 2026-09-02 10:21:20 | 49.40312 | 13.18708 | 92° | 51km/h | 8381m | -5.1m/s | 0°C | 0% | 0hPa | 4.5V | 00:00:00 | 00:00:00 | 00:00:00 | |
| DO3MHA-11 | 2026-09-02 10:21:18 | 49.40312 | 13.18673 | 88° | 49km/h | 8372m | -4.6m/s | 0°C | 0% | 0hPa | 4.5V | 00:00:00 | 00:00:00 | 00:00:00 | |
| DB0NH | 2026-09-02 10:21:16 | 49.40312 | 13.18635 | 90° | 49km/h | 8381m | -4.4m/s | 0°C | 0% | 0hPa | 4.5V | 00:00:00 | 00:00:00 | 00:00:00 | |
| OE5MMP-10 | 2026-09-02 10:21:14 | 49.40311 | 13.18595 | 91° | 49km/h | 8391m | -4.3m/s | 0°C | 0% | 0hPa | 4.5V | 00:00:00 | 00:00:00 | 00:00:00 | |
| OE5DXL-15 | 2026-09-02 10:21:09 | 49.40310 | 13.18499 | 89° | 49km/h | 8410m | -4.7m/s | 0°C | 0% | 0hPa | 4.5V | 00:00:00 | 00:00:00 | 00:00:00 | |
| DO3MHA-11 | 2026-09-02 10:21:08 | 49.40310 | 13.18480 | 89° | 49km/h | 8415m | -4.5m/s | 0°C | 0% | 0hPa | 4.5V | 00:00:00 | 00:00:00 | 00:00:00 | |
| OE3JTB-15 | 2026-09-02 10:21:04 | 49.40309 | 13.18404 | 91° | 51km/h | 8433m | -4.5m/s | 0°C | 0% | 0hPa | 4.5V | 00:00:00 | 00:00:00 | 00:00:00 | |
| OE5DRO-10 | 2026-09-02 10:20:59 | 49.40309 | 13.18310 | 89° | 49km/h | 8461m | -4.5m/s | 0°C | 0% | 0hPa | 4.5V | 00:00:00 | 00:00:00 | 00:00:00 | |
| DO3MHA-11 | 2026-09-02 10:20:58 | 49.40309 | 13.18291 | 89° | 49km/h | 8461m | -4.6m/s | 0°C | 0% | 0hPa | 4.5V | 00:00:00 | 00:00:00 | 00:00:00 | |
| OE5WHR-10 | 2026-09-02 10:20:57 | 49.40308 | 13.18272 | 89° | 51km/h | 8466m | -4.5m/s | 0°C | 0% | 0hPa | 4.5V | 00:00:00 | 00:00:00 | 00:00:00 | |
| OE5MMP-10 | 2026-09-02 10:20:52 | 49.40306 | 13.18176 | 90° | 49km/h | 8493m | -4.6m/s | 0°C | 0% | 0hPa | 4.5V | 00:00:00 | 00:00:00 | 00:00:00 | |
| DO3MHA-11 | 2026-09-02 10:20:48 | 49.40305 | 13.18101 | 88° | 51km/h | 8512m | -4.7m/s | 0°C | 0% | 0hPa | 4.5V | 00:00:00 | 00:00:00 | 00:00:00 | |
| DB0NH | 2026-09-02 10:20:46 | 49.40304 | 13.18062 | 87° | 51km/h | 8521m | -4.7m/s | 0°C | 0% | 0hPa | 4.5V | 00:00:00 | 00:00:00 | 00:00:00 | |
| OE5MMP-10 | 2026-09-02 10:20:41 | 49.40301 | 13.17963 | 90° | 51km/h | 8540m | -4.7m/s | 0°C | 0% | 0hPa | 4.5V | 00:00:00 | 00:00:00 | 00:00:00 | |
| NBG1-10 | 2026-09-02 10:20:40 | 49.40301 | 13.17944 | 90° | 51km/h | 8544m | -4.6m/s | 0°C | 0% | 0hPa | 4.5V | 00:00:00 | 00:00:00 | 00:00:00 | |
| OE5DRO-10 | 2026-09-02 10:20:39 | 49.40301 | 13.17925 | 91° | 51km/h | 8554m | -4.7m/s | 0°C | 0% | 0hPa | 4.5V | 00:00:00 | 00:00:00 | 00:00:00 | |
| DO3MHA-11 | 2026-09-02 10:20:37 | 49.40301 | 13.17886 | 89° | 51km/h | 8563m | -4.7m/s | 0°C | 0% | 0hPa | 4.5V | 00:00:00 | 00:00:00 | 00:00:00 | |
| OE5WHR-10 | 2026-09-02 10:20:36 | 49.40301 | 13.17867 | 87° | 68km/h | 8563m | -4.6m/s | 0°C | 0% | 0hPa | 4.5V | 00:00:00 | 00:00:00 | 00:00:00 | |
| OE5MMP-10 | 2026-09-02 10:20:31 | 49.40298 | 13.17765 | 90° | 51km/h | 8591m | -4.7m/s | 0°C | 0% | 0hPa | 4.5V | 00:00:00 | 00:00:00 | 00:00:00 | |
| OK1ALN | 2026-09-02 10:20:28 | 49.40297 | 13.17686 | 90° | 51km/h | 8606m | 650.5m/s | -36.3°C | 0% | 0hPa | 4.5V | 00:00:00 | 00:00:00 | 00:00:00 | |
| DO3MHA-11 | 2026-09-02 10:20:26 | 49.40297 | 13.17666 | 89° | 53km/h | 8615m | -4.7m/s | 0°C | 0% | 0hPa | 4.5V | 00:00:00 | 00:00:00 | 00:00:00 | |
| OE5MMP-10 | 2026-09-02 10:20:20 | 49.40295 | 13.17544 | 90° | 51km/h | 8644m | -4.7m/s | 0°C | 0% | 0hPa | 4.5V | 00:00:00 | 00:00:00 | 00:00:00 | |
| DB0UT-7 | 2026-09-02 10:20:18 | 49.40295 | 13.17503 | 91° | 53km/h | 8654m | -4.7m/s | 0°C | 0% | 0hPa | 4.5V | 00:00:00 | 00:00:00 | 00:00:00 | |
| DB0NH | 2026-09-02 10:20:16 | 49.40295 | 13.17463 | 90° | 53km/h | 8663m | -4.7m/s | 0°C | 0% | 0hPa | 4.5V | 00:00:00 | 00:00:00 | 00:00:00 | |
| DO3MHA-11 | 2026-09-02 10:20:15 | 49.40295 | 13.17443 | 90° | 53km/h | 8663m | -4.8m/s | 0°C | 0% | 0hPa | 4.5V | 00:00:00 | 00:00:00 | 00:00:00 | |
| OE5MMP-10 | 2026-09-02 10:20:09 | 49.40291 | 13.17321 | 89° | 53km/h | 8697m | -4.7m/s | 0°C | 0% | 0hPa | 4.5V | 00:00:00 | 00:00:00 | 00:00:00 | |
| NBG1-10 | 2026-09-02 10:20:07 | 49.40291 | 13.17280 | 89° | 55km/h | 8706m | -4.8m/s | 0°C | 0% | 0hPa | 4.5V | 00:00:00 | 00:00:00 | 00:00:00 | |
| DO3MHA-11 | 2026-09-02 10:20:05 | 49.40290 | 13.17239 | 89° | 53km/h | 8716m | -4.8m/s | 0°C | 0% | 0hPa | 4.5V | 00:00:00 | 00:00:00 | 00:00:00 | |
| OE5DRO-10 | 2026-09-02 10:20:00 | 49.40286 | 13.17136 | 87° | 55km/h | 8740m | -4.9m/s | 0°C | 0% | 0hPa | 4.5V | 00:00:00 | 00:00:00 | 00:00:00 | |
| OE5MMP-10 | 2026-09-02 10:19:58 | 49.40285 | 13.17094 | 88° | 55km/h | 8750m | -4.8m/s | 0°C | 0% | 0hPa | 4.5V | 00:00:00 | 00:00:00 | 00:00:00 | |
| DO3MHA-11 | 2026-09-02 10:19:54 | 49.40283 | 13.17009 | 89° | 55km/h | 8769m | -4.6m/s | 0°C | 0% | 0hPa | 4.5V | 00:00:00 | 00:00:00 | 00:00:00 | |
| OE5MMP-10 | 2026-09-02 10:19:48 | 49.40280 | 13.16884 | 87° | 55km/h | 8797m | -4.6m/s | 0°C | 0% | 0hPa | 4.5V | 00:00:00 | 00:00:00 | 00:00:00 | |
| DB0NH | 2026-09-02 10:19:45 | 49.40278 | 13.16821 | 90° | 58km/h | 8807m | -4.6m/s | 0°C | 0% | 0hPa | 4.5V | 00:00:00 | 00:00:00 | 00:00:00 | |
| DO3MHA-11 | 2026-09-02 10:19:43 | 49.40278 | 13.16777 | 89° | 57km/h | 8821m | -4.8m/s | 0°C | 0% | 0hPa | 4.5V | 00:00:00 | 00:00:00 | 00:00:00 | |
| OE5DRO-10 | 2026-09-02 10:19:41 | 49.40277 | 13.16734 | 88° | 58km/h | 8831m | -4.7m/s | 0°C | 0% | 0hPa | 4.5V | 00:00:00 | 00:00:00 | 00:00:00 | |
| DO8TBO-1 | 2026-09-02 10:19:40 | 49.40275 | 13.16669 | 88° | 60km/h | 8845m | -4.7m/s | 0°C | 0% | 0hPa | 4.5V | 00:00:00 | 00:00:00 | 00:00:00 | |
| OE5DXL-15 | 2026-09-02 10:19:39 | 49.40275 | 13.16691 | 87° | 60km/h | 8840m | -4.7m/s | 0°C | 0% | 0hPa | 4.5V | 00:00:00 | 00:00:00 | 00:00:00 | |
| OE5MMP-10 | 2026-09-02 10:19:37 | 49.40274 | 13.16646 | 89° | 58km/h | 8850m | -4.7m/s | 0°C | 0% | 0hPa | 4.5V | 00:00:00 | 00:00:00 | 00:00:00 | |
| DF2AP-13 | 2026-09-02 10:19:35 | 49.40274 | 13.16601 | 90° | 62km/h | 8869m | -4.7m/s | 0°C | 0% | 0hPa | 4.5V | 00:00:00 | 00:00:00 | 00:00:00 | |
| NBG1-10 | 2026-09-02 10:19:33 | 49.40273 | 13.16557 | 89° | 62km/h | 8869m | -4.9m/s | 0°C | 0% | 0hPa | 4.5V | 00:00:00 | 00:00:00 | 00:00:00 | |
| DO3MHA-11 | 2026-09-02 10:19:32 | 49.40274 | 13.16534 | 88° | 58km/h | 8869m | -4.9m/s | 0°C | 0% | 0hPa | 4.5V | 00:00:00 | 00:00:00 | 00:00:00 | |
| PETON7-10 | 2026-09-02 10:19:28 | 49.40270 | 13.16445 | 88° | 60km/h | 8917m | -4.7m/s | 0°C | 0% | 0hPa | 4.5V | 00:00:00 | 00:00:00 | 00:00:00 | |
| OE5MMP-10 | 2026-09-02 10:19:26 | 49.40269 | 13.16400 | 88° | 60km/h | 8902m | -4.8m/s | 0°C | 0% | 0hPa | 4.5V | 00:00:00 | 00:00:00 | 00:00:00 | |
| DO3MHA-11 | 2026-09-02 10:19:22 | 49.40266 | 13.16308 | 87° | 60km/h | 8922m | -4.7m/s | 0°C | 0% | 0hPa | 4.5V | 00:00:00 | 00:00:00 | 00:00:00 | |
| OE5MMP-10 | 2026-09-02 10:19:16 | 49.40262 | 13.16167 | 87° | 62km/h | 8947m | -5.2m/s | 0°C | 0% | 0hPa | 4.5V | 00:00:00 | 00:00:00 | 00:00:00 | |
| DB0NH | 2026-09-02 10:19:15 | 49.40260 | 13.16144 | 87° | 66km/h | 8958m | -5.0m/s | 0°C | 0% | 0hPa | 4.5V | 00:00:00 | 00:00:00 | 00:00:00 | |
| PETON7-10 | 2026-09-02 10:19:12 | 49.40259 | 13.16071 | 88° | 64km/h | 8968m | -4.9m/s | 0°C | 0% | 0hPa | 4.5V | 00:00:00 | 00:00:00 | 00:00:00 | |
| DO3MHA-11 | 2026-09-02 10:19:11 | 49.40258 | 13.16046 | 89° | 64km/h | 8978m | -5.0m/s | 0°C | 0% | 0hPa | 4.5V | 00:00:00 | 00:00:00 | 00:00:00 | |
| DO8TBO-1 | 2026-09-02 10:19:10 | 49.40256 | 13.15996 | 87° | 66km/h | 8987m | -4.5m/s | 0°C | 0% | 0hPa | 4.5V | 00:00:00 | 00:00:00 | 00:00:00 | |
| OE5DXL-15 | 2026-09-02 10:19:09 | 49.40256 | 13.15996 | 87° | 66km/h | 8987m | -4.5m/s | 0°C | 0% | 0hPa | 4.5V | 00:00:00 | 00:00:00 | 00:00:00 | |
| OE3JTB-15 | 2026-09-02 10:19:06 | 49.40255 | 13.15923 | 88° | 62km/h | 8996m | -5.0m/s | 0°C | 0% | 0hPa | 4.5V | 00:00:00 | 00:00:00 | 00:00:00 | |
| DF2AP-13 | 2026-09-02 10:19:05 | 49.40253 | 13.15898 | 87° | 66km/h | 9021m | -4.6m/s | 0°C | 0% | 0hPa | 4.5V | 00:00:00 | 00:00:00 | 00:00:00 | |
| DB0UT-7 | 2026-09-02 10:19:03 | 49.40252 | 13.15848 | 88° | 68km/h | 9016m | -4.7m/s | 0°C | 0% | 0hPa | 4.5V | 00:00:00 | 00:00:00 | 00:00:00 | |
| DO3MHA-11 | 2026-09-02 10:19:01 | 49.40251 | 13.15795 | 88° | 66km/h | 9021m | -4.6m/s | 0°C | 0% | 0hPa | 4.5V | 00:00:00 | 00:00:00 | 00:00:00 | |
| NBG1-10 | 2026-09-02 10:19:00 | 49.40250 | 13.15769 | 90° | 66km/h | 9030m | -4.8m/s | 0°C | 0% | 0hPa | 4.5V | 00:00:00 | 00:00:00 | 00:00:00 | |
| OE5MMP-10 | 2026-09-02 10:18:56 | 49.40247 | 13.15669 | 87° | 66km/h | 9050m | -4.8m/s | 0°C | 0% | 0hPa | 4.5V | 00:00:00 | 00:00:00 | 00:00:00 | |
| DO3MHA-11 | 2026-09-02 10:18:52 | 49.40244 | 13.15566 | 89° | 68km/h | 9068m | -4.7m/s | 0°C | 0% | 0hPa | 4.5V | 00:00:00 | 00:00:00 | 00:00:00 | |
| DB0NH | 2026-09-02 10:18:45 | 49.40241 | 13.15386 | 88° | 69km/h | 9103m | -5.0m/s | 0°C | 0% | 0hPa | 4.5V | 00:00:00 | 00:00:00 | 00:00:00 | |
| OE5DRO-10 | 2026-09-02 10:18:43 | 49.40240 | 13.15332 | 89° | 68km/h | 9113m | -4.9m/s | 0°C | 0% | 0hPa | 4.5V | 00:00:00 | 00:00:00 | 00:00:00 | |
| PETON7-10 | 2026-09-02 10:18:41 | 49.40239 | 13.15277 | 89° | 69km/h | 9153m | -4.9m/s | 0°C | 0% | 0hPa | 4.5V | 00:00:00 | 00:00:00 | 00:00:00 | |
| DO8TBO-1 | 2026-09-02 10:18:40 | 49.40237 | 13.15202 | 88° | 69km/h | 9143m | -5.0m/s | 0°C | 0% | 0hPa | 4.5V | 00:00:00 | 00:00:00 | 00:00:00 | |
| OE5DXL-15 | 2026-09-02 10:18:39 | 49.40238 | 13.15225 | 88° | 69km/h | 9133m | -4.8m/s | 0°C | 0% | 0hPa | 4.5V | 00:00:00 | 00:00:00 | 00:00:00 | |
| OE3JTB-15 | 2026-09-02 10:18:37 | 49.40236 | 13.15177 | 87° | 77km/h | 9143m | -5.0m/s | 0°C | 0% | 0hPa | 4.5V | 00:00:00 | 00:00:00 | 00:00:00 | |
| OE5MMP-10 | 2026-09-02 10:18:34 | 49.40232 | 13.15102 | 85° | 68km/h | 9158m | -4.4m/s | 0°C | 0% | 0hPa | 4.5V | 00:00:00 | 00:00:00 | 00:00:00 | |
| DO3MHA-11 | 2026-09-02 10:18:30 | 49.40226 | 13.14990 | 88° | 71km/h | 9179m | -5.7m/s | 0°C | 0% | 0hPa | 4.5V | 00:00:00 | 00:00:00 | 00:00:00 | |
| PETON7-10 | 2026-09-02 10:18:26 | 49.40225 | 13.14890 | 88° | 71km/h | 9200m | -5.6m/s | 0°C | 0% | 0hPa | 4.5V | 00:00:00 | 00:00:00 | 00:00:00 | |
| OE5DRO-10 | 2026-09-02 10:18:23 | 49.40220 | 13.14819 | 83° | 75km/h | 9215m | -5.1m/s | 0°C | 0% | 0hPa | 4.5V | 00:00:00 | 00:00:00 | 00:00:00 | |
| DO3MHA-11 | 2026-09-02 10:18:20 | 49.40216 | 13.14722 | 87° | 73km/h | 9226m | -5.8m/s | 0°C | 0% | 0hPa | 4.5V | 00:00:00 | 00:00:00 | 00:00:00 | |
| DB0NH | 2026-09-02 10:18:15 | 49.40223 | 13.14582 | 86° | 73km/h | 9259m | -5.1m/s | 0°C | 0% | 0hPa | 4.5V | 00:00:00 | 00:00:00 | 00:00:00 | |
| OE5MMP-10 | 2026-09-02 10:18:13 | 49.40217 | 13.14537 | 74° | 75km/h | 9270m | -5.6m/s | 0°C | 0% | 0hPa | 4.5V | 00:00:00 | 00:00:00 | 00:00:00 | |
| PETON7-10 | 2026-09-02 10:18:11 | 49.40207 | 13.14483 | 78° | 82km/h | 9292m | -5.4m/s | 0°C | 0% | 0hPa | 4.5V | 00:00:00 | 00:00:00 | 00:00:00 | |
| DO3MHA-11 | 2026-09-02 10:18:10 | 49.40205 | 13.14451 | 83° | 77km/h | 9281m | -5.4m/s | 0°C | 0% | 0hPa | 4.5V | 00:00:00 | 00:00:00 | 00:00:00 | |
| OE5DXL-15 | 2026-09-02 10:18:09 | 49.40201 | 13.14417 | 89° | 75km/h | 9286m | -5.4m/s | 0°C | 0% | 0hPa | 4.5V | 00:00:00 | 00:00:00 | 00:00:00 | |
| OE3JTB-15 | 2026-09-02 10:18:08 | 49.40199 | 13.14383 | 100° | 71km/h | 9292m | -5.5m/s | 0°C | 0% | 0hPa | 4.5V | 00:00:00 | 00:00:00 | 00:00:00 | |
| DF2AP-13 | 2026-09-02 10:18:04 | 49.40210 | 13.14275 | 85° | 73km/h | 9319m | -5.4m/s | 0°C | 0% | 0hPa | 4.5V | 00:00:00 | 00:00:00 | 00:00:00 | |
| OE5MMP-10 | 2026-09-02 10:18:02 | 49.40203 | 13.14227 | 75° | 71km/h | 9330m | -5.4m/s | 0°C | 0% | 0hPa | 4.5V | 00:00:00 | 00:00:00 | 00:00:00 | |
| DO3MHA-11 | 2026-09-02 10:18:00 | 49.40194 | 13.14165 | 82° | 73km/h | 9340m | -5.3m/s | 0°C | 0% | 0hPa | 4.5V | 00:00:00 | 00:00:00 | 00:00:00 | |
| PETON7-10 | 2026-09-02 10:17:55 | 49.40199 | 13.14010 | 95° | 68km/h | 9362m | -5.5m/s | 0°C | 0% | 0hPa | 4.5V | 00:00:00 | 00:00:00 | 00:00:00 | |
| NBG1-10 | 2026-09-02 10:17:52 | 49.40197 | 13.13940 | 77° | 77km/h | 9378m | -5.4m/s | 0°C | 0% | 0hPa | 4.5V | 00:00:00 | 00:00:00 | 00:00:00 | |
| OE5MMP-10 | 2026-09-02 10:17:49 | 49.40180 | 13.13847 | 86° | 77km/h | 9400m | -5.4m/s | 0°C | 0% | 0hPa | 4.5V | 00:00:00 | 00:00:00 | 00:00:00 | |
| DB0NH | 2026-09-02 10:17:45 | 49.40186 | 13.13726 | 96° | 77km/h | 9421m | -5.3m/s | 0°C | 0% | 0hPa | 4.5V | 00:00:00 | 00:00:00 | 00:00:00 | |
| OE5WHR-10 | 2026-09-02 10:17:42 | 49.40186 | 13.13657 | 74° | 80km/h | 9432m | -5.3m/s | 0°C | 0% | 0hPa | 4.5V | 00:00:00 | 00:00:00 | 00:00:00 | |
| PETON7-10 | 2026-09-02 10:17:40 | 49.40173 | 13.13599 | 79° | 80km/h | 9442m | -5.2m/s | 0°C | 0% | 0hPa | 4.5V | 00:00:00 | 00:00:00 | 00:00:00 | |
| OE5DXL-15 | 2026-09-02 10:17:39 | 49.40167 | 13.13565 | 85° | 77km/h | 9448m | -5.4m/s | 0°C | 0% | 0hPa | 4.5V | 00:00:00 | 00:00:00 | 00:00:00 | |
| DO3MHA-11 | 2026-09-02 10:17:38 | 49.40166 | 13.13530 | 91° | 78km/h | 9458m | -5.2m/s | 0°C | 0% | 0hPa | 4.5V | 00:00:00 | 00:00:00 | 00:00:00 | |
| OE3JTB-15 | 2026-09-02 10:17:37 | 49.40167 | 13.13462 | 96° | 77km/h | 9469m | -5.3m/s | 0°C | 0% | 0hPa | 4.5V | 00:00:00 | 00:00:00 | 00:00:00 | |
| DF2AP-13 | 2026-09-02 10:17:35 | 49.40172 | 13.13414 | 98° | 78km/h | 9479m | -5.3m/s | 0°C | 0% | 0hPa | 4.5V | 00:00:00 | 00:00:00 | 00:00:00 | |
| OK1ALN | 2026-09-02 10:17:33 | 49.40173 | 13.13390 | 83° | 60km/h | 9479m | 650.0m/s | -43.3°C | 0% | 0hPa | 4.5V | 00:00:00 | 00:00:00 | 00:00:00 | |
| DB0UT-7 | 2026-09-02 10:17:30 | 49.40159 | 13.13308 | 78° | 82km/h | 9501m | -5.4m/s | 0°C | 0% | 0hPa | 4.5V | 00:00:00 | 00:00:00 | 00:00:00 | |
| OE5MMP-10 | 2026-09-02 10:17:27 | 49.40151 | 13.13204 | 95° | 77km/h | 9512m | -5.6m/s | 0°C | 0% | 0hPa | 4.5V | 00:00:00 | 00:00:00 | 00:00:00 | |
| OE5DRO-10 | 2026-09-02 10:17:26 | 49.40156 | 13.13168 | 98° | 77km/h | 9523m | -5.5m/s | 0°C | 0% | 0hPa | 4.5V | 00:00:00 | 00:00:00 | 00:00:00 | |
| PETON7-10 | 2026-09-02 10:17:25 | 49.40157 | 13.13142 | 99° | 75km/h | 9523m | -5.5m/s | 0°C | 0% | 0hPa | 4.5V | 00:00:00 | 00:00:00 | 00:00:00 | |
| OE5WHR-10 | 2026-09-02 10:17:21 | 49.40154 | 13.13043 | 75° | 78km/h | 9551m | -5.5m/s | 0°C | 0% | 0hPa | 4.5V | 00:00:00 | 00:00:00 | 00:00:00 | |
| NBG1-10 | 2026-09-02 10:17:19 | 49.40145 | 13.12980 | 82° | 78km/h | 9562m | -5.6m/s | 0°C | 0% | 0hPa | 4.5V | 00:00:00 | 00:00:00 | 00:00:00 | |
| OE5MMP-10 | 2026-09-02 10:17:17 | 49.40143 | 13.12909 | 94° | 75km/h | 9573m | -5.6m/s | 0°C | 0% | 0hPa | 4.5V | 00:00:00 | 00:00:00 | 00:00:00 | |
| DB0NH | 2026-09-02 10:17:15 | 49.40148 | 13.12845 | 100° | 78km/h | 9585m | -5.6m/s | 0°C | 0% | 0hPa | 4.5V | 00:00:00 | 00:00:00 | 00:00:00 | |
| PETON7-10 | 2026-09-02 10:17:10 | 49.40142 | 13.12716 | 77° | 82km/h | 9612m | -5.5m/s | 0°C | 0% | 0hPa | 4.5V | 00:00:00 | 00:00:00 | 00:00:00 | |
| OE5DXL-15 | 2026-09-02 10:17:09 | 49.40138 | 13.12683 | 81° | 78km/h | 9612m | -5.6m/s | 0°C | 0% | 0hPa | 4.5V | 00:00:00 | 00:00:00 | 00:00:00 | |
| OE5MMP-10 | 2026-09-02 10:17:06 | 49.40137 | 13.12578 | 98° | 80km/h | 9635m | -5.6m/s | 0°C | 0% | 0hPa | 4.5V | 00:00:00 | 00:00:00 | 00:00:00 | |
| DF2AP-13 | 2026-09-02 10:17:04 | 49.40143 | 13.12519 | 99° | 78km/h | 9647m | -5.5m/s | 0°C | 0% | 0hPa | 4.5V | 00:00:00 | 00:00:00 | 00:00:00 | |
| DB0ND-19 | 2026-09-02 10:17:03 | 49.40144 | 13.12472 | 82° | 60km/h | 9652m | -5.7m/s | -45.3°C | -1.0% | -1.0hPa | 4.5V | 00:00:00 | 00:00:00 | 00:00:00 | |
| EDDB2-11 | 2026-09-02 10:17:02 | 49.40141 | 13.12447 | 76° | 68km/h | 9658m | -5.6m/s | -45.2°C | -1.0% | -1.0hPa | 4.5V | 00:00:00 | 00:00:00 | 00:00:00 | |
| DB0UT-7 | 2026-09-02 10:17:00 | 49.40136 | 13.12419 | 77° | 80km/h | 9669m | -5.5m/s | 0°C | 0% | 0hPa | 4.5V | 00:00:00 | 00:00:00 | 00:00:00 | |
| OE5WHR-10 | 2026-09-02 10:16:59 | 49.40135 | 13.12388 | 80° | 86km/h | 9669m | -5.6m/s | 0°C | 0% | 0hPa | 4.5V | 00:00:00 | 00:00:00 | 00:00:00 | |
| OE5MMP-10 | 2026-09-02 10:16:55 | 49.40134 | 13.12250 | 101° | 78km/h | 9697m | -5.5m/s | 0°C | 0% | 0hPa | 4.5V | 00:00:00 | 00:00:00 | 00:00:00 | |
| OE5DRO-10 | 2026-09-02 10:16:47 | 49.40124 | 13.12017 | 91° | 78km/h | 9742m | -5.6m/s | 0°C | 0% | 0hPa | 4.5V | 00:00:00 | 00:00:00 | 00:00:00 | |
| NBG1-10 | 2026-09-02 10:16:45 | 49.40128 | 13.11944 | 100° | 80km/h | 9753m | -5.7m/s | 0°C | 0% | 0hPa | 4.5V | 00:00:00 | 00:00:00 | 00:00:00 | |
| OE5MMP-10 | 2026-09-02 10:16:44 | 49.40129 | 13.11918 | 101° | 78km/h | 9753m | -5.7m/s | 0°C | 0% | 0hPa | 4.5V | 00:00:00 | 00:00:00 | 00:00:00 | |
| PETON7-10 | 2026-09-02 10:16:40 | 49.40130 | 13.11814 | 78° | 82km/h | 9782m | -5.7m/s | 0°C | 0% | 0hPa | 4.5V | 00:00:00 | 00:00:00 | 00:00:00 | |
| OE5DXL-15 | 2026-09-02 10:16:39 | 49.40125 | 13.11784 | 79° | 82km/h | 9782m | -5.6m/s | 0°C | 0% | 0hPa | 4.5V | 00:00:00 | 00:00:00 | 00:00:00 | |
| OE5WHR-10 | 2026-09-02 10:16:38 | 49.40122 | 13.11749 | 84° | 82km/h | 9793m | -5.7m/s | 0°C | 0% | 0hPa | 4.5V | 00:00:00 | 00:00:00 | 00:00:00 | |
| DO3MHA-11 | 2026-09-02 10:16:34 | 49.40127 | 13.11611 | 101° | 80km/h | 9816m | -5.7m/s | 0°C | 0% | 0hPa | 4.5V | 00:00:00 | 00:00:00 | 00:00:00 | |
| DB0UT-7 | 2026-09-02 10:16:30 | 49.40125 | 13.11508 | 76° | 82km/h | 9833m | -5.7m/s | 0°C | 0% | 0hPa | 4.5V | 00:00:00 | 00:00:00 | 00:00:00 | |
| OE5DRO-10 | 2026-09-02 10:16:28 | 49.40120 | 13.11443 | 78° | 82km/h | 9844m | -5.8m/s | 0°C | 0% | 0hPa | 4.5V | 00:00:00 | 00:00:00 | 00:00:00 | |
| PETON7-10 | 2026-09-02 10:16:25 | 49.40116 | 13.11333 | 99° | 84km/h | 9867m | -5.9m/s | 0°C | 0% | 0hPa | 4.5V | 00:00:00 | 00:00:00 | 00:00:00 | |
| OE5MMP-10 | 2026-09-02 10:16:23 | 49.40123 | 13.11272 | 98° | 88km/h | 9879m | -5.9m/s | 0°C | 0% | 0hPa | 4.5V | 00:00:00 | 00:00:00 | 00:00:00 | |
| OE5WHR-10 | 2026-09-02 10:16:16 | 49.40101 | 13.11051 | 93° | 86km/h | 9914m | -5.7m/s | 0°C | 0% | 0hPa | 4.5V | 00:00:00 | 00:00:00 | 00:00:00 | |
| DB0NH | 2026-09-02 10:16:14 | 49.40111 | 13.10981 | 99° | 88km/h | 9931m | -5.9m/s | 0°C | 0% | 0hPa | 4.5V | 00:00:00 | 00:00:00 | 00:00:00 | |
| OE5MMP-10 | 2026-09-02 10:16:12 | 49.40114 | 13.10925 | 89° | 82km/h | 9943m | -5.9m/s | 0°C | 0% | 0hPa | 4.5V | 00:00:00 | 00:00:00 | 00:00:00 | |
| PETON7-10 | 2026-09-02 10:16:10 | 49.40108 | 13.10869 | 77° | 88km/h | 9955m | -6.0m/s | 0°C | 0% | 0hPa | 4.5V | 00:00:00 | 00:00:00 | 00:00:00 | |
| OE5DRO-10 | 2026-09-02 10:16:09 | 49.40103 | 13.10839 | 77° | 88km/h | 9961m | -5.8m/s | 0°C | 0% | 0hPa | 4.5V | 00:00:00 | 00:00:00 | 00:00:00 | |
| DO8TBO-1 | 2026-09-02 10:16:08 | 49.40095 | 13.10760 | 86° | 88km/h | 9972m | -5.9m/s | 0°C | 0% | 0hPa | 4.5V | 00:00:00 | 00:00:00 | 00:00:00 | |
| DF2AP-13 | 2026-09-02 10:16:03 | 49.40102 | 13.10619 | 96° | 89km/h | 9990m | -5.8m/s | 0°C | 0% | 0hPa | 4.5V | 00:00:00 | 00:00:00 | 00:00:00 | |
| OE5MMP-10 | 2026-09-02 10:16:01 | 49.40105 | 13.10563 | 81° | 86km/h | 10002m | -5.9m/s | 0°C | 0% | 0hPa | 4.5V | 00:00:00 | 00:00:00 | 00:00:00 | |
| DB0UT-7 | 2026-09-02 10:15:57 | 49.40084 | 13.10425 | 87° | 91km/h | 10049m | -5.9m/s | 0°C | 0% | 0hPa | 4.5V | 00:00:00 | 00:00:00 | 00:00:00 | |
| PETON7-10 | 2026-09-02 10:15:55 | 49.40086 | 13.10347 | 97° | 89km/h | 10043m | -5.8m/s | 0°C | 0% | 0hPa | 4.5V | 00:00:00 | 00:00:00 | 00:00:00 | |
| OE5MMP-10 | 2026-09-02 10:15:51 | 49.40091 | 13.10224 | 82° | 91km/h | 10066m | -5.8m/s | 0°C | 0% | 0hPa | 4.5V | 00:00:00 | 00:00:00 | 00:00:00 | |
| OE5DRO-10 | 2026-09-02 10:15:50 | 49.40087 | 13.10198 | 77° | 89km/h | 10072m | -5.7m/s | 0°C | 0% | 0hPa | 4.5V | 00:00:00 | 00:00:00 | 00:00:00 | |
| OE3JTB-15 | 2026-09-02 10:15:46 | 49.40075 | 13.10046 | 99° | 88km/h | 10089m | -5.7m/s | 0°C | 0% | 0hPa | 4.5V | 00:00:00 | 00:00:00 | 00:00:00 | |
| PETON7-10 | 2026-09-02 10:15:40 | 49.40075 | 13.09853 | 77° | 89km/h | 10131m | -5.8m/s | 0°C | 0% | 0hPa | 4.5V | 00:00:00 | 00:00:00 | 00:00:00 | |
| DO8TBO-1 | 2026-09-02 10:15:38 | 49.40061 | 13.09744 | 85° | 91km/h | 10148m | -5.8m/s | 0°C | 0% | 0hPa | 4.5V | 00:00:00 | 00:00:00 | 00:00:00 | |
| DF2AP-13 | 2026-09-02 10:15:34 | 49.40063 | 13.09596 | 98° | 91km/h | 10172m | -5.9m/s | 0°C | 0% | 0hPa | 4.5V | 00:00:00 | 00:00:00 | 00:00:00 | |
| OE5WHR-10 | 2026-09-02 10:15:33 | 49.40065 | 13.09597 | 97° | 84km/h | 10166m | -5.8m/s | 0°C | 0% | 0hPa | 4.5V | 00:00:00 | 00:00:00 | 00:00:00 | |
| OE5DRO-10 | 2026-09-02 10:15:31 | 49.40065 | 13.09540 | 82° | 93km/h | 10184m | -6.0m/s | 0°C | 0% | 0hPa | 4.5V | 00:00:00 | 00:00:00 | 00:00:00 | |
| OE5MMP-10 | 2026-09-02 10:15:29 | 49.40056 | 13.09479 | 76° | 84km/h | 10196m | -5.9m/s | 0°C | 0% | 0hPa | 4.5V | 00:00:00 | 00:00:00 | 00:00:00 | |
| PETON7-10 | 2026-09-02 10:15:25 | 49.40046 | 13.09324 | 95° | 84km/h | 10219m | -5.7m/s | 0°C | 0% | 0hPa | 4.5V | 00:00:00 | 00:00:00 | 00:00:00 | |
| OE5MMP-10 | 2026-09-02 10:15:18 | 49.40037 | 13.09102 | 78° | 91km/h | 10259m | -5.7m/s | 0°C | 0% | 0hPa | 4.5V | 00:00:00 | 00:00:00 | 00:00:00 | |
| OE3JTB-15 | 2026-09-02 10:15:17 | 49.40032 | 13.09062 | 83° | 93km/h | 10265m | -5.6m/s | 0°C | 0% | 0hPa | 4.5V | 00:00:00 | 00:00:00 | 00:00:00 | |
| DB0NH | 2026-09-02 10:15:14 | 49.40033 | 13.08945 | 97° | 91km/h | 10283m | -5.7m/s | 0°C | 0% | 0hPa | 4.5V | 00:00:00 | 00:00:00 | 00:00:00 | |
| OE5WHR-10 | 2026-09-02 10:15:12 | 49.40036 | 13.08882 | 91° | 89km/h | 10294m | -5.6m/s | 0°C | 0% | 0hPa | 4.5V | 00:00:00 | 00:00:00 | 00:00:00 | |
| PETON7-10 | 2026-09-02 10:15:10 | 49.40031 | 13.08825 | 77° | 95km/h | 10307m | -5.8m/s | 0°C | 0% | 0hPa | 4.5V | 00:00:00 | 00:00:00 | 00:00:00 | |
| OE5DXL-15 | 2026-09-02 10:15:09 | 49.40026 | 13.08793 | 76° | 91km/h | 10307m | -5.7m/s | 0°C | 0% | 0hPa | 4.5V | 00:00:00 | 00:00:00 | 00:00:00 | |
| OE5MMP-10 | 2026-09-02 10:15:08 | 49.40021 | 13.08718 | 79° | 93km/h | 10319m | -5.8m/s | 0°C | 0% | 0hPa | 4.5V | 00:00:00 | 00:00:00 | 00:00:00 | |
| NBG1-10 | 2026-09-02 10:15:06 | 49.40015 | 13.08674 | 90° | 93km/h | 10330m | -5.8m/s | 0°C | 0% | 0hPa | 4.5V | 00:00:00 | 00:00:00 | 00:00:00 | |
| DF2AP-13 | 2026-09-02 10:15:04 | 49.40018 | 13.08565 | 98° | 91km/h | 10342m | -5.8m/s | 0°C | 0% | 0hPa | 4.5V | 00:00:00 | 00:00:00 | 00:00:00 | |
| OE5MMP-10 | 2026-09-02 10:14:57 | 49.40003 | 13.08370 | 84° | 88km/h | 10384m | -6.0m/s | 0°C | 0% | 0hPa | 4.5V | 00:00:00 | 00:00:00 | 00:00:00 | |
| PETON7-10 | 2026-09-02 10:14:54 | 49.40001 | 13.08251 | 98° | 86km/h | 10396m | -5.9m/s | 0°C | 0% | 0hPa | 4.5V | 00:00:00 | 00:00:00 | 00:00:00 | |
| OE5DRO-10 | 2026-09-02 10:14:53 | 49.40007 | 13.08215 | 98° | 93km/h | 10408m | -6.0m/s | 0°C | 0% | 0hPa | 4.5V | 00:00:00 | 00:00:00 | 00:00:00 | |
| OE5WHR-10 | 2026-09-02 10:14:50 | 49.40009 | 13.08127 | 78° | 91km/h | 10421m | -6.1m/s | 0°C | 0% | 0hPa | 4.5V | 00:00:00 | 00:00:00 | 00:00:00 | |
| OE3JTB-15 | 2026-09-02 10:14:48 | 49.39994 | 13.08059 | 79° | 93km/h | 10438m | -5.7m/s | 0°C | 0% | 0hPa | 4.5V | 00:00:00 | 00:00:00 | 00:00:00 | |
| DO3MHA-11 | 2026-09-02 10:14:46 | 49.39988 | 13.07978 | 89° | 95km/h | 10451m | -6.0m/s | 0°C | 0% | 0hPa | 4.5V | 00:00:00 | 00:00:00 | 00:00:00 | |
| DB0NH | 2026-09-02 10:14:44 | 49.39991 | 13.07898 | 97° | 95km/h | 10463m | -6.1m/s | 0°C | 0% | 0hPa | 4.5V | 00:00:00 | 00:00:00 | 00:00:00 | |
| PETON7-10 | 2026-09-02 10:14:39 | 49.39992 | 13.07740 | 76° | 100km/h | 10487m | -6.0m/s | 0°C | 0% | 0hPa | 4.5V | 00:00:00 | 00:00:00 | 00:00:00 | |
| DO8TBO-1 | 2026-09-02 10:14:38 | 49.39980 | 13.07706 | 78° | 97km/h | 10499m | -5.9m/s | 0°C | 0% | 0hPa | 4.5V | 00:00:00 | 00:00:00 | 00:00:00 | |
| OE5MMP-10 | 2026-09-02 10:14:36 | 49.39976 | 13.07621 | 83° | 97km/h | 10505m | -6.1m/s | 0°C | 0% | 0hPa | 4.5V | 00:00:00 | 00:00:00 | 00:00:00 | |
| OE5WHR-10 | 2026-09-02 10:14:29 | 49.39968 | 13.07380 | 75° | 95km/h | 10553m | -6.0m/s | 0°C | 0% | 0hPa | 4.5V | 00:00:00 | 00:00:00 | 00:00:00 | |
| OE5MMP-10 | 2026-09-02 10:14:26 | 49.39953 | 13.07260 | 86° | 97km/h | 10565m | -6.1m/s | 0°C | 0% | 0hPa | 4.5V | 00:00:00 | 00:00:00 | 00:00:00 | |
| PETON7-10 | 2026-09-02 10:14:24 | 49.39951 | 13.07179 | 95° | 91km/h | 10577m | -5.9m/s | 0°C | 0% | 0hPa | 4.5V | 00:00:00 | 00:00:00 | 00:00:00 | |
| OE3JTB-15 | 2026-09-02 10:14:18 | 49.39938 | 13.06981 | 76° | 104km/h | 10662m | -5.9m/s | 0°C | 0% | 0hPa | 4.5V | 00:00:00 | 00:00:00 | 00:00:00 | |
| DO3MHA-11 | 2026-09-02 10:14:16 | 49.39929 | 13.06898 | 85° | 97km/h | 10631m | -6.0m/s | 0°C | 0% | 0hPa | 4.5V | 00:00:00 | 00:00:00 | 00:00:00 | |
| OE5DRO-10 | 2026-09-02 10:14:14 | 49.39928 | 13.06814 | 94° | 102km/h | 10643m | -5.8m/s | 0°C | 0% | 0hPa | 4.5V | 00:00:00 | 00:00:00 | 00:00:00 | |
| DB0NH | 2026-09-02 10:14:11 | 49.39933 | 13.06713 | 83° | 104km/h | 10655m | -6.2m/s | 0°C | 0% | 0hPa | 4.5V | 00:00:00 | 00:00:00 | 00:00:00 | |
| PETON7-10 | 2026-09-02 10:14:09 | 49.39926 | 13.06649 | 74° | 106km/h | 10668m | -6.1m/s | 0°C | 0% | 0hPa | 4.5V | 00:00:00 | 00:00:00 | 00:00:00 | |
| DO8TBO-1 | 2026-09-02 10:14:08 | 49.39912 | 13.06612 | 76° | 108km/h | 10674m | -5.9m/s | 0°C | 0% | 0hPa | 4.5V | 00:00:00 | 00:00:00 | 00:00:00 | |
| OE5WHR-10 | 2026-09-02 10:14:07 | 49.39906 | 13.06571 | 80° | 108km/h | 10686m | -6.1m/s | 0°C | 0% | 0hPa | 4.5V | 00:00:00 | 00:00:00 | 00:00:00 | |
| OE5MMP-10 | 2026-09-02 10:14:05 | 49.39900 | 13.06482 | 90° | 108km/h | 10699m | -6.3m/s | 0°C | 0% | 0hPa | 4.5V | 00:00:00 | 00:00:00 | 00:00:00 | |
| NBG1-10 | 2026-09-02 10:14:00 | 49.39895 | 13.06296 | 74° | 110km/h | 10723m | -6.1m/s | 0°C | 0% | 0hPa | 4.5V | 00:00:00 | 00:00:00 | 00:00:00 | |
| OE5MMP-10 | 2026-09-02 10:13:54 | 49.39870 | 13.06040 | 92° | 110km/h | 10767m | -6.4m/s | 0°C | 0% | 0hPa | 4.5V | 00:00:00 | 00:00:00 | 00:00:00 | |
| OE5DRO-10 | 2026-09-02 10:13:50 | 49.39866 | 13.05891 | 77° | 111km/h | 10792m | -6.0m/s | 0°C | 0% | 0hPa | 4.5V | 00:00:00 | 00:00:00 | 00:00:00 | |
| OE5WHR-10 | 2026-09-02 10:13:46 | 49.39838 | 13.05720 | 82° | 115km/h | 10818m | -6.5m/s | 0°C | 0% | 0hPa | 4.5V | 00:00:00 | 00:00:00 | 00:00:00 | |
| OE5MMP-10 | 2026-09-02 10:13:43 | 49.39834 | 13.05580 | 91° | 110km/h | 10831m | -6.4m/s | 0°C | 0% | 0hPa | 4.5V | 00:00:00 | 00:00:00 | 00:00:00 | |
| OE3JTB-15 | 2026-09-02 10:13:42 | 49.39833 | 13.05541 | 88° | 113km/h | 10844m | -6.4m/s | 0°C | 0% | 0hPa | 4.5V | 00:00:00 | 00:00:00 | 00:00:00 | |
| DB0NH | 2026-09-02 10:13:41 | 49.39835 | 13.05503 | 81° | 113km/h | 10844m | -6.4m/s | 0°C | 0% | 0hPa | 4.5V | 00:00:00 | 00:00:00 | 00:00:00 | |
| PETON7-10 | 2026-09-02 10:13:39 | 49.39817 | 13.05428 | 73° | 115km/h | 10863m | -6.2m/s | 0°C | 0% | 0hPa | 4.5V | 00:00:00 | 00:00:00 | 00:00:00 | |
| DO8TBO-1 | 2026-09-02 10:13:38 | 49.39800 | 13.05340 | 77° | 115km/h | 10876m | -6.4m/s | 0°C | 0% | 0hPa | 4.5V | 00:00:00 | 00:00:00 | 00:00:00 | |
| OE5MMP-10 | 2026-09-02 10:13:33 | 49.39788 | 13.05147 | 91° | 113km/h | 10901m | -6.4m/s | 0°C | 0% | 0hPa | 4.5V | 00:00:00 | 00:00:00 | 00:00:00 | |
| OE5DRO-10 | 2026-09-02 10:13:31 | 49.39786 | 13.05067 | 83° | 115km/h | 10914m | -6.4m/s | 0°C | 0% | 0hPa | 4.5V | 00:00:00 | 00:00:00 | 00:00:00 | |
| NBG1-10 | 2026-09-02 10:13:27 | 49.39757 | 13.04906 | 76° | 108km/h | 10940m | -6.4m/s | 0°C | 0% | 0hPa | 4.5V | 00:00:00 | 00:00:00 | 00:00:00 | |
| OE5WHR-10 | 2026-09-02 10:13:25 | 49.39748 | 13.04806 | 85° | 119km/h | 10947m | -6.4m/s | 0°C | 0% | 0hPa | 4.5V | 00:00:00 | 00:00:00 | 00:00:00 | |
| DB0UT-7 | 2026-09-02 10:13:24 | 49.39743 | 13.04756 | 88° | 108km/h | 10966m | -6.4m/s | 0°C | 0% | 0hPa | 4.5V | 00:00:00 | 00:00:00 | 00:00:00 | |
| OE5MMP-10 | 2026-09-02 10:13:22 | 49.39742 | 13.04670 | 88° | 113km/h | 10972m | -6.3m/s | 0°C | 0% | 0hPa | 4.5V | 00:00:00 | 00:00:00 | 00:00:00 | |
| DO3MHA-11 | 2026-09-02 10:13:11 | 49.39698 | 13.04200 | 86° | 104km/h | 11044m | -6.4m/s | 0°C | 0% | 0hPa | 4.5V | 00:00:00 | 00:00:00 | 00:00:00 | |
| PETON7-10 | 2026-09-02 10:13:09 | 49.39690 | 13.04129 | 75° | 104km/h | 11064m | -6.5m/s | 0°C | 0% | 0hPa | 4.5V | 00:00:00 | 00:00:00 | 00:00:00 | |
| DO8TBO-1 | 2026-09-02 10:13:08 | 49.39672 | 13.04001 | 81° | 99km/h | 11070m | -6.5m/s | 0°C | 0% | 0hPa | 4.5V | 00:00:00 | 00:00:00 | 00:00:00 | |
| DF2AP-13 | 2026-09-02 10:13:02 | 49.39665 | 13.03825 | 94° | 97km/h | 11096m | -6.1m/s | 0°C | 0% | 0hPa | 4.5V | 00:00:00 | 00:00:00 | 00:00:00 | |
| DO3MHA-11 | 2026-09-02 10:13:00 | 49.39668 | 13.03756 | 84° | 99km/h | 11109m | -6.6m/s | 0°C | 0% | 0hPa | 4.5V | 00:00:00 | 00:00:00 | 00:00:00 | |
| DB0UT-7 | 2026-09-02 10:12:55 | 49.39644 | 13.03509 | 89° | 86km/h | 11154m | -6.6m/s | 0°C | 0% | 0hPa | 4.5V | 00:00:00 | 00:00:00 | 00:00:00 | |
| NBG1-10 | 2026-09-02 10:12:54 | 49.39645 | 13.03517 | 95° | 93km/h | 11154m | -6.6m/s | 0°C | 0% | 0hPa | 4.5V | 00:00:00 | 00:00:00 | 00:00:00 | |
| OE5DRO-10 | 2026-09-02 10:12:52 | 49.39651 | 13.03439 | 100° | 93km/h | 11167m | -6.6m/s | 0°C | 0% | 0hPa | 4.5V | 00:00:00 | 00:00:00 | 00:00:00 | |
| DO3MHA-11 | 2026-09-02 10:12:50 | 49.39656 | 13.03374 | 91° | 99km/h | 11180m | -6.4m/s | 0°C | 0% | 0hPa | 4.5V | 00:00:00 | 00:00:00 | 00:00:00 | |
| OE5MMP-10 | 2026-09-02 10:12:47 | 49.39651 | 13.03274 | 81° | 99km/h | 11193m | -6.4m/s | 0°C | 0% | 0hPa | 4.5V | 00:00:00 | 00:00:00 | 00:00:00 | |
| OE3JTB-15 | 2026-09-02 10:12:41 | 49.39658 | 13.03038 | 102° | 75km/h | 11259m | -6.4m/s | 0°C | 0% | 0hPa | 4.5V | 00:00:00 | 00:00:00 | 00:00:00 | |
| PETON7-10 | 2026-09-02 10:12:39 | 49.39661 | 13.02980 | 87° | 89km/h | 11253m | -6.5m/s | 0°C | 0% | 0hPa | 4.5V | 00:00:00 | 00:00:00 | 00:00:00 | |
| OE5MMP-10 | 2026-09-02 10:12:37 | 49.39656 | 13.02914 | 83° | 93km/h | 11266m | -6.6m/s | 0°C | 0% | 0hPa | 4.5V | 00:00:00 | 00:00:00 | 00:00:00 | |
| OE5WHR-10 | 2026-09-02 10:12:35 | 49.39654 | 13.02874 | 87° | 86km/h | 11272m | -6.4m/s | 0°C | 0% | 0hPa | 4.5V | 00:00:00 | 00:00:00 | 00:00:00 | |
| OE5DRO-10 | 2026-09-02 10:12:33 | 49.39661 | 13.02750 | 104° | 80km/h | 11292m | -6.5m/s | 0°C | 0% | 0hPa | 4.5V | 00:00:00 | 00:00:00 | 00:00:00 | |
| DF2AP-13 | 2026-09-02 10:12:32 | 49.39661 | 13.02718 | 107° | 80km/h | 11292m | -6.5m/s | 0°C | 0% | 0hPa | 4.5V | 00:00:00 | 00:00:00 | 00:00:00 | |
| DO3MHA-11 | 2026-09-02 10:12:28 | 49.39680 | 13.02603 | 87° | 82km/h | 11325m | -6.6m/s | 0°C | 0% | 0hPa | 4.5V | 00:00:00 | 00:00:00 | 00:00:00 | |
| OE5MMP-10 | 2026-09-02 10:12:26 | 49.39677 | 13.02538 | 88° | 78km/h | 11338m | -6.3m/s | 0°C | 0% | 0hPa | 4.5V | 00:00:00 | 00:00:00 | 00:00:00 | |
| DB0UT-7 | 2026-09-02 10:12:22 | 49.39692 | 13.02390 | 110° | 77km/h | 11416m | -6.6m/s | 0°C | 0% | 0hPa | 4.5V | 00:00:00 | 00:00:00 | 00:00:00 | |
| PETON7-10 | 2026-09-02 10:12:21 | 49.39693 | 13.02360 | 111° | 71km/h | 11364m | -6.4m/s | 0°C | 0% | 0hPa | 4.5V | 00:00:00 | 00:00:00 | 00:00:00 | |
| DO3MHA-11 | 2026-09-02 10:12:18 | 49.39709 | 13.02291 | 90° | 73km/h | 11390m | -6.5m/s | 0°C | 0% | 0hPa | 4.5V | 00:00:00 | 00:00:00 | 00:00:00 | |
| OE5MMP-10 | 2026-09-02 10:12:15 | 49.39707 | 13.02199 | 93° | 78km/h | 11409m | -6.2m/s | 0°C | 0% | 0hPa | 4.5V | 00:00:00 | 00:00:00 | 00:00:00 | |
| OE5DRO-10 | 2026-09-02 10:12:13 | 49.39714 | 13.02130 | 106° | 77km/h | 11422m | -6.5m/s | 0°C | 0% | 0hPa | 4.5V | 00:00:00 | 00:00:00 | 00:00:00 | |
| OE5DXL-15 | 2026-09-02 10:12:09 | 49.39738 | 13.02024 | 99° | 78km/h | 11448m | -6.2m/s | 0°C | 0% | 0hPa | 4.5V | 00:00:00 | 00:00:00 | 00:00:00 | |
| DO3MHA-11 | 2026-09-02 10:12:08 | 49.39740 | 13.02002 | 89° | 78km/h | 11448m | -6.5m/s | 0°C | 0% | 0hPa | 4.5V | 00:00:00 | 00:00:00 | 00:00:00 | |
| DB0NH | 2026-09-02 10:12:06 | 49.39737 | 13.01947 | 85° | 80km/h | 11462m | -6.6m/s | 0°C | 0% | 0hPa | 4.5V | 00:00:00 | 00:00:00 | 00:00:00 | |
| OE5MMP-10 | 2026-09-02 10:12:04 | 49.39732 | 13.01879 | 97° | 78km/h | 11475m | -6.3m/s | 0°C | 0% | 0hPa | 4.5V | 00:00:00 | 00:00:00 | 00:00:00 | |
| DF2AP-13 | 2026-09-02 10:12:02 | 49.39746 | 13.01811 | 109° | 77km/h | 11494m | -6.5m/s | 0°C | 0% | 0hPa | 4.5V | 00:00:00 | 00:00:00 | 00:00:00 | |
| DO3MHA-11 | 2026-09-02 10:11:58 | 49.39765 | 13.01714 | 90° | 77km/h | 11521m | -6.5m/s | 0°C | 0% | 0hPa | 4.5V | 00:00:00 | 00:00:00 | 00:00:00 | |
| OE5MMP-10 | 2026-09-02 10:11:54 | 49.39760 | 13.01594 | 93° | 77km/h | 11547m | -6.7m/s | 0°C | 0% | 0hPa | 4.5V | 00:00:00 | 00:00:00 | 00:00:00 | |
| PETON7-10 | 2026-09-02 10:11:51 | 49.39767 | 13.01491 | 110° | 75km/h | 11560m | -6.3m/s | 0°C | 0% | 0hPa | 4.5V | 00:00:00 | 00:00:00 | 00:00:00 | |
| DB0UT-7 | 2026-09-02 10:11:50 | 49.39780 | 13.01463 | 109° | 78km/h | 11573m | -6.4m/s | 0°C | 0% | 0hPa | 4.5V | 00:00:00 | 00:00:00 | 00:00:00 | |
| NBG1-10 | 2026-09-02 10:11:49 | 49.39784 | 13.01416 | 102° | 78km/h | 11580m | -6.7m/s | 0°C | 0% | 0hPa | 4.5V | 00:00:00 | 00:00:00 | 00:00:00 | |
| DO3MHA-11 | 2026-09-02 10:11:48 | 49.39784 | 13.01416 | 102° | 78km/h | 11580m | -6.7m/s | 0°C | 0% | 0hPa | 4.5V | 00:00:00 | 00:00:00 | 00:00:00 | |
| DO8TBO-1 | 2026-09-02 10:11:45 | 49.39780 | 13.01287 | 92° | 78km/h | 11613m | -6.5m/s | 0°C | 0% | 0hPa | 4.5V | 00:00:00 | 00:00:00 | 00:00:00 | |
| OE5MMP-10 | 2026-09-02 10:11:43 | 49.39782 | 13.01256 | 99° | 82km/h | 11620m | -6.5m/s | 0°C | 0% | 0hPa | 4.5V | 00:00:00 | 00:00:00 | 00:00:00 | |
| OE5WHR-10 | 2026-09-02 10:11:39 | 49.39808 | 13.01128 | 109° | 78km/h | 11653m | -6.5m/s | 0°C | 0% | 0hPa | 4.5V | 00:00:00 | 00:00:00 | 00:00:00 | |
| DO3MHA-11 | 2026-09-02 10:11:38 | 49.39810 | 13.01104 | 99° | 80km/h | 11646m | -6.4m/s | 0°C | 0% | 0hPa | 4.5V | 00:00:00 | 00:00:00 | 00:00:00 | |
| PETON7-10 | 2026-09-02 10:11:36 | 49.39813 | 13.01050 | 86° | 84km/h | 11659m | -6.3m/s | 0°C | 0% | 0hPa | 4.5V | 00:00:00 | 00:00:00 | 00:00:00 | |
| OE5DRO-10 | 2026-09-02 10:11:34 | 49.39811 | 13.00981 | 93° | 82km/h | 11679m | -6.5m/s | 0°C | 0% | 0hPa | 4.5V | 00:00:00 | 00:00:00 | 00:00:00 | |
| OE5MMP-10 | 2026-09-02 10:11:32 | 49.39818 | 13.00906 | 105° | 82km/h | 11692m | -6.3m/s | 0°C | 0% | 0hPa | 4.5V | 00:00:00 | 00:00:00 | 00:00:00 | |
| DO3MHA-11 | 2026-09-02 10:11:28 | 49.39845 | 13.00791 | 104° | 82km/h | 11718m | -6.4m/s | 0°C | 0% | 0hPa | 4.5V | 00:00:00 | 00:00:00 | 00:00:00 | |
| OE5MMP-10 | 2026-09-02 10:11:22 | 49.39847 | 13.00602 | 106° | 82km/h | 11751m | -6.3m/s | 0°C | 0% | 0hPa | 4.5V | 00:00:00 | 00:00:00 | 00:00:00 | |
| PETON7-10 | 2026-09-02 10:11:21 | 49.39854 | 13.00569 | 112° | 75km/h | 11757m | -6.2m/s | 0°C | 0% | 0hPa | 4.5V | 00:00:00 | 00:00:00 | 00:00:00 | |
| DB0UT-7 | 2026-09-02 10:11:19 | 49.39877 | 13.00514 | 112° | 73km/h | 11778m | -6.7m/s | 0°C | 0% | 0hPa | 4.5V | 00:00:00 | 00:00:00 | 00:00:00 | |
| DO3MHA-11 | 2026-09-02 10:11:17 | 49.39884 | 13.00469 | 94° | 73km/h | 11791m | -6.4m/s | 0°C | 0% | 0hPa | 4.5V | 00:00:00 | 00:00:00 | 00:00:00 | |
| SP3BTT-10 | 2026-09-02 10:11:16 | 49.39884 | 13.00415 | 90° | 73km/h | 11804m | -6.5m/s | 0°C | 0% | 0hPa | 4.5V | 00:00:00 | 00:00:00 | 00:00:00 | |
| BIOWL1-15 | 2026-09-02 10:11:15 | 49.39888 | 13.00345 | 102° | 95km/h | 11810m | -6.5m/s | -54.1°C | 0% | 0hPa | 4.5V | 00:00:00 | 00:00:00 | 00:00:00 | |
| NBG1-10 | 2026-09-02 10:11:15 | 49.39884 | 13.00413 | 90° | 75km/h | 11804m | -6.4m/s | 0°C | 0% | 0hPa | 4.5V | 00:00:00 | 00:00:00 | 00:00:00 | |
| OE5MMP-10 | 2026-09-02 10:11:12 | 49.39886 | 13.00309 | 109° | 71km/h | 11817m | -6.4m/s | 0°C | 0% | 0hPa | 4.5V | 00:00:00 | 00:00:00 | 00:00:00 | |
| OE5DXL-15 | 2026-09-02 10:11:09 | 49.39921 | 13.00224 | 119° | 73km/h | 11837m | -6.4m/s | 0°C | 0% | 0hPa | 4.5V | 00:00:00 | 00:00:00 | 00:00:00 | |
| OK1ALN | 2026-09-02 10:11:08 | 49.39928 | 13.00202 | 114° | 57km/h | 11843m | 649.2m/s | -54.2°C | 0% | 0hPa | 4.5V | 00:00:00 | 00:00:00 | 00:00:00 | |
| PETON7-10 | 2026-09-02 10:11:06 | 49.39934 | 13.00160 | 94° | 71km/h | 11863m | -6.6m/s | 0°C | 0% | 0hPa | 4.5V | 00:00:00 | 00:00:00 | 00:00:00 | |
| BIOWL1-15 | 2026-09-02 10:11:03 | 49.39944 | 13.00046 | 109° | 84km/h | 11884m | -6.3m/s | -53.5°C | 0% | 0hPa | 4.5V | 00:00:00 | 00:00:00 | 00:00:00 | |
| OE5MMP-10 | 2026-09-02 10:11:02 | 49.39944 | 13.00046 | 110° | 69km/h | 11890m | -6.3m/s | 0°C | 0% | 0hPa | 4.5V | 00:00:00 | 00:00:00 | 00:00:00 | |
| OE5DRO-10 | 2026-09-02 10:10:56 | 49.39986 | 12.99918 | 96° | 75km/h | 11930m | -6.6m/s | 0°C | 0% | 0hPa | 4.5V | 00:00:00 | 00:00:00 | 00:00:00 | |
| OE5WHR-10 | 2026-09-02 10:10:55 | 49.39980 | 12.99890 | 93° | 64km/h | 11930m | -6.6m/s | 0°C | 0% | 0hPa | 4.5V | 00:00:00 | 00:00:00 | 00:00:00 | |
| OE5MMP-10 | 2026-09-02 10:10:52 | 49.39991 | 12.99799 | 103° | 77km/h | 11951m | -6.5m/s | 0°C | 0% | 0hPa | 4.5V | 00:00:00 | 00:00:00 | 00:00:00 | |
| PETON7-10 | 2026-09-02 10:10:51 | 49.40006 | 12.99767 | 117° | 80km/h | 11964m | -6.6m/s | 0°C | 0% | 0hPa | 4.5V | 00:00:00 | 00:00:00 | 00:00:00 | |
| DB0UT-7 | 2026-09-02 10:10:50 | 49.40016 | 12.99715 | 122° | 66km/h | 11970m | -6.4m/s | 0°C | 0% | 0hPa | 4.5V | 00:00:00 | 00:00:00 | 00:00:00 | |
| DO3MHA-11 | 2026-09-02 10:10:45 | 49.40048 | 12.99624 | 95° | 80km/h | 12004m | -6.3m/s | 0°C | 0% | 0hPa | 4.5V | 00:00:00 | 00:00:00 | 00:00:00 | |
| OE5MMP-10 | 2026-09-02 10:10:42 | 49.40051 | 12.99527 | 107° | 78km/h | 12017m | -6.6m/s | 0°C | 0% | 0hPa | 4.5V | 00:00:00 | 00:00:00 | 00:00:00 | |
| NBG1-10 | 2026-09-02 10:10:41 | 49.40057 | 12.99493 | 114° | 69km/h | 12024m | -6.6m/s | 0°C | 0% | 0hPa | 4.5V | 00:00:00 | 00:00:00 | 00:00:00 | |
| OE5DXL-15 | 2026-09-02 10:10:39 | 49.40087 | 12.99436 | 123° | 69km/h | 12038m | -6.8m/s | 0°C | 0% | 0hPa | 4.5V | 00:00:00 | 00:00:00 | 00:00:00 | |
| PETON7-10 | 2026-09-02 10:10:36 | 49.40107 | 12.99371 | 102° | 64km/h | 12066m | -6.2m/s | 0°C | 0% | 0hPa | 4.5V | 00:00:00 | 00:00:00 | 00:00:00 | |
| DO3MHA-11 | 2026-09-02 10:10:34 | 49.40110 | 12.99322 | 94° | 64km/h | 12079m | -6.7m/s | 0°C | 0% | 0hPa | 4.5V | 00:00:00 | 00:00:00 | 00:00:00 | |
| BIOWL1-15 | 2026-09-02 10:10:32 | 49.40124 | 12.99228 | 113° | 88km/h | 12093m | -6.6m/s | -52°C | 0% | 0hPa | 4.5V | 00:00:00 | 00:00:00 | 00:00:00 | |
| OE5WHR-10 | 2026-09-02 10:10:30 | 49.40124 | 12.99193 | 114° | 68km/h | 12099m | -6.7m/s | 0°C | 0% | 0hPa | 4.5V | 00:00:00 | 00:00:00 | 00:00:00 | |
| BIOWL1-15 | 2026-09-02 10:10:25 | 49.40186 | 12.98961 | 116° | 82km/h | 12168m | -6.7m/s | -51.5°C | 0% | 0hPa | 4.5V | 00:00:00 | 00:00:00 | 00:00:00 | |
| DO3MHA-11 | 2026-09-02 10:10:23 | 49.40170 | 12.99052 | 96° | 69km/h | 12155m | -6.7m/s | 0°C | 0% | 0hPa | 4.5V | 00:00:00 | 00:00:00 | 00:00:00 | |
| PETON7-10 | 2026-09-02 10:10:21 | 49.40178 | 12.98991 | 108° | 73km/h | 12168m | -6.4m/s | 0°C | 0% | 0hPa | 4.5V | 00:00:00 | 00:00:00 | 00:00:00 | |
| DB0UT-7 | 2026-09-02 10:10:19 | 49.40196 | 12.98934 | 122° | 69km/h | 12182m | -6.8m/s | 0°C | 0% | 0hPa | 4.5V | 00:00:00 | 00:00:00 | 00:00:00 | |
| OE5DRO-10 | 2026-09-02 10:10:17 | 49.40212 | 12.98893 | 118° | 69km/h | 12196m | -6.5m/s | 0°C | 0% | 0hPa | 4.5V | 00:00:00 | 00:00:00 | 00:00:00 | |
| DO8TBO-1 | 2026-09-02 10:10:14 | 49.40219 | 12.98836 | 89° | 66km/h | 12217m | -6.5m/s | 0°C | 0% | 0hPa | 4.5V | 00:00:00 | 00:00:00 | 00:00:00 | |
| SP3BTT-10 | 2026-09-02 10:10:13 | 49.40219 | 12.98807 | 92° | 69km/h | 12223m | -6.5m/s | 0°C | 0% | 0hPa | 4.5V | 00:00:00 | 00:00:00 | 00:00:00 | |
| DO3MHA-11 | 2026-09-02 10:10:12 | 49.40217 | 12.98774 | 97° | 73km/h | 12223m | -6.5m/s | 0°C | 0% | 0hPa | 4.5V | 00:00:00 | 00:00:00 | 00:00:00 | |
| BIOWL1-15 | 2026-09-02 10:10:10 | 49.40231 | 12.98709 | 111° | 88km/h | 12237m | -6.8m/s | -51.2°C | 0% | 0hPa | 4.5V | 00:00:00 | 00:00:00 | 00:00:00 | |
| OE5MMP-10 | 2026-09-02 10:10:10 | 49.40231 | 12.98709 | 111° | 71km/h | 12244m | -6.7m/s | 0°C | 0% | 0hPa | 4.5V | 00:00:00 | 00:00:00 | 00:00:00 | |
| OE5DXL-15 | 2026-09-02 10:10:09 | 49.40240 | 12.98679 | 118° | 69km/h | 12244m | -6.9m/s | 0°C | 0% | 0hPa | 4.5V | 00:00:00 | 00:00:00 | 00:00:00 | |
| OE5WHR-10 | 2026-09-02 10:10:08 | 49.40249 | 12.98654 | 122° | 69km/h | 12258m | -6.6m/s | 0°C | 0% | 0hPa | 4.5V | 00:00:00 | 00:00:00 | 00:00:00 | |
| DB0NH | 2026-09-02 10:10:06 | 49.40263 | 12.98614 | 111° | 69km/h | 12272m | -6.9m/s | 0°C | 0% | 0hPa | 4.5V | 00:00:00 | 00:00:00 | 00:00:00 | |
| DO3MHA-11 | 2026-09-02 10:10:02 | 49.40267 | 12.98521 | 93° | 69km/h | 12300m | -6.8m/s | 0°C | 0% | 0hPa | 4.5V | 00:00:00 | 00:00:00 | 00:00:00 | |
| DF2AP-13 | 2026-09-02 10:10:01 | 49.40264 | 12.98489 | 101° | 68km/h | 12300m | -6.9m/s | 0°C | 0% | 0hPa | 4.5V | 00:00:00 | 00:00:00 | 00:00:00 | |
| OE5MMP-10 | 2026-09-02 10:09:59 | 49.40273 | 12.98428 | 115° | 68km/h | 12314m | -6.7m/s | 0°C | 0% | 0hPa | 4.5V | 00:00:00 | 00:00:00 | 00:00:00 | |
| OE5DRO-10 | 2026-09-02 10:09:57 | 49.40292 | 12.98381 | 119° | 68km/h | 12328m | -6.8m/s | 0°C | 0% | 0hPa | 4.5V | 00:00:00 | 00:00:00 | 00:00:00 | |
| BIOWL1-15 | 2026-09-02 10:09:51 | 49.40315 | 12.98198 | 107° | 89km/h | 12376m | -7.1m/s | -51°C | 0% | 0hPa | 4.5V | 00:00:00 | 00:00:00 | 00:00:00 | |
| OE5MMP-10 | 2026-09-02 10:09:49 | 49.40323 | 12.98166 | 114° | 66km/h | 12391m | -6.7m/s | 0°C | 0% | 0hPa | 4.5V | 00:00:00 | 00:00:00 | 00:00:00 | |
| OE5WHR-10 | 2026-09-02 10:09:47 | 49.40341 | 12.98114 | 121° | 66km/h | 12405m | -6.7m/s | 0°C | 0% | 0hPa | 4.5V | 00:00:00 | 00:00:00 | 00:00:00 | |
| SP3BTT-10 | 2026-09-02 10:09:42 | 49.40353 | 12.98005 | 90° | 64km/h | 12454m | -7.0m/s | 0°C | 0% | 0hPa | 4.5V | 00:00:00 | 00:00:00 | 00:00:00 | |
| BIOWL1-15 | 2026-09-02 10:09:40 | 49.40365 | 12.97913 | 113° | 80km/h | 12454m | -6.9m/s | -50.8°C | 0% | 0hPa | 4.5V | 00:00:00 | 00:00:00 | 00:00:00 | |
| DO3MHA-11 | 2026-09-02 10:09:40 | 49.40358 | 12.97943 | 105° | 62km/h | 12454m | -6.7m/s | 0°C | 0% | 0hPa | 4.5V | 00:00:00 | 00:00:00 | 00:00:00 | |
| OE5DXL-15 | 2026-09-02 10:09:39 | 49.40365 | 12.97912 | 114° | 64km/h | 12454m | -6.8m/s | 0°C | 0% | 0hPa | 4.5V | 00:00:00 | 00:00:00 | 00:00:00 | |
| OE5MMP-10 | 2026-09-02 10:09:38 | 49.40374 | 12.97886 | 121° | 66km/h | 12468m | -6.9m/s | 0°C | 0% | 0hPa | 4.5V | 00:00:00 | 00:00:00 | 00:00:00 | |
| PETON7-10 | 2026-09-02 10:09:36 | 49.40392 | 12.97844 | 124° | 64km/h | 12482m | -6.8m/s | 0°C | 0% | 0hPa | 4.5V | 00:00:00 | 00:00:00 | 00:00:00 | |
| NBG1-10 | 2026-09-02 10:09:33 | 49.40401 | 12.97792 | 93° | 66km/h | 12496m | -6.9m/s | 0°C | 0% | 0hPa | 4.5V | 00:00:00 | 00:00:00 | 00:00:00 | |
| DF2AP-13 | 2026-09-02 10:09:31 | 49.40400 | 12.97742 | 97° | 66km/h | 12511m | -6.8m/s | 0°C | 0% | 0hPa | 4.5V | 00:00:00 | 00:00:00 | 00:00:00 | |
| DO3MHA-11 | 2026-09-02 10:09:30 | 49.40408 | 12.97710 | 106° | 68km/h | 12525m | -6.9m/s | 0°C | 0% | 0hPa | 4.5V | 00:00:00 | 00:00:00 | 00:00:00 | |
| BIOWL1-15 | 2026-09-02 10:09:29 | 49.40415 | 12.97683 | 114° | 80km/h | 12525m | -7m/s | -50.6°C | 0% | 0hPa | 4.5V | 00:00:00 | 00:00:00 | 00:00:00 | |
| OE5MMP-10 | 2026-09-02 10:09:29 | 49.40414 | 12.97656 | 114° | 66km/h | 12532m | -6.8m/s | 0°C | 0% | 0hPa | 4.6V | 00:00:00 | 00:00:00 | 00:00:00 | |
| OE3JTB-15 | 2026-09-02 10:09:28 | 49.40418 | 12.97656 | 122° | 78km/h | 12532m | -6.8m/s | 0°C | 0% | 0hPa | 4.6V | 00:00:00 | 00:00:00 | 00:00:00 | |
| OE5WHR-10 | 2026-09-02 10:09:25 | 49.40451 | 12.97599 | 122° | 66km/h | 12561m | -7.0m/s | 0°C | 0% | 0hPa | 4.6V | 00:00:00 | 00:00:00 | 00:00:00 | |
| BIOWL1-15 | 2026-09-02 10:09:21 | 49.40477 | 12.97433 | 118° | 80km/h | 12603m | -7m/s | -50.6°C | 0% | 0hPa | 4.6V | 00:00:00 | 00:00:00 | 00:00:00 | |
| PETON7-10 | 2026-09-02 10:09:21 | 49.40460 | 12.97519 | 97° | 68km/h | 12589m | -7.0m/s | 0°C | 0% | 0hPa | 4.6V | 00:00:00 | 00:00:00 | 00:00:00 | |
| DO3MHA-11 | 2026-09-02 10:09:20 | 49.40457 | 12.97491 | 103° | 64km/h | 12589m | -6.9m/s | 0°C | 0% | 0hPa | 4.6V | 00:00:00 | 00:00:00 | 00:00:00 | |
| OE5DRO-10 | 2026-09-02 10:09:19 | 49.40469 | 12.97461 | 111° | 64km/h | 12603m | -6.8m/s | 0°C | 0% | 0hPa | 4.6V | 00:00:00 | 00:00:00 | 00:00:00 | |
| OE5MMP-10 | 2026-09-02 10:09:18 | 49.40468 | 12.97432 | 119° | 64km/h | 12603m | -7.0m/s | 0°C | 0% | 0hPa | 4.6V | 00:00:00 | 00:00:00 | 00:00:00 | |
| DO8TBO-1 | 2026-09-02 10:09:17 | 49.40487 | 12.97401 | 125° | 69km/h | 12625m | -6.9m/s | 0°C | 0% | 0hPa | 4.6V | 00:00:00 | 00:00:00 | 00:00:00 | |
| SP3BTT-10 | 2026-09-02 10:09:12 | 49.40511 | 12.97316 | 88° | 71km/h | 12653m | -7.0m/s | 0°C | 0% | 0hPa | 4.6V | 00:00:00 | 00:00:00 | 00:00:00 | |
| BIOWL1-15 | 2026-09-02 10:09:10 | 49.40530 | 12.97175 | 119° | 75km/h | 12682m | -7.2m/s | -50.5°C | 0% | 0hPa | 4.6V | 00:00:00 | 00:00:00 | 00:00:00 | |
| OE5DXL-15 | 2026-09-02 10:09:09 | 49.40515 | 12.97232 | 104° | 69km/h | 12667m | -6.8m/s | 0°C | 0% | 0hPa | 0V | 00:00:00 | 00:00:00 | 00:00:00 | |
| OE5MMP-10 | 2026-09-02 10:09:08 | 49.40521 | 12.97202 | 113° | 64km/h | 12682m | -6.9m/s | 0°C | 0% | 0hPa | 0V | 00:00:00 | 00:00:00 | 00:00:00 | |
| DM0DOS-11 | 2026-09-02 10:09:06 | 49.40549 | 12.97053 | 87° | 69km/h | 12724m | -7.3m/s | 0°C | 0% | 0hPa | 0V | 00:00:00 | 00:00:00 | 00:00:00 | |
| PETON7-10 | 2026-09-02 10:09:06 | 49.40539 | 12.97151 | 123° | 62km/h | 12696m | -7.0m/s | 0°C | 0% | 0hPa | 4.6V | 00:00:00 | 00:00:00 | 00:00:00 | |
| DB0NH | 2026-09-02 10:09:05 | 49.40541 | 12.97132 | 121° | 71km/h | 12696m | -7.0m/s | 0°C | 0% | 0hPa | 4.6V | 00:00:00 | 00:00:00 | 00:00:00 | |
| OE5WHR-10 | 2026-09-02 10:09:04 | 49.40552 | 12.97118 | 110° | 73km/h | 12710m | -6.7m/s | 0°C | 0% | 0hPa | 4.6V | 00:00:00 | 00:00:00 | 00:00:00 | |
| DF2AP-13 | 2026-09-02 10:09:01 | 49.40554 | 12.97053 | 88° | 75km/h | 12725m | -7.3m/s | 0°C | 0% | 0hPa | 4.6V | 00:00:00 | 00:00:00 | 00:00:00 | |
| DO3MHA-11 | 2026-09-02 10:09:00 | 49.40554 | 12.97025 | 88° | 69km/h | 12732m | -7.0m/s | 0°C | 0% | 0hPa | 4.6V | 00:00:00 | 00:00:00 | 00:00:00 | |
| BIOWL1-15 | 2026-09-02 10:08:59 | 49.40577 | 12.96905 | 118° | 71km/h | 12760m | -7.1m/s | -50.2°C | 0% | 0hPa | 4.6V | 00:00:00 | 00:00:00 | 00:00:00 | |
| OE5MMP-10 | 2026-09-02 10:08:57 | 49.40568 | 12.96931 | 114° | 77km/h | 12761m | -7.0m/s | 0°C | 0% | 0hPa | 0V | 00:00:00 | 00:00:00 | 00:00:00 | |
| DM0DOS-11 | 2026-09-02 10:08:55 | 49.40591 | 12.96768 | 90° | 80km/h | 12804m | -7.1m/s | 0°C | 0% | 0hPa | 0V | 00:00:00 | 00:00:00 | 00:00:00 | |
| PETON7-10 | 2026-09-02 10:08:51 | 49.40593 | 12.96797 | 86° | 80km/h | 12804m | -7.1m/s | 0°C | 0% | 0hPa | 4.6V | 00:00:00 | 00:00:00 | 00:00:00 | |
| DO3MHA-11 | 2026-09-02 10:08:50 | 49.40591 | 12.96768 | 91° | 78km/h | 12804m | -7.1m/s | 0°C | 0% | 0hPa | 4.6V | 00:00:00 | 00:00:00 | 00:00:00 | |
| BIOWL1-15 | 2026-09-02 10:08:48 | 49.40622 | 12.96613 | 118° | 69km/h | 12841m | -7.3m/s | -50.5°C | 0% | 0hPa | 4.6V | 00:00:00 | 00:00:00 | 00:00:00 | |
| OE5MMP-10 | 2026-09-02 10:08:46 | 49.40613 | 12.96639 | 117° | 78km/h | 12841m | -7.2m/s | 0°C | 0% | 0hPa | 0V | 00:00:00 | 00:00:00 | 00:00:00 | |
| OE5WHR-10 | 2026-09-02 10:08:42 | 49.40635 | 12.96549 | 92° | 73km/h | 12870m | -7.1m/s | 0°C | 0% | 0hPa | 0V | 00:00:00 | 00:00:00 | 00:00:00 | |
| DM0DOS-11 | 2026-09-02 10:08:40 | 49.40634 | 12.96493 | 89° | 82km/h | 12885m | -7.1m/s | 0°C | 0% | 0hPa | 0V | 00:00:00 | 00:00:00 | 00:00:00 | |
| DO3MHA-11 | 2026-09-02 10:08:40 | 49.40634 | 12.96493 | 90° | 77km/h | 12885m | -7.0m/s | 0°C | 0% | 0hPa | 4.6V | 00:00:00 | 00:00:00 | 00:00:00 | |
| OE5DXL-15 | 2026-09-02 10:08:39 | 49.40635 | 12.96459 | 95° | 78km/h | 12885m | -7.1m/s | 0°C | 0% | 0hPa | 4.6V | 00:00:00 | 00:00:00 | 00:00:00 | |
| BIOWL1-15 | 2026-09-02 10:08:36 | 49.40662 | 12.96326 | 117° | 77km/h | 12914m | -7.4m/s | -50.7°C | 0% | 0hPa | 4.6V | 00:00:00 | 00:00:00 | 00:00:00 | |
| OE5MMP-10 | 2026-09-02 10:08:35 | 49.40654 | 12.96326 | 118° | 75km/h | 12914m | -7.4m/s | 0°C | 0% | 0hPa | 0V | 00:00:00 | 00:00:00 | 00:00:00 | |
| DF2AP-13 | 2026-09-02 10:08:31 | 49.40679 | 12.96231 | 89° | 78km/h | 12952m | -7.3m/s | 0°C | 0% | 0hPa | 0V | 00:00:00 | 00:00:00 | 00:00:00 | |
| DM0DOS-11 | 2026-09-02 10:08:30 | 49.40678 | 12.96169 | 89° | 80km/h | 12960m | -7.3m/s | 0°C | 0% | 0hPa | 0V | 00:00:00 | 00:00:00 | 00:00:00 | |
| DO3MHA-11 | 2026-09-02 10:08:29 | 49.40679 | 12.96168 | 93° | 78km/h | 12968m | -7.0m/s | 0°C | 0% | 0hPa | 4.5V | 00:00:00 | 00:00:00 | 00:00:00 | |
| BIOWL1-15 | 2026-09-02 10:08:25 | 49.40712 | 12.96001 | 117° | 71km/h | 12997m | -7.1m/s | -51°C | 0% | 0hPa | 4.5V | 00:00:00 | 00:00:00 | 00:00:00 | |
| OE5MMP-10 | 2026-09-02 10:08:25 | 49.40703 | 12.96028 | 117° | 78km/h | 12997m | -7.4m/s | 0°C | 0% | 0hPa | 4.6V | 00:00:00 | 00:00:00 | 00:00:00 | |
| OE5DRO-10 | 2026-09-02 10:08:21 | 49.40725 | 12.95935 | 92° | 75km/h | 13027m | -7.5m/s | 0°C | 0% | 0hPa | 4.6V | 00:00:00 | 00:00:00 | 00:00:00 | |
| DM0DOS-11 | 2026-09-02 10:08:20 | 49.40726 | 12.95839 | 96° | 93km/h | 13049m | -7.2m/s | 0°C | 0% | 0hPa | 0V | 00:00:00 | 00:00:00 | 00:00:00 | |
| OE5WHR-10 | 2026-09-02 10:08:20 | 49.40725 | 12.95904 | 89° | 77km/h | 13027m | -7.5m/s | 0°C | 0% | 0hPa | 4.6V | 00:00:00 | 00:00:00 | 00:00:00 | |
| DO3MHA-11 | 2026-09-02 10:08:18 | 49.40727 | 12.95839 | 97° | 77km/h | 13050m | -7.2m/s | 0°C | 0% | 0hPa | 4.6V | 00:00:00 | 00:00:00 | 00:00:00 | |
| DO8TBO-1 | 2026-09-02 10:08:16 | 49.40738 | 12.95768 | 111° | 68km/h | 13080m | -7.6m/s | 0°C | 0% | 0hPa | 4.6V | 00:00:00 | 00:00:00 | 00:00:00 | |
| BIOWL1-15 | 2026-09-02 10:08:15 | 49.40766 | 12.95685 | 120° | 64km/h | 13080m | -7.5m/s | -50.8°C | 0% | 0hPa | 4.6V | 00:00:00 | 00:00:00 | 00:00:00 | |
| OE5MMP-10 | 2026-09-02 10:08:14 | 49.40757 | 12.95708 | 121° | 77km/h | 13080m | -7.5m/s | 0°C | 0% | 0hPa | 0V | 00:00:00 | 00:00:00 | 00:00:00 | |
| SP3BTT-10 | 2026-09-02 10:08:12 | 49.40772 | 12.95665 | 113° | 69km/h | 13096m | -7.5m/s | 0°C | 0% | 0hPa | 0V | 00:00:00 | 00:00:00 | 00:00:00 | |
| DM0DOS-11 | 2026-09-02 10:08:10 | 49.40777 | 12.95533 | 101° | 89km/h | 13125m | -7.6m/s | 0°C | 0% | 0hPa | 0V | 00:00:00 | 00:00:00 | 00:00:00 | |
| OE5DXL-15 | 2026-09-02 10:08:08 | 49.40776 | 12.95566 | 96° | 69km/h | 13118m | -7.3m/s | 0°C | 0% | 0hPa | 4.6V | 00:00:00 | 00:00:00 | 00:00:00 | |
| DO3MHA-11 | 2026-09-02 10:08:07 | 49.40777 | 12.95533 | 102° | 75km/h | 13126m | -7.5m/s | 0°C | 0% | 0hPa | 4.6V | 00:00:00 | 00:00:00 | 00:00:00 | |
| BIOWL1-15 | 2026-09-02 10:08:05 | 49.40823 | 12.95396 | 116° | 53km/h | 13163m | -7.5m/s | -50.7°C | 0% | 0hPa | 4.6V | 00:00:00 | 00:00:00 | 00:00:00 | |
| OE5MMP-10 | 2026-09-02 10:08:04 | 49.40797 | 12.95439 | 115° | 71km/h | 13148m | -7.4m/s | 0°C | 0% | 0hPa | 0V | 00:00:00 | 00:00:00 | 00:00:00 | |
| DF2AP-13 | 2026-09-02 10:08:01 | 49.40827 | 12.95377 | 104° | 64km/h | 13187m | -7.6m/s | 0°C | 0% | 0hPa | 0V | 00:00:00 | 00:00:00 | 00:00:00 | |
| DM0DOS-11 | 2026-09-02 10:08:00 | 49.40830 | 12.95277 | 95° | 84km/h | 13209m | -7.3m/s | 0°C | 0% | 0hPa | 0V | 00:00:00 | 00:00:00 | 00:00:00 | |
| OE5WHR-10 | 2026-09-02 10:07:59 | 49.40829 | 12.95335 | 88° | 66km/h | 13194m | -7.4m/s | 0°C | 0% | 0hPa | 4.6V | 00:00:00 | 00:00:00 | 00:00:00 | |
| DO3MHA-11 | 2026-09-02 10:07:57 | 49.40830 | 12.95277 | 96° | 68km/h | 13209m | -7.2m/s | 0°C | 0% | 0hPa | 4.6V | 00:00:00 | 00:00:00 | 00:00:00 | |
| OK1ALN | 2026-09-02 10:07:56 | 49.40840 | 12.95213 | 112° | 84km/h | 13216m | 647.8m/s | -50.9°C | 0% | 0hPa | 4.6V | 00:00:00 | 00:00:00 | 00:00:00 | |
| BIOWL1-15 | 2026-09-02 10:07:55 | 49.40864 | 12.95141 | 117° | 53km/h | 13239m | -7.4m/s | -51°C | 0% | 0hPa | 4.6V | 00:00:00 | 00:00:00 | 00:00:00 | |
| OE5MMP-10 | 2026-09-02 10:07:54 | 49.40839 | 12.95185 | 117° | 64km/h | 13224m | -7.5m/s | 0°C | 0% | 0hPa | 0V | 00:00:00 | 00:00:00 | 00:00:00 | |
| DM0DOS-11 | 2026-09-02 10:07:50 | 49.40867 | 12.94999 | 95° | 84km/h | 13292m | -7.7m/s | 0°C | 0% | 0hPa | 0V | 00:00:00 | 00:00:00 | 00:00:00 | |
| DO3MHA-11 | 2026-09-02 10:07:46 | 49.40867 | 12.94999 | 96° | 64km/h | 13293m | -7.6m/s | 0°C | 0% | 0hPa | 4.6V | 00:00:00 | 00:00:00 | 00:00:00 | |
| OE5MMP-10 | 2026-09-02 10:07:44 | 49.40877 | 12.94937 | 112° | 66km/h | 13307m | -7.2m/s | 0°C | 0% | 0hPa | 4.6V | 00:00:00 | 00:00:00 | 00:00:00 | |
| BIOWL1-15 | 2026-09-02 10:07:42 | 49.40896 | 12.94871 | 108° | 47km/h | 13322m | -7.6m/s | -51.3°C | 0% | 0hPa | 4.6V | 00:00:00 | 00:00:00 | 00:00:00 | |
| SP3BTT-10 | 2026-09-02 10:07:42 | 49.40891 | 12.94890 | 116° | 71km/h | 13323m | -7.4m/s | 0°C | 0% | 0hPa | 0V | 00:00:00 | 00:00:00 | 00:00:00 | |
| DM0DOS-11 | 2026-09-02 10:07:40 | 49.40900 | 12.94724 | 104° | 84km/h | 13376m | -7.5m/s | 0°C | 0% | 0hPa | 0V | 00:00:00 | 00:00:00 | 00:00:00 | |
| OE5DXL-15 | 2026-09-02 10:07:39 | 49.40898 | 12.94839 | 86° | 68km/h | 13346m | -7.4m/s | 0°C | 0% | 0hPa | 4.6V | 00:00:00 | 00:00:00 | 00:00:00 | |
| OE5WHR-10 | 2026-09-02 10:07:37 | 49.40894 | 12.94785 | 89° | 69km/h | 13354m | -7.5m/s | 0°C | 0% | 0hPa | 4.6V | 00:00:00 | 00:00:00 | 00:00:00 | |
| DB0UT-7 | 2026-09-02 10:07:35 | 49.40901 | 12.94723 | 105° | 68km/h | 13391m | -7.5m/s | 0°C | 0% | 0hPa | 4.6V | 00:00:00 | 00:00:00 | 00:00:00 | |
| BIOWL1-15 | 2026-09-02 10:07:33 | 49.40939 | 12.94607 | 115° | 47km/h | 13406m | -7.4m/s | -51.3°C | 0% | 0hPa | 4.6V | 00:00:00 | 00:00:00 | 00:00:00 | |
| OE5MMP-10 | 2026-09-02 10:07:33 | 49.40916 | 12.94667 | 121° | 71km/h | 13391m | -7.3m/s | 0°C | 0% | 0hPa | 0V | 00:00:00 | 00:00:00 | 00:00:00 | |
| DF2AP-13 | 2026-09-02 10:07:31 | 49.40933 | 12.94625 | 123° | 68km/h | 13407m | -7.5m/s | 0°C | 0% | 0hPa | 0V | 00:00:00 | 00:00:00 | 00:00:00 | |
| DM0DOS-11 | 2026-09-02 10:07:29 | 49.40950 | 12.94456 | 115° | 84km/h | 13453m | -7.4m/s | 0°C | 0% | 0hPa | 0V | 00:00:00 | 00:00:00 | 00:00:00 | |
| DO3MHA-11 | 2026-09-02 10:07:27 | 49.40945 | 12.94545 | 95° | 69km/h | 13437m | -7.7m/s | 0°C | 0% | 0hPa | 0V | 00:00:00 | 00:00:00 | 00:00:00 | |
| OE5MMP-10 | 2026-09-02 10:07:22 | 49.40981 | 12.94406 | 131° | 69km/h | 13476m | -7.4m/s | 0°C | 0% | 0hPa | 0V | 00:00:00 | 00:00:00 | 00:00:00 | |
| PETON7-10 | 2026-09-02 10:07:20 | 49.41001 | 12.94371 | 128° | 64km/h | 13491m | -7.7m/s | 0°C | 0% | 0hPa | 0V | 00:00:00 | 00:00:00 | 00:00:00 | |
| BIOWL1-15 | 2026-09-02 10:07:20 | 49.41008 | 12.94355 | 114° | 46km/h | 13491m | -7.7m/s | -51.4°C | 0% | 0hPa | 4.6V | 00:00:00 | 00:00:00 | 00:00:00 | |
| DM0DOS-11 | 2026-09-02 10:07:19 | 49.41028 | 12.94227 | 113° | 88km/h | 13537m | -7.7m/s | 0°C | 0% | 0hPa | 0V | 00:00:00 | 00:00:00 | 00:00:00 | |
| OE5MMP-10 | 2026-09-02 10:07:11 | 49.41051 | 12.94151 | 136° | 62km/h | 13552m | -7.3m/s | 0°C | 0% | 0hPa | 4.6V | 00:00:00 | 00:00:00 | 00:00:00 | |
| OK1ALN | 2026-09-02 10:07:10 | 49.41062 | 12.94135 | 136° | 55km/h | 13559m | 647.4m/s | -51.6°C | 0% | 0hPa | 4.6V | 00:00:00 | 00:00:00 | 00:00:00 | |
| BIOWL1-15 | 2026-09-02 10:07:09 | 49.41082 | 12.94120 | 128° | 47km/h | 13568m | -8.1m/s | -51.6°C | 0% | 0hPa | 4.6V | 00:00:00 | 00:00:00 | 00:00:00 | |
| SP3BTT-10 | 2026-09-02 10:07:09 | 49.41076 | 12.94120 | 129° | 66km/h | 13568m | -8.0m/s | 0°C | 0% | 0hPa | 0V | 00:00:00 | 00:00:00 | 00:00:00 | |
| DM0DOS-11 | 2026-09-02 10:07:08 | 49.41112 | 12.93973 | 117° | 88km/h | 13621m | -7.5m/s | 0°C | 0% | 0hPa | 0V | 00:00:00 | 00:00:00 | 00:00:00 | |
| DB0NH | 2026-09-02 10:07:05 | 49.41097 | 12.94035 | 102° | 64km/h | 13606m | -7.6m/s | 0°C | 0% | 0hPa | 4.6V | 00:00:00 | 00:00:00 | 00:00:00 | |
| OE5MMP-10 | 2026-09-02 10:07:01 | 49.41136 | 12.93920 | 134° | 64km/h | 13637m | -7.0m/s | 0°C | 0% | 0hPa | 4.6V | 00:00:00 | 00:00:00 | 00:00:00 | |
| BIOWL1-15 | 2026-09-02 10:06:58 | 49.41169 | 12.93868 | 125° | 53km/h | 13652m | -7.5m/s | -51.9°C | 0% | 0hPa | 4.6V | 00:00:00 | 00:00:00 | 00:00:00 | |
| DM0DOS-11 | 2026-09-02 10:06:57 | 49.41204 | 12.93726 | 114° | 66km/h | 13705m | -7.3m/s | 0°C | 0% | 0hPa | 0V | 00:00:00 | 00:00:00 | 00:00:00 | |
| OE5WHR-10 | 2026-09-02 10:06:54 | 49.41191 | 12.93777 | 109° | 60km/h | 13697m | -7.6m/s | 0°C | 0% | 0hPa | 4.6V | 00:00:00 | 00:00:00 | 00:00:00 | |
| PETON7-10 | 2026-09-02 10:06:50 | 49.41218 | 12.93687 | 121° | 60km/h | 13720m | -6.7m/s | 0°C | 0% | 0hPa | 4.6V | 00:00:00 | 00:00:00 | 00:00:00 | |
| BIOWL1-15 | 2026-09-02 10:06:48 | 49.41238 | 12.93639 | 123° | 53km/h | 13735m | -7.4m/s | -51.7°C | 0% | 0hPa | 4.6V | 00:00:00 | 00:00:00 | 00:00:00 | |
| DM0DOS-11 | 2026-09-02 10:06:46 | 49.41280 | 12.93495 | 96° | 49km/h | 13781m | -7m/s | 0°C | 0% | 0hPa | 0V | 00:00:00 | 00:00:00 | 00:00:00 | |
| DO8TBO-1 | 2026-09-02 10:06:46 | 49.41245 | 12.93620 | 123° | 57km/h | 13751m | -7.7m/s | 0°C | 0% | 0hPa | 4.6V | 00:00:00 | 00:00:00 | 00:00:00 | |
| DO3MHA-11 | 2026-09-02 10:06:44 | 49.41262 | 12.93575 | 116° | 62km/h | 13767m | -7.5m/s | 0°C | 0% | 0hPa | 4.6V | 00:00:00 | 00:00:00 | 00:00:00 | |
| OK1ALN | 2026-09-02 10:06:43 | 49.41269 | 12.93522 | 111° | 75km/h | 13774m | 647.9m/s | -51.8°C | 0% | 0hPa | 4.6V | 00:00:00 | 00:00:00 | 00:00:00 | |
| NBG1-10 | 2026-09-02 10:06:42 | 49.41270 | 12.93522 | 105° | 55km/h | 13774m | -7.4m/s | 0°C | 0% | 0hPa | 4.6V | 00:00:00 | 00:00:00 | 00:00:00 | |
| OE5DXL-15 | 2026-09-02 10:06:40 | 49.41282 | 12.93449 | 97° | 53km/h | 13802m | -6.6m/s | 0°C | 0% | 0hPa | 4.6V | 00:00:00 | 00:00:00 | 00:00:00 | |
| BIOWL1-15 | 2026-09-02 10:06:39 | 49.41293 | 12.93401 | 124° | 46km/h | 13816m | -7.1m/s | -51.7°C | 0% | 0hPa | 4.6V | 00:00:00 | 00:00:00 | 00:00:00 | |
| OE5MMP-10 | 2026-09-02 10:06:39 | 49.41282 | 12.93449 | 97° | 58km/h | 13802m | -6.6m/s | 0°C | 0% | 0hPa | 0V | 00:00:00 | 00:00:00 | 00:00:00 | |
| DM0DOS-11 | 2026-09-02 10:06:36 | 49.41323 | 12.93291 | 93° | 68km/h | 13864m | -7.6m/s | 0°C | 0% | 0hPa | 0V | 00:00:00 | 00:00:00 | 00:00:00 | |
| DB0NH | 2026-09-02 10:06:35 | 49.41317 | 12.93385 | 124° | 55km/h | 13832m | -7.3m/s | 0°C | 0% | 0hPa | 4.6V | 00:00:00 | 00:00:00 | 00:00:00 | |
| OE5WHR-10 | 2026-09-02 10:06:33 | 49.41315 | 12.93343 | 113° | 53km/h | 13848m | -8.5m/s | 0°C | 0% | 0hPa | 4.6V | 00:00:00 | 00:00:00 | 00:00:00 | |
| DF2AP-13 | 2026-09-02 10:06:31 | 49.41323 | 12.93291 | 94° | 53km/h | 13864m | -7.6m/s | 0°C | 0% | 0hPa | 4.6V | 00:00:00 | 00:00:00 | 00:00:00 | |
| OE5MMP-10 | 2026-09-02 10:06:28 | 49.41319 | 12.93225 | 76° | 49km/h | 13880m | -7.6m/s | 0°C | 0% | 0hPa | 4.6V | 00:00:00 | 00:00:00 | 00:00:00 | |
| BIOWL1-15 | 2026-09-02 10:06:26 | 49.41336 | 12.93150 | 123° | 58km/h | 13918m | -8.2m/s | -52.1°C | 0% | 0hPa | 4.6V | 00:00:00 | 00:00:00 | 00:00:00 | |
| DM0DOS-11 | 2026-09-02 10:06:25 | 49.41355 | 12.93084 | 100° | 66km/h | 13952m | -8.1m/s | 0°C | 0% | 0hPa | 0V | 00:00:00 | 00:00:00 | 00:00:00 | |
| OE5DRO-10 | 2026-09-02 10:06:24 | 49.41328 | 12.93168 | 125° | 51km/h | 13918m | -7.7m/s | 0°C | 0% | 0hPa | 0V | 00:00:00 | 00:00:00 | 00:00:00 | |
| DO3MHA-11 | 2026-09-02 10:06:22 | 49.41344 | 12.93130 | 119° | 51km/h | 13936m | -8.7m/s | 0°C | 0% | 0hPa | 0V | 00:00:00 | 00:00:00 | 00:00:00 | |
| PETON7-10 | 2026-09-02 10:06:20 | 49.41355 | 12.93084 | 101° | 49km/h | 13952m | -8.1m/s | 0°C | 0% | 0hPa | 0V | 00:00:00 | 00:00:00 | 00:00:00 | |
| OE5MMP-10 | 2026-09-02 10:06:18 | 49.41354 | 12.93036 | 76° | 47km/h | 13966m | -6.2m/s | 0°C | 0% | 0hPa | 0V | 00:00:00 | 00:00:00 | 00:00:00 | |
| DO8TBO-1 | 2026-09-02 10:06:16 | 49.41345 | 12.92999 | 66° | 51km/h | 13983m | -8.5m/s | 0°C | 0% | 0hPa | 0V | 00:00:00 | 00:00:00 | 00:00:00 | |
| DM0DOS-11 | 2026-09-02 10:06:15 | 49.41376 | 12.92891 | 74° | 42km/h | 14020m | -7.9m/s | 0°C | 0% | 0hPa | 0V | 00:00:00 | 00:00:00 | 00:00:00 | |
| BIOWL1-15 | 2026-09-02 10:06:14 | 49.41338 | 12.92951 | 97° | 47km/h | 13998m | -6.5m/s | -52.4°C | 0% | 0hPa | 4.6V | 00:00:00 | 00:00:00 | 00:00:00 | |
| DO3MHA-11 | 2026-09-02 10:06:12 | 49.41338 | 12.92932 | 98° | 49km/h | 14005m | -6.6m/s | 0°C | 0% | 0hPa | 4.6V | 00:00:00 | 00:00:00 | 00:00:00 | |
| OE5WHR-10 | 2026-09-02 10:06:11 | 49.41346 | 12.92912 | 111° | 58km/h | 14020m | -7.4m/s | 0°C | 0% | 0hPa | 4.6V | 00:00:00 | 00:00:00 | 00:00:00 | |
| NBG1-10 | 2026-09-02 10:06:09 | 49.41357 | 12.92873 | 115° | 55km/h | 14037m | -7.6m/s | 0°C | 0% | 0hPa | 4.6V | 00:00:00 | 00:00:00 | 00:00:00 | |
| OE5MMP-10 | 2026-09-02 10:06:07 | 49.41363 | 12.92842 | 99° | 64km/h | 14052m | -7.5m/s | 0°C | 0% | 0hPa | 4.6V | 00:00:00 | 00:00:00 | 00:00:00 | |
| BIOWL1-15 | 2026-09-02 10:06:05 | 49.41350 | 12.92749 | 78° | 69km/h | 14084m | -7.7m/s | -52.2°C | 0% | 0hPa | 4.6V | 00:00:00 | 00:00:00 | 00:00:00 | |
| DM0DOS-11 | 2026-09-02 10:06:05 | 49.41347 | 12.92692 | 85° | 75km/h | 14100m | -7.6m/s | 0°C | 0% | 0hPa | 0V | 00:00:00 | 00:00:00 | 00:00:00 | |
| PETON7-10 | 2026-09-02 10:06:05 | 49.41362 | 12.92813 | 75° | 60km/h | 14068m | -7.6m/s | 0°C | 0% | 0hPa | 0V | 00:00:00 | 00:00:00 | 00:00:00 | |
| DB0NH | 2026-09-02 10:06:04 | 49.41356 | 12.92795 | 74° | 58km/h | 14068m | -7.8m/s | 0°C | 0% | 0hPa | 0V | 00:00:00 | 00:00:00 | 00:00:00 | |
| DO3MHA-11 | 2026-09-02 10:06:02 | 49.41353 | 12.92749 | 78° | 66km/h | 14084m | -7.6m/s | 0°C | 0% | 0hPa | 0V | 00:00:00 | 00:00:00 | 00:00:00 | |
| DF2AP-13 | 2026-09-02 10:06:00 | 49.41345 | 12.92692 | 94° | 57km/h | 14100m | -7.5m/s | 0°C | 0% | 0hPa | 0V | 00:00:00 | 00:00:00 | 00:00:00 | |
| OE5MMP-10 | 2026-09-02 10:05:56 | 49.41364 | 12.92593 | 105° | 47km/h | 14138m | -7.2m/s | 0°C | 0% | 0hPa | 0V | 00:00:00 | 00:00:00 | 00:00:00 | |
| SP3BTT-10 | 2026-09-02 10:05:54 | 49.41366 | 12.92558 | 83° | 55km/h | 14152m | -6.9m/s | 0°C | 0% | 0hPa | 0V | 00:00:00 | 00:00:00 | 00:00:00 | |
| DM0DOS-11 | 2026-09-02 10:05:50 | 49.41355 | 12.92484 | 76° | 49km/h | 14182m | -7.2m/s | 0°C | 0% | 0hPa | 0V | 00:00:00 | 00:00:00 | 00:00:00 | |
| PETON7-10 | 2026-09-02 10:05:50 | 49.41355 | 12.92484 | 77° | 55km/h | 14182m | -7.1m/s | 0°C | 0% | 0hPa | 0V | 00:00:00 | 00:00:00 | 00:00:00 | |
| DO8TBO-1 | 2026-09-02 10:05:46 | 49.41347 | 12.92411 | 83° | 58km/h | 14211m | -7.3m/s | 0°C | 0% | 0hPa | 0V | 00:00:00 | 00:00:00 | 00:00:00 | |
| OE5DRO-10 | 2026-09-02 10:05:45 | 49.41345 | 12.92394 | 83° | 57km/h | 14219m | -7.0m/s | 0°C | 0% | 0hPa | 0V | 00:00:00 | 00:00:00 | 00:00:00 | |
| DO3MHA-11 | 2026-09-02 10:05:41 | 49.41333 | 12.92325 | 68° | 71km/h | 14250m | -8.3m/s | 0°C | 0% | 0hPa | 0V | 00:00:00 | 00:00:00 | 00:00:00 | |
| DM0DOS-11 | 2026-09-02 10:05:40 | 49.41321 | 12.92282 | 68° | 68km/h | 14275m | -8m/s | 0°C | 0% | 0hPa | 0V | 00:00:00 | 00:00:00 | 00:00:00 | |
| OE5DXL-15 | 2026-09-02 10:05:39 | 49.41321 | 12.92282 | 69° | 62km/h | 14267m | -8.0m/s | 0°C | 0% | 0hPa | 0V | 00:00:00 | 00:00:00 | 00:00:00 | |
| OE5MMP-10 | 2026-09-02 10:05:35 | 49.41308 | 12.92163 | 93° | 62km/h | 14300m | -8.2m/s | 0°C | 0% | 0hPa | 0V | 00:00:00 | 00:00:00 | 00:00:00 | |
| DB0NH | 2026-09-02 10:05:34 | 49.41306 | 12.92131 | 100° | 57km/h | 14300m | -8.1m/s | 0°C | 0% | 0hPa | 0V | 00:00:00 | 00:00:00 | 00:00:00 | |
| DM0DOS-11 | 2026-09-02 10:05:30 | 49.41336 | 12.92008 | 88° | 38km/h | 14360m | -8.5m/s | 0°C | 0% | 0hPa | 0V | 00:00:00 | 00:00:00 | 00:00:00 | |
| DF2AP-13 | 2026-09-02 10:05:30 | 49.41332 | 12.92038 | 114° | 53km/h | 14343m | -8.3m/s | 0°C | 0% | 0hPa | 4.6V | 00:00:00 | 00:00:00 | 00:00:00 | |
| OE5WHR-10 | 2026-09-02 10:05:28 | 49.41336 | 12.92008 | 89° | 53km/h | 14360m | -8.5m/s | 0°C | 0% | 0hPa | 4.6V | 00:00:00 | 00:00:00 | 00:00:00 | |
| OE5DRO-10 | 2026-09-02 10:05:26 | 49.41332 | 12.91972 | 78° | 58km/h | 14378m | -8.1m/s | 0°C | 0% | 0hPa | 4.6V | 00:00:00 | 00:00:00 | 00:00:00 | |
| BIOWL1-15 | 2026-09-02 10:05:24 | 49.41351 | 12.91803 | 123° | 55km/h | 14427m | -7.9m/s | -51.6°C | 0% | 0hPa | 4.6V | 00:00:00 | 00:00:00 | 00:00:00 | |
| DM0DOS-11 | 2026-09-02 10:05:20 | 49.41359 | 12.91767 | 119° | 57km/h | 14444m | -8.4m/s | 0°C | 0% | 0hPa | 0V | 00:00:00 | 00:00:00 | 00:00:00 | |
| PETON7-10 | 2026-09-02 10:05:19 | 49.41343 | 12.91803 | 123° | 51km/h | 14428m | -7.9m/s | 0°C | 0% | 0hPa | 0V | 00:00:00 | 00:00:00 | 00:00:00 | |
| DO8TBO-1 | 2026-09-02 10:05:15 | 49.41379 | 12.91723 | 110° | 49km/h | 14471m | -8.8m/s | 0°C | 0% | 0hPa | 0V | 00:00:00 | 00:00:00 | 00:00:00 | |
| OE5MMP-10 | 2026-09-02 10:05:13 | 49.41386 | 12.91676 | 99° | 47km/h | 14488m | -8.0m/s | 0°C | 0% | 0hPa | 0V | 00:00:00 | 00:00:00 | 00:00:00 | |
| SP3BTT-10 | 2026-09-02 10:05:11 | 49.41389 | 12.91632 | 91° | 46km/h | 14505m | -8.1m/s | 0°C | 0% | 0hPa | 0V | 00:00:00 | 00:00:00 | 00:00:00 | |
| DM0DOS-11 | 2026-09-02 10:05:10 | 49.41399 | 12.91581 | 137° | 37km/h | 14537m | -7.8m/s | 0°C | 0% | 0hPa | 0V | 00:00:00 | 00:00:00 | 00:00:00 | |
| BIOWL1-15 | 2026-09-02 10:05:09 | 49.41407 | 12.91570 | 137° | 46km/h | 14537m | -8.7m/s | -51.2°C | 0% | 0hPa | 4.6V | 00:00:00 | 00:00:00 | 00:00:00 | |
| DO3MHA-11 | 2026-09-02 10:05:09 | 49.41390 | 12.91601 | 106° | 47km/h | 14521m | -8.0m/s | 0°C | 0% | 0hPa | 0V | 00:00:00 | 00:00:00 | 00:00:00 | |
| OE5WHR-10 | 2026-09-02 10:05:07 | 49.41399 | 12.91580 | 138° | 47km/h | 14537m | -7.8m/s | 0°C | 0% | 0hPa | 0V | 00:00:00 | 00:00:00 | 00:00:00 | |
| DB0UT-7 | 2026-09-02 10:05:05 | 49.41416 | 12.91559 | 132° | 42km/h | 14555m | -8.3m/s | 0°C | 0% | 0hPa | 0V | 00:00:00 | 00:00:00 | 00:00:00 | |
| PETON7-10 | 2026-09-02 10:05:04 | 49.41417 | 12.91539 | 123° | 53km/h | 14555m | -8.3m/s | 0°C | 0% | 0hPa | 0V | 00:00:00 | 00:00:00 | 00:00:00 | |
| OE5MMP-10 | 2026-09-02 10:05:03 | 49.41424 | 12.91520 | 123° | 47km/h | 14563m | -7.6m/s | 0°C | 0% | 0hPa | 0V | 00:00:00 | 00:00:00 | 00:00:00 | |
| NBG1-10 | 2026-09-02 10:05:02 | 49.41435 | 12.91498 | 104° | 49km/h | 14579m | -7.5m/s | 0°C | 0% | 0hPa | 0V | 00:00:00 | 00:00:00 | 00:00:00 | |
| DM0DOS-11 | 2026-09-02 10:05:00 | 49.41435 | 12.91416 | 119° | 27km/h | 14612m | -7.4m/s | 0°C | 0% | 0hPa | 0V | 00:00:00 | 00:00:00 | 00:00:00 | |
| BIOWL1-15 | 2026-09-02 10:05:00 | 49.41441 | 12.91416 | 120° | 27km/h | 14613m | -7.5m/s | -51.3°C | 0% | 0hPa | 4.6V | 00:00:00 | 00:00:00 | 00:00:00 | |
| OK1ALN | 2026-09-02 10:04:59 | 49.41439 | 12.91440 | 89° | 47km/h | 14596m | 647.0m/s | -51.3°C | 0% | 0hPa | 0V | 00:00:00 | 00:00:00 | 00:00:00 | |
| DO3MHA-11 | 2026-09-02 10:04:58 | 49.41439 | 12.91427 | 99° | 49km/h | 14613m | -8.1m/s | 0°C | 0% | 0hPa | 0V | 00:00:00 | 00:00:00 | 00:00:00 | |
| OE5MMP-10 | 2026-09-02 10:04:53 | 49.41464 | 12.91367 | 125° | 47km/h | 14646m | -8.6m/s | 0°C | 0% | 0hPa | 0V | 00:00:00 | 00:00:00 | 00:00:00 | |
| DM0DOS-11 | 2026-09-02 10:04:50 | 49.41476 | 12.91250 | 64° | 42km/h | 14693m | -7.9m/s | 0°C | 0% | 0hPa | 0V | 00:00:00 | 00:00:00 | 00:00:00 | |
| PETON7-10 | 2026-09-02 10:04:49 | 49.41484 | 12.91279 | 73° | 47km/h | 14677m | -7.7m/s | 0°C | 0% | 0hPa | 4.6V | 00:00:00 | 00:00:00 | 00:00:00 | |
| OE5DRO-10 | 2026-09-02 10:04:48 | 49.41476 | 12.91259 | 65° | 46km/h | 14694m | -7.9m/s | 0°C | 0% | 0hPa | 4.6V | 00:00:00 | 00:00:00 | 00:00:00 | |
| DO3MHA-11 | 2026-09-02 10:04:47 | 49.41472 | 12.91249 | 67° | 51km/h | 14702m | -7.9m/s | 0°C | 0% | 0hPa | 4.6V | 00:00:00 | 00:00:00 | 00:00:00 | |
| BIOWL1-15 | 2026-09-02 10:04:47 | 49.41470 | 12.91240 | 83° | 24km/h | 14702m | -7.8m/s | -51.6°C | 0% | 0hPa | 4.6V | 00:00:00 | 00:00:00 | 00:00:00 | |
| OE5WHR-10 | 2026-09-02 10:04:45 | 49.41471 | 12.91232 | 112° | 51km/h | 14717m | -7.2m/s | 0°C | 0% | 0hPa | 4.6V | 00:00:00 | 00:00:00 | 00:00:00 | |
| OE5MMP-10 | 2026-09-02 10:04:43 | 49.41481 | 12.91209 | 125° | 51km/h | 14735m | -8.6m/s | 0°C | 0% | 0hPa | 4.6V | 00:00:00 | 00:00:00 | 00:00:00 | |
| SP3BTT-10 | 2026-09-02 10:04:41 | 49.41492 | 12.91169 | 102° | 46km/h | 14750m | -7.0m/s | 0°C | 0% | 0hPa | 4.6V | 00:00:00 | 00:00:00 | 00:00:00 | |
| OE5DXL-15 | 2026-09-02 10:04:39 | 49.41490 | 12.91118 | 75° | 53km/h | 14765m | -7.2m/s | 0°C | 0% | 0hPa | 4.6V | 00:00:00 | 00:00:00 | 00:00:00 | |
| BIOWL1-15 | 2026-09-02 10:04:37 | 49.41472 | 12.91061 | 58° | 38km/h | 14782m | -8.6m/s | -51.6°C | 0% | 0hPa | 4.6V | 00:00:00 | 00:00:00 | 00:00:00 | |
| DO3MHA-11 | 2026-09-02 10:04:36 | 49.41476 | 12.91061 | 58° | 51km/h | 14782m | -8.6m/s | 0°C | 0% | 0hPa | 4.6V | 00:00:00 | 00:00:00 | 00:00:00 | |
| DF8AY | 2026-09-02 10:04:35 | 49.41468 | 12.91040 | 99° | 27km/h | 14800m | -8.8m/s | -51.6°C | 0% | 0hPa | 4.6V | 00:00:00 | 00:00:00 | 00:00:00 | |
| PETON7-10 | 2026-09-02 10:04:34 | 49.41468 | 12.91040 | 99° | 49km/h | 14809m | -8.8m/s | 0°C | 0% | 0hPa | 4.6V | 00:00:00 | 00:00:00 | 00:00:00 | |
| OE5MMP-10 | 2026-09-02 10:04:32 | 49.41475 | 12.91010 | 115° | 53km/h | 14836m | -8.8m/s | 0°C | 0% | 0hPa | 4.6V | 00:00:00 | 00:00:00 | 00:00:00 | |
| DF2AP-13 | 2026-09-02 10:04:31 | 49.41480 | 12.90954 | 107° | 55km/h | 14836m | -8.8m/s | 0°C | 0% | 0hPa | 4.6V | 00:00:00 | 00:00:00 | 00:00:00 | |
| OE5DRO-10 | 2026-09-02 10:04:29 | 49.41485 | 12.90929 | 88° | 57km/h | 14854m | -8.8m/s | 0°C | 0% | 0hPa | 4.6V | 00:00:00 | 00:00:00 | 00:00:00 | |
| NBG1-10 | 2026-09-02 10:04:28 | 49.41482 | 12.90904 | 76° | 57km/h | 14862m | -8.8m/s | 0°C | 0% | 0hPa | 4.6V | 00:00:00 | 00:00:00 | 00:00:00 | |
| DO3MHA-11 | 2026-09-02 10:04:26 | 49.41469 | 12.90859 | 59° | 49km/h | 14881m | -9.3m/s | 0°C | 0% | 0hPa | 4.6V | 00:00:00 | 00:00:00 | 00:00:00 | |
| OE5WHR-10 | 2026-09-02 10:04:23 | 49.41456 | 12.90824 | 100° | 55km/h | 14898m | -8.7m/s | 0°C | 0% | 0hPa | 4.6V | 00:00:00 | 00:00:00 | 00:00:00 | |
| OE5MMP-10 | 2026-09-02 10:04:22 | 49.41461 | 12.90795 | 112° | 51km/h | 14917m | -9.1m/s | 0°C | 0% | 0hPa | 4.6V | 00:00:00 | 00:00:00 | 00:00:00 | |
| PETON7-10 | 2026-09-02 10:04:19 | 49.41471 | 12.90748 | 92° | 62km/h | 14945m | -9.0m/s | 0°C | 0% | 0hPa | 4.6V | 00:00:00 | 00:00:00 | 00:00:00 | |
| OK1ALN | 2026-09-02 10:04:18 | 49.41469 | 12.90720 | 82° | 71km/h | 14945m | 646.4m/s | -51.4°C | 0% | 0hPa | 4.6V | 00:00:00 | 00:00:00 | 00:00:00 | |
| DF8AY | 2026-09-02 10:04:15 | 49.41442 | 12.90634 | 52° | 42km/h | 14980m | -9m/s | -51.5°C | 0% | 0hPa | 4.6V | 00:00:00 | 00:00:00 | 00:00:00 | |
| BIOWL1-15 | 2026-09-02 10:04:13 | 49.41434 | 12.90611 | 81° | 31km/h | 14999m | -9.1m/s | -51.6°C | 0% | 0hPa | 4.6V | 00:00:00 | 00:00:00 | 00:00:00 | |
| SP3BTT-10 | 2026-09-02 10:04:11 | 49.41434 | 12.90597 | 97° | 69km/h | 15017m | -8.9m/s | 0°C | 0% | 0hPa | 4.6V | 00:00:00 | 00:00:00 | 00:00:00 | |
| OE5DRO-10 | 2026-09-02 10:04:10 | 49.41436 | 12.90582 | 99° | 68km/h | 15026m | -8.4m/s | 0°C | 0% | 0hPa | 4.6V | 00:00:00 | 00:00:00 | 00:00:00 | |
| PETON7-10 | 2026-09-02 10:04:05 | 49.41420 | 12.90417 | 62° | 69km/h | 15070m | -8.6m/s | 0°C | 0% | 0hPa | 4.6V | 00:00:00 | 00:00:00 | 00:00:00 | |
| DF8AY | 2026-09-02 10:04:04 | 49.41404 | 12.90402 | 54° | 49km/h | 15079m | -8.7m/s | -51.9°C | 0% | 0hPa | 4.6V | 00:00:00 | 00:00:00 | 00:00:00 | |
| DB0NH | 2026-09-02 10:04:04 | 49.41412 | 12.90419 | 57° | 75km/h | 15079m | -8.6m/s | 0°C | 0% | 0hPa | 4.6V | 00:00:00 | 00:00:00 | 00:00:00 | |
| OE5WHR-10 | 2026-09-02 10:04:02 | 49.41397 | 12.90386 | 63° | 75km/h | 15098m | -9.1m/s | 0°C | 0% | 0hPa | 4.6V | 00:00:00 | 00:00:00 | 00:00:00 | |
| BIOWL1-15 | 2026-09-02 10:03:58 | 49.41391 | 12.90278 | 87° | 82km/h | 15133m | -8.3m/s | -51.9°C | 0% | 0hPa | 4.6V | 00:00:00 | 00:00:00 | 00:00:00 | |
| NBG1-10 | 2026-09-02 10:03:56 | 49.41389 | 12.90245 | 85° | 78km/h | 15151m | -8.7m/s | 0°C | 0% | 0hPa | 4.6V | 00:00:00 | 00:00:00 | 00:00:00 | |
| DF8AY | 2026-09-02 10:03:54 | 49.41379 | 12.90148 | 77° | 77km/h | 15169m | -8.7m/s | -51.5°C | 0% | 0hPa | 4.6V | 00:00:00 | 00:00:00 | 00:00:00 | |
| OE5DRO-10 | 2026-09-02 10:03:51 | 49.41370 | 12.90097 | 74° | 78km/h | 15195m | -8.3m/s | 0°C | 0% | 0hPa | 4.6V | 00:00:00 | 00:00:00 | 00:00:00 | |
| OE5MMP-10 | 2026-09-02 10:03:49 | 49.41359 | 12.90052 | 67° | 80km/h | 15212m | -8.7m/s | 0°C | 0% | 0hPa | 4.6V | 00:00:00 | 00:00:00 | 00:00:00 | |
| BIOWL1-15 | 2026-09-02 10:03:47 | 49.41337 | 12.89973 | 71° | 86km/h | 15231m | -8.9m/s | -51.5°C | 0% | 0hPa | 4.6V | 00:00:00 | 00:00:00 | 00:00:00 | |
| OE3JTB-15 | 2026-09-02 10:03:45 | 49.41331 | 12.89940 | 77° | 161km/h | 15257m | -8.9m/s | 0°C | 0% | 0hPa | 4.6V | 00:00:00 | 00:00:00 | 00:00:00 | |
| DO3MHA-11 | 2026-09-02 10:03:44 | 49.41328 | 12.89906 | 84° | 80km/h | 15249m | -8.2m/s | 0°C | 0% | 0hPa | 4.6V | 00:00:00 | 00:00:00 | 00:00:00 | |
| DF8AY | 2026-09-02 10:03:43 | 49.41328 | 12.89836 | 97° | 88km/h | 15265m | -8.6m/s | -51.6°C | 0% | 0hPa | 4.6V | 00:00:00 | 00:00:00 | 00:00:00 | |
| SP3BTT-10 | 2026-09-02 10:03:41 | 49.41331 | 12.89801 | 101° | 78km/h | 15283m | -8.6m/s | 0°C | 0% | 0hPa | 4.6V | 00:00:00 | 00:00:00 | 00:00:00 | |
| BIOWL1-15 | 2026-09-02 10:03:40 | 49.41316 | 12.89634 | 75° | 91km/h | 15328m | -9.5m/s | -51.7°C | 0% | 0hPa | 4.6V | 00:00:00 | 00:00:00 | 00:00:00 | |
| OE5WHR-10 | 2026-09-02 10:03:40 | 49.41333 | 12.89775 | 98° | 78km/h | 15283m | -8.6m/s | 0°C | 0% | 0hPa | 4.6V | 00:00:00 | 00:00:00 | 00:00:00 | |
| OE5DXL-15 | 2026-09-02 10:03:39 | 49.41335 | 12.89748 | 89° | 78km/h | 15292m | -8.5m/s | 0°C | 0% | 0hPa | 4.6V | 00:00:00 | 00:00:00 | 00:00:00 | |
| OE5MMP-10 | 2026-09-02 10:03:38 | 49.41333 | 12.89723 | 78° | 82km/h | 15309m | -8.0m/s | 0°C | 0% | 0hPa | 4.6V | 00:00:00 | 00:00:00 | 00:00:00 | |
| OK1ALN | 2026-09-02 10:03:37 | 49.41328 | 12.89696 | 72° | 68km/h | 15309m | 646.7m/s | -51.7°C | 0% | 0hPa | 4.6V | 00:00:00 | 00:00:00 | 00:00:00 | |
| DB0NH | 2026-09-02 10:03:34 | 49.41311 | 12.89599 | 83° | 77km/h | 15345m | -8.5m/s | 0°C | 0% | 0hPa | 4.6V | 00:00:00 | 00:00:00 | 00:00:00 | |
| DF8AY | 2026-09-02 10:03:32 | 49.41314 | 12.89493 | 100° | 88km/h | 15362m | -8.1m/s | -51.5°C | 0% | 0hPa | 4.6V | 00:00:00 | 00:00:00 | 00:00:00 | |
| OE5DRO-10 | 2026-09-02 10:03:32 | 49.41311 | 12.89527 | 97° | 77km/h | 15362m | -8.1m/s | 0°C | 0% | 0hPa | 4.6V | 00:00:00 | 00:00:00 | 00:00:00 | |
| DF2AP-13 | 2026-09-02 10:03:30 | 49.41318 | 12.89460 | 101° | 73km/h | 15380m | -9.1m/s | 0°C | 0% | 0hPa | 4.6V | 00:00:00 | 00:00:00 | 00:00:00 | |
| OE5MMP-10 | 2026-09-02 10:03:27 | 49.41325 | 12.89370 | 88° | 75km/h | 15396m | -7.1m/s | 0°C | 0% | 0hPa | 4.6V | 00:00:00 | 00:00:00 | 00:00:00 | |
| BIOWL1-15 | 2026-09-02 10:03:25 | 49.41320 | 12.89314 | 83° | 75km/h | 15413m | -8.9m/s | -51.7°C | 0% | 0hPa | 4.6V | 00:00:00 | 00:00:00 | 00:00:00 | |
| DO3MHA-11 | 2026-09-02 10:03:24 | 49.41320 | 12.89284 | 84° | 71km/h | 15421m | -8.2m/s | 0°C | 0% | 0hPa | 4.6V | 00:00:00 | 00:00:00 | 00:00:00 | |
| DF8AY | 2026-09-02 10:03:21 | 49.41324 | 12.89157 | 98° | 77km/h | 15455m | -8.4m/s | -51.7°C | 0% | 0hPa | 4.6V | 00:00:00 | 00:00:00 | 00:00:00 | |
| NBG1-10 | 2026-09-02 10:03:21 | 49.41321 | 12.89188 | 98° | 71km/h | 15455m | -8.7m/s | 0°C | 0% | 0hPa | 0V | 00:00:00 | 00:00:00 | 00:00:00 | |
| PETON7-10 | 2026-09-02 10:03:19 | 49.41326 | 12.89130 | 98° | 71km/h | 15472m | -8.0m/s | 0°C | 0% | 0hPa | 0V | 00:00:00 | 00:00:00 | 00:00:00 | |
| OE5MMP-10 | 2026-09-02 10:03:17 | 49.41330 | 12.89082 | 94° | 75km/h | 15489m | -8.3m/s | 0°C | 0% | 0hPa | 0V | 00:00:00 | 00:00:00 | 00:00:00 | |
| DM0DOS-11 | 2026-09-02 10:03:16 | 49.41335 | 12.88916 | 107° | 84km/h | 15533m | -7.7m/s | 0°C | 0% | 0hPa | 0V | 00:00:00 | 00:00:00 | 00:00:00 | |
| OE3JTB-15 | 2026-09-02 10:03:16 | 49.41321 | 12.89060 | 88° | 69km/h | 15489m | -8.6m/s | 0°C | 0% | 0hPa | 4.6V | 00:00:00 | 00:00:00 | 00:00:00 | |
| BIOWL1-15 | 2026-09-02 10:03:15 | 49.41328 | 12.89008 | 88° | 73km/h | 15507m | -8.5m/s | -51.4°C | 0% | 0hPa | 4.6V | 00:00:00 | 00:00:00 | 00:00:00 | |
| DO8TBO-1 | 2026-09-02 10:03:15 | 49.41329 | 12.89035 | 86° | 69km/h | 15507m | -9.0m/s | 0°C | 0% | 0hPa | 4.6V | 00:00:00 | 00:00:00 | 00:00:00 | |
| DO3MHA-11 | 2026-09-02 10:03:14 | 49.41328 | 12.89008 | 88° | 75km/h | 15507m | -8.5m/s | 0°C | 0% | 0hPa | 4.6V | 00:00:00 | 00:00:00 | 00:00:00 | |
| DF8AY | 2026-09-02 10:03:10 | 49.41351 | 12.88858 | 115° | 73km/h | 15550m | -9.2m/s | -51.2°C | 0% | 0hPa | 4.6V | 00:00:00 | 00:00:00 | 00:00:00 | |
| SP3BTT-10 | 2026-09-02 10:03:10 | 49.41342 | 12.88886 | 114° | 58km/h | 15551m | -9.2m/s | 0°C | 0% | 0hPa | 4.6V | 00:00:00 | 00:00:00 | 00:00:00 | |
| OE5DXL-15 | 2026-09-02 10:03:09 | 49.41351 | 12.88858 | 116° | 64km/h | 15551m | -9.2m/s | 0°C | 0% | 0hPa | 4.6V | 00:00:00 | 00:00:00 | 00:00:00 | |
| OE5MMP-10 | 2026-09-02 10:03:06 | 49.41366 | 12.88792 | 94° | 77km/h | 15585m | -8.3m/s | 0°C | 0% | 0hPa | 4.6V | 00:00:00 | 00:00:00 | 00:00:00 | |
| BIOWL1-15 | 2026-09-02 10:03:04 | 49.41362 | 12.88723 | 85° | 73km/h | 15605m | -9.6m/s | -51.4°C | 0% | 0hPa | 4.6V | 00:00:00 | 00:00:00 | 00:00:00 | |
| DO3MHA-11 | 2026-09-02 10:03:04 | 49.41364 | 12.88749 | 82° | 75km/h | 15605m | -9.5m/s | 0°C | 0% | 0hPa | 4.6V | 00:00:00 | 00:00:00 | 00:00:00 | |
| DK7TD | 2026-09-02 10:03:02 | 49.41364 | 12.88661 | 101° | 88km/h | 15623m | -8.6m/s | -51.6°C | 0% | 0hPa | 4.6V | 00:00:00 | 00:00:00 | 00:00:00 | |
| DF8AY | 2026-09-02 10:03:00 | 49.41378 | 12.88595 | 115° | 89km/h | 15641m | -9m/s | -51.7°C | 0% | 0hPa | 4.6V | 00:00:00 | 00:00:00 | 00:00:00 | |
| DF2AP-13 | 2026-09-02 10:02:59 | 49.41368 | 12.88595 | 116° | 64km/h | 15642m | -9.0m/s | 0°C | 0% | 0hPa | 4.6V | 00:00:00 | 00:00:00 | 00:00:00 | |
| OE5WHR-10 | 2026-09-02 10:02:57 | 49.41389 | 12.88541 | 126° | 60km/h | 15660m | -8.8m/s | 0°C | 0% | 0hPa | 4.6V | 00:00:00 | 00:00:00 | 00:00:00 | |
| OE5MMP-10 | 2026-09-02 10:02:56 | 49.41399 | 12.88521 | 126° | 64km/h | 15669m | -8.5m/s | 0°C | 0% | 0hPa | 4.6V | 00:00:00 | 00:00:00 | 00:00:00 | |
| BIOWL1-15 | 2026-09-02 10:02:53 | 49.41421 | 12.88451 | 94° | 58km/h | 15706m | -9.3m/s | -52°C | 0% | 0hPa | 4.6V | 00:00:00 | 00:00:00 | 00:00:00 | |
| DO3MHA-11 | 2026-09-02 10:02:53 | 49.41420 | 12.88472 | 94° | 64km/h | 15706m | -9.4m/s | 0°C | 0% | 0hPa | 4.6V | 00:00:00 | 00:00:00 | 00:00:00 | |
| OE5DRO-10 | 2026-09-02 10:02:51 | 49.41423 | 12.88427 | 98° | 60km/h | 15725m | -8.9m/s | 0°C | 0% | 0hPa | 4.6V | 00:00:00 | 00:00:00 | 00:00:00 | |
| DK7TD | 2026-09-02 10:02:49 | 49.41431 | 12.88373 | 108° | 75km/h | 15733m | -9m/s | -52.1°C | 0% | 0hPa | 4.6V | 00:00:00 | 00:00:00 | 00:00:00 | |
| DF8AY | 2026-09-02 10:02:49 | 49.41437 | 12.88346 | 112° | 75km/h | 15743m | -9.2m/s | -52.1°C | 0% | 0hPa | 4.6V | 00:00:00 | 00:00:00 | 00:00:00 | |
| PETON7-10 | 2026-09-02 10:02:49 | 49.41431 | 12.88373 | 108° | 60km/h | 15743m | -8.9m/s | 0°C | 0% | 0hPa | 4.6V | 00:00:00 | 00:00:00 | 00:00:00 | |
| OE5MMP-10 | 2026-09-02 10:02:47 | 49.41444 | 12.88320 | 114° | 57km/h | 15762m | -9.3m/s | 0°C | 0% | 0hPa | 4.6V | 00:00:00 | 00:00:00 | 00:00:00 | |
| DO8TBO-1 | 2026-09-02 10:02:45 | 49.41459 | 12.88270 | 118° | 57km/h | 15780m | -8.4m/s | 0°C | 0% | 0hPa | 4.6V | 00:00:00 | 00:00:00 | 00:00:00 | |
| DO3MHA-11 | 2026-09-02 10:02:42 | 49.41477 | 12.88215 | 112° | 57km/h | 15806m | -8.6m/s | 0°C | 0% | 0hPa | 4.6V | 00:00:00 | 00:00:00 | 00:00:00 | |
| OE5DXL-15 | 2026-09-02 10:02:39 | 49.41487 | 12.88162 | 103° | 57km/h | 15825m | -8.8m/s | 0°C | 0% | 0hPa | 4.6V | 00:00:00 | 00:00:00 | 00:00:00 | |
| DF8AY | 2026-09-02 10:02:38 | 49.41494 | 12.88119 | 104° | 60km/h | 15841m | -8.3m/s | -51.9°C | 0% | 0hPa | 4.6V | 00:00:00 | 00:00:00 | 00:00:00 | |
| SP3BTT-10 | 2026-09-02 10:02:38 | 49.41490 | 12.88141 | 103° | 53km/h | 15841m | -8.3m/s | 0°C | 0% | 0hPa | 4.6V | 00:00:00 | 00:00:00 | 00:00:00 | |
| OE5WHR-10 | 2026-09-02 10:02:36 | 49.41498 | 12.88096 | 107° | 57km/h | 15859m | -8.9m/s | 0°C | 0% | 0hPa | 4.6V | 00:00:00 | 00:00:00 | 00:00:00 | |
| DK7TD | 2026-09-02 10:02:34 | 49.41508 | 12.88050 | 109° | 64km/h | 15868m | -8.8m/s | -52°C | 0% | 0hPa | 4.6V | 00:00:00 | 00:00:00 | 00:00:00 | |
| DB0NH | 2026-09-02 10:02:34 | 49.41508 | 12.88050 | 110° | 55km/h | 15877m | -8.7m/s | 0°C | 0% | 0hPa | 4.6V | 00:00:00 | 00:00:00 | 00:00:00 | |
| PETON7-10 | 2026-09-02 10:02:33 | 49.41509 | 12.88027 | 109° | 57km/h | 15877m | -8.6m/s | 0°C | 0% | 0hPa | 4.6V | 00:00:00 | 00:00:00 | 00:00:00 | |
| OE5DRO-10 | 2026-09-02 10:02:31 | 49.41522 | 12.87983 | 105° | 57km/h | 15904m | -8.6m/s | 0°C | 0% | 0hPa | 4.6V | 00:00:00 | 00:00:00 | 00:00:00 | |
| DF2AP-13 | 2026-09-02 10:02:29 | 49.41526 | 12.87942 | 101° | 49km/h | 15912m | -7.8m/s | 0°C | 0% | 0hPa | 4.6V | 00:00:00 | 00:00:00 | 00:00:00 | |
| DF8AY | 2026-09-02 10:02:27 | 49.41535 | 12.87881 | 99° | 55km/h | 15938m | -8.8m/s | -52.3°C | 0% | 0hPa | 4.6V | 00:00:00 | 00:00:00 | 00:00:00 | |
| OE5MMP-10 | 2026-09-02 10:02:25 | 49.41537 | 12.87860 | 100° | 57km/h | 15955m | -8.8m/s | 0°C | 0% | 0hPa | 4.6V | 00:00:00 | 00:00:00 | 00:00:00 | |
| BIOWL1-15 | 2026-09-02 10:02:21 | 49.41549 | 12.87746 | 100° | 58km/h | 15990m | -9.3m/s | -52.2°C | 0% | 0hPa | 4.6V | 00:00:00 | 00:00:00 | 00:00:00 | |
| DO3MHA-11 | 2026-09-02 10:02:21 | 49.41546 | 12.87769 | 98° | 55km/h | 15990m | -8.9m/s | 0°C | 0% | 0hPa | 4.6V | 00:00:00 | 00:00:00 | 00:00:00 | |
| PETON7-10 | 2026-09-02 10:02:18 | 49.41551 | 12.87703 | 102° | 51km/h | 16008m | -8.5m/s | 0°C | 0% | 0hPa | 4.6V | 00:00:00 | 00:00:00 | 00:00:00 | |
| DF8AY | 2026-09-02 10:02:17 | 49.41561 | 12.87661 | 104° | 55km/h | 16025m | -8.6m/s | -52.2°C | 0% | 0hPa | 4.6V | 00:00:00 | 00:00:00 | 00:00:00 | |
| OE5MMP-10 | 2026-09-02 10:02:15 | 49.41560 | 12.87640 | 105° | 49km/h | 16034m | -8.9m/s | 0°C | 0% | 0hPa | 4.6V | 00:00:00 | 00:00:00 | 00:00:00 | |
| BIOWL1-15 | 2026-09-02 10:02:12 | 49.41585 | 12.87528 | 104° | 47km/h | 16086m | -8.6m/s | -52.3°C | 0% | 0hPa | 4.6V | 00:00:00 | 00:00:00 | 00:00:00 | |
| DO3MHA-11 | 2026-09-02 10:02:10 | 49.41582 | 12.87546 | 105° | 42km/h | 16086m | -8.6m/s | 0°C | 0% | 0hPa | 4.6V | 00:00:00 | 00:00:00 | 00:00:00 | |
| DK7TD | 2026-09-02 10:02:09 | 49.41588 | 12.87510 | 105° | 47km/h | 16094m | -8.9m/s | -52.4°C | 0% | 0hPa | 4.6V | 00:00:00 | 00:00:00 | 00:00:00 | |
| DF8AY | 2026-09-02 10:02:06 | 49.41598 | 12.87460 | 110° | 44km/h | 16121m | -8.5m/s | -52.4°C | 0% | 0hPa | 4.6V | 00:00:00 | 00:00:00 | 00:00:00 | |
| OE5MMP-10 | 2026-09-02 10:02:05 | 49.41594 | 12.87460 | 111° | 40km/h | 16122m | -8.5m/s | 0°C | 0% | 0hPa | 0V | 00:00:00 | 00:00:00 | 00:00:00 | |
| DB0UT-7 | 2026-09-02 10:02:04 | 49.41601 | 12.87443 | 111° | 40km/h | 16139m | -8.8m/s | 0°C | 0% | 0hPa | 0V | 00:00:00 | 00:00:00 | 00:00:00 | |
| EDDB2-11 | 2026-09-02 10:02:01 | 49.41613 | 12.87403 | 112° | 37km/h | 16157m | -8.4m/s | -53.1°C | -1.0% | -1.0hPa | 0V | 00:00:00 | 00:00:00 | 00:00:00 | |
| DM0DOS-11 | 2026-09-02 10:02:00 | 49.41624 | 12.87361 | 111° | 42km/h | 16184m | -9.2m/s | 0°C | 0% | 0hPa | 0V | 00:00:00 | 00:00:00 | 00:00:00 | |
| DF2AP-13 | 2026-09-02 10:02:00 | 49.41616 | 12.87375 | 111° | 40km/h | 16184m | -9.2m/s | 0°C | 0% | 0hPa | 4.6V | 00:00:00 | 00:00:00 | 00:00:00 | |
| BIOWL1-15 | 2026-09-02 10:01:59 | 49.41623 | 12.87361 | 111° | 40km/h | 16184m | -9.2m/s | -52.4°C | 0% | 0hPa | 4.6V | 00:00:00 | 00:00:00 | 00:00:00 | |
| DF8AY | 2026-09-02 10:01:55 | 49.41638 | 12.87306 | 111° | 35km/h | 16218m | -8.7m/s | -52.4°C | 0% | 0hPa | 4.6V | 00:00:00 | 00:00:00 | 00:00:00 | |
| OE5MMP-10 | 2026-09-02 10:01:55 | 49.41634 | 12.87319 | 113° | 38km/h | 16219m | -8.8m/s | 0°C | 0% | 0hPa | 0V | 00:00:00 | 00:00:00 | 00:00:00 | |
| OE5WHR-10 | 2026-09-02 10:01:53 | 49.41640 | 12.87294 | 108° | 42km/h | 16236m | -8.8m/s | 0°C | 0% | 0hPa | 0V | 00:00:00 | 00:00:00 | 00:00:00 | |
| DM0DOS-11 | 2026-09-02 10:01:50 | 49.41647 | 12.87224 | 100° | 42km/h | 16270m | -8.7m/s | 0°C | 0% | 0hPa | 0V | 00:00:00 | 00:00:00 | 00:00:00 | |
| BIOWL1-15 | 2026-09-02 10:01:48 | 49.41649 | 12.87224 | 100° | 42km/h | 16270m | -8.7m/s | -52.5°C | 0% | 0hPa | 4.6V | 00:00:00 | 00:00:00 | 00:00:00 | |
| PETON7-10 | 2026-09-02 10:01:48 | 49.41647 | 12.87223 | 101° | 42km/h | 16270m | -8.6m/s | 0°C | 0% | 0hPa | 4.6V | 00:00:00 | 00:00:00 | 00:00:00 | |
| DF8AY | 2026-09-02 10:01:44 | 49.41658 | 12.87149 | 99° | 35km/h | 16314m | -8.7m/s | -52.5°C | 0% | 0hPa | 4.6V | 00:00:00 | 00:00:00 | 00:00:00 | |
| OE5MMP-10 | 2026-09-02 10:01:44 | 49.41656 | 12.87163 | 101° | 44km/h | 16314m | -8.5m/s | 0°C | 0% | 0hPa | 0V | 00:00:00 | 00:00:00 | 00:00:00 | |
| DM0DOS-11 | 2026-09-02 10:01:40 | 49.41663 | 12.87077 | 94° | 46km/h | 16376m | -8.7m/s | 0°C | 0% | 0hPa | 0V | 00:00:00 | 00:00:00 | 00:00:00 | |
| NBG1-10 | 2026-09-02 10:01:40 | 49.41661 | 12.87110 | 97° | 40km/h | 16350m | -8.6m/s | 0°C | 0% | 0hPa | 4.6V | 00:00:00 | 00:00:00 | 00:00:00 | |
| OE5DXL-15 | 2026-09-02 10:01:39 | 49.41662 | 12.87094 | 96° | 42km/h | 16350m | -8.8m/s | 0°C | 0% | 0hPa | 4.6V | 00:00:00 | 00:00:00 | 00:00:00 | |
| DO3MHA-11 | 2026-09-02 10:01:38 | 49.41663 | 12.87077 | 95° | 46km/h | 16367m | -8.6m/s | 0°C | 0% | 0hPa | 4.6V | 00:00:00 | 00:00:00 | 00:00:00 | |
| BIOWL1-15 | 2026-09-02 10:01:37 | 49.41664 | 12.87058 | 94° | 49km/h | 16367m | -8.9m/s | -52.4°C | 0% | 0hPa | 4.6V | 00:00:00 | 00:00:00 | 00:00:00 | |
| DF8AY | 2026-09-02 10:01:34 | 49.41669 | 12.86981 | 98° | 46km/h | 16404m | -8.3m/s | -52.3°C | 0% | 0hPa | 4.6V | 00:00:00 | 00:00:00 | 00:00:00 | |
| OE5DRO-10 | 2026-09-02 10:01:33 | 49.41667 | 12.86981 | 99° | 40km/h | 16404m | -8.2m/s | 0°C | 0% | 0hPa | 4.6V | 00:00:00 | 00:00:00 | 00:00:00 | |
| OE5MMP-10 | 2026-09-02 10:01:32 | 49.41669 | 12.86964 | 99° | 42km/h | 16413m | -8.4m/s | 0°C | 0% | 0hPa | 4.6V | 00:00:00 | 00:00:00 | 00:00:00 | |
| DK7TD | 2026-09-02 10:01:31 | 49.41675 | 12.86933 | 101° | 40km/h | 16430m | -8.7m/s | -52.2°C | 0% | 0hPa | 4.6V | 00:00:00 | 00:00:00 | 00:00:00 | |
| OE5WHR-10 | 2026-09-02 10:01:31 | 49.41673 | 12.86948 | 102° | 40km/h | 16431m | -8.6m/s | 0°C | 0% | 0hPa | 0V | 00:00:00 | 00:00:00 | 00:00:00 | |
| DM0DOS-11 | 2026-09-02 10:01:30 | 49.41679 | 12.86887 | 97° | 42km/h | 16466m | -8.5m/s | 0°C | 0% | 0hPa | 0V | 00:00:00 | 00:00:00 | 00:00:00 | |
| DF2AP-13 | 2026-09-02 10:01:29 | 49.41676 | 12.86918 | 100° | 40km/h | 16449m | -9.0m/s | 0°C | 0% | 0hPa | 4.6V | 00:00:00 | 00:00:00 | 00:00:00 | |
| BIOWL1-15 | 2026-09-02 10:01:27 | 49.41681 | 12.86870 | 98° | 42km/h | 16466m | -8.6m/s | -52.2°C | 0% | 0hPa | 4.6V | 00:00:00 | 00:00:00 | 00:00:00 | |
| DF8AY | 2026-09-02 10:01:23 | 49.41688 | 12.86809 | 105° | 37km/h | 16501m | -9.1m/s | -52.3°C | 0% | 0hPa | 4.6V | 00:00:00 | 00:00:00 | 00:00:00 | |
| OE5MMP-10 | 2026-09-02 10:01:22 | 49.41686 | 12.86809 | 105° | 38km/h | 16502m | -9.1m/s | 0°C | 0% | 0hPa | 0V | 00:00:00 | 00:00:00 | 00:00:00 | |
| DM0DOS-11 | 2026-09-02 10:01:20 | 49.41702 | 12.86722 | 101° | 40km/h | 16566m | -9m/s | 0°C | 0% | 0hPa | 0V | 00:00:00 | 00:00:00 | 00:00:00 | |
| DK7TD | 2026-09-02 10:01:19 | 49.41698 | 12.86752 | 102° | 40km/h | 16538m | -8.8m/s | -52.3°C | 0% | 0hPa | 4.6V | 00:00:00 | 00:00:00 | 00:00:00 | |
| PETON7-10 | 2026-09-02 10:01:18 | 49.41696 | 12.86752 | 103° | 38km/h | 16538m | -8.8m/s | 0°C | 0% | 0hPa | 4.6V | 00:00:00 | 00:00:00 | 00:00:00 | |
| DO3MHA-11 | 2026-09-02 10:01:16 | 49.41702 | 12.86722 | 102° | 38km/h | 16566m | -8.9m/s | 0°C | 0% | 0hPa | 4.6V | 00:00:00 | 00:00:00 | 00:00:00 | |
| BIOWL1-15 | 2026-09-02 10:01:16 | 49.41704 | 12.86707 | 103° | 38km/h | 16566m | -8.9m/s | -52.3°C | 0% | 0hPa | 4.6V | 00:00:00 | 00:00:00 | 00:00:00 | |
| OE5DRO-10 | 2026-09-02 10:01:14 | 49.41706 | 12.86692 | 103° | 40km/h | 16584m | -8.9m/s | 0°C | 0% | 0hPa | 4.6V | 00:00:00 | 00:00:00 | 00:00:00 | |
| DF8AY | 2026-09-02 10:01:12 | 49.41712 | 12.86650 | 99° | 37km/h | 16603m | -8.7m/s | -52.4°C | 0% | 0hPa | 4.6V | 00:00:00 | 00:00:00 | 00:00:00 | |
| DM0DOS-11 | 2026-09-02 10:01:10 | 49.41718 | 12.86560 | 88° | 40km/h | 16656m | -9.2m/s | 0°C | 0% | 0hPa | 0V | 00:00:00 | 00:00:00 | 00:00:00 | |
| OE5WHR-10 | 2026-09-02 10:01:10 | 49.41713 | 12.86636 | 99° | 40km/h | 16621m | -8.6m/s | 0°C | 0% | 0hPa | 4.6V | 00:00:00 | 00:00:00 | 00:00:00 | |
| OE5DXL-15 | 2026-09-02 10:01:09 | 49.41715 | 12.86621 | 99° | 40km/h | 16621m | -8.7m/s | 0°C | 0% | 0hPa | 4.6V | 00:00:00 | 00:00:00 | 00:00:00 | |
| NBG1-10 | 2026-09-02 10:01:06 | 49.41717 | 12.86575 | 91° | 40km/h | 16656m | -9.2m/s | 0°C | 0% | 0hPa | 4.6V | 00:00:00 | 00:00:00 | 00:00:00 | |
| BIOWL1-15 | 2026-09-02 10:01:05 | 49.41717 | 12.86560 | 88° | 40km/h | 16656m | -9.2m/s | -52.4°C | 0% | 0hPa | 4.6V | 00:00:00 | 00:00:00 | 00:00:00 | |
| SP3BTT-10 | 2026-09-02 10:01:04 | 49.41717 | 12.86545 | 87° | 38km/h | 16675m | -8.7m/s | 0°C | 0% | 0hPa | 4.6V | 00:00:00 | 00:00:00 | 00:00:00 | |
| PETON7-10 | 2026-09-02 10:01:03 | 49.41716 | 12.86529 | 86° | 40km/h | 16684m | -8.7m/s | 0°C | 0% | 0hPa | 4.6V | 00:00:00 | 00:00:00 | 00:00:00 | |
| DF8AY | 2026-09-02 10:01:02 | 49.41716 | 12.86481 | 94° | 42km/h | 16701m | -9m/s | -52.3°C | 0% | 0hPa | 4.6V | 00:00:00 | 00:00:00 | 00:00:00 | |
| OE5MMP-10 | 2026-09-02 10:01:01 | 49.41716 | 12.86497 | 93° | 40km/h | 16702m | -8.8m/s | 0°C | 0% | 0hPa | 0V | 00:00:00 | 00:00:00 | 00:00:00 | |
| DM0DOS-11 | 2026-09-02 10:01:00 | 49.41720 | 12.86396 | 92° | 44km/h | 16747m | -9.4m/s | 0°C | 0% | 0hPa | 0V | 00:00:00 | 00:00:00 | 00:00:00 | |
| DF2AP-13 | 2026-09-02 10:00:59 | 49.41717 | 12.86464 | 96° | 40km/h | 16719m | -8.8m/s | 0°C | 0% | 0hPa | 4.6V | 00:00:00 | 00:00:00 | 00:00:00 | |
| DO3MHA-11 | 2026-09-02 10:00:56 | 49.41719 | 12.86413 | 93° | 40km/h | 16737m | -9.1m/s | 0°C | 0% | 0hPa | 4.6V | 00:00:00 | 00:00:00 | 00:00:00 | |
| BIOWL1-15 | 2026-09-02 10:00:55 | 49.41720 | 12.86381 | 91° | 40km/h | 16756m | -9.4m/s | -52.2°C | 0% | 0hPa | 4.6V | 00:00:00 | 00:00:00 | 00:00:00 | |
| DK7TD | 2026-09-02 10:00:53 | 49.41720 | 12.86351 | 91° | 37km/h | 16775m | -8.7m/s | -52.1°C | 0% | 0hPa | 4.6V | 00:00:00 | 00:00:00 | 00:00:00 | |
| DF8AY | 2026-09-02 10:00:50 | 49.41721 | 12.86307 | 92° | 42km/h | 16802m | -8.9m/s | -52.2°C | 0% | 0hPa | 4.6V | 00:00:00 | 00:00:00 | 00:00:00 | |
| OE5MMP-10 | 2026-09-02 10:00:50 | 49.41721 | 12.86323 | 91° | 42km/h | 16802m | -8.8m/s | 0°C | 0% | 0hPa | 0V | 00:00:00 | 00:00:00 | 00:00:00 | |
| OE5WHR-10 | 2026-09-02 10:00:48 | 49.41721 | 12.86290 | 93° | 38km/h | 16821m | -9.6m/s | 0°C | 0% | 0hPa | 0V | 00:00:00 | 00:00:00 | 00:00:00 | |
| DO3MHA-11 | 2026-09-02 10:00:46 | 49.41722 | 12.86255 | 93° | 40km/h | 16840m | -8.9m/s | 0°C | 0% | 0hPa | 0V | 00:00:00 | 00:00:00 | 00:00:00 | |
| DM0DOS-11 | 2026-09-02 10:00:45 | 49.41722 | 12.86221 | 88° | 44km/h | 16858m | -9.2m/s | 0°C | 0% | 0hPa | 0V | 00:00:00 | 00:00:00 | 00:00:00 | |
| DO8TBO-1 | 2026-09-02 10:00:44 | 49.41722 | 12.86221 | 89° | 40km/h | 16858m | -9.2m/s | 0°C | 0% | 0hPa | 4.7V | 00:00:00 | 00:00:00 | 00:00:00 | |
| BIOWL1-15 | 2026-09-02 10:00:43 | 49.41722 | 12.86204 | 88° | 42km/h | 16858m | -9m/s | -52.3°C | 0% | 0hPa | 4.7V | 00:00:00 | 00:00:00 | 00:00:00 | |
| DF8AY | 2026-09-02 10:00:40 | 49.41723 | 12.86146 | 97° | 35km/h | 16894m | -8.7m/s | -52.3°C | 0% | 0hPa | 4.7V | 00:00:00 | 00:00:00 | 00:00:00 | |
| OE5DXL-15 | 2026-09-02 10:00:39 | 49.41723 | 12.86145 | 98° | 42km/h | 16895m | -8.6m/s | 0°C | 0% | 0hPa | 0V | 00:00:00 | 00:00:00 | 00:00:00 | |
| DO3MHA-11 | 2026-09-02 10:00:36 | 49.41725 | 12.86101 | 93° | 37km/h | 16922m | -9.1m/s | 0°C | 0% | 0hPa | 0V | 00:00:00 | 00:00:00 | 00:00:00 | |
| DM0DOS-11 | 2026-09-02 10:00:35 | 49.41721 | 12.86049 | 74° | 46km/h | 16960m | -8.6m/s | 0°C | 0% | 0hPa | 0V | 00:00:00 | 00:00:00 | 00:00:00 | |
| OE5DRO-10 | 2026-09-02 10:00:35 | 49.41724 | 12.86085 | 81° | 38km/h | 16942m | -9.2m/s | 0°C | 0% | 0hPa | 4.7V | 00:00:00 | 00:00:00 | 00:00:00 | |
| PETON7-10 | 2026-09-02 10:00:33 | 49.41718 | 12.86052 | 69° | 44km/h | 16960m | -9.2m/s | 0°C | 0% | 0hPa | 4.7V | 00:00:00 | 00:00:00 | 00:00:00 | |
| BIOWL1-15 | 2026-09-02 10:00:32 | 49.41714 | 12.86039 | 67° | 35km/h | 16960m | -8.6m/s | -52.4°C | 0% | 0hPa | 4.7V | 00:00:00 | 00:00:00 | 00:00:00 | |
| DB0UT-7 | 2026-09-02 10:00:31 | 49.41711 | 12.86028 | 67° | 42km/h | 17005m | -8.0m/s | 0°C | 0% | 0hPa | 4.7V | 00:00:00 | 00:00:00 | 00:00:00 | |
| DK7TD | 2026-09-02 10:00:29 | 49.41709 | 12.86001 | 99° | 33km/h | 16996m | -9.1m/s | -52.3°C | 0% | 0hPa | 4.7V | 00:00:00 | 00:00:00 | 00:00:00 | |
| OE5MMP-10 | 2026-09-02 10:00:29 | 49.41709 | 12.86011 | 95° | 46km/h | 16996m | -9.3m/s | 0°C | 0% | 0hPa | 0V | 00:00:00 | 00:00:00 | 00:00:00 | |
| OE5WHR-10 | 2026-09-02 10:00:26 | 49.41712 | 12.85968 | 89° | 46km/h | 17015m | -8.5m/s | 0°C | 0% | 0hPa | 0V | 00:00:00 | 00:00:00 | 00:00:00 | |
| DM0DOS-11 | 2026-09-02 10:00:25 | 49.41698 | 12.85886 | 60° | 46km/h | 17051m | -9.4m/s | 0°C | 0% | 0hPa | 0V | 00:00:00 | 00:00:00 | 00:00:00 | |
| SP3BTT-10 | 2026-09-02 10:00:25 | 49.41709 | 12.85944 | 79° | 49km/h | 17033m | -8.9m/s | 0°C | 0% | 0hPa | 4.7V | 00:00:00 | 00:00:00 | 00:00:00 | |
| BIOWL1-15 | 2026-09-02 10:00:24 | 49.41693 | 12.85886 | 60° | 46km/h | 17051m | -9.4m/s | -52.2°C | 0% | 0hPa | 4.7V | 00:00:00 | 00:00:00 | 00:00:00 | |
| PETON7-10 | 2026-09-02 10:00:18 | 49.41685 | 12.85841 | 101° | 42km/h | 17097m | -9.5m/s | 0°C | 0% | 0hPa | 0V | 00:00:00 | 00:00:00 | 00:00:00 | |
| DF8AY | 2026-09-02 10:00:18 | 49.41687 | 12.85827 | 96° | 42km/h | 17097m | -9m/s | -52.5°C | 0% | 0hPa | 4.7V | 00:00:00 | 00:00:00 | 00:00:00 | |
| DO3MHA-11 | 2026-09-02 10:00:16 | 49.41687 | 12.85808 | 90° | 46km/h | 17115m | -8.4m/s | 0°C | 0% | 0hPa | 0V | 00:00:00 | 00:00:00 | 00:00:00 | |
| DM0DOS-11 | 2026-09-02 10:00:15 | 49.41674 | 12.85714 | 75° | 57km/h | 17153m | -10.4m/s | 0°C | 0% | 0hPa | 0V | 00:00:00 | 00:00:00 | 00:00:00 | |
| DO8TBO-1 | 2026-09-02 10:00:14 | 49.41682 | 12.85761 | 77° | 46km/h | 17143m | -9.0m/s | 0°C | 0% | 0hPa | 4.7V | 00:00:00 | 00:00:00 | 00:00:00 | |
| BIOWL1-15 | 2026-09-02 10:00:12 | 49.41672 | 12.85695 | 81° | 46km/h | 17153m | -10m/s | -52.7°C | 0% | 0hPa | 4.7V | 00:00:00 | 00:00:00 | 00:00:00 | |
| OE5DXL-15 | 2026-09-02 10:00:09 | 49.41673 | 12.85667 | 116° | 42km/h | 17173m | -10.5m/s | 0°C | 0% | 0hPa | 4.7V | 00:00:00 | 00:00:00 | 00:00:00 | |
| DK7TD | 2026-09-02 10:00:07 | 49.41686 | 12.85636 | 119° | 31km/h | 17204m | -10.1m/s | -52.6°C | 0% | 0hPa | 4.7V | 00:00:00 | 00:00:00 | 00:00:00 | |
| OE5MMP-10 | 2026-09-02 10:00:07 | 49.41682 | 12.85646 | 128° | 42km/h | 17204m | -10.1m/s | 0°C | 0% | 0hPa | 0V | 00:00:00 | 00:00:00 | 00:00:00 | |
| DM0DOS-11 | 2026-09-02 10:00:05 | 49.41679 | 12.85564 | 66° | 51km/h | 17321m | -9.7m/s | 0°C | 0% | 0hPa | 0V | 00:00:00 | 00:00:00 | 00:00:00 | |
| OE5WHR-10 | 2026-09-02 10:00:05 | 49.41688 | 12.85625 | 103° | 49km/h | 17223m | -9.3m/s | 0°C | 0% | 0hPa | 4.7V | 00:00:00 | 00:00:00 | 00:00:00 | |
| BIOWL1-15 | 2026-09-02 10:00:00 | 49.41674 | 12.85545 | 70° | 55km/h | 17262m | -10.9m/s | -52.7°C | 0% | 0hPa | 4.7V | 00:00:00 | 00:00:00 | 00:00:00 | |
| DF2AP-13 | 2026-09-02 09:59:59 | 49.41670 | 12.85524 | 77° | 44km/h | 17283m | -10.9m/s | 0°C | 0% | 0hPa | 4.7V | 00:00:00 | 00:00:00 | 00:00:00 | |
| OE5MMP-10 | 2026-09-02 09:59:57 | 49.41669 | 12.85479 | 102° | 49km/h | 17301m | -9.1m/s | 0°C | 0% | 0hPa | 4.7V | 00:00:00 | 00:00:00 | 00:00:00 | |
| DF8AY | 2026-09-02 09:59:57 | 49.41674 | 12.85459 | 112° | 57km/h | 17301m | -9.2m/s | -52.8°C | 0% | 0hPa | 4.7V | 00:00:00 | 00:00:00 | 00:00:00 | |
| OE5DRO-10 | 2026-09-02 09:59:56 | 49.41674 | 12.85458 | 112° | 44km/h | 17311m | -9.5m/s | 0°C | 0% | 0hPa | 4.7V | 00:00:00 | 00:00:00 | 00:00:00 | |
| DK7TD | 2026-09-02 09:59:54 | 49.41692 | 12.85400 | 112° | 53km/h | 17332m | -10.6m/s | -52.9°C | 0% | 0hPa | 4.7V | 00:00:00 | 00:00:00 | 00:00:00 | |
| DO3MHA-11 | 2026-09-02 09:59:54 | 49.41686 | 12.85419 | 116° | 42km/h | 17332m | -10.0m/s | 0°C | 0% | 0hPa | 0V | 00:00:00 | 00:00:00 | 00:00:00 | |
| DM0DOS-11 | 2026-09-02 09:59:50 | 49.41675 | 12.85297 | 50° | 35km/h | 17415m | -10.4m/s | 0°C | 0% | 0hPa | 0V | 00:00:00 | 00:00:00 | 00:00:00 | |
| BIOWL1-15 | 2026-09-02 09:59:50 | 49.41692 | 12.85332 | 61° | 40km/h | 17372m | -10.1m/s | -53.1°C | 0% | 0hPa | 4.7V | 00:00:00 | 00:00:00 | 00:00:00 | |
| PETON7-10 | 2026-09-02 09:59:48 | 49.41686 | 12.85319 | 53° | 38km/h | 17394m | -10.4m/s | 0°C | 0% | 0hPa | 4.7V | 00:00:00 | 00:00:00 | 00:00:00 | |
| DF8AY | 2026-09-02 09:59:46 | 49.41671 | 12.85287 | 60° | 29km/h | 17415m | -10.6m/s | -53.3°C | 0% | 0hPa | 4.7V | 00:00:00 | 00:00:00 | 00:00:00 | |
| OE5MMP-10 | 2026-09-02 09:59:46 | 49.41675 | 12.85297 | 51° | 37km/h | 17415m | -10.3m/s | 0°C | 0% | 0hPa | 4.7V | 00:00:00 | 00:00:00 | 00:00:00 | |
| DK7TD | 2026-09-02 09:59:44 | 49.41667 | 12.85265 | 87° | 33km/h | 17436m | -10.6m/s | -53.2°C | 0% | 0hPa | 4.7V | 00:00:00 | 00:00:00 | 00:00:00 | |
| OE5WHR-10 | 2026-09-02 09:59:44 | 49.41668 | 12.85279 | 77° | 40km/h | 17436m | -10.6m/s | 0°C | 0% | 0hPa | 0V | 00:00:00 | 00:00:00 | 00:00:00 | |
| DO3MHA-11 | 2026-09-02 09:59:43 | 49.41667 | 12.85265 | 88° | 40km/h | 17436m | -10.6m/s | 0°C | 0% | 0hPa | 0V | 00:00:00 | 00:00:00 | 00:00:00 | |
| OE3JTB-15 | 2026-09-02 09:59:42 | 49.41667 | 12.85251 | 90° | 38km/h | 17447m | -11.3m/s | 0°C | 0% | 0hPa | 0V | 00:00:00 | 00:00:00 | 00:00:00 | |
| OE5DXL-15 | 2026-09-02 09:59:39 | 49.41664 | 12.85204 | 81° | 37km/h | 17491m | -10.1m/s | 0°C | 0% | 0hPa | 0V | 00:00:00 | 00:00:00 | 00:00:00 | |
| BIOWL1-15 | 2026-09-02 09:59:39 | 49.41662 | 12.85189 | 77° | 40km/h | 17490m | -10.7m/s | -52.9°C | 0% | 0hPa | 4.7V | 00:00:00 | 00:00:00 | 00:00:00 | |
| OE5DRO-10 | 2026-09-02 09:59:37 | 49.41660 | 12.85173 | 77° | 40km/h | 17513m | -11.0m/s | 0°C | 0% | 0hPa | 0V | 00:00:00 | 00:00:00 | 00:00:00 | |
| DM0DOS-11 | 2026-09-02 09:59:35 | 49.41655 | 12.85142 | 74° | 44km/h | 17533m | -10.2m/s | 0°C | 0% | 0hPa | 0V | 00:00:00 | 00:00:00 | 00:00:00 | |
| DF8AY | 2026-09-02 09:59:35 | 49.41651 | 12.85127 | 72° | 42km/h | 17533m | -10.2m/s | -52.9°C | 0% | 0hPa | 4.7V | 00:00:00 | 00:00:00 | 00:00:00 | |
| OE5MMP-10 | 2026-09-02 09:59:35 | 49.41655 | 12.85142 | 75° | 40km/h | 17534m | -10.1m/s | 0°C | 0% | 0hPa | 4.7V | 00:00:00 | 00:00:00 | 00:00:00 | |
| DK7TD | 2026-09-02 09:59:33 | 49.41645 | 12.85096 | 73° | 40km/h | 17554m | -9.9m/s | -52.9°C | 0% | 0hPa | 4.7V | 00:00:00 | 00:00:00 | 00:00:00 | |
| BIOWL1-15 | 2026-09-02 09:59:30 | 49.41639 | 12.85034 | 91° | 40km/h | 17595m | -9.8m/s | -53°C | 0% | 0hPa | 4.7V | 00:00:00 | 00:00:00 | 00:00:00 | |
| DF2AP-13 | 2026-09-02 09:59:28 | 49.41639 | 12.85034 | 92° | 35km/h | 17595m | -9.7m/s | 0°C | 0% | 0hPa | 0V | 00:00:00 | 00:00:00 | 00:00:00 | |
| DB0UT-7 | 2026-09-02 09:59:26 | 49.41641 | 12.85003 | 98° | 33km/h | 17624m | -9.1m/s | 0°C | 0% | 0hPa | 0V | 00:00:00 | 00:00:00 | 00:00:00 | |
| DM0DOS-11 | 2026-09-02 09:59:25 | 49.41642 | 12.84972 | 97° | 38km/h | 17633m | -9.6m/s | 0°C | 0% | 0hPa | 0V | 00:00:00 | 00:00:00 | 00:00:00 | |
| DF8AY | 2026-09-02 09:59:24 | 49.41644 | 12.84958 | 95° | 38km/h | 17643m | -9.6m/s | -52.9°C | 0% | 0hPa | 4.7V | 00:00:00 | 00:00:00 | 00:00:00 | |
| SP3BTT-10 | 2026-09-02 09:59:24 | 49.41643 | 12.84973 | 96° | 37km/h | 17643m | -9.8m/s | 0°C | 0% | 0hPa | 4.7V | 00:00:00 | 00:00:00 | 00:00:00 | |
| DK7TD | 2026-09-02 09:59:23 | 49.41645 | 12.84943 | 93° | 37km/h | 17653m | -9.4m/s | -52.9°C | 0% | 0hPa | 4.7V | 00:00:00 | 00:00:00 | 00:00:00 | |
| OE5WHR-10 | 2026-09-02 09:59:22 | 49.41645 | 12.84943 | 94° | 33km/h | 17663m | -9.4m/s | 0°C | 0% | 0hPa | 4.7V | 00:00:00 | 00:00:00 | 00:00:00 | |
| BIOWL1-15 | 2026-09-02 09:59:19 | 49.41653 | 12.84872 | 101° | 35km/h | 17701m | -9.7m/s | -52.8°C | 0% | 0hPa | 4.7V | 00:00:00 | 00:00:00 | 00:00:00 | |
| PETON7-10 | 2026-09-02 09:59:18 | 49.41651 | 12.84886 | 103° | 31km/h | 17701m | -9.6m/s | 0°C | 0% | 0hPa | 0V | 00:00:00 | 00:00:00 | 00:00:00 | |
| DM0DOS-11 | 2026-09-02 09:59:15 | 49.41652 | 12.84823 | 76° | 29km/h | 17741m | -9.9m/s | 0°C | 0% | 0hPa | 0V | 00:00:00 | 00:00:00 | 00:00:00 | |
| DF8AY | 2026-09-02 09:59:14 | 49.41651 | 12.84823 | 77° | 29km/h | 17741m | -9.9m/s | -52.9°C | 0% | 0hPa | 4.7V | 00:00:00 | 00:00:00 | 00:00:00 | |
| DK7TD | 2026-09-02 09:59:12 | 49.41649 | 12.84803 | 86° | 27km/h | 17761m | -9.6m/s | -53°C | 0% | 0hPa | 4.7V | 00:00:00 | 00:00:00 | 00:00:00 | |
| DO3MHA-11 | 2026-09-02 09:59:11 | 49.41649 | 12.84803 | 86° | 33km/h | 17771m | -9.5m/s | 0°C | 0% | 0hPa | 4.7V | 00:00:00 | 00:00:00 | 00:00:00 | |
| OE5DXL-15 | 2026-09-02 09:59:09 | 49.41648 | 12.84780 | 84° | 40km/h | 17791m | -9.7m/s | 0°C | 0% | 0hPa | 4.7V | 00:00:00 | 00:00:00 | 00:00:00 | |
| BIOWL1-15 | 2026-09-02 09:59:07 | 49.41642 | 12.84744 | 72° | 35km/h | 17810m | -9.8m/s | -53.4°C | 0% | 0hPa | 4.7V | 00:00:00 | 00:00:00 | 00:00:00 | |
| DM0DOS-11 | 2026-09-02 09:59:05 | 49.41634 | 12.84705 | 72° | 33km/h | 17850m | -9.5m/s | 0°C | 0% | 0hPa | 0V | 00:00:00 | 00:00:00 | 00:00:00 | |
| DO8TBO-1 | 2026-09-02 09:59:05 | 49.41640 | 12.84731 | 73° | 40km/h | 17850m | -9.4m/s | 0°C | 0% | 0hPa | 4.7V | 00:00:00 | 00:00:00 | 00:00:00 | |
| DF8AY | 2026-09-02 09:59:03 | 49.41632 | 12.84693 | 72° | 31km/h | 17850m | -9.8m/s | -53.4°C | 0% | 0hPa | 4.7V | 00:00:00 | 00:00:00 | 00:00:00 | |
| OE5MMP-10 | 2026-09-02 09:59:03 | 49.41634 | 12.84705 | 73° | 37km/h | 17850m | -9.4m/s | 0°C | 0% | 0hPa | 4.7V | 00:00:00 | 00:00:00 | 00:00:00 | |
| DB0NH | 2026-09-02 09:59:02 | 49.41634 | 12.84693 | 72° | 40km/h | 17850m | -9.8m/s | 0°C | 0% | 0hPa | 4.7V | 00:00:00 | 00:00:00 | 00:00:00 | |
| DK7TD | 2026-09-02 09:59:01 | 49.41627 | 12.84672 | 66° | 31km/h | 17869m | -9.7m/s | -53.5°C | 0% | 0hPa | 4.7V | 00:00:00 | 00:00:00 | 00:00:00 | |
| OE5WHR-10 | 2026-09-02 09:59:00 | 49.41630 | 12.84671 | 66° | 44km/h | 17869m | -9.6m/s | 0°C | 0% | 0hPa | 4.7V | 00:00:00 | 00:00:00 | 00:00:00 | |
| DF2AP-13 | 2026-09-02 09:58:58 | 49.41619 | 12.84648 | 63° | 44km/h | 17898m | -9.3m/s | 0°C | 0% | 0hPa | 4.7V | 00:00:00 | 00:00:00 | 00:00:00 | |
| BIOWL1-15 | 2026-09-02 09:58:56 | 49.41607 | 12.84607 | 68° | 42km/h | 17919m | -10m/s | -53.8°C | 0% | 0hPa | 4.7V | 00:00:00 | 00:00:00 | 00:00:00 | |
| DM0DOS-11 | 2026-09-02 09:58:55 | 49.41596 | 12.84560 | 70° | 44km/h | 17958m | -9.3m/s | 0°C | 0% | 0hPa | 0V | 00:00:00 | 00:00:00 | 00:00:00 | |
| SP3BTT-10 | 2026-09-02 09:58:54 | 49.41603 | 12.84591 | 71° | 42km/h | 17938m | -9.6m/s | 0°C | 0% | 0hPa | 4.7V | 00:00:00 | 00:00:00 | 00:00:00 | |
| DF8AY | 2026-09-02 09:58:52 | 49.41592 | 12.84544 | 69° | 46km/h | 17958m | -10.1m/s | -53.9°C | 0% | 0hPa | 4.7V | 00:00:00 | 00:00:00 | 00:00:00 | |
| DK7TD | 2026-09-02 09:58:50 | 49.41582 | 12.84511 | 65° | 47km/h | 17979m | -10.8m/s | -53.9°C | 0% | 0hPa | 4.7V | 00:00:00 | 00:00:00 | 00:00:00 | |
| DO3MHA-11 | 2026-09-02 09:58:50 | 49.41587 | 12.84527 | 66° | 47km/h | 17979m | -9.9m/s | 0°C | 0% | 0hPa | 4.7V | 00:00:00 | 00:00:00 | 00:00:00 | |
| BIOWL1-15 | 2026-09-02 09:58:48 | 49.41566 | 12.84441 | 81° | 49km/h | 18020m | -9.9m/s | -53.9°C | 0% | 0hPa | 4.7V | 00:00:00 | 00:00:00 | 00:00:00 | |
| PETON7-10 | 2026-09-02 09:58:47 | 49.41577 | 12.84478 | 70° | 44km/h | 18000m | -10.1m/s | 0°C | 0% | 0hPa | 0V | 00:00:00 | 00:00:00 | 00:00:00 | |
| DM0DOS-11 | 2026-09-02 09:58:45 | 49.41563 | 12.84371 | 85° | 40km/h | 18072m | -10.4m/s | 0°C | 0% | 0hPa | 0V | 00:00:00 | 00:00:00 | 00:00:00 | |
| DF8AY | 2026-09-02 09:58:41 | 49.41562 | 12.84357 | 84° | 38km/h | 18072m | -10.2m/s | -53.6°C | 0% | 0hPa | 4.7V | 00:00:00 | 00:00:00 | 00:00:00 | |
| DK7TD | 2026-09-02 09:58:40 | 49.41561 | 12.84343 | 80° | 37km/h | 18082m | -10.6m/s | -53.6°C | 0% | 0hPa | 4.7V | 00:00:00 | 00:00:00 | 00:00:00 | |
| OE5WHR-10 | 2026-09-02 09:58:39 | 49.41560 | 12.84342 | 81° | 35km/h | 18093m | -10.6m/s | 0°C | 0% | 0hPa | 0V | 00:00:00 | 00:00:00 | 00:00:00 | |
| DM0DOS-11 | 2026-09-02 09:58:35 | 49.41553 | 12.84220 | 84° | 42km/h | 18166m | -10m/s | 0°C | 0% | 0hPa | 0V | 00:00:00 | 00:00:00 | 00:00:00 | |
| DO8TBO-1 | 2026-09-02 09:58:35 | 49.41555 | 12.84284 | 87° | 33km/h | 18134m | -9.8m/s | 0°C | 0% | 0hPa | 4.7V | 00:00:00 | 00:00:00 | 00:00:00 | |
| BIOWL1-15 | 2026-09-02 09:58:34 | 49.41554 | 12.84268 | 87° | 42km/h | 18134m | -10m/s | -53.4°C | 0% | 0hPa | 4.7V | 00:00:00 | 00:00:00 | 00:00:00 | |
| DB0NH | 2026-09-02 09:58:32 | 49.41554 | 12.84236 | 85° | 33km/h | 18155m | -10.7m/s | 0°C | 0% | 0hPa | 4.7V | 00:00:00 | 00:00:00 | 00:00:00 | |
| DF8AY | 2026-09-02 09:58:30 | 49.41550 | 12.84190 | 86° | 37km/h | 18187m | -9.9m/s | -53.1°C | 0% | 0hPa | 4.7V | 00:00:00 | 00:00:00 | 00:00:00 | |
| OE5MMP-10 | 2026-09-02 09:58:30 | 49.41551 | 12.84204 | 84° | 35km/h | 18187m | -10.2m/s | 0°C | 0% | 0hPa | 4.7V | 00:00:00 | 00:00:00 | 00:00:00 | |
| THATR2-17 | 2026-09-02 09:58:29 | 49.41542 | 12.83815 | 79° | 37km/h | 18507m | 0m/s | 0°C | 0% | 0hPa | 4.7V | 00:00:00 | 00:00:00 | 00:00:00 | |
| DF2AP-13 | 2026-09-02 09:58:28 | 49.41550 | 12.84176 | 89° | 33km/h | 18207m | -9.7m/s | 0°C | 0% | 0hPa | 4.7V | 00:00:00 | 00:00:00 | 00:00:00 | |
| DK7TD | 2026-09-02 09:58:26 | 49.41555 | 12.84135 | 107° | 38km/h | 18228m | -11m/s | -52.8°C | 0% | 0hPa | 4.7V | 00:00:00 | 00:00:00 | 00:00:00 | |
| DM0DOS-11 | 2026-09-02 09:58:25 | 49.41561 | 12.84083 | 97° | 31km/h | 18270m | -10.1m/s | 0°C | 0% | 0hPa | 0V | 00:00:00 | 00:00:00 | 00:00:00 | |
| BIOWL1-15 | 2026-09-02 09:58:23 | 49.41562 | 12.84083 | 97° | 31km/h | 18271m | -10.1m/s | -52.7°C | 0% | 0hPa | 4.7V | 00:00:00 | 00:00:00 | 00:00:00 | |
| DF8AY | 2026-09-02 09:58:20 | 49.41563 | 12.84062 | 92° | 26km/h | 18292m | -10.4m/s | -52.7°C | 0% | 0hPa | 4.7V | 00:00:00 | 00:00:00 | 00:00:00 | |
| OE5DRO-10 | 2026-09-02 09:58:20 | 49.41563 | 12.84072 | 94° | 31km/h | 18292m | -10.3m/s | 0°C | 0% | 0hPa | 4.7V | 00:00:00 | 00:00:00 | 00:00:00 | |
| OE5MMP-10 | 2026-09-02 09:58:19 | 49.41563 | 12.84062 | 93° | 26km/h | 18292m | -10.4m/s | 0°C | 0% | 0hPa | 4.7V | 00:00:00 | 00:00:00 | 00:00:00 | |
| NBG1-10 | 2026-09-02 09:58:18 | 49.41563 | 12.84052 | 95° | 35km/h | 18313m | -9.7m/s | 0°C | 0% | 0hPa | 4.7V | 00:00:00 | 00:00:00 | 00:00:00 | |
| OE5WHR-10 | 2026-09-02 09:58:17 | 49.41564 | 12.84043 | 91° | 33km/h | 18313m | -9.7m/s | 0°C | 0% | 0hPa | 4.7V | 00:00:00 | 00:00:00 | 00:00:00 | |
| DK7TD | 2026-09-02 09:58:13 | 49.41563 | 12.83994 | 85° | 27km/h | 18367m | -10.6m/s | -52.6°C | 0% | 0hPa | 4.7V | 00:00:00 | 00:00:00 | 00:00:00 | |
| OE3JTB-15 | 2026-09-02 09:58:11 | 49.41562 | 12.83984 | 80° | 38km/h | 18399m | -10.0m/s | 0°C | 0% | 0hPa | 4.7V | 00:00:00 | 00:00:00 | 00:00:00 | |
| BIOWL1-15 | 2026-09-02 09:58:10 | 49.41561 | 12.83973 | 78° | 29km/h | 18388m | -10.5m/s | -52.6°C | 0% | 0hPa | 4.7V | 00:00:00 | 00:00:00 | 00:00:00 | |
| DF8AY | 2026-09-02 09:58:09 | 49.41558 | 12.83949 | 80° | 37km/h | 18411m | -11.5m/s | -52.6°C | 0% | 0hPa | 4.7V | 00:00:00 | 00:00:00 | 00:00:00 | |
| OE5MMP-10 | 2026-09-02 09:58:09 | 49.41559 | 12.83961 | 80° | 38km/h | 18411m | -10.8m/s | 0°C | 0% | 0hPa | 0V | 00:00:00 | 00:00:00 | 00:00:00 | |
| DO3MHA-11 | 2026-09-02 09:58:08 | 49.41559 | 12.83949 | 80° | 38km/h | 18411m | -11.5m/s | 0°C | 0% | 0hPa | 0V | 00:00:00 | 00:00:00 | 00:00:00 | |
| DM0DOS-11 | 2026-09-02 09:58:05 | 49.41547 | 12.83845 | 78° | 38km/h | 18486m | -10.1m/s | 0°C | 0% | 0hPa | 0V | 00:00:00 | 00:00:00 | 00:00:00 | |
| DO8TBO-1 | 2026-09-02 09:58:05 | 49.41553 | 12.83903 | 82° | 37km/h | 18466m | -10.4m/s | 0°C | 0% | 0hPa | 4.7V | 00:00:00 | 00:00:00 | 00:00:00 | |
| DB0UT-7 | 2026-09-02 09:58:04 | 49.41554 | 12.83889 | 81° | 38km/h | 18454m | -10.8m/s | 0°C | 0% | 0hPa | 4.7V | 00:00:00 | 00:00:00 | 00:00:00 | |
| DK7TD | 2026-09-02 09:58:02 | 49.41546 | 12.83845 | 78° | 38km/h | 18486m | -10.2m/s | -52.8°C | 0% | 0hPa | 4.7V | 00:00:00 | 00:00:00 | 00:00:00 | |
| PETON7-10 | 2026-09-02 09:58:02 | 49.41548 | 12.83860 | 78° | 40km/h | 18487m | -10.3m/s | 0°C | 0% | 0hPa | 4.7V | 00:00:00 | 00:00:00 | 00:00:00 | |
| BIOWL1-15 | 2026-09-02 09:58:00 | 49.41542 | 12.83815 | 79° | 38km/h | 18507m | -10m/s | -52.7°C | 0% | 0hPa | 4.7V | 00:00:00 | 00:00:00 | 00:00:00 | |
| OE5DRO-10 | 2026-09-02 09:58:00 | 49.41544 | 12.83830 | 78° | 40km/h | 18507m | -10.0m/s | 0°C | 0% | 0hPa | 4.7V | 00:00:00 | 00:00:00 | 00:00:00 | |
| DF8AY | 2026-09-02 09:57:58 | 49.41540 | 12.83785 | 86° | 38km/h | 18528m | -10.4m/s | -52.7°C | 0% | 0hPa | 4.7V | 00:00:00 | 00:00:00 | 00:00:00 | |
| DF2AP-13 | 2026-09-02 09:57:58 | 49.41540 | 12.83800 | 84° | 37km/h | 18528m | -10.2m/s | 0°C | 0% | 0hPa | 4.7V | 00:00:00 | 00:00:00 | 00:00:00 | |
| OE5WHR-10 | 2026-09-02 09:57:56 | 49.41539 | 12.83770 | 90° | 38km/h | 18549m | -10.1m/s | 0°C | 0% | 0hPa | 4.7V | 00:00:00 | 00:00:00 | 00:00:00 | |
| DK7TD | 2026-09-02 09:57:52 | 49.41542 | 12.83689 | 97° | 42km/h | 18592m | -11.1m/s | -52.4°C | 0% | 0hPa | 4.7V | 00:00:00 | 00:00:00 | 00:00:00 | |
| DM0DOS-11 | 2026-09-02 09:57:50 | 49.41545 | 12.83643 | 100° | 40km/h | 18625m | -10.2m/s | 0°C | 0% | 0hPa | 0V | 00:00:00 | 00:00:00 | 00:00:00 | |
| DO3MHA-11 | 2026-09-02 09:57:48 | 49.41545 | 12.83643 | 101° | 37km/h | 18625m | -10.1m/s | 0°C | 0% | 0hPa | 4.7V | 00:00:00 | 00:00:00 | 00:00:00 | |
| DF8AY | 2026-09-02 09:57:47 | 49.41552 | 12.83615 | 104° | 37km/h | 18646m | -10.5m/s | -52.1°C | 0% | 0hPa | 4.7V | 00:00:00 | 00:00:00 | 00:00:00 | |
| OE5MMP-10 | 2026-09-02 09:57:47 | 49.41549 | 12.83629 | 106° | 37km/h | 18647m | -10.2m/s | 0°C | 0% | 0hPa | 4.7V | 00:00:00 | 00:00:00 | 00:00:00 | |
| BIOWL1-15 | 2026-09-02 09:57:45 | 49.41557 | 12.83587 | 103° | 37km/h | 18669m | -10.1m/s | -52°C | 0% | 0hPa | 4.7V | 00:00:00 | 00:00:00 | 00:00:00 | |
| OE3JTB-15 | 2026-09-02 09:57:41 | 49.41562 | 12.83546 | 102° | 33km/h | 18711m | -10.6m/s | 0°C | 0% | 0hPa | 4.7V | 00:00:00 | 00:00:00 | 00:00:00 | |
| DK7TD | 2026-09-02 09:57:39 | 49.41566 | 12.83520 | 98° | 35km/h | 18721m | -10.5m/s | -51.9°C | 0% | 0hPa | 4.7V | 00:00:00 | 00:00:00 | 00:00:00 | |
| OE5DXL-15 | 2026-09-02 09:57:39 | 49.41566 | 12.83520 | 99° | 31km/h | 18732m | -10.5m/s | 0°C | 0% | 0hPa | 4.7V | 00:00:00 | 00:00:00 | 00:00:00 | |
| DO3MHA-11 | 2026-09-02 09:57:38 | 49.41566 | 12.83506 | 98° | 31km/h | 18732m | -10.8m/s | 0°C | 0% | 0hPa | 4.7V | 00:00:00 | 00:00:00 | 00:00:00 | |
| DF8AY | 2026-09-02 09:57:37 | 49.41568 | 12.83481 | 93° | 33km/h | 18755m | -10.7m/s | -51.8°C | 0% | 0hPa | 4.7V | 00:00:00 | 00:00:00 | 00:00:00 | |
| SP3BTT-10 | 2026-09-02 09:57:37 | 49.41568 | 12.83493 | 95° | 29km/h | 18755m | -10.6m/s | 0°C | 0% | 0hPa | 0V | 00:00:00 | 00:00:00 | 00:00:00 | |
| OE5MMP-10 | 2026-09-02 09:57:36 | 49.41568 | 12.83481 | 93° | 31km/h | 18755m | -10.6m/s | 0°C | 0% | 0hPa | 0V | 00:00:00 | 00:00:00 | 00:00:00 | |
| OE5WHR-10 | 2026-09-02 09:57:34 | 49.41569 | 12.83456 | 95° | 29km/h | 18787m | -10.6m/s | 0°C | 0% | 0hPa | 0V | 00:00:00 | 00:00:00 | 00:00:00 | |
| BIOWL1-15 | 2026-09-02 09:57:34 | 49.41570 | 12.83445 | 92° | 29km/h | 18787m | -10.9m/s | -51.8°C | 0% | 0hPa | 4.7V | 00:00:00 | 00:00:00 | 00:00:00 | |
| DM0DOS-11 | 2026-09-02 09:57:33 | 49.41569 | 12.83386 | 85° | 38km/h | 18852m | -10.9m/s | 0°C | 0% | 0hPa | 0V | 00:00:00 | 00:00:00 | 00:00:00 | |
| PETON7-10 | 2026-09-02 09:57:32 | 49.41570 | 12.83434 | 92° | 29km/h | 18809m | -10.1m/s | 0°C | 0% | 0hPa | 4.7V | 00:00:00 | 00:00:00 | 00:00:00 | |
| DB0NH | 2026-09-02 09:57:30 | 49.41570 | 12.83412 | 89° | 29km/h | 18830m | -10.3m/s | 0°C | 0% | 0hPa | 4.7V | 00:00:00 | 00:00:00 | 00:00:00 | |
| DO3MHA-11 | 2026-09-02 09:57:28 | 49.41569 | 12.83386 | 86° | 31km/h | 18852m | -10.9m/s | 0°C | 0% | 0hPa | 4.7V | 00:00:00 | 00:00:00 | 00:00:00 | |
| DK7TD | 2026-09-02 09:57:26 | 49.41567 | 12.83338 | 87° | 42km/h | 18874m | -10.5m/s | -51.8°C | 0% | 0hPa | 4.7V | 00:00:00 | 00:00:00 | 00:00:00 | |
| OE5MMP-10 | 2026-09-02 09:57:26 | 49.41567 | 12.83354 | 85° | 29km/h | 18875m | -10.7m/s | 0°C | 0% | 0hPa | 4.7V | 00:00:00 | 00:00:00 | 00:00:00 | |
| BIOWL1-15 | 2026-09-02 09:57:23 | 49.41567 | 12.83310 | 103° | 29km/h | 18895m | -9.6m/s | -51.8°C | 0% | 0hPa | 4.7V | 00:00:00 | 00:00:00 | 00:00:00 | |
| OE5DRO-10 | 2026-09-02 09:57:22 | 49.41569 | 12.83301 | 117° | 26km/h | 18916m | -10.9m/s | 0°C | 0% | 0hPa | 0V | 00:00:00 | 00:00:00 | 00:00:00 | |
| DM0DOS-11 | 2026-09-02 09:57:20 | 49.41579 | 12.83256 | 93° | 27km/h | 18975m | -11.8m/s | 0°C | 0% | 0hPa | 0V | 00:00:00 | 00:00:00 | 00:00:00 | |
| PETON7-10 | 2026-09-02 09:57:17 | 49.41579 | 12.83256 | 94° | 26km/h | 18976m | -11.7m/s | 0°C | 0% | 0hPa | 4.7V | 00:00:00 | 00:00:00 | 00:00:00 | |
| DF8AY | 2026-09-02 09:57:15 | 49.41580 | 12.83223 | 93° | 29km/h | 18997m | -10.7m/s | -52°C | 0% | 0hPa | 4.7V | 00:00:00 | 00:00:00 | 00:00:00 | |
| OE5MMP-10 | 2026-09-02 09:57:15 | 49.41580 | 12.83234 | 93° | 26km/h | 18997m | -10.6m/s | 0°C | 0% | 0hPa | 4.7V | 00:00:00 | 00:00:00 | 00:00:00 | |
| OE5WHR-10 | 2026-09-02 09:57:13 | 49.41580 | 12.83212 | 94° | 31km/h | 19020m | -10.9m/s | 0°C | 0% | 0hPa | 4.7V | 00:00:00 | 00:00:00 | 00:00:00 | |
| BIOWL1-15 | 2026-09-02 09:57:12 | 49.41581 | 12.83201 | 92° | 27km/h | 19019m | -10.9m/s | -52.1°C | 0% | 0hPa | 4.7V | 00:00:00 | 00:00:00 | 00:00:00 | |
| NBG1-10 | 2026-09-02 09:57:11 | 49.41581 | 12.83190 | 89° | 35km/h | 19042m | -11.3m/s | 0°C | 0% | 0hPa | 0V | 00:00:00 | 00:00:00 | 00:00:00 | |
| DM0DOS-11 | 2026-09-02 09:57:10 | 49.41579 | 12.83154 | 82° | 22km/h | 19076m | -10.9m/s | 0°C | 0% | 0hPa | 0V | 00:00:00 | 00:00:00 | 00:00:00 | |
| OE5DXL-15 | 2026-09-02 09:57:09 | 49.41580 | 12.83172 | 82° | 37km/h | 19054m | -11.2m/s | 0°C | 0% | 0hPa | 4.7V | 00:00:00 | 00:00:00 | 00:00:00 | |
| SP3BTT-10 | 2026-09-02 09:57:07 | 49.41579 | 12.83155 | 85° | 38km/h | 19087m | -10.9m/s | 0°C | 0% | 0hPa | 4.7V | 00:00:00 | 00:00:00 | 00:00:00 | |
| DO3MHA-11 | 2026-09-02 09:57:06 | 49.41578 | 12.83145 | 85° | 31km/h | 19098m | -10.9m/s | 0°C | 0% | 0hPa | 4.7V | 00:00:00 | 00:00:00 | 00:00:00 | |
| DK7TD | 2026-09-02 09:57:04 | 49.41577 | 12.83113 | 86° | 27km/h | 19120m | -10.9m/s | -52.5°C | 0% | 0hPa | 4.7V | 00:00:00 | 00:00:00 | 00:00:00 | |
| OE5MMP-10 | 2026-09-02 09:57:04 | 49.41577 | 12.83124 | 86° | 33km/h | 19121m | -10.7m/s | 0°C | 0% | 0hPa | 4.7V | 00:00:00 | 00:00:00 | 00:00:00 | |
| PETON7-10 | 2026-09-02 09:57:02 | 49.41576 | 12.83102 | 88° | 37km/h | 19143m | -11.2m/s | 0°C | 0% | 0hPa | 4.7V | 00:00:00 | 00:00:00 | 00:00:00 | |
| BIOWL1-15 | 2026-09-02 09:57:01 | 49.41576 | 12.83082 | 90° | 27km/h | 19154m | -11m/s | -52.7°C | 0% | 0hPa | 4.7V | 00:00:00 | 00:00:00 | 00:00:00 | |
| DM0DOS-11 | 2026-09-02 09:57:00 | 49.41578 | 12.83046 | 88° | 37km/h | 19189m | -11.8m/s | 0°C | 0% | 0hPa | 0V | 00:00:00 | 00:00:00 | 00:00:00 | |
| DB0NH | 2026-09-02 09:57:00 | 49.41576 | 12.83082 | 90° | 38km/h | 19166m | -10.9m/s | 0°C | 0% | 0hPa | 4.7V | 00:00:00 | 00:00:00 | 00:00:00 | |
| DF2AP-13 | 2026-09-02 09:56:58 | 49.41577 | 12.83060 | 91° | 38km/h | 19190m | -11.8m/s | 0°C | 0% | 0hPa | 4.7V | 00:00:00 | 00:00:00 | 00:00:00 | |
| DO3MHA-11 | 2026-09-02 09:56:55 | 49.41577 | 12.83014 | 83° | 44km/h | 19212m | -11.0m/s | 0°C | 0% | 0hPa | 4.7V | 00:00:00 | 00:00:00 | 00:00:00 | |
| DF8AY | 2026-09-02 09:56:53 | 49.41568 | 12.82969 | 71° | 37km/h | 19246m | -11.1m/s | -52.6°C | 0% | 0hPa | 4.7V | 00:00:00 | 00:00:00 | 00:00:00 | |
| OE5MMP-10 | 2026-09-02 09:56:53 | 49.41571 | 12.82982 | 75° | 46km/h | 19246m | -10.5m/s | 0°C | 0% | 0hPa | 0V | 00:00:00 | 00:00:00 | 00:00:00 | |
| OE5WHR-10 | 2026-09-02 09:56:51 | 49.41565 | 12.82955 | 75° | 40km/h | 19269m | -11.1m/s | 0°C | 0% | 0hPa | 0V | 00:00:00 | 00:00:00 | 00:00:00 | |
| BIOWL1-15 | 2026-09-02 09:56:51 | 49.41564 | 12.82940 | 81° | 37km/h | 19269m | -10.8m/s | -52.7°C | 0% | 0hPa | 4.7V | 00:00:00 | 00:00:00 | 00:00:00 | |
| DM0DOS-11 | 2026-09-02 09:56:50 | 49.41565 | 12.82888 | 94° | 55km/h | 19314m | -10.9m/s | 0°C | 0% | 0hPa | 0V | 00:00:00 | 00:00:00 | 00:00:00 | |
| PETON7-10 | 2026-09-02 09:56:47 | 49.41565 | 12.82888 | 95° | 42km/h | 19314m | -10.9m/s | 0°C | 0% | 0hPa | 4.7V | 00:00:00 | 00:00:00 | 00:00:00 | |
| DO3MHA-11 | 2026-09-02 09:56:45 | 49.41565 | 12.82845 | 85° | 42km/h | 19337m | -11.3m/s | 0°C | 0% | 0hPa | 4.7V | 00:00:00 | 00:00:00 | 00:00:00 | |
| DF8AY | 2026-09-02 09:56:44 | 49.41553 | 12.82797 | 56° | 35km/h | 19356m | -10.8m/s | -52.8°C | 0% | 0hPa | 4.7V | 00:00:00 | 00:00:00 | 00:00:00 | |
| OE5MMP-10 | 2026-09-02 09:56:43 | 49.41558 | 12.82809 | 62° | 40km/h | 19356m | -9.5m/s | 0°C | 0% | 0hPa | 4.7V | 00:00:00 | 00:00:00 | 00:00:00 | |
| BIOWL1-15 | 2026-09-02 09:56:40 | 49.41548 | 12.82774 | 92° | 33km/h | 19380m | -12.5m/s | -52.6°C | 0% | 0hPa | 4.7V | 00:00:00 | 00:00:00 | 00:00:00 | |
| DM0DOS-11 | 2026-09-02 09:56:40 | 49.41557 | 12.82701 | 100° | 55km/h | 19443m | -13.8m/s | 0°C | 0% | 0hPa | 0V | 00:00:00 | 00:00:00 | 00:00:00 | |
| OE5DXL-15 | 2026-09-02 09:56:39 | 49.41549 | 12.82762 | 102° | 33km/h | 19405m | -11.7m/s | 0°C | 0% | 0hPa | 4.7V | 00:00:00 | 00:00:00 | 00:00:00 | |
| NBG1-10 | 2026-09-02 09:56:37 | 49.41552 | 12.82722 | 104° | 29km/h | 19417m | -12.9m/s | 0°C | 0% | 0hPa | 4.7V | 00:00:00 | 00:00:00 | 00:00:00 | |
| SP3BTT-10 | 2026-09-02 09:56:34 | 49.41559 | 12.82665 | 86° | 27km/h | 19470m | -12.5m/s | 0°C | 0% | 0hPa | 4.7V | 00:00:00 | 00:00:00 | 00:00:00 | |
| BIOWL1-15 | 2026-09-02 09:56:33 | 49.41562 | 12.82638 | 147° | 24km/h | 19525m | -14.5m/s | -52.3°C | 0% | 0hPa | 4.7V | 00:00:00 | 00:00:00 | 00:00:00 | |
| DF8AY | 2026-09-02 09:56:32 | 49.41556 | 12.82644 | 96° | 5km/h | 19495m | -14m/s | -52.4°C | 0% | 0hPa | 4.7V | 00:00:00 | 00:00:00 | 00:00:00 | |
| PETON7-10 | 2026-09-02 09:56:32 | 49.41556 | 12.82647 | 68° | 29km/h | 19496m | -12.6m/s | 0°C | 0% | 0hPa | 4.7V | 00:00:00 | 00:00:00 | 00:00:00 | |
| OE5WHR-10 | 2026-09-02 09:56:30 | 49.41558 | 12.82641 | 147° | 35km/h | 19525m | -15.1m/s | 0°C | 0% | 0hPa | 4.7V | 00:00:00 | 00:00:00 | 00:00:00 | |
| DK7TD | 2026-09-02 09:56:29 | 49.41568 | 12.82631 | 140° | 37km/h | 19538m | -12.1m/s | -52.3°C | 0% | 0hPa | 4.7V | 00:00:00 | 00:00:00 | 00:00:00 | |
| DO8TBO-1 | 2026-09-02 09:56:28 | 49.41567 | 12.82631 | 140° | 29km/h | 19565m | -12.1m/s | 0°C | 0% | 0hPa | 4.7V | 00:00:00 | 00:00:00 | 00:00:00 | |
| DF8AY | 2026-09-02 09:56:26 | 49.41597 | 12.82544 | 135° | 9km/h | 19640m | -12.9m/s | -51.7°C | 0% | 0hPa | 4.7V | 00:00:00 | 00:00:00 | 00:00:00 | |
| DM0DOS-11 | 2026-09-02 09:56:25 | 49.41582 | 12.82588 | 111° | 44km/h | 19578m | -13.2m/s | 0°C | 0% | 0hPa | 0V | 00:00:00 | 00:00:00 | 00:00:00 | |
| DO3MHA-11 | 2026-09-02 09:56:24 | 49.41586 | 12.82573 | 112° | 26km/h | 19591m | -12.2m/s | 0°C | 0% | 0hPa | 0V | 00:00:00 | 00:00:00 | 00:00:00 | |
| OE5DRO-10 | 2026-09-02 09:56:23 | 49.41592 | 12.82561 | 106° | 27km/h | 19616m | -12.4m/s | 0°C | 0% | 0hPa | 0V | 00:00:00 | 00:00:00 | 00:00:00 | |
| OE5MMP-10 | 2026-09-02 09:56:21 | 49.41595 | 12.82547 | 114° | 33km/h | 19640m | -11.8m/s | 0°C | 0% | 0hPa | 0V | 00:00:00 | 00:00:00 | 00:00:00 | |
| PETON7-10 | 2026-09-02 09:56:17 | 49.41601 | 12.82531 | 103° | 33km/h | 19693m | -12.0m/s | 0°C | 0% | 0hPa | 0V | 00:00:00 | 00:00:00 | 00:00:00 | |
| DM0DOS-11 | 2026-09-02 09:56:15 | 49.41603 | 12.82505 | 93° | 44km/h | 19717m | -11.6m/s | 0°C | 0% | 0hPa | 0V | 00:00:00 | 00:00:00 | 00:00:00 | |
| DO3MHA-11 | 2026-09-02 09:56:15 | 49.41603 | 12.82505 | 94° | 35km/h | 19717m | -11.5m/s | 0°C | 0% | 0hPa | 4.7V | 00:00:00 | 00:00:00 | 00:00:00 | |
| DB0UT-7 | 2026-09-02 09:56:14 | 49.41603 | 12.82487 | 93° | 24km/h | 19717m | -12.1m/s | 0°C | 0% | 0hPa | 4.7V | 00:00:00 | 00:00:00 | 00:00:00 | |
| DF8AY | 2026-09-02 09:56:10 | 49.41604 | 12.82418 | 90° | 20km/h | 19781m | -12.6m/s | -51.8°C | 0% | 0hPa | 4.7V | 00:00:00 | 00:00:00 | 00:00:00 | |
| OE5MMP-10 | 2026-09-02 09:56:10 | 49.41604 | 12.82427 | 92° | 24km/h | 19781m | -12.6m/s | 0°C | 0% | 0hPa | 0V | 00:00:00 | 00:00:00 | 00:00:00 | |
| OE5DXL-15 | 2026-09-02 09:56:09 | 49.41604 | 12.82418 | 90° | 16km/h | 19781m | -12.5m/s | 0°C | 0% | 0hPa | 0V | 00:00:00 | 00:00:00 | 00:00:00 | |
| OE5WHR-10 | 2026-09-02 09:56:08 | 49.41604 | 12.82411 | 89° | 20km/h | 19806m | -12.5m/s | 0°C | 0% | 0hPa | 0V | 00:00:00 | 00:00:00 | 00:00:00 | |
| DM0DOS-11 | 2026-09-02 09:56:05 | 49.41605 | 12.82376 | 96° | 27km/h | 19857m | -12.9m/s | 0°C | 0% | 0hPa | 0V | 00:00:00 | 00:00:00 | 00:00:00 | |
| SP3BTT-10 | 2026-09-02 09:56:04 | 49.41605 | 12.82376 | 97° | 15km/h | 19857m | -12.8m/s | 0°C | 0% | 0hPa | 4.7V | 00:00:00 | 00:00:00 | 00:00:00 | |
| DK7TD | 2026-09-02 09:56:02 | 49.41609 | 12.82347 | 114° | 26km/h | 19885m | -13.2m/s | -51.1°C | 0% | 0hPa | 4.7V | 00:00:00 | 00:00:00 | 00:00:00 | |
| PETON7-10 | 2026-09-02 09:56:02 | 49.41607 | 12.82356 | 104° | 18km/h | 19885m | -13.8m/s | 0°C | 0% | 0hPa | 4.7V | 00:00:00 | 00:00:00 | 00:00:00 | |
| DF8AY | 2026-09-02 09:56:00 | 49.41616 | 12.82333 | 147° | 24km/h | 19911m | -13.1m/s | -50.7°C | 0% | 0hPa | 4.7V | 00:00:00 | 00:00:00 | 00:00:00 | |
| OE5MMP-10 | 2026-09-02 09:56:00 | 49.41612 | 12.82337 | 129° | 18km/h | 19911m | -13.0m/s | 0°C | 0% | 0hPa | 0V | 00:00:00 | 00:00:00 | 00:00:00 | |
| DB0NH | 2026-09-02 09:55:59 | 49.41611 | 12.82333 | 147° | 15km/h | 19911m | -13.0m/s | 0°C | 0% | 0hPa | 0V | 00:00:00 | 00:00:00 | 00:00:00 | |
| DO8TBO-1 | 2026-09-02 09:55:58 | 49.41621 | 12.82329 | 155° | 13km/h | 19938m | -13.6m/s | 0°C | 0% | 0hPa | 0V | 00:00:00 | 00:00:00 | 00:00:00 | |
| DF2AP-13 | 2026-09-02 09:55:57 | 49.41621 | 12.82325 | 155° | 13km/h | 19938m | -13.6m/s | 0°C | 0% | 0hPa | 0V | 00:00:00 | 00:00:00 | 00:00:00 | |
| DM0DOS-11 | 2026-09-02 09:55:55 | 49.41637 | 12.82307 | 112° | 15km/h | 20005m | -13.2m/s | 0°C | 0% | 0hPa | 0V | 00:00:00 | 00:00:00 | 00:00:00 | |
| DO3MHA-11 | 2026-09-02 09:55:53 | 49.41637 | 12.82307 | 113° | 13km/h | 20005m | -13.2m/s | 0°C | 0% | 0hPa | 4.7V | 00:00:00 | 00:00:00 | 00:00:00 | |
| DK7TD | 2026-09-02 09:55:51 | 49.41641 | 12.82299 | 153° | 11km/h | 20018m | -12.2m/s | -50.8°C | 0% | 0hPa | 4.7V | 00:00:00 | 00:00:00 | 00:00:00 | |
| BIOWL1-15 | 2026-09-02 09:55:49 | 49.41650 | 12.82300 | 196° | 13km/h | 20056m | -15.4m/s | -50.7°C | 0% | 0hPa | 4.7V | 00:00:00 | 00:00:00 | 00:00:00 | |
| OE5MMP-10 | 2026-09-02 09:55:49 | 49.41647 | 12.82299 | 195° | 11km/h | 20057m | -12.5m/s | 0°C | 0% | 0hPa | 0V | 00:00:00 | 00:00:00 | 00:00:00 | |
| PETON7-10 | 2026-09-02 09:55:47 | 49.41653 | 12.82301 | 194° | 11km/h | 20081m | -13.4m/s | 0°C | 0% | 0hPa | 0V | 00:00:00 | 00:00:00 | 00:00:00 | |
| DM0DOS-11 | 2026-09-02 09:55:45 | 49.41666 | 12.82300 | 174° | 9km/h | 20060m | 5.5m/s | 0°C | 0% | 0hPa | 0V | 00:00:00 | 00:00:00 | 00:00:00 | |
| OE5DRO-10 | 2026-09-02 09:55:45 | 49.41659 | 12.82305 | 183° | 13km/h | 20075m | 4.6m/s | 0°C | 0% | 0hPa | 4.7V | 00:00:00 | 00:00:00 | 00:00:00 | |
| DB0UT-7 | 2026-09-02 09:55:44 | 49.41660 | 12.82303 | 161° | 13km/h | 20075m | 4.6m/s | 0°C | 0% | 0hPa | 4.7V | 00:00:00 | 00:00:00 | 00:00:00 | |
| DO3MHA-11 | 2026-09-02 09:55:43 | 49.41662 | 12.82302 | 161° | 11km/h | 20070m | 4.2m/s | 0°C | 0% | 0hPa | 4.7V | 00:00:00 | 00:00:00 | 00:00:00 | |
| OE5DXL-15 | 2026-09-02 09:55:39 | 49.41674 | 12.82300 | 173° | 16km/h | 20051m | 5.0m/s | 0°C | 0% | 0hPa | 4.7V | 00:00:00 | 00:00:00 | 00:00:00 | |
| DF8AY | 2026-09-02 09:55:38 | 49.41680 | 12.82300 | 171° | 15km/h | 20040m | 4.5m/s | -50.7°C | 0% | 0hPa | 4.7V | 00:00:00 | 00:00:00 | 00:00:00 | |
| OE5MMP-10 | 2026-09-02 09:55:38 | 49.41676 | 12.82300 | 174° | 13km/h | 20040m | 5.8m/s | 0°C | 0% | 0hPa | 0V | 00:00:00 | 00:00:00 | 00:00:00 | |
| DM0DOS-11 | 2026-09-02 09:55:35 | 49.41693 | 12.82285 | 156° | 11km/h | 20012m | 3.8m/s | 0°C | 0% | 0hPa | 0V | 00:00:00 | 00:00:00 | 00:00:00 | |
| DO3MHA-11 | 2026-09-02 09:55:33 | 49.41688 | 12.82288 | 144° | 15km/h | 20021m | 5.3m/s | 0°C | 0% | 0hPa | 4.7V | 00:00:00 | 00:00:00 | 00:00:00 | |
| SP3BTT-10 | 2026-09-02 09:55:32 | 49.41693 | 12.82285 | 157° | 18km/h | 20012m | 3.7m/s | 0°C | 0% | 0hPa | 4.7V | 00:00:00 | 00:00:00 | 00:00:00 | |
| PETON7-10 | 2026-09-02 09:55:31 | 49.41692 | 12.82284 | 156° | 15km/h | 20012m | 5.4m/s | 0°C | 0% | 0hPa | 4.7V | 00:00:00 | 00:00:00 | 00:00:00 | |
| NBG1-10 | 2026-09-02 09:55:30 | 49.41697 | 12.82281 | 157° | 20km/h | 20002m | 5.5m/s | 0°C | 0% | 0hPa | 4.7V | 00:00:00 | 00:00:00 | 00:00:00 | |
| BIOWL1-15 | 2026-09-02 09:55:29 | 49.41709 | 12.82277 | 149° | 18km/h | 19993m | 5.4m/s | -50.5°C | 0% | 0hPa | 4.7V | 00:00:00 | 00:00:00 | 00:00:00 | |
| DB0NH | 2026-09-02 09:55:29 | 49.41697 | 12.82280 | 165° | 20km/h | 20002m | 5.5m/s | 0°C | 0% | 0hPa | 4.7V | 00:00:00 | 00:00:00 | 00:00:00 | |
| DF8AY | 2026-09-02 09:55:27 | 49.41713 | 12.82273 | 133° | 16km/h | 19988m | 4.8m/s | -50.5°C | 0% | 0hPa | 4.7V | 00:00:00 | 00:00:00 | 00:00:00 | |
| OE5MMP-10 | 2026-09-02 09:55:27 | 49.41709 | 12.82277 | 149° | 16km/h | 19988m | 5.4m/s | 0°C | 0% | 0hPa | 0V | 00:00:00 | 00:00:00 | 00:00:00 | |
| DM0DOS-11 | 2026-09-02 09:55:25 | 49.41729 | 12.82249 | 131° | 20km/h | 19959m | 3.8m/s | 0°C | 0% | 0hPa | 0V | 00:00:00 | 00:00:00 | 00:00:00 | |
| OE5WHR-10 | 2026-09-02 09:55:25 | 49.41715 | 12.82268 | 132° | 18km/h | 19978m | 4.8m/s | 0°C | 0% | 0hPa | 4.7V | 00:00:00 | 00:00:00 | 00:00:00 | |
| DO3MHA-11 | 2026-09-02 09:55:23 | 49.41722 | 12.82259 | 143° | 16km/h | 19969m | 4.4m/s | 0°C | 0% | 0hPa | 4.7V | 00:00:00 | 00:00:00 | 00:00:00 | |
| DF8AY | 2026-09-02 09:55:17 | 49.41741 | 12.82227 | 129° | 16km/h | 19940m | 4m/s | -50.5°C | 0% | 0hPa | 4.7V | 00:00:00 | 00:00:00 | 00:00:00 | |
| OE5MMP-10 | 2026-09-02 09:55:17 | 49.41739 | 12.82232 | 123° | 18km/h | 19941m | 4.0m/s | 0°C | 0% | 0hPa | 0V | 00:00:00 | 00:00:00 | 00:00:00 | |
| PETON7-10 | 2026-09-02 09:55:16 | 49.41738 | 12.82227 | 130° | 24km/h | 19941m | 4.0m/s | 0°C | 0% | 0hPa | 0V | 00:00:00 | 00:00:00 | 00:00:00 | |
| DB0UT-7 | 2026-09-02 09:55:14 | 49.41743 | 12.82218 | 144° | 27km/h | 19932m | 4.0m/s | 0°C | 0% | 0hPa | 0V | 00:00:00 | 00:00:00 | 00:00:00 | |
| DO3MHA-11 | 2026-09-02 09:55:13 | 49.41748 | 12.82212 | 144° | 22km/h | 19927m | 5.9m/s | 0°C | 0% | 0hPa | 0V | 00:00:00 | 00:00:00 | 00:00:00 | |
| DM0DOS-11 | 2026-09-02 09:55:10 | 49.41761 | 12.82193 | 127° | 16km/h | 19908m | 4.7m/s | 0°C | 0% | 0hPa | 0V | 00:00:00 | 00:00:00 | 00:00:00 | |
| OE5DXL-15 | 2026-09-02 09:55:09 | 49.41764 | 12.82188 | 124° | 29km/h | 19908m | 3.5m/s | 0°C | 0% | 0hPa | 4.7V | 00:00:00 | 00:00:00 | 00:00:00 | |
| OE3JTB-15 | 2026-09-02 09:55:08 | 49.41766 | 12.82183 | 119° | 29km/h | 19870m | 5.4m/s | 0°C | 0% | 0hPa | 4.7V | 00:00:00 | 00:00:00 | 00:00:00 | |
| OE5MMP-10 | 2026-09-02 09:55:06 | 49.41771 | 12.82170 | 127° | 27km/h | 19889m | 4.9m/s | 0°C | 0% | 0hPa | 4.7V | 00:00:00 | 00:00:00 | 00:00:00 | |
| BIOWL1-15 | 2026-09-02 09:55:05 | 49.41774 | 12.82162 | 128° | 26km/h | 19889m | 4m/s | -51.2°C | 0% | 0hPa | 4.7V | 00:00:00 | 00:00:00 | 00:00:00 | |
| DM0DOS-11 | 2026-09-02 09:55:05 | 49.41792 | 12.82113 | 129° | 27km/h | 19866m | 3.5m/s | 0°C | 0% | 0hPa | 0V | 00:00:00 | 00:00:00 | 00:00:00 | |
| OE5WHR-10 | 2026-09-02 09:55:04 | 49.41779 | 12.82142 | 124° | 31km/h | 19879m | 4.3m/s | 0°C | 0% | 0hPa | 4.7V | 00:00:00 | 00:00:00 | 00:00:00 | |
| DO3MHA-11 | 2026-09-02 09:55:03 | 49.41779 | 12.82142 | 121° | 29km/h | 19879m | 4.3m/s | 0°C | 0% | 0hPa | 4.7V | 00:00:00 | 00:00:00 | 00:00:00 | |
| SP3BTT-10 | 2026-09-02 09:55:02 | 49.41788 | 12.82130 | 123° | 33km/h | 19875m | 4.8m/s | 0°C | 0% | 0hPa | 4.7V | 00:00:00 | 00:00:00 | 00:00:00 | |
| PETON7-10 | 2026-09-02 09:55:01 | 49.41788 | 12.82121 | 130° | 29km/h | 19870m | 4.5m/s | 0°C | 0% | 0hPa | 4.7V | 00:00:00 | 00:00:00 | 00:00:00 | |
| DB0NH | 2026-09-02 09:54:59 | 49.41799 | 12.82106 | 116° | 31km/h | 19857m | 5.1m/s | 0°C | 0% | 0hPa | 4.7V | 00:00:00 | 00:00:00 | 00:00:00 | |
| DF2AP-13 | 2026-09-02 09:54:57 | 49.41803 | 12.82088 | 108° | 31km/h | 19848m | 4.3m/s | 0°C | 0% | 0hPa | 4.7V | 00:00:00 | 00:00:00 | 00:00:00 | |
| DK7TD | 2026-09-02 09:54:55 | 49.41809 | 12.82068 | 117° | 31km/h | 19844m | 3.9m/s | 0°C | 0% | 0hPa | 4.7V | 00:00:00 | 00:00:00 | 00:00:00 | |
| DM0DOS-11 | 2026-09-02 09:54:55 | 49.41822 | 12.82012 | 111° | 24km/h | 19820m | 3.5m/s | 0°C | 0% | 0hPa | 0V | 00:00:00 | 00:00:00 | 00:00:00 | |
| OE5MMP-10 | 2026-09-02 09:54:55 | 49.41809 | 12.82068 | 118° | 31km/h | 19839m | 3.8m/s | 0°C | 0% | 0hPa | 4.7V | 00:00:00 | 00:00:00 | 00:00:00 | |
| BIOWL1-15 | 2026-09-02 09:54:54 | 49.41812 | 12.82056 | 114° | 35km/h | 19839m | 5.5m/s | -51.4°C | 0% | 0hPa | 4.7V | 00:00:00 | 00:00:00 | 00:00:00 | |
| DO3MHA-11 | 2026-09-02 09:54:53 | 49.41816 | 12.82043 | 111° | 33km/h | 19830m | 3.9m/s | 0°C | 0% | 0hPa | 4.7V | 00:00:00 | 00:00:00 | 00:00:00 | |
| PETON7-10 | 2026-09-02 09:54:46 | 49.41834 | 12.81966 | 110° | 33km/h | 19798m | 4.1m/s | 0°C | 0% | 0hPa | 4.7V | 00:00:00 | 00:00:00 | 00:00:00 | |
| DF8AY | 2026-09-02 09:54:44 | 49.41841 | 12.81921 | 99° | 40km/h | 19789m | 4.2m/s | -51.8°C | 0% | 0hPa | 4.7V | 00:00:00 | 00:00:00 | 00:00:00 | |
| OE5WHR-10 | 2026-09-02 09:54:42 | 49.41843 | 12.81906 | 100° | 29km/h | 19779m | 5.4m/s | 0°C | 0% | 0hPa | 0V | 00:00:00 | 00:00:00 | 00:00:00 | |
| DM0DOS-11 | 2026-09-02 09:54:40 | 49.41846 | 12.81882 | 101° | 31km/h | 19770m | 5.3m/s | 0°C | 0% | 0hPa | 0V | 00:00:00 | 00:00:00 | 00:00:00 | |
| OE5DXL-15 | 2026-09-02 09:54:39 | 49.41848 | 12.81869 | 104° | 26km/h | 19770m | 3.9m/s | 0°C | 0% | 0hPa | 4.7V | 00:00:00 | 00:00:00 | 00:00:00 | |
| OE3JTB-15 | 2026-09-02 09:54:38 | 49.41850 | 12.81858 | 106° | 27km/h | 19760m | 4.9m/s | 0°C | 0% | 0hPa | 4.7V | 00:00:00 | 00:00:00 | 00:00:00 | |
| DK7TD | 2026-09-02 09:54:36 | 49.41855 | 12.81826 | 97° | 33km/h | 19750m | 4.4m/s | -51.6°C | 0% | 0hPa | 4.7V | 00:00:00 | 00:00:00 | 00:00:00 | |
| DF8AY | 2026-09-02 09:54:34 | 49.41856 | 12.81801 | 96° | 31km/h | 19741m | 4.7m/s | -51.6°C | 0% | 0hPa | 4.7V | 00:00:00 | 00:00:00 | 00:00:00 | |
| OE5MMP-10 | 2026-09-02 09:54:33 | 49.41855 | 12.81801 | 96° | 29km/h | 19741m | 4.7m/s | 0°C | 0% | 0hPa | 0V | 00:00:00 | 00:00:00 | 00:00:00 | |
| DO3MHA-11 | 2026-09-02 09:54:32 | 49.41856 | 12.81790 | 96° | 29km/h | 19737m | 4.1m/s | 0°C | 0% | 0hPa | 0V | 00:00:00 | 00:00:00 | 00:00:00 | |
| PETON7-10 | 2026-09-02 09:54:31 | 49.41858 | 12.81777 | 100° | 29km/h | 19728m | 5.4m/s | 0°C | 0% | 0hPa | 0V | 00:00:00 | 00:00:00 | 00:00:00 | |
| DM0DOS-11 | 2026-09-02 09:54:30 | 49.41862 | 12.81752 | 109° | 31km/h | 19718m | 5.1m/s | 0°C | 0% | 0hPa | 0V | 00:00:00 | 00:00:00 | 00:00:00 | |
| DB0NH | 2026-09-02 09:54:29 | 49.41862 | 12.81752 | 110° | 26km/h | 19718m | 5.0m/s | 0°C | 0% | 0hPa | 4.7V | 00:00:00 | 00:00:00 | 00:00:00 | |
| DO8TBO-1 | 2026-09-02 09:54:27 | 49.41867 | 12.81734 | 108° | 35km/h | 19709m | 4.0m/s | 0°C | 0% | 0hPa | 4.7V | 00:00:00 | 00:00:00 | 00:00:00 | |
| SP3BTT-10 | 2026-09-02 09:54:25 | 49.41869 | 12.81715 | 91° | 27km/h | 19700m | 3.7m/s | 0°C | 0% | 0hPa | 4.7V | 00:00:00 | 00:00:00 | 00:00:00 | |
| BIOWL1-15 | 2026-09-02 09:54:23 | 49.41869 | 12.81694 | 89° | 26km/h | 19694m | 4.3m/s | -51.6°C | 0% | 0hPa | 4.7V | 00:00:00 | 00:00:00 | 00:00:00 | |
| DM0DOS-11 | 2026-09-02 09:54:23 | 49.41876 | 12.81642 | 130° | 24km/h | 19667m | 4.3m/s | 0°C | 0% | 0hPa | 0V | 00:00:00 | 00:00:00 | 00:00:00 | |
| DF8AY | 2026-09-02 09:54:23 | 49.41869 | 12.81683 | 90° | 29km/h | 19690m | 4.6m/s | -51.6°C | 0% | 0hPa | 4.7V | 00:00:00 | 00:00:00 | 00:00:00 | |
| DO3MHA-11 | 2026-09-02 09:54:23 | 49.41869 | 12.81694 | 90° | 26km/h | 19690m | 4.3m/s | 0°C | 0% | 0hPa | 4.7V | 00:00:00 | 00:00:00 | 00:00:00 | |
| OE5WHR-10 | 2026-09-02 09:54:21 | 49.41869 | 12.81670 | 94° | 24km/h | 19682m | 4.1m/s | 0°C | 0% | 0hPa | 4.7V | 00:00:00 | 00:00:00 | 00:00:00 | |
| PETON7-10 | 2026-09-02 09:54:16 | 49.41882 | 12.81627 | 101° | 22km/h | 19658m | 3.9m/s | 0°C | 0% | 0hPa | 4.7V | 00:00:00 | 00:00:00 | 00:00:00 | |
| DB0UT-7 | 2026-09-02 09:54:14 | 49.41883 | 12.81611 | 91° | 38km/h | 19649m | 5.1m/s | 0°C | 0% | 0hPa | 4.7V | 00:00:00 | 00:00:00 | 00:00:00 | |
| DF8AY | 2026-09-02 09:54:12 | 49.41884 | 12.81592 | 100° | 22km/h | 19640m | 4.1m/s | -51.7°C | 0% | 0hPa | 4.7V | 00:00:00 | 00:00:00 | 00:00:00 | |
| DM0DOS-11 | 2026-09-02 09:54:10 | 49.41891 | 12.81557 | 113° | 27km/h | 19620m | 4.1m/s | 0°C | 0% | 0hPa | 0V | 00:00:00 | 00:00:00 | 00:00:00 | |
| DK7TD | 2026-09-02 09:54:10 | 49.41887 | 12.81575 | 122° | 26km/h | 19630m | 4.4m/s | -51.7°C | 0% | 0hPa | 4.7V | 00:00:00 | 00:00:00 | 00:00:00 | |
| OE5DXL-15 | 2026-09-02 09:54:09 | 49.41887 | 12.81575 | 123° | 27km/h | 19630m | 4.4m/s | 0°C | 0% | 0hPa | 4.7V | 00:00:00 | 00:00:00 | 00:00:00 | |
| OE5DRO-10 | 2026-09-02 09:54:08 | 49.41891 | 12.81566 | 121° | 27km/h | 19620m | 5.7m/s | 0°C | 0% | 0hPa | 4.7V | 00:00:00 | 00:00:00 | 00:00:00 | |
| DF8AY | 2026-09-02 09:54:01 | 49.41911 | 12.81499 | 122° | 29km/h | 19587m | 4.2m/s | -51.9°C | 0% | 0hPa | 4.7V | 00:00:00 | 00:00:00 | 00:00:00 | |
| DO3MHA-11 | 2026-09-02 09:54:01 | 49.41908 | 12.81508 | 116° | 26km/h | 19587m | 5.7m/s | 0°C | 0% | 0hPa | 4.7V | 00:00:00 | 00:00:00 | 00:00:00 | |
| DK7TD | 2026-09-02 09:53:59 | 49.41918 | 12.81478 | 106° | 31km/h | 19577m | 4.4m/s | -52.1°C | 0% | 0hPa | 4.7V | 00:00:00 | 00:00:00 | 00:00:00 | |
| OE5WHR-10 | 2026-09-02 09:53:59 | 49.41915 | 12.81489 | 118° | 29km/h | 19578m | 5.2m/s | 0°C | 0% | 0hPa | 0V | 00:00:00 | 00:00:00 | 00:00:00 | |
| DF2AP-13 | 2026-09-02 09:53:57 | 49.41919 | 12.81467 | 103° | 31km/h | 19568m | 4.4m/s | 0°C | 0% | 0hPa | 0V | 00:00:00 | 00:00:00 | 00:00:00 | |
| SP3BTT-10 | 2026-09-02 09:53:55 | 49.41922 | 12.81451 | 104° | 33km/h | 19558m | 4.3m/s | 0°C | 0% | 0hPa | 0V | 00:00:00 | 00:00:00 | 00:00:00 | |
| OE3JTB-15 | 2026-09-02 09:53:51 | 49.41928 | 12.81414 | 119° | 33km/h | 19545m | 4.7m/s | 0°C | 0% | 0hPa | 0V | 00:00:00 | 00:00:00 | 00:00:00 | |
| DM0DOS-11 | 2026-09-02 09:53:50 | 49.41941 | 12.81354 | 107° | 27km/h | 19517m | 5m/s | 0°C | 0% | 0hPa | 0V | 00:00:00 | 00:00:00 | 00:00:00 | |
| OE5MMP-10 | 2026-09-02 09:53:50 | 49.41930 | 12.81403 | 119° | 33km/h | 19536m | 3.3m/s | 0°C | 0% | 0hPa | 4.7V | 00:00:00 | 00:00:00 | 00:00:00 | |
| DF8AY | 2026-09-02 09:53:50 | 49.41934 | 12.81391 | 113° | 35km/h | 19536m | 5.4m/s | -52.4°C | 0% | 0hPa | 4.7V | 00:00:00 | 00:00:00 | 00:00:00 | |
| DK7TD | 2026-09-02 09:53:48 | 49.41937 | 12.81378 | 104° | 37km/h | 19531m | 4.4m/s | -52.4°C | 0% | 0hPa | 4.7V | 00:00:00 | 00:00:00 | 00:00:00 | |
| BIOWL1-15 | 2026-09-02 09:53:48 | 49.41944 | 12.81334 | 99° | 29km/h | 19512m | 4.7m/s | -52.4°C | 0% | 0hPa | 4.7V | 00:00:00 | 00:00:00 | 00:00:00 | |
| OE5DRO-10 | 2026-09-02 09:53:48 | 49.41937 | 12.81378 | 105° | 33km/h | 19527m | 4.4m/s | 0°C | 0% | 0hPa | 0V | 00:00:00 | 00:00:00 | 00:00:00 | |
| PETON7-10 | 2026-09-02 09:53:46 | 49.41940 | 12.81354 | 108° | 33km/h | 19518m | 4.9m/s | 0°C | 0% | 0hPa | 0V | 00:00:00 | 00:00:00 | 00:00:00 | |
| DM0DOS-11 | 2026-09-02 09:53:40 | 49.41961 | 12.81221 | 108° | 29km/h | 19471m | 4.2m/s | 0°C | 0% | 0hPa | 0V | 00:00:00 | 00:00:00 | 00:00:00 | |
| DF8AY | 2026-09-02 09:53:40 | 49.41953 | 12.81269 | 98° | 38km/h | 19490m | 4.3m/s | -52.5°C | 0% | 0hPa | 4.7V | 00:00:00 | 00:00:00 | 00:00:00 | |
| DO3MHA-11 | 2026-09-02 09:53:39 | 49.41951 | 12.81269 | 98° | 33km/h | 19490m | 4.2m/s | 0°C | 0% | 0hPa | 4.7V | 00:00:00 | 00:00:00 | 00:00:00 | |
| DK7TD | 2026-09-02 09:53:38 | 49.41958 | 12.81243 | 112° | 31km/h | 19480m | 4.1m/s | -52.5°C | 0% | 0hPa | 4.7V | 00:00:00 | 00:00:00 | 00:00:00 | |
| OE5WHR-10 | 2026-09-02 09:53:37 | 49.41955 | 12.81243 | 113° | 37km/h | 19480m | 4.0m/s | 0°C | 0% | 0hPa | 4.7V | 00:00:00 | 00:00:00 | 00:00:00 | |
| BIOWL1-15 | 2026-09-02 09:53:33 | 49.41966 | 12.81184 | 103° | 35km/h | 19459m | 3.5m/s | -52.5°C | 0% | 0hPa | 4.7V | 00:00:00 | 00:00:00 | 00:00:00 | |
| PETON7-10 | 2026-09-02 09:53:31 | 49.41968 | 12.81170 | 100° | 38km/h | 19450m | 5.2m/s | 0°C | 0% | 0hPa | 4.7V | 00:00:00 | 00:00:00 | 00:00:00 | |
| DF8AY | 2026-09-02 09:53:29 | 49.41972 | 12.81119 | 99° | 42km/h | 19440m | 4.3m/s | -52.4°C | 0% | 0hPa | 4.7V | 00:00:00 | 00:00:00 | 00:00:00 | |
| OE5MMP-10 | 2026-09-02 09:53:29 | 49.41971 | 12.81136 | 97° | 40km/h | 19440m | 5.0m/s | 0°C | 0% | 0hPa | 4.7V | 00:00:00 | 00:00:00 | 00:00:00 | |
| DB0NH | 2026-09-02 09:53:28 | 49.41971 | 12.81119 | 100° | 42km/h | 19440m | 4.3m/s | 0°C | 0% | 0hPa | 4.7V | 00:00:00 | 00:00:00 | 00:00:00 | |
| DK7TD | 2026-09-02 09:53:27 | 49.41974 | 12.81104 | 96° | 38km/h | 19435m | 5.1m/s | -52.4°C | 0% | 0hPa | 4.7V | 00:00:00 | 00:00:00 | 00:00:00 | |
| DF2AP-13 | 2026-09-02 09:53:27 | 49.41973 | 12.81104 | 97° | 42km/h | 19430m | 5.0m/s | 0°C | 0% | 0hPa | 4.7V | 00:00:00 | 00:00:00 | 00:00:00 | |
| SP3BTT-10 | 2026-09-02 09:53:25 | 49.41974 | 12.81076 | 90° | 42km/h | 19421m | 4.8m/s | 0°C | 0% | 0hPa | 4.7V | 00:00:00 | 00:00:00 | 00:00:00 | |
| BIOWL1-15 | 2026-09-02 09:53:22 | 49.41976 | 12.81020 | 90° | 47km/h | 19407m | 5m/s | -52.5°C | 0% | 0hPa | 4.7V | 00:00:00 | 00:00:00 | 00:00:00 | |
| DF8AY | 2026-09-02 09:53:19 | 49.41974 | 12.80951 | 82° | 40km/h | 19388m | 4.3m/s | -52.7°C | 0% | 0hPa | 4.7V | 00:00:00 | 00:00:00 | 00:00:00 | |
| DO3MHA-11 | 2026-09-02 09:53:18 | 49.41975 | 12.80967 | 86° | 44km/h | 19389m | 5.5m/s | 0°C | 0% | 0hPa | 4.7V | 00:00:00 | 00:00:00 | 00:00:00 | |
| DK7TD | 2026-09-02 09:53:16 | 49.41973 | 12.80923 | 92° | 33km/h | 19379m | 4m/s | -52.8°C | 0% | 0hPa | 4.7V | 00:00:00 | 00:00:00 | 00:00:00 | |
| OE5WHR-10 | 2026-09-02 09:53:16 | 49.41973 | 12.80936 | 85° | 44km/h | 19379m | 5.6m/s | 0°C | 0% | 0hPa | 4.7V | 00:00:00 | 00:00:00 | 00:00:00 | |
| BIOWL1-15 | 2026-09-02 09:53:11 | 49.41971 | 12.80858 | 85° | 49km/h | 19362m | 5m/s | -52.8°C | 0% | 0hPa | 4.7V | 00:00:00 | 00:00:00 | 00:00:00 | |
| OE5DRO-10 | 2026-09-02 09:53:10 | 49.41969 | 12.80839 | 84° | 44km/h | 19352m | 5.5m/s | 0°C | 0% | 0hPa | 4.7V | 00:00:00 | 00:00:00 | 00:00:00 | |
| DO3MHA-11 | 2026-09-02 09:53:09 | 49.41968 | 12.80800 | 81° | 46km/h | 19348m | 4.1m/s | 0°C | 0% | 0hPa | 4.7V | 00:00:00 | 00:00:00 | 00:00:00 | |
| OE5DXL-15 | 2026-09-02 09:53:08 | 49.41968 | 12.80819 | 81° | 42km/h | 19348m | 4.1m/s | 0°C | 0% | 0hPa | 4.7V | 00:00:00 | 00:00:00 | 00:00:00 | |
| DF8AY | 2026-09-02 09:53:07 | 49.41962 | 12.80765 | 87° | 40km/h | 19338m | 4.4m/s | -52.8°C | 0% | 0hPa | 4.7V | 00:00:00 | 00:00:00 | 00:00:00 | |
| OE5MMP-10 | 2026-09-02 09:53:07 | 49.41963 | 12.80782 | 81° | 44km/h | 19339m | 5.2m/s | 0°C | 0% | 0hPa | 4.7V | 00:00:00 | 00:00:00 | 00:00:00 | |
| DK7TD | 2026-09-02 09:53:05 | 49.41961 | 12.80734 | 84° | 42km/h | 19330m | 4.9m/s | -52.8°C | 0% | 0hPa | 4.7V | 00:00:00 | 00:00:00 | 00:00:00 | |
| BIOWL1-15 | 2026-09-02 09:53:01 | 49.41954 | 12.80663 | 79° | 46km/h | 19312m | 5.4m/s | -52.6°C | 0% | 0hPa | 4.7V | 00:00:00 | 00:00:00 | 00:00:00 | |
| DB0UT-7 | 2026-09-02 09:52:59 | 49.41951 | 12.80645 | 78° | 38km/h | 19302m | 4.3m/s | 0°C | 0% | 0hPa | 4.7V | 00:00:00 | 00:00:00 | 00:00:00 | |
| DF8AY | 2026-09-02 09:52:58 | 49.41945 | 12.80597 | 81° | 38km/h | 19293m | 5m/s | -52.6°C | 0% | 0hPa | 4.7V | 00:00:00 | 00:00:00 | 00:00:00 | |
| DF2AP-13 | 2026-09-02 09:52:56 | 49.41947 | 12.80597 | 81° | 37km/h | 19293m | 4.9m/s | 0°C | 0% | 0hPa | 0V | 00:00:00 | 00:00:00 | 00:00:00 | |
| DM0DOS-11 | 2026-09-02 09:52:55 | 49.41941 | 12.80549 | 79° | 44km/h | 19280m | 5.2m/s | 0°C | 0% | 0hPa | 0V | 00:00:00 | 00:00:00 | 00:00:00 | |
| OE5WHR-10 | 2026-09-02 09:52:54 | 49.41943 | 12.80565 | 80° | 38km/h | 19284m | 3.6m/s | 0°C | 0% | 0hPa | 4.7V | 00:00:00 | 00:00:00 | 00:00:00 | |
| OE3JTB-15 | 2026-09-02 09:52:53 | 49.41939 | 12.80549 | 83° | 33km/h | 19280m | 5.2m/s | 0°C | 0% | 0hPa | 4.7V | 00:00:00 | 00:00:00 | 00:00:00 | |
| DK7TD | 2026-09-02 09:52:52 | 49.41937 | 12.80518 | 79° | 40km/h | 19271m | 5.3m/s | -52.5°C | 0% | 0hPa | 4.7V | 00:00:00 | 00:00:00 | 00:00:00 | |
| BIOWL1-15 | 2026-09-02 09:52:50 | 49.41930 | 12.80486 | 68° | 42km/h | 19261m | 3.9m/s | -52.6°C | 0% | 0hPa | 4.7V | 00:00:00 | 00:00:00 | 00:00:00 | |
| DM0DOS-11 | 2026-09-02 09:52:48 | 49.41920 | 12.80418 | 86° | 37km/h | 19233m | 5.4m/s | 0°C | 0% | 0hPa | 0V | 00:00:00 | 00:00:00 | 00:00:00 | |
| DO3MHA-11 | 2026-09-02 09:52:48 | 49.41927 | 12.80472 | 71° | 38km/h | 19252m | 5.3m/s | 0°C | 0% | 0hPa | 4.7V | 00:00:00 | 00:00:00 | 00:00:00 | |
| DF8AY | 2026-09-02 09:52:46 | 49.41921 | 12.80432 | 82° | 37km/h | 19243m | 4.1m/s | -52.6°C | 0% | 0hPa | 4.7V | 00:00:00 | 00:00:00 | 00:00:00 | |
| PETON7-10 | 2026-09-02 09:52:46 | 49.41922 | 12.80446 | 79° | 37km/h | 19243m | 5.2m/s | 0°C | 0% | 0hPa | 4.7V | 00:00:00 | 00:00:00 | 00:00:00 | |
| NBG1-10 | 2026-09-02 09:52:42 | 49.41921 | 12.80389 | 81° | 29km/h | 19229m | 5.4m/s | 0°C | 0% | 0hPa | 4.7V | 00:00:00 | 00:00:00 | 00:00:00 | |
| BIOWL1-15 | 2026-09-02 09:52:39 | 49.41906 | 12.80335 | 75° | 27km/h | 19210m | 3.5m/s | -52.5°C | 0% | 0hPa | 4.7V | 00:00:00 | 00:00:00 | 00:00:00 | |
| DO3MHA-11 | 2026-09-02 09:52:37 | 49.41905 | 12.80325 | 82° | 29km/h | 19201m | 5.3m/s | 0°C | 0% | 0hPa | 0V | 00:00:00 | 00:00:00 | 00:00:00 | |
| DM0DOS-11 | 2026-09-02 09:52:35 | 49.41905 | 12.80276 | 90° | 31km/h | 19183m | 3.8m/s | 0°C | 0% | 0hPa | 0V | 00:00:00 | 00:00:00 | 00:00:00 | |
| OE5MMP-10 | 2026-09-02 09:52:35 | 49.41904 | 12.80300 | 93° | 29km/h | 19193m | 4.3m/s | 0°C | 0% | 0hPa | 4.7V | 00:00:00 | 00:00:00 | 00:00:00 | |
| DK7TD | 2026-09-02 09:52:33 | 49.41905 | 12.80276 | 91° | 31km/h | 19188m | 3.8m/s | -52.5°C | 0% | 0hPa | 4.7V | 00:00:00 | 00:00:00 | 00:00:00 | |
| OE5WHR-10 | 2026-09-02 09:52:33 | 49.41905 | 12.80276 | 91° | 27km/h | 19184m | 3.8m/s | 0°C | 0% | 0hPa | 4.7V | 00:00:00 | 00:00:00 | 00:00:00 | |
| OE5DRO-10 | 2026-09-02 09:52:31 | 49.41903 | 12.80249 | 77° | 27km/h | 19174m | 3.9m/s | 0°C | 0% | 0hPa | 4.7V | 00:00:00 | 00:00:00 | 00:00:00 | |
| PETON7-10 | 2026-09-02 09:52:30 | 49.41903 | 12.80236 | 71° | 26km/h | 19174m | 5.0m/s | 0°C | 0% | 0hPa | 4.7V | 00:00:00 | 00:00:00 | 00:00:00 | |
| BIOWL1-15 | 2026-09-02 09:52:29 | 49.41896 | 12.80218 | 75° | 22km/h | 19164m | 4.2m/s | -52.5°C | 0% | 0hPa | 4.7V | 00:00:00 | 00:00:00 | 00:00:00 | |
| DB0NH | 2026-09-02 09:52:29 | 49.41898 | 12.80217 | 67° | 26km/h | 19164m | 4.2m/s | 0°C | 0% | 0hPa | 4.7V | 00:00:00 | 00:00:00 | 00:00:00 | |
| DO3MHA-11 | 2026-09-02 09:52:26 | 49.41894 | 12.80198 | 88° | 26km/h | 19151m | 4.2m/s | 0°C | 0% | 0hPa | 4.7V | 00:00:00 | 00:00:00 | 00:00:00 | |
| OE3JTB-15 | 2026-09-02 09:52:25 | 49.41893 | 12.80176 | 89° | 24km/h | 19142m | 5.6m/s | 0°C | 0% | 0hPa | 4.7V | 00:00:00 | 00:00:00 | 00:00:00 | |
| DF8AY | 2026-09-02 09:52:24 | 49.41892 | 12.80165 | 82° | 31km/h | 19142m | 5.6m/s | -52.3°C | 0% | 0hPa | 4.7V | 00:00:00 | 00:00:00 | 00:00:00 | |
| OE5MMP-10 | 2026-09-02 09:52:24 | 49.41893 | 12.80176 | 85° | 26km/h | 19142m | 3.5m/s | 0°C | 0% | 0hPa | 4.7V | 00:00:00 | 00:00:00 | 00:00:00 | |
| DK7TD | 2026-09-02 09:52:19 | 49.41881 | 12.80120 | 76° | 24km/h | 19119m | 4.6m/s | -52.2°C | 0% | 0hPa | 4.7V | 00:00:00 | 00:00:00 | 00:00:00 | |
| BIOWL1-15 | 2026-09-02 09:52:17 | 49.41880 | 12.80111 | 86° | 27km/h | 19114m | 4.3m/s | -52.3°C | 0% | 0hPa | 4.7V | 00:00:00 | 00:00:00 | 00:00:00 | |
| DM0DOS-11 | 2026-09-02 09:52:16 | 49.41878 | 12.80053 | 73° | 24km/h | 19081m | 5.2m/s | 0°C | 0% | 0hPa | 0V | 00:00:00 | 00:00:00 | 00:00:00 | |
| PETON7-10 | 2026-09-02 09:52:15 | 49.41880 | 12.80090 | 90° | 26km/h | 19105m | 4.2m/s | 0°C | 0% | 0hPa | 4.7V | 00:00:00 | 00:00:00 | 00:00:00 | |
| DF8AY | 2026-09-02 09:52:14 | 49.41879 | 12.80069 | 81° | 27km/h | 19096m | 3.5m/s | -52.3°C | 0% | 0hPa | 4.7V | 00:00:00 | 00:00:00 | 00:00:00 | |
| OE5MMP-10 | 2026-09-02 09:52:13 | 49.41880 | 12.80069 | 82° | 24km/h | 19096m | 3.4m/s | 0°C | 0% | 0hPa | 4.7V | 00:00:00 | 00:00:00 | 00:00:00 | |
| OE5WHR-10 | 2026-09-02 09:52:11 | 49.41876 | 12.80052 | 63° | 24km/h | 19081m | 4.2m/s | 0°C | 0% | 0hPa | 4.7V | 00:00:00 | 00:00:00 | 00:00:00 | |
| OE5DXL-15 | 2026-09-02 09:52:09 | 49.41872 | 12.80039 | 78° | 27km/h | 19073m | 4.0m/s | 0°C | 0% | 0hPa | 4.7V | 00:00:00 | 00:00:00 | 00:00:00 | |
| BIOWL1-15 | 2026-09-02 09:52:07 | 49.41870 | 12.80014 | 91° | 24km/h | 19064m | 3.8m/s | -52°C | 0% | 0hPa | 4.7V | 00:00:00 | 00:00:00 | 00:00:00 | |
| DK7TD | 2026-09-02 09:52:05 | 49.41870 | 12.79993 | 91° | 29km/h | 19055m | 4.3m/s | -52.1°C | 0% | 0hPa | 4.7V | 00:00:00 | 00:00:00 | 00:00:00 | |
| DF8AY | 2026-09-02 09:52:03 | 49.41869 | 12.79974 | 80° | 22km/h | 19046m | 4m/s | -52°C | 0% | 0hPa | 4.7V | 00:00:00 | 00:00:00 | 00:00:00 | |
| PETON7-10 | 2026-09-02 09:52:00 | 49.41868 | 12.79955 | 88° | 27km/h | 19037m | 3.9m/s | 0°C | 0% | 0hPa | 4.7V | 00:00:00 | 00:00:00 | 00:00:00 | |
| DB0UT-7 | 2026-09-02 09:51:59 | 49.41868 | 12.79945 | 88° | 31km/h | 19033m | 3.8m/s | 0°C | 0% | 0hPa | 4.7V | 00:00:00 | 00:00:00 | 00:00:00 | |
| DB0NH | 2026-09-02 09:51:58 | 49.41868 | 12.79936 | 82° | 29km/h | 19028m | 4.6m/s | 0°C | 0% | 0hPa | 4.7V | 00:00:00 | 00:00:00 | 00:00:00 | |
| BIOWL1-15 | 2026-09-02 09:51:58 | 49.41865 | 12.79908 | 94° | 31km/h | 19014m | 4.6m/s | -51.9°C | 0% | 0hPa | 4.7V | 00:00:00 | 00:00:00 | 00:00:00 | |
| DF2AP-13 | 2026-09-02 09:51:56 | 49.41865 | 12.79919 | 88° | 31km/h | 19015m | 5.6m/s | 0°C | 0% | 0hPa | 4.7V | 00:00:00 | 00:00:00 | 00:00:00 | |
| DK7TD | 2026-09-02 09:51:55 | 49.41866 | 12.79896 | 92° | 31km/h | 19010m | 4.7m/s | -51.9°C | 0% | 0hPa | 4.7V | 00:00:00 | 00:00:00 | 00:00:00 | |
| SP3BTT-10 | 2026-09-02 09:51:54 | 49.41866 | 12.79896 | 93° | 31km/h | 19005m | 4.6m/s | 0°C | 0% | 0hPa | 4.7V | 00:00:00 | 00:00:00 | 00:00:00 | |
| DF8AY | 2026-09-02 09:51:52 | 49.41864 | 12.79862 | 90° | 29km/h | 18996m | 5.1m/s | -51.9°C | 0% | 0hPa | 4.7V | 00:00:00 | 00:00:00 | 00:00:00 | |
| OE5MMP-10 | 2026-09-02 09:51:52 | 49.41865 | 12.79873 | 85° | 29km/h | 18996m | 3.7m/s | 0°C | 0% | 0hPa | 0V | 00:00:00 | 00:00:00 | 00:00:00 | |
| OE5DRO-10 | 2026-09-02 09:51:51 | 49.41864 | 12.79861 | 90° | 29km/h | 18992m | 3.0m/s | 0°C | 0% | 0hPa | 0V | 00:00:00 | 00:00:00 | 00:00:00 | |
| DM0DOS-11 | 2026-09-02 09:51:50 | 49.41868 | 12.79797 | 98° | 35km/h | 18969m | 5.2m/s | 0°C | 0% | 0hPa | 0V | 00:00:00 | 00:00:00 | 00:00:00 | |
| OE5WHR-10 | 2026-09-02 09:51:50 | 49.41864 | 12.79851 | 94° | 31km/h | 18988m | 3.0m/s | 0°C | 0% | 0hPa | 4.7V | 00:00:00 | 00:00:00 | 00:00:00 | |
| BIOWL1-15 | 2026-09-02 09:51:46 | 49.41869 | 12.79797 | 98° | 35km/h | 18969m | 5.2m/s | -51.7°C | 0% | 0hPa | 4.7V | 00:00:00 | 00:00:00 | 00:00:00 | |
| PETON7-10 | 2026-09-02 09:51:45 | 49.41868 | 12.79797 | 99° | 31km/h | 18970m | 5.2m/s | 0°C | 0% | 0hPa | 0V | 00:00:00 | 00:00:00 | 00:00:00 | |
| DO3MHA-11 | 2026-09-02 09:51:43 | 49.41869 | 12.79773 | 91° | 31km/h | 18956m | 3.9m/s | 0°C | 0% | 0hPa | 0V | 00:00:00 | 00:00:00 | 00:00:00 | |
| OE5MMP-10 | 2026-09-02 09:51:41 | 49.41872 | 12.79752 | 110° | 31km/h | 18948m | 3.9m/s | 0°C | 0% | 0hPa | 0V | 00:00:00 | 00:00:00 | 00:00:00 | |
| DF8AY | 2026-09-02 09:51:41 | 49.41874 | 12.79740 | 107° | 31km/h | 18948m | 3.4m/s | -51.7°C | 0% | 0hPa | 4.7V | 00:00:00 | 00:00:00 | 00:00:00 | |
| OE5DXL-15 | 2026-09-02 09:51:39 | 49.41876 | 12.79729 | 97° | 33km/h | 18939m | 4.7m/s | 0°C | 0% | 0hPa | 0V | 00:00:00 | 00:00:00 | 00:00:00 | |
| DM0DOS-11 | 2026-09-02 09:51:37 | 49.41879 | 12.79678 | 100° | 29km/h | 18921m | 5.4m/s | 0°C | 0% | 0hPa | 0V | 00:00:00 | 00:00:00 | 00:00:00 | |
| NBG1-10 | 2026-09-02 09:51:35 | 49.41879 | 12.79678 | 101° | 31km/h | 18921m | 5.3m/s | 0°C | 0% | 0hPa | 4.7V | 00:00:00 | 00:00:00 | 00:00:00 | |
| BIOWL1-15 | 2026-09-02 09:51:34 | 49.41880 | 12.79668 | 95° | 27km/h | 18921m | 4.2m/s | -51.8°C | 0% | 0hPa | 4.7V | 00:00:00 | 00:00:00 | 00:00:00 | |
| DK7TD | 2026-09-02 09:51:33 | 49.41882 | 12.79645 | 104° | 33km/h | 18913m | 5m/s | -51.8°C | 0% | 0hPa | 4.7V | 00:00:00 | 00:00:00 | 00:00:00 | |
| OE5DRO-10 | 2026-09-02 09:51:32 | 49.41882 | 12.79647 | 104° | 33km/h | 18909m | 3.3m/s | 0°C | 0% | 0hPa | 4.7V | 00:00:00 | 00:00:00 | 00:00:00 | |
| DF8AY | 2026-09-02 09:51:30 | 49.41886 | 12.79603 | 88° | 38km/h | 18900m | 3.7m/s | -51.9°C | 0% | 0hPa | 4.7V | 00:00:00 | 00:00:00 | 00:00:00 | |
| PETON7-10 | 2026-09-02 09:51:30 | 49.41886 | 12.79618 | 95° | 33km/h | 18901m | 5.1m/s | 0°C | 0% | 0hPa | 0V | 00:00:00 | 00:00:00 | 00:00:00 | |
| OE5WHR-10 | 2026-09-02 09:51:28 | 49.41886 | 12.79589 | 89° | 33km/h | 18892m | 4.9m/s | 0°C | 0% | 0hPa | 0V | 00:00:00 | 00:00:00 | 00:00:00 | |
| DB0UT-7 | 2026-09-02 09:51:26 | 49.41886 | 12.79562 | 89° | 31km/h | 18883m | 4.9m/s | 0°C | 0% | 0hPa | 0V | 00:00:00 | 00:00:00 | 00:00:00 | |
| DM0DOS-11 | 2026-09-02 09:51:25 | 49.41885 | 12.79539 | 92° | 29km/h | 18874m | 5.3m/s | 0°C | 0% | 0hPa | 0V | 00:00:00 | 00:00:00 | 00:00:00 | |
| SP3BTT-10 | 2026-09-02 09:51:24 | 49.41885 | 12.79539 | 93° | 35km/h | 18874m | 5.2m/s | 0°C | 0% | 0hPa | 4.7V | 00:00:00 | 00:00:00 | 00:00:00 | |
| DO3MHA-11 | 2026-09-02 09:51:22 | 49.41887 | 12.79514 | 97° | 31km/h | 18866m | 3.8m/s | 0°C | 0% | 0hPa | 4.7V | 00:00:00 | 00:00:00 | 00:00:00 | |
| DK7TD | 2026-09-02 09:51:20 | 49.41885 | 12.79475 | 80° | 35km/h | 18857m | 4.7m/s | -51.9°C | 0% | 0hPa | 4.7V | 00:00:00 | 00:00:00 | 00:00:00 | |
| OE5MMP-10 | 2026-09-02 09:51:20 | 49.41886 | 12.79488 | 79° | 31km/h | 18858m | 3.6m/s | 0°C | 0% | 0hPa | 0V | 00:00:00 | 00:00:00 | 00:00:00 | |
| PETON7-10 | 2026-09-02 09:51:15 | 49.41880 | 12.79428 | 91° | 29km/h | 18836m | 5.3m/s | 0°C | 0% | 0hPa | 0V | 00:00:00 | 00:00:00 | 00:00:00 | |
| DM0DOS-11 | 2026-09-02 09:51:13 | 49.41883 | 12.79409 | 107° | 26km/h | 18826m | 4.8m/s | 0°C | 0% | 0hPa | 0V | 00:00:00 | 00:00:00 | 00:00:00 | |
| BIOWL1-15 | 2026-09-02 09:51:13 | 49.41885 | 12.79373 | 93° | 37km/h | 18818m | 5.2m/s | -51.9°C | 0% | 0hPa | 4.7V | 00:00:00 | 00:00:00 | 00:00:00 | |
| DO3MHA-11 | 2026-09-02 09:51:11 | 49.41885 | 12.79386 | 91° | 29km/h | 18819m | 3.1m/s | 0°C | 0% | 0hPa | 4.7V | 00:00:00 | 00:00:00 | 00:00:00 | |
| DF8AY | 2026-09-02 09:51:09 | 49.41887 | 12.79345 | 93° | 35km/h | 18810m | 4.1m/s | -52°C | 0% | 0hPa | 4.7V | 00:00:00 | 00:00:00 | 00:00:00 | |
| OE5DXL-15 | 2026-09-02 09:51:09 | 49.41886 | 12.79359 | 96° | 33km/h | 18810m | 3.9m/s | 0°C | 0% | 0hPa | 4.7V | 00:00:00 | 00:00:00 | 00:00:00 | |
| DK7TD | 2026-09-02 09:51:07 | 49.41887 | 12.79332 | 85° | 31km/h | 18805m | 4.8m/s | -52°C | 0% | 0hPa | 4.7V | 00:00:00 | 00:00:00 | 00:00:00 | |
| DM0DOS-11 | 2026-09-02 09:51:07 | 49.41891 | 12.79279 | 95° | 31km/h | 18779m | 3.8m/s | 0°C | 0% | 0hPa | 0V | 00:00:00 | 00:00:00 | 00:00:00 | |
| OE5WHR-10 | 2026-09-02 09:51:07 | 49.41886 | 12.79332 | 86° | 33km/h | 18801m | 4.7m/s | 0°C | 0% | 0hPa | 4.7V | 00:00:00 | 00:00:00 | 00:00:00 | |
| NBG1-10 | 2026-09-02 09:51:02 | 49.41890 | 12.79279 | 96° | 37km/h | 18779m | 3.7m/s | 0°C | 0% | 0hPa | 4.7V | 00:00:00 | 00:00:00 | 00:00:00 | |
| BIOWL1-15 | 2026-09-02 09:51:00 | 49.41896 | 12.79227 | 95° | 33km/h | 18767m | 5.2m/s | -52.2°C | 0% | 0hPa | 4.7V | 00:00:00 | 00:00:00 | 00:00:00 | |
| PETON7-10 | 2026-09-02 09:51:00 | 49.41893 | 12.79253 | 103° | 35km/h | 18771m | 4.5m/s | 0°C | 0% | 0hPa | 4.7V | 00:00:00 | 00:00:00 | 00:00:00 | |
| DF8AY | 2026-09-02 09:50:58 | 49.41896 | 12.79213 | 88° | 35km/h | 18762m | 3.4m/s | -52.2°C | 0% | 0hPa | 4.7V | 00:00:00 | 00:00:00 | 00:00:00 | |
| DB0NH | 2026-09-02 09:50:58 | 49.41896 | 12.79227 | 95° | 37km/h | 18763m | 5.2m/s | 0°C | 0% | 0hPa | 4.7V | 00:00:00 | 00:00:00 | 00:00:00 | |
| DK7TD | 2026-09-02 09:50:57 | 49.41896 | 12.79200 | 92° | 35km/h | 18759m | 4.5m/s | -52.2°C | 0% | 0hPa | 4.7V | 00:00:00 | 00:00:00 | 00:00:00 | |
| DM0DOS-11 | 2026-09-02 09:50:56 | 49.41903 | 12.79140 | 100° | 31km/h | 18736m | 5.7m/s | 0°C | 0% | 0hPa | 0V | 00:00:00 | 00:00:00 | 00:00:00 | |
| DB0UT-7 | 2026-09-02 09:50:56 | 49.41896 | 12.79200 | 92° | 37km/h | 18755m | 4.4m/s | 0°C | 0% | 0hPa | 4.7V | 00:00:00 | 00:00:00 | 00:00:00 | |
| OE3JTB-15 | 2026-09-02 09:50:54 | 49.41899 | 12.79175 | 109° | 38km/h | 18746m | 3.9m/s | 0°C | 0% | 0hPa | 4.7V | 00:00:00 | 00:00:00 | 00:00:00 | |
| DO3MHA-11 | 2026-09-02 09:50:50 | 49.41907 | 12.79127 | 108° | 37km/h | 18728m | 4.3m/s | 0°C | 0% | 0hPa | 4.7V | 00:00:00 | 00:00:00 | 00:00:00 | |
| BIOWL1-15 | 2026-09-02 09:50:49 | 49.41915 | 12.79084 | 103° | 35km/h | 18719m | 3.4m/s | -52.2°C | 0% | 0hPa | 4.7V | 00:00:00 | 00:00:00 | 00:00:00 | |
| DF8AY | 2026-09-02 09:50:47 | 49.41917 | 12.79071 | 110° | 35km/h | 18715m | 5.3m/s | -52.2°C | 0% | 0hPa | 4.7V | 00:00:00 | 00:00:00 | 00:00:00 | |
| OE5WHR-10 | 2026-09-02 09:50:45 | 49.41920 | 12.79059 | 113° | 38km/h | 18706m | 3.9m/s | 0°C | 0% | 0hPa | 4.7V | 00:00:00 | 00:00:00 | 00:00:00 | |
| DK7TD | 2026-09-02 09:50:43 | 49.41928 | 12.79021 | 105° | 37km/h | 18698m | 5.1m/s | -52.4°C | 0% | 0hPa | 4.7V | 00:00:00 | 00:00:00 | 00:00:00 | |
| SP3BTT-10 | 2026-09-02 09:50:41 | 49.41930 | 12.79007 | 109° | 38km/h | 18689m | 4.3m/s | 0°C | 0% | 0hPa | 4.7V | 00:00:00 | 00:00:00 | 00:00:00 | |
| DO3MHA-11 | 2026-09-02 09:50:40 | 49.41931 | 12.78992 | 106° | 40km/h | 18689m | 3.5m/s | 0°C | 0% | 0hPa | 4.7V | 00:00:00 | 00:00:00 | 00:00:00 | |
| OE5DXL-15 | 2026-09-02 09:50:39 | 49.41935 | 12.78978 | 100° | 40km/h | 18681m | 4.9m/s | 0°C | 0% | 0hPa | 4.7V | 00:00:00 | 00:00:00 | 00:00:00 | |
| DF8AY | 2026-09-02 09:50:37 | 49.41940 | 12.78937 | 100° | 40km/h | 18671m | 4m/s | -52.6°C | 0% | 0hPa | 4.7V | 00:00:00 | 00:00:00 | 00:00:00 | |
| OE5MMP-10 | 2026-09-02 09:50:37 | 49.41938 | 12.78952 | 101° | 42km/h | 18671m | 4.0m/s | 0°C | 0% | 0hPa | 0V | 00:00:00 | 00:00:00 | 00:00:00 | |
| DM0DOS-11 | 2026-09-02 09:50:31 | 49.41951 | 12.78842 | 92° | 38km/h | 18641m | 3.5m/s | 0°C | 0% | 0hPa | 0V | 00:00:00 | 00:00:00 | 00:00:00 | |
| DO3MHA-11 | 2026-09-02 09:50:30 | 49.41951 | 12.78842 | 93° | 40km/h | 18642m | 3.5m/s | 0°C | 0% | 0hPa | 4.7V | 00:00:00 | 00:00:00 | 00:00:00 | |
| NBG1-10 | 2026-09-02 09:50:28 | 49.41953 | 12.78810 | 98° | 38km/h | 18634m | 3.5m/s | 0°C | 0% | 0hPa | 4.7V | 00:00:00 | 00:00:00 | 00:00:00 | |
| DB0NH | 2026-09-02 09:50:27 | 49.41953 | 12.78792 | 96° | 38km/h | 18634m | 3.7m/s | 0°C | 0% | 0hPa | 4.7V | 00:00:00 | 00:00:00 | 00:00:00 | |
| DF8AY | 2026-09-02 09:50:26 | 49.41955 | 12.78759 | 93° | 38km/h | 18625m | 4.2m/s | -53°C | 0% | 0hPa | 4.7V | 00:00:00 | 00:00:00 | 00:00:00 | |
| DM0DOS-11 | 2026-09-02 09:50:26 | 49.41961 | 12.78687 | 93° | 37km/h | 18602m | 5.3m/s | 0°C | 0% | 0hPa | 0V | 00:00:00 | 00:00:00 | 00:00:00 | |
| DB0UT-7 | 2026-09-02 09:50:26 | 49.41955 | 12.78775 | 92° | 37km/h | 18599m | 4.6m/s | 0°C | 0% | 0hPa | 4.7V | 00:00:00 | 00:00:00 | 00:00:00 | |
| OE3JTB-15 | 2026-09-02 09:50:24 | 49.41956 | 12.78744 | 100° | 38km/h | 18608m | 5.1m/s | 0°C | 0% | 0hPa | 4.7V | 00:00:00 | 00:00:00 | 00:00:00 | |
| OE5WHR-10 | 2026-09-02 09:50:23 | 49.41956 | 12.78730 | 103° | 38km/h | 18616m | 3.1m/s | 0°C | 0% | 0hPa | 4.7V | 00:00:00 | 00:00:00 | 00:00:00 | |
| DO3MHA-11 | 2026-09-02 09:50:20 | 49.41960 | 12.78687 | 94° | 38km/h | 18603m | 5.3m/s | 0°C | 0% | 0hPa | 4.7V | 00:00:00 | 00:00:00 | 00:00:00 | |
| OE5DRO-10 | 2026-09-02 09:50:16 | 49.41959 | 12.78623 | 83° | 38km/h | 18581m | 3.6m/s | 0°C | 0% | 0hPa | 4.7V | 00:00:00 | 00:00:00 | 00:00:00 | |
| BIOWL1-15 | 2026-09-02 09:50:15 | 49.41958 | 12.78583 | 87° | 31km/h | 18571m | 3.8m/s | -53.1°C | 0% | 0hPa | 4.7V | 00:00:00 | 00:00:00 | 00:00:00 | |
| DF8AY | 2026-09-02 09:50:15 | 49.41958 | 12.78595 | 89° | 35km/h | 18576m | 5.2m/s | -53.1°C | 0% | 0hPa | 4.7V | 00:00:00 | 00:00:00 | 00:00:00 | |
| PETON7-10 | 2026-09-02 09:50:15 | 49.41958 | 12.78609 | 89° | 38km/h | 18576m | 3.6m/s | 0°C | 0% | 0hPa | 0V | 00:00:00 | 00:00:00 | 00:00:00 | |
| DM0DOS-11 | 2026-09-02 09:50:14 | 49.41958 | 12.78539 | 82° | 42km/h | 18557m | 5.3m/s | 0°C | 0% | 0hPa | 0V | 00:00:00 | 00:00:00 | 00:00:00 | |
| SP3BTT-10 | 2026-09-02 09:50:11 | 49.41957 | 12.78555 | 87° | 37km/h | 18558m | 4.4m/s | 0°C | 0% | 0hPa | 0V | 00:00:00 | 00:00:00 | 00:00:00 | |
| DO3MHA-11 | 2026-09-02 09:50:10 | 49.41958 | 12.78539 | 83° | 40km/h | 18558m | 5.2m/s | 0°C | 0% | 0hPa | 0V | 00:00:00 | 00:00:00 | 00:00:00 | |
| OE5DXL-15 | 2026-09-02 09:50:09 | 49.41954 | 12.78523 | 76° | 35km/h | 18553m | 4.1m/s | 0°C | 0% | 0hPa | 0V | 00:00:00 | 00:00:00 | 00:00:00 | |
| OE5MMP-10 | 2026-09-02 09:50:04 | 49.41943 | 12.78448 | 80° | 35km/h | 18525m | 4.3m/s | 0°C | 0% | 0hPa | 0V | 00:00:00 | 00:00:00 | 00:00:00 | |
| BIOWL1-15 | 2026-09-02 09:50:04 | 49.41942 | 12.78436 | 85° | 35km/h | 18525m | 4.8m/s | -53.1°C | 0% | 0hPa | 4.7V | 00:00:00 | 00:00:00 | 00:00:00 | |
| DM0DOS-11 | 2026-09-02 09:50:02 | 49.41937 | 12.78393 | 72° | 42km/h | 18507m | 3.6m/s | 0°C | 0% | 0hPa | 0V | 00:00:00 | 00:00:00 | 00:00:00 | |
| OE5WHR-10 | 2026-09-02 09:50:02 | 49.41941 | 12.78422 | 84° | 35km/h | 18517m | 3.9m/s | 0°C | 0% | 0hPa | 4.7V | 00:00:00 | 00:00:00 | 00:00:00 | |
| DO3MHA-11 | 2026-09-02 09:50:00 | 49.41937 | 12.78392 | 73° | 37km/h | 18508m | 3.6m/s | 0°C | 0% | 0hPa | 4.7V | 00:00:00 | 00:00:00 | 00:00:00 | |
| OE5DRO-10 | 2026-09-02 09:49:57 | 49.41930 | 12.78345 | 79° | 31km/h | 18496m | 5.1m/s | 0°C | 0% | 0hPa | 4.7V | 00:00:00 | 00:00:00 | 00:00:00 | |
| DF2AP-13 | 2026-09-02 09:49:56 | 49.41928 | 12.78334 | 72° | 29km/h | 18491m | 3.7m/s | 0°C | 0% | 0hPa | 4.7V | 00:00:00 | 00:00:00 | 00:00:00 | |
| NBG1-10 | 2026-09-02 09:49:54 | 49.41924 | 12.78311 | 70° | 29km/h | 18487m | 5.3m/s | 0°C | 0% | 0hPa | 4.7V | 00:00:00 | 00:00:00 | 00:00:00 | |
| DF8AY | 2026-09-02 09:49:54 | 49.41920 | 12.78298 | 81° | 37km/h | 18482m | 4.8m/s | -52.9°C | 0% | 0hPa | 4.7V | 00:00:00 | 00:00:00 | 00:00:00 | |
| BIOWL1-15 | 2026-09-02 09:49:53 | 49.41918 | 12.78269 | 83° | 37km/h | 18473m | 4.8m/s | -52.9°C | 0% | 0hPa | 4.7V | 00:00:00 | 00:00:00 | 00:00:00 | |
| OE5MMP-10 | 2026-09-02 09:49:53 | 49.41921 | 12.78298 | 82° | 33km/h | 18482m | 4.7m/s | 0°C | 0% | 0hPa | 0V | 00:00:00 | 00:00:00 | 00:00:00 | |
| DB0UT-7 | 2026-09-02 09:49:51 | 49.41918 | 12.78269 | 83° | 27km/h | 18465m | 4.8m/s | 0°C | 0% | 0hPa | 0V | 00:00:00 | 00:00:00 | 00:00:00 | |
| DM0DOS-11 | 2026-09-02 09:49:50 | 49.41916 | 12.78242 | 84° | 33km/h | 18460m | 5.3m/s | 0°C | 0% | 0hPa | 0V | 00:00:00 | 00:00:00 | 00:00:00 | |
| DO3MHA-11 | 2026-09-02 09:49:49 | 49.41915 | 12.78242 | 85° | 29km/h | 18460m | 5.3m/s | 0°C | 0% | 0hPa | 0V | 00:00:00 | 00:00:00 | 00:00:00 | |
| PETON7-10 | 2026-09-02 09:49:45 | 49.41908 | 12.78201 | 72° | 29km/h | 18442m | 5.1m/s | 0°C | 0% | 0hPa | 0V | 00:00:00 | 00:00:00 | 00:00:00 | |
| DM0DOS-11 | 2026-09-02 09:49:44 | 49.41904 | 12.78131 | 93° | 29km/h | 18418m | 5.1m/s | 0°C | 0% | 0hPa | 0V | 00:00:00 | 00:00:00 | 00:00:00 | |
| DF8AY | 2026-09-02 09:49:43 | 49.41905 | 12.78166 | 84° | 31km/h | 18432m | 4.2m/s | -52.9°C | 0% | 0hPa | 4.7V | 00:00:00 | 00:00:00 | 00:00:00 | |
| SP3BTT-10 | 2026-09-02 09:49:41 | 49.41904 | 12.78153 | 89° | 27km/h | 18423m | 4.3m/s | 0°C | 0% | 0hPa | 4.7V | 00:00:00 | 00:00:00 | 00:00:00 | |
| OE5WHR-10 | 2026-09-02 09:49:40 | 49.41904 | 12.78142 | 94° | 26km/h | 18423m | 4.3m/s | 0°C | 0% | 0hPa | 4.7V | 00:00:00 | 00:00:00 | 00:00:00 | |
| DK7TD | 2026-09-02 09:49:39 | 49.41903 | 12.78122 | 72° | 24km/h | 18413m | 4.7m/s | -53°C | 0% | 0hPa | 4.7V | 00:00:00 | 00:00:00 | 00:00:00 | |
| DO3MHA-11 | 2026-09-02 09:49:38 | 49.41903 | 12.78121 | 72° | 26km/h | 18409m | 4.7m/s | 0°C | 0% | 0hPa | 4.7V | 00:00:00 | 00:00:00 | 00:00:00 | |
| BIOWL1-15 | 2026-09-02 09:49:32 | 49.41894 | 12.78060 | 92° | 29km/h | 18386m | 5.7m/s | -53°C | 0% | 0hPa | 4.7V | 00:00:00 | 00:00:00 | 00:00:00 | |
| DM0DOS-11 | 2026-09-02 09:49:32 | 49.41897 | 12.78032 | 85° | 16km/h | 18372m | 4.8m/s | 0°C | 0% | 0hPa | 0V | 00:00:00 | 00:00:00 | 00:00:00 | |
| DF8AY | 2026-09-02 09:49:32 | 49.41895 | 12.78049 | 103° | 27km/h | 18382m | 3.6m/s | -53°C | 0% | 0hPa | 4.7V | 00:00:00 | 00:00:00 | 00:00:00 | |
| PETON7-10 | 2026-09-02 09:49:30 | 49.41896 | 12.78040 | 103° | 24km/h | 18372m | 5.5m/s | 0°C | 0% | 0hPa | 4.7V | 00:00:00 | 00:00:00 | 00:00:00 | |
| DK7TD | 2026-09-02 09:49:28 | 49.41896 | 12.78018 | 90° | 22km/h | 18364m | 4.8m/s | -53°C | 0% | 0hPa | 4.7V | 00:00:00 | 00:00:00 | 00:00:00 | |
| DO3MHA-11 | 2026-09-02 09:49:27 | 49.41896 | 12.78018 | 91° | 26km/h | 18364m | 4.8m/s | 0°C | 0% | 0hPa | 4.7V | 00:00:00 | 00:00:00 | 00:00:00 | |
| DF2AP-13 | 2026-09-02 09:49:25 | 49.41896 | 12.77999 | 93° | 31km/h | 18355m | 4.9m/s | 0°C | 0% | 0hPa | 4.7V | 00:00:00 | 00:00:00 | 00:00:00 | |
| OE3JTB-15 | 2026-09-02 09:49:22 | 49.41898 | 12.77967 | 99° | 37km/h | 18341m | 3.7m/s | 0°C | 0% | 0hPa | 4.7V | 00:00:00 | 00:00:00 | 00:00:00 | |
| BIOWL1-15 | 2026-09-02 09:49:21 | 49.41900 | 12.77955 | 97° | 29km/h | 18336m | 5.5m/s | -52.9°C | 0% | 0hPa | 4.7V | 00:00:00 | 00:00:00 | 00:00:00 | |
| DM0DOS-11 | 2026-09-02 09:49:20 | 49.41901 | 12.77936 | 92° | 22km/h | 18323m | 3.6m/s | 0°C | 0% | 0hPa | 0V | 00:00:00 | 00:00:00 | 00:00:00 | |
| OE5WHR-10 | 2026-09-02 09:49:19 | 49.41901 | 12.77936 | 93° | 33km/h | 18323m | 3.5m/s | 0°C | 0% | 0hPa | 4.7V | 00:00:00 | 00:00:00 | 00:00:00 | |
| DO3MHA-11 | 2026-09-02 09:49:17 | 49.41902 | 12.77915 | 99° | 33km/h | 18314m | 3.9m/s | 0°C | 0% | 0hPa | 4.7V | 00:00:00 | 00:00:00 | 00:00:00 | |
| DF8AY | 2026-09-02 09:49:15 | 49.41912 | 12.77816 | 93° | 35km/h | 18282m | 4.6m/s | -53.2°C | 0% | 0hPa | 4.7V | 00:00:00 | 00:00:00 | 00:00:00 | |
| PETON7-10 | 2026-09-02 09:49:15 | 49.41905 | 12.77891 | 104° | 33km/h | 18305m | 4.3m/s | 0°C | 0% | 0hPa | 0V | 00:00:00 | 00:00:00 | 00:00:00 | |
| DK7TD | 2026-09-02 09:49:15 | 49.41907 | 12.77879 | 102° | 31km/h | 18305m | 4m/s | -53°C | 0% | 0hPa | 4.7V | 00:00:00 | 00:00:00 | 00:00:00 | |
| DM0DOS-11 | 2026-09-02 09:49:14 | 49.41911 | 12.77816 | 93° | 35km/h | 18282m | 4.6m/s | 0°C | 0% | 0hPa | 0V | 00:00:00 | 00:00:00 | 00:00:00 | |
| OE5MMP-10 | 2026-09-02 09:49:10 | 49.41912 | 12.77829 | 95° | 35km/h | 18282m | 4.5m/s | 0°C | 0% | 0hPa | 4.7V | 00:00:00 | 00:00:00 | 00:00:00 | |
| BIOWL1-15 | 2026-09-02 09:49:10 | 49.41914 | 12.77790 | 99° | 31km/h | 18272m | 4.7m/s | -53.2°C | 0% | 0hPa | 4.7V | 00:00:00 | 00:00:00 | 00:00:00 | |
| OE5DXL-15 | 2026-09-02 09:49:09 | 49.41912 | 12.77816 | 94° | 37km/h | 18282m | 4.6m/s | 0°C | 0% | 0hPa | 4.7V | 00:00:00 | 00:00:00 | 00:00:00 | |
| BIOWL9-15 | 2026-09-02 09:49:08 | 49.41914 | 12.77790 | 98° | 29km/h | 18272m | 4.7m/s | -53.2°C | -1.0% | -1.0hPa | 4.7V | 00:00:00 | 00:00:00 | 00:00:00 | |
| DB0ND-19 | 2026-09-02 09:49:07 | 49.41915 | 12.77778 | 101° | 31km/h | 18267m | 4.6m/s | -54.0°C | -1.0% | -1.0hPa | 4.7V | 00:00:00 | 00:00:00 | 00:00:00 | |
| EDDB2-11 | 2026-09-02 09:49:06 | 49.41917 | 12.77764 | 100° | 37km/h | 18262m | 5.3m/s | -54.0°C | -1.0% | -1.0hPa | 4.7V | 00:00:00 | 00:00:00 | 00:00:00 | |
| SONDE2-11 | 2026-09-02 09:49:05 | 49.41918 | 12.77750 | 98° | 38km/h | 18258m | 3.0m/s | -54.0°C | -1.0% | -1.0hPa | 4.7V | 00:00:00 | 00:00:00 | 00:00:00 | |
| DF7PN | 2026-09-02 09:49:02 | 49.41920 | 12.77710 | 85° | 31km/h | 18244m | 5.5m/s | -53.3°C | -1.0% | -1.0hPa | 4.7V | 00:00:00 | 00:00:00 | 00:00:00 | |
| DF8AY | 2026-09-02 09:49:00 | 49.41918 | 12.77683 | 82° | 35km/h | 18235m | 4m/s | -53.4°C | 0% | 0hPa | 4.7V | 00:00:00 | 00:00:00 | 00:00:00 | |
| PETON7-10 | 2026-09-02 09:49:00 | 49.41919 | 12.77697 | 81° | 38km/h | 18235m | 4.6m/s | 0°C | 0% | 0hPa | 4.7V | 00:00:00 | 00:00:00 | 00:00:00 | |
| OE5MMP-10 | 2026-09-02 09:48:59 | 49.41918 | 12.77683 | 82° | 37km/h | 18235m | 3.9m/s | 0°C | 0% | 0hPa | 4.7V | 00:00:00 | 00:00:00 | 00:00:00 | |
| BIOWL1-15 | 2026-09-02 09:48:57 | 49.41917 | 12.77658 | 94° | 33km/h | 18226m | 4.8m/s | -53.6°C | 0% | 0hPa | 4.7V | 00:00:00 | 00:00:00 | 00:00:00 | |
| OE5WHR-10 | 2026-09-02 09:48:57 | 49.41917 | 12.77658 | 94° | 38km/h | 18226m | 4.7m/s | 0°C | 0% | 0hPa | 4.7V | 00:00:00 | 00:00:00 | 00:00:00 | |
| DK7TD | 2026-09-02 09:48:55 | 49.41918 | 12.77613 | 88° | 38km/h | 18212m | 5.3m/s | -53.6°C | 0% | 0hPa | 4.7V | 00:00:00 | 00:00:00 | 00:00:00 | |
| DO3MHA-11 | 2026-09-02 09:48:55 | 49.41918 | 12.77628 | 92° | 40km/h | 18212m | 4.0m/s | 0°C | 0% | 0hPa | 0V | 00:00:00 | 00:00:00 | 00:00:00 | |
| DM0DOS-11 | 2026-09-02 09:48:50 | 49.41906 | 12.77522 | 88° | 38km/h | 18186m | 3.5m/s | 0°C | 0% | 0hPa | 0V | 00:00:00 | 00:00:00 | 00:00:00 | |
| DB0UT-7 | 2026-09-02 09:48:50 | 49.41910 | 12.77552 | 77° | 42km/h | 18194m | 4.3m/s | 0°C | 0% | 0hPa | 4.7V | 00:00:00 | 00:00:00 | 00:00:00 | |
| DF8AY | 2026-09-02 09:48:49 | 49.41906 | 12.77522 | 89° | 38km/h | 18186m | 3.5m/s | -53.7°C | 0% | 0hPa | 4.7V | 00:00:00 | 00:00:00 | 00:00:00 | |
| BIOWL1-15 | 2026-09-02 09:48:49 | 49.41905 | 12.77490 | 84° | 46km/h | 18177m | 4.1m/s | -53.6°C | 0% | 0hPa | 4.7V | 00:00:00 | 00:00:00 | 00:00:00 | |
| OE5MMP-10 | 2026-09-02 09:48:49 | 49.41906 | 12.77537 | 83° | 40km/h | 18186m | 4.4m/s | 0°C | 0% | 0hPa | 0V | 00:00:00 | 00:00:00 | 00:00:00 | |
| NBG1-10 | 2026-09-02 09:48:48 | 49.41906 | 12.77522 | 89° | 40km/h | 18186m | 3.4m/s | 0°C | 0% | 0hPa | 0V | 00:00:00 | 00:00:00 | 00:00:00 | |
| DB0NH | 2026-09-02 09:48:46 | 49.41906 | 12.77489 | 85° | 40km/h | 18177m | 4.1m/s | 0°C | 0% | 0hPa | 0V | 00:00:00 | 00:00:00 | 00:00:00 | |
| PETON7-10 | 2026-09-02 09:48:44 | 49.41903 | 12.77456 | 82° | 38km/h | 18168m | 4.8m/s | 0°C | 0% | 0hPa | 0V | 00:00:00 | 00:00:00 | 00:00:00 | |
| SP3BTT-10 | 2026-09-02 09:48:41 | 49.41897 | 12.77402 | 79° | 42km/h | 18151m | 4.1m/s | 0°C | 0% | 0hPa | 0V | 00:00:00 | 00:00:00 | 00:00:00 | |
| OE5DRO-10 | 2026-09-02 09:48:40 | 49.41895 | 12.77401 | 78° | 38km/h | 18146m | 5.3m/s | 0°C | 0% | 0hPa | 0V | 00:00:00 | 00:00:00 | 00:00:00 | |
| DM0DOS-11 | 2026-09-02 09:48:38 | 49.41891 | 12.77376 | 74° | 38km/h | 18137m | 5.6m/s | 0°C | 0% | 0hPa | 0V | 00:00:00 | 00:00:00 | 00:00:00 | |
| DF8AY | 2026-09-02 09:48:38 | 49.41888 | 12.77360 | 74° | 42km/h | 18137m | 3.3m/s | -53.7°C | 0% | 0hPa | 4.7V | 00:00:00 | 00:00:00 | 00:00:00 | |
| OE5MMP-10 | 2026-09-02 09:48:38 | 49.41891 | 12.77375 | 75° | 38km/h | 18137m | 5.6m/s | 0°C | 0% | 0hPa | 4.7V | 00:00:00 | 00:00:00 | 00:00:00 | |
| BIOWL1-15 | 2026-09-02 09:48:36 | 49.41883 | 12.77330 | 78° | 37km/h | 18128m | 4.4m/s | -53.7°C | 0% | 0hPa | 4.7V | 00:00:00 | 00:00:00 | 00:00:00 | |
| OE5WHR-10 | 2026-09-02 09:48:36 | 49.41885 | 12.77345 | 76° | 42km/h | 18128m | 5.0m/s | 0°C | 0% | 0hPa | 4.7V | 00:00:00 | 00:00:00 | 00:00:00 | |
| DK7TD | 2026-09-02 09:48:34 | 49.41880 | 12.77304 | 79° | 37km/h | 18119m | 5.3m/s | -53.8°C | 0% | 0hPa | 4.7V | 00:00:00 | 00:00:00 | 00:00:00 | |
| DO3MHA-11 | 2026-09-02 09:48:34 | 49.41882 | 12.77317 | 80° | 40km/h | 18119m | 4.3m/s | 0°C | 0% | 0hPa | 0V | 00:00:00 | 00:00:00 | 00:00:00 | |
| DM0DOS-11 | 2026-09-02 09:48:33 | 49.41874 | 12.77229 | 83° | 42km/h | 18096m | 4.9m/s | 0°C | 0% | 0hPa | 0V | 00:00:00 | 00:00:00 | 00:00:00 | |
| PETON7-10 | 2026-09-02 09:48:29 | 49.41875 | 12.77245 | 84° | 42km/h | 18101m | 5.1m/s | 0°C | 0% | 0hPa | 4.7V | 00:00:00 | 00:00:00 | 00:00:00 | |
| DF8AY | 2026-09-02 09:48:27 | 49.41871 | 12.77195 | 89° | 42km/h | 18086m | 4.2m/s | -53.8°C | 0% | 0hPa | 4.7V | 00:00:00 | 00:00:00 | 00:00:00 | |
| OE5MMP-10 | 2026-09-02 09:48:27 | 49.41871 | 12.77211 | 87° | 42km/h | 18086m | 5.4m/s | 0°C | 0% | 0hPa | 4.7V | 00:00:00 | 00:00:00 | 00:00:00 | |
| BIOWL1-15 | 2026-09-02 09:48:25 | 49.41870 | 12.77162 | 82° | 42km/h | 18076m | 4.7m/s | -53.8°C | 0% | 0hPa | 4.7V | 00:00:00 | 00:00:00 | 00:00:00 | |
| DF2AP-13 | 2026-09-02 09:48:25 | 49.41871 | 12.77179 | 87° | 44km/h | 18076m | 5.4m/s | 0°C | 0% | 0hPa | 0V | 00:00:00 | 00:00:00 | 00:00:00 | |
| DM0DOS-11 | 2026-09-02 09:48:23 | 49.41853 | 12.77069 | 72° | 44km/h | 18049m | 5m/s | 0°C | 0% | 0hPa | 0V | 00:00:00 | 00:00:00 | 00:00:00 | |
| DO3MHA-11 | 2026-09-02 09:48:23 | 49.41868 | 12.77146 | 80° | 44km/h | 18067m | 5.2m/s | 0°C | 0% | 0hPa | 4.7V | 00:00:00 | 00:00:00 | 00:00:00 | |
| DF8AY | 2026-09-02 09:48:22 | 49.41846 | 12.77037 | 78° | 44km/h | 18039m | 5m/s | -54°C | 0% | 0hPa | 4.7V | 00:00:00 | 00:00:00 | 00:00:00 | |
| DK7TD | 2026-09-02 09:48:21 | 49.41859 | 12.77102 | 67° | 46km/h | 18057m | 4.7m/s | -54°C | 0% | 0hPa | 4.7V | 00:00:00 | 00:00:00 | 00:00:00 | |
| OE5DRO-10 | 2026-09-02 09:48:21 | 49.41862 | 12.77117 | 70° | 44km/h | 18057m | 4.9m/s | 0°C | 0% | 0hPa | 4.7V | 00:00:00 | 00:00:00 | 00:00:00 | |
| BIOWL1-15 | 2026-09-02 09:48:16 | 49.41835 | 12.76986 | 67° | 44km/h | 18025m | 4.3m/s | -54.1°C | 0% | 0hPa | 4.7V | 00:00:00 | 00:00:00 | 00:00:00 | |
| OE5WHR-10 | 2026-09-02 09:48:14 | 49.41839 | 12.77002 | 72° | 44km/h | 18025m | 5.2m/s | 0°C | 0% | 0hPa | 0V | 00:00:00 | 00:00:00 | 00:00:00 | |
| DM0DOS-11 | 2026-09-02 09:48:12 | 49.41810 | 12.76900 | 68° | 44km/h | 17998m | 4.5m/s | 0°C | 0% | 0hPa | 0V | 00:00:00 | 00:00:00 | 00:00:00 | |
| DO3MHA-11 | 2026-09-02 09:48:12 | 49.41831 | 12.76970 | 65° | 44km/h | 18017m | 3.3m/s | 0°C | 0% | 0hPa | 4.7V | 00:00:00 | 00:00:00 | 00:00:00 | |
| SP3BTT-10 | 2026-09-02 09:48:10 | 49.41820 | 12.76935 | 66° | 35km/h | 18008m | 4.0m/s | 0°C | 0% | 0hPa | 4.7V | 00:00:00 | 00:00:00 | 00:00:00 | |
| DK7TD | 2026-09-02 09:48:09 | 49.41810 | 12.76900 | 69° | 44km/h | 18003m | 4.5m/s | -54°C | 0% | 0hPa | 4.7V | 00:00:00 | 00:00:00 | 00:00:00 | |
| OE5DXL-15 | 2026-09-02 09:48:09 | 49.41815 | 12.76917 | 68° | 40km/h | 18008m | 5.1m/s | 0°C | 0% | 0hPa | 4.7V | 00:00:00 | 00:00:00 | 00:00:00 | |
| BIOWL1-15 | 2026-09-02 09:48:08 | 49.41787 | 12.76831 | 53° | 40km/h | 17980m | 3.7m/s | -53.9°C | 0% | 0hPa | 4.7V | 00:00:00 | 00:00:00 | 00:00:00 | |
| OE3JTB-15 | 2026-09-02 09:48:08 | 49.41810 | 12.76900 | 69° | 38km/h | 17998m | 4.5m/s | 0°C | 0% | 0hPa | 4.7V | 00:00:00 | 00:00:00 | 00:00:00 | |
| DF8AY | 2026-09-02 09:48:06 | 49.41798 | 12.76856 | 61° | 38km/h | 17989m | 4.5m/s | -53.9°C | 0% | 0hPa | 4.7V | 00:00:00 | 00:00:00 | 00:00:00 | |
| OE5MMP-10 | 2026-09-02 09:48:06 | 49.41802 | 12.76870 | 67° | 44km/h | 17989m | 3.9m/s | 0°C | 0% | 0hPa | 0V | 00:00:00 | 00:00:00 | 00:00:00 | |
| OE5DRO-10 | 2026-09-02 09:48:02 | 49.41781 | 12.76819 | 59° | 40km/h | 17972m | 3.9m/s | 0°C | 0% | 0hPa | 0V | 00:00:00 | 00:00:00 | 00:00:00 | |
| DM0DOS-11 | 2026-09-02 09:48:00 | 49.41756 | 12.76741 | 62° | 38km/h | 17950m | 4.5m/s | 0°C | 0% | 0hPa | 0V | 00:00:00 | 00:00:00 | 00:00:00 | |
| PETON7-10 | 2026-09-02 09:47:59 | 49.41765 | 12.76769 | 63° | 38km/h | 17959m | 4.7m/s | 0°C | 0% | 0hPa | 4.8V | 00:00:00 | 00:00:00 | 00:00:00 | |
| DF8AY | 2026-09-02 09:47:55 | 49.41740 | 12.76705 | 46° | 37km/h | 17941m | 4.3m/s | -53.8°C | 0% | 0hPa | 4.8V | 00:00:00 | 00:00:00 | 00:00:00 | |
| DF2AP-13 | 2026-09-02 09:47:55 | 49.41746 | 12.76716 | 53° | 35km/h | 17941m | 5.5m/s | 0°C | 0% | 0hPa | 4.8V | 00:00:00 | 00:00:00 | 00:00:00 | |
| BIOWL1-15 | 2026-09-02 09:47:55 | 49.41727 | 12.76681 | 56° | 46km/h | 17932m | 5m/s | -53.6°C | 0% | 0hPa | 4.8V | 00:00:00 | 00:00:00 | 00:00:00 | |
| OE5WHR-10 | 2026-09-02 09:47:53 | 49.41733 | 12.76693 | 50° | 35km/h | 17932m | 4.0m/s | 0°C | 0% | 0hPa | 4.8V | 00:00:00 | 00:00:00 | 00:00:00 | |
| DK7TD | 2026-09-02 09:47:52 | 49.41721 | 12.76665 | 61° | 46km/h | 17927m | 3.7m/s | -53.6°C | 0% | 0hPa | 4.8V | 00:00:00 | 00:00:00 | 00:00:00 | |
| DM0DOS-11 | 2026-09-02 09:47:48 | 49.41699 | 12.76599 | 56° | 33km/h | 17900m | 5.7m/s | 0°C | 0% | 0hPa | 0V | 00:00:00 | 00:00:00 | 00:00:00 | |
| DB0UT-7 | 2026-09-02 09:47:48 | 49.41710 | 12.76623 | 68° | 33km/h | 17914m | 5.0m/s | 0°C | 0% | 0hPa | 4.8V | 00:00:00 | 00:00:00 | 00:00:00 | |
| DF8AY | 2026-09-02 09:47:44 | 49.41684 | 12.76571 | 58° | 33km/h | 17891m | 4m/s | -53.4°C | 0% | 0hPa | 4.8V | 00:00:00 | 00:00:00 | 00:00:00 | |
| BIOWL1-15 | 2026-09-02 09:47:44 | 49.41676 | 12.76548 | 63° | 33km/h | 17881m | 4.5m/s | -53.3°C | 0% | 0hPa | 4.8V | 00:00:00 | 00:00:00 | 00:00:00 | |
| DO3MHA-11 | 2026-09-02 09:47:42 | 49.41679 | 12.76560 | 62° | 33km/h | 17882m | 4.8m/s | 0°C | 0% | 0hPa | 0V | 00:00:00 | 00:00:00 | 00:00:00 | |
| NBG1-10 | 2026-09-02 09:47:40 | 49.41672 | 12.76537 | 69° | 31km/h | 17873m | 3.4m/s | 0°C | 0% | 0hPa | 0V | 00:00:00 | 00:00:00 | 00:00:00 | |
| OE5DXL-15 | 2026-09-02 09:47:39 | 49.41670 | 12.76525 | 76° | 29km/h | 17873m | 5.7m/s | 0°C | 0% | 0hPa | 0V | 00:00:00 | 00:00:00 | 00:00:00 | |
| DM0DOS-11 | 2026-09-02 09:47:36 | 49.41661 | 12.76481 | 52° | 33km/h | 17854m | 5.2m/s | 0°C | 0% | 0hPa | 0V | 00:00:00 | 00:00:00 | 00:00:00 | |
| DK7TD | 2026-09-02 09:47:34 | 49.41647 | 12.76459 | 59° | 33km/h | 17846m | 4.8m/s | -53.2°C | 0% | 0hPa | 4.8V | 00:00:00 | 00:00:00 | 00:00:00 | |
| OE5MMP-10 | 2026-09-02 09:47:33 | 49.41651 | 12.76459 | 59° | 31km/h | 17846m | 4.8m/s | 0°C | 0% | 0hPa | 4.8V | 00:00:00 | 00:00:00 | 00:00:00 | |
| DO3MHA-11 | 2026-09-02 09:47:32 | 49.41647 | 12.76449 | 59° | 29km/h | 17841m | 4.6m/s | 0°C | 0% | 0hPa | 4.8V | 00:00:00 | 00:00:00 | 00:00:00 | |
| OE5WHR-10 | 2026-09-02 09:47:31 | 49.41639 | 12.76439 | 67° | 29km/h | 17832m | 4.4m/s | 0°C | 0% | 0hPa | 4.8V | 00:00:00 | 00:00:00 | 00:00:00 | |
| BIOWL1-15 | 2026-09-02 09:47:30 | 49.41637 | 12.76428 | 77° | 33km/h | 17832m | 4.7m/s | -53.1°C | 0% | 0hPa | 4.8V | 00:00:00 | 00:00:00 | 00:00:00 | |
| DM0DOS-11 | 2026-09-02 09:47:30 | 49.41624 | 12.76373 | 69° | 29km/h | 17805m | 4.4m/s | 0°C | 0% | 0hPa | 0V | 00:00:00 | 00:00:00 | 00:00:00 | |
| PETON7-10 | 2026-09-02 09:47:29 | 49.41635 | 12.76416 | 77° | 29km/h | 17823m | 4.4m/s | 0°C | 0% | 0hPa | 4.8V | 00:00:00 | 00:00:00 | 00:00:00 | |
| BIOWL1-15 | 2026-09-02 09:47:25 | 49.41612 | 12.76318 | 76° | 31km/h | 17787m | 5.3m/s | -52.9°C | 0% | 0hPa | 4.8V | 00:00:00 | 00:00:00 | 00:00:00 | |
| DF2AP-13 | 2026-09-02 09:47:25 | 49.41624 | 12.76373 | 70° | 29km/h | 17806m | 4.4m/s | 0°C | 0% | 0hPa | 4.8V | 00:00:00 | 00:00:00 | 00:00:00 | |
| DK7TD | 2026-09-02 09:47:23 | 49.41616 | 12.76343 | 72° | 31km/h | 17796m | 5.1m/s | -52.9°C | 0% | 0hPa | 4.8V | 00:00:00 | 00:00:00 | 00:00:00 | |
| DO3MHA-11 | 2026-09-02 09:47:22 | 49.41618 | 12.76342 | 73° | 29km/h | 17796m | 5.1m/s | 0°C | 0% | 0hPa | 0V | 00:00:00 | 00:00:00 | 00:00:00 | |
| SP3BTT-10 | 2026-09-02 09:47:20 | 49.41614 | 12.76318 | 76° | 37km/h | 17787m | 5.3m/s | 0°C | 0% | 0hPa | 0V | 00:00:00 | 00:00:00 | 00:00:00 | |
| DM0DOS-11 | 2026-09-02 09:47:18 | 49.41602 | 12.76260 | 69° | 29km/h | 17755m | 3.8m/s | 0°C | 0% | 0hPa | 0V | 00:00:00 | 00:00:00 | 00:00:00 | |
| DB0UT-7 | 2026-09-02 09:47:18 | 49.41608 | 12.76298 | 77° | 35km/h | 17773m | 4.8m/s | 0°C | 0% | 0hPa | 4.7V | 00:00:00 | 00:00:00 | 00:00:00 | |
| PETON7-10 | 2026-09-02 09:47:14 | 49.41602 | 12.76260 | 70° | 29km/h | 17756m | 3.8m/s | 0°C | 0% | 0hPa | 4.7V | 00:00:00 | 00:00:00 | 00:00:00 | |
| DF8AY | 2026-09-02 09:47:12 | 49.41597 | 12.76223 | 82° | 29km/h | 17746m | 5.1m/s | -52.6°C | 0% | 0hPa | 4.7V | 00:00:00 | 00:00:00 | 00:00:00 | |
| OE5WHR-10 | 2026-09-02 09:47:10 | 49.41596 | 12.76212 | 87° | 31km/h | 17738m | 4.0m/s | 0°C | 0% | 0hPa | 4.7V | 00:00:00 | 00:00:00 | 00:00:00 | |
| BIOWL1-15 | 2026-09-02 09:47:09 | 49.41596 | 12.76203 | 91° | 24km/h | 17737m | 5.2m/s | -52.6°C | 0% | 0hPa | 4.7V | 00:00:00 | 00:00:00 | 00:00:00 | |
| OE5DXL-15 | 2026-09-02 09:47:09 | 49.41596 | 12.76203 | 91° | 35km/h | 17738m | 5.1m/s | 0°C | 0% | 0hPa | 0V | 00:00:00 | 00:00:00 | 00:00:00 | |
| DM0DOS-11 | 2026-09-02 09:47:06 | 49.41592 | 12.76136 | 84° | 33km/h | 17704m | 5.5m/s | 0°C | 0% | 0hPa | 0V | 00:00:00 | 00:00:00 | 00:00:00 | |
| NBG1-10 | 2026-09-02 09:47:06 | 49.41595 | 12.76174 | 81° | 37km/h | 17719m | 5.6m/s | 0°C | 0% | 0hPa | 4.8V | 00:00:00 | 00:00:00 | 00:00:00 | |
| OE5DRO-10 | 2026-09-02 09:47:03 | 49.41592 | 12.76136 | 85° | 33km/h | 17705m | 5.4m/s | 0°C | 0% | 0hPa | 4.8V | 00:00:00 | 00:00:00 | 00:00:00 | |
| DF8AY | 2026-09-02 09:47:01 | 49.41592 | 12.76100 | 97° | 31km/h | 17695m | 3.4m/s | -52.4°C | 0% | 0hPa | 4.8V | 00:00:00 | 00:00:00 | 00:00:00 | |
| OE5MMP-10 | 2026-09-02 09:47:01 | 49.41592 | 12.76112 | 93° | 35km/h | 17695m | 5.5m/s | 0°C | 0% | 0hPa | 4.8V | 00:00:00 | 00:00:00 | 00:00:00 | |
| BIOWL1-15 | 2026-09-02 09:46:59 | 49.41594 | 12.76079 | 96° | 26km/h | 17686m | 4.1m/s | -52.4°C | 0% | 0hPa | 4.8V | 00:00:00 | 00:00:00 | 00:00:00 | |
| DK7TD | 2026-09-02 09:46:58 | 49.41595 | 12.76069 | 96° | 29km/h | 17681m | 5.3m/s | 0°C | 0% | 0hPa | 4.8V | 00:00:00 | 00:00:00 | 00:00:00 | |
| DF2AP-13 | 2026-09-02 09:46:55 | 49.41595 | 12.76042 | 90° | 38km/h | 17667m | 5.8m/s | 0°C | 0% | 0hPa | 0V | 00:00:00 | 00:00:00 | 00:00:00 | |
| DM0DOS-11 | 2026-09-02 09:46:54 | 49.41595 | 12.75999 | 102° | 38km/h | 17657m | 5.5m/s | 0°C | 0% | 0hPa | 0V | 00:00:00 | 00:00:00 | 00:00:00 | |
| DF8AY | 2026-09-02 09:46:50 | 49.41605 | 12.75960 | 106° | 33km/h | 17643m | 4.7m/s | -52.5°C | 0% | 0hPa | 4.8V | 00:00:00 | 00:00:00 | 00:00:00 | |
| DO3MHA-11 | 2026-09-02 09:46:50 | 49.41602 | 12.75972 | 107° | 38km/h | 17643m | 4.5m/s | 0°C | 0% | 0hPa | 4.8V | 00:00:00 | 00:00:00 | 00:00:00 | |
| BIOWL1-15 | 2026-09-02 09:46:48 | 49.41608 | 12.75932 | 98° | 38km/h | 17633m | 5.2m/s | -52.6°C | 0% | 0hPa | 4.8V | 00:00:00 | 00:00:00 | 00:00:00 | |
| DK7TD | 2026-09-02 09:46:44 | 49.41615 | 12.75867 | 104° | 47km/h | 17615m | 4.5m/s | 0°C | 0% | 0hPa | 4.8V | 00:00:00 | 00:00:00 | 00:00:00 | |
| PETON7-10 | 2026-09-02 09:46:44 | 49.41612 | 12.75885 | 102° | 38km/h | 17615m | 4.7m/s | 0°C | 0% | 0hPa | 4.8V | 00:00:00 | 00:00:00 | 00:00:00 | |
| DB0NH | 2026-09-02 09:46:41 | 49.41618 | 12.75834 | 104° | 37km/h | 17606m | 3.5m/s | 0°C | 0% | 0hPa | 4.8V | 00:00:00 | 00:00:00 | 00:00:00 | |
| DF8AY | 2026-09-02 09:46:40 | 49.41624 | 12.75808 | 101° | 37km/h | 17597m | 3.6m/s | -52.6°C | 0% | 0hPa | 4.8V | 00:00:00 | 00:00:00 | 00:00:00 | |
| OE5MMP-10 | 2026-09-02 09:46:40 | 49.41622 | 12.75822 | 105° | 38km/h | 17597m | 3.5m/s | 0°C | 0% | 0hPa | 4.8V | 00:00:00 | 00:00:00 | 00:00:00 | |
| OE5DXL-15 | 2026-09-02 09:46:39 | 49.41624 | 12.75808 | 101° | 37km/h | 17597m | 3.5m/s | 0°C | 0% | 0hPa | 4.8V | 00:00:00 | 00:00:00 | 00:00:00 | |
| BIOWL1-15 | 2026-09-02 09:46:37 | 49.41625 | 12.75779 | 83° | 37km/h | 17588m | 5.4m/s | -52.6°C | 0% | 0hPa | 4.8V | 00:00:00 | 00:00:00 | 00:00:00 | |
| DM0DOS-11 | 2026-09-02 09:46:35 | 49.41625 | 12.75685 | 93° | 33km/h | 17556m | 4.6m/s | 0°C | 0% | 0hPa | 0V | 00:00:00 | 00:00:00 | 00:00:00 | |
| OE3JTB-15 | 2026-09-02 09:46:35 | 49.41622 | 12.75748 | 87° | 37km/h | 17570m | 4.8m/s | 0°C | 0% | 0hPa | 4.8V | 00:00:00 | 00:00:00 | 00:00:00 | |
| NBG1-10 | 2026-09-02 09:46:33 | 49.41623 | 12.75713 | 97° | 37km/h | 17565m | 4.9m/s | 0°C | 0% | 0hPa | 4.8V | 00:00:00 | 00:00:00 | 00:00:00 | |
| DF8AY | 2026-09-02 09:46:29 | 49.41623 | 12.75646 | 74° | 37km/h | 17547m | 4.9m/s | -52.6°C | 0% | 0hPa | 4.8V | 00:00:00 | 00:00:00 | 00:00:00 | |
| BIOWL1-15 | 2026-09-02 09:46:27 | 49.41618 | 12.75616 | 80° | 44km/h | 17537m | 4.9m/s | -52.5°C | 0% | 0hPa | 4.8V | 00:00:00 | 00:00:00 | 00:00:00 | |
| OE5DRO-10 | 2026-09-02 09:46:25 | 49.41617 | 12.75597 | 86° | 37km/h | 17529m | 5.1m/s | 0°C | 0% | 0hPa | 0V | 00:00:00 | 00:00:00 | 00:00:00 | |
| DF2AP-13 | 2026-09-02 09:46:24 | 49.41617 | 12.75584 | 88° | 37km/h | 17529m | 5.1m/s | 0°C | 0% | 0hPa | 0V | 00:00:00 | 00:00:00 | 00:00:00 | |
| DM0DOS-11 | 2026-09-02 09:46:23 | 49.41616 | 12.75546 | 92° | 31km/h | 17515m | 4.1m/s | 0°C | 0% | 0hPa | 0V | 00:00:00 | 00:00:00 | 00:00:00 | |
| DF8AY | 2026-09-02 09:46:18 | 49.41609 | 12.75488 | 79° | 44km/h | 17496m | 3.9m/s | -52.3°C | 0% | 0hPa | 4.8V | 00:00:00 | 00:00:00 | 00:00:00 | |
| DM0DOS-11 | 2026-09-02 09:46:16 | 49.41603 | 12.75421 | 86° | 33km/h | 17468m | 4.8m/s | 0°C | 0% | 0hPa | 0V | 00:00:00 | 00:00:00 | 00:00:00 | |
| BIOWL1-15 | 2026-09-02 09:46:16 | 49.41605 | 12.75458 | 79° | 35km/h | 17487m | 4.6m/s | -52.3°C | 0% | 0hPa | 4.8V | 00:00:00 | 00:00:00 | 00:00:00 | |
| PETON7-10 | 2026-09-02 09:46:14 | 49.41604 | 12.75445 | 84° | 37km/h | 17478m | 4.8m/s | 0°C | 0% | 0hPa | 4.8V | 00:00:00 | 00:00:00 | 00:00:00 | |
| DK7TD | 2026-09-02 09:46:12 | 49.41602 | 12.75408 | 79° | 33km/h | 17468m | 4.5m/s | 0°C | 0% | 0hPa | 4.8V | 00:00:00 | 00:00:00 | 00:00:00 | |
| DB0NH | 2026-09-02 09:46:11 | 49.41604 | 12.75408 | 79° | 37km/h | 17468m | 4.4m/s | 0°C | 0% | 0hPa | 4.7V | 00:00:00 | 00:00:00 | 00:00:00 | |
| OE5DXL-15 | 2026-09-02 09:46:09 | 49.41597 | 12.75380 | 75° | 37km/h | 17459m | 3.8m/s | 0°C | 0% | 0hPa | 4.7V | 00:00:00 | 00:00:00 | 00:00:00 | |
| BIOWL1-15 | 2026-09-02 09:46:07 | 49.41584 | 12.75307 | 86° | 31km/h | 17435m | 4.5m/s | -52.5°C | 0% | 0hPa | 4.7V | 00:00:00 | 00:00:00 | 00:00:00 | |
| DF8AY | 2026-09-02 09:46:07 | 49.41586 | 12.75334 | 71° | 38km/h | 17444m | 4.8m/s | -52.4°C | 0% | 0hPa | 4.7V | 00:00:00 | 00:00:00 | 00:00:00 | |
| DM0DOS-11 | 2026-09-02 09:46:06 | 49.41578 | 12.75273 | 72° | 35km/h | 17375m | 5.4m/s | 0°C | 0% | 0hPa | 0V | 00:00:00 | 00:00:00 | 00:00:00 | |
| OE5DRO-10 | 2026-09-02 09:46:06 | 49.41586 | 12.75330 | 71° | 37km/h | 17440m | 4.5m/s | 0°C | 0% | 0hPa | 4.8V | 00:00:00 | 00:00:00 | 00:00:00 | |
| OE5WHR-10 | 2026-09-02 09:46:05 | 49.41584 | 12.75320 | 82° | 35km/h | 17435m | 4.0m/s | 0°C | 0% | 0hPa | 4.8V | 00:00:00 | 00:00:00 | 00:00:00 | |
| OE3JTB-15 | 2026-09-02 09:46:03 | 49.41582 | 12.75296 | 81° | 35km/h | 17404m | 4.7m/s | 0°C | 0% | 0hPa | 4.8V | 00:00:00 | 00:00:00 | 00:00:00 | |
| DK7TD | 2026-09-02 09:46:02 | 49.41578 | 12.75273 | 73° | 37km/h | 17421m | 5.5m/s | 0°C | 0% | 0hPa | 4.8V | 00:00:00 | 00:00:00 | 00:00:00 | |
| BIOWL9-15 | 2026-09-02 09:46:01 | 49.41578 | 12.75273 | 72° | 35km/h | 17421m | 5.5m/s | -52.5°C | -1.0% | -1.0hPa | 4.8V | 00:00:00 | 00:00:00 | 00:00:00 | |
| NBG1-10 | 2026-09-02 09:45:59 | 49.41571 | 12.75244 | 69° | 37km/h | 17409m | 5.0m/s | 0°C | 0% | 0hPa | 4.8V | 00:00:00 | 00:00:00 | 00:00:00 | |
| PETON7-10 | 2026-09-02 09:45:58 | 49.41571 | 12.75229 | 68° | 35km/h | 17409m | 3.5m/s | 0°C | 0% | 0hPa | 4.8V | 00:00:00 | 00:00:00 | 00:00:00 | |
| DF8AY | 2026-09-02 09:45:57 | 49.41563 | 12.75202 | 83° | 35km/h | 17399m | 4.9m/s | -52.6°C | 0% | 0hPa | 4.8V | 00:00:00 | 00:00:00 | 00:00:00 | |
| OE5MMP-10 | 2026-09-02 09:45:56 | 49.41563 | 12.75201 | 84° | 37km/h | 17399m | 4.8m/s | 0°C | 0% | 0hPa | 0V | 00:00:00 | 00:00:00 | 00:00:00 | |
| DM0DOS-11 | 2026-09-02 09:45:55 | 49.41552 | 12.75123 | 67° | 40km/h | 17367m | 4.4m/s | 0°C | 0% | 0hPa | 0V | 00:00:00 | 00:00:00 | 00:00:00 | |
| BIOWL1-15 | 2026-09-02 09:45:54 | 49.41560 | 12.75165 | 79° | 31km/h | 17385m | 4.5m/s | -52.6°C | 0% | 0hPa | 4.8V | 00:00:00 | 00:00:00 | 00:00:00 | |
| DF2AP-13 | 2026-09-02 09:45:54 | 49.41561 | 12.75176 | 82° | 35km/h | 17385m | 4.7m/s | 0°C | 0% | 0hPa | 4.8V | 00:00:00 | 00:00:00 | 00:00:00 | |
| DK7TD | 2026-09-02 09:45:50 | 49.41552 | 12.75123 | 67° | 40km/h | 17371m | 4.4m/s | 0°C | 0% | 0hPa | 4.8V | 00:00:00 | 00:00:00 | 00:00:00 | |
| DF8AY | 2026-09-02 09:45:46 | 49.41540 | 12.75056 | 79° | 29km/h | 17349m | 4.1m/s | -52.5°C | 0% | 0hPa | 4.8V | 00:00:00 | 00:00:00 | 00:00:00 | |
| DO3MHA-11 | 2026-09-02 09:45:46 | 49.41542 | 12.75068 | 78° | 37km/h | 17350m | 4.8m/s | 0°C | 0% | 0hPa | 4.8V | 00:00:00 | 00:00:00 | 00:00:00 | |
| BIOWL1-15 | 2026-09-02 09:45:45 | 49.41538 | 12.75032 | 84° | 35km/h | 17340m | 4m/s | -52.5°C | 0% | 0hPa | 4.8V | 00:00:00 | 00:00:00 | 00:00:00 | |
| DM0DOS-11 | 2026-09-02 09:45:45 | 49.41534 | 12.74990 | 72° | 37km/h | 17327m | 4.9m/s | 0°C | 0% | 0hPa | 0V | 00:00:00 | 00:00:00 | 00:00:00 | |
| OE5WHR-10 | 2026-09-02 09:45:44 | 49.41539 | 12.75032 | 85° | 37km/h | 17336m | 5.8m/s | 0°C | 0% | 0hPa | 0V | 00:00:00 | 00:00:00 | 00:00:00 | |
| PETON7-10 | 2026-09-02 09:45:43 | 49.41540 | 12.75032 | 84° | 37km/h | 17340m | 4.0m/s | 0°C | 0% | 0hPa | 0V | 00:00:00 | 00:00:00 | 00:00:00 | |
| DB0NH | 2026-09-02 09:45:41 | 49.41537 | 12.75004 | 73° | 38km/h | 17331m | 3.3m/s | 0°C | 0% | 0hPa | 0V | 00:00:00 | 00:00:00 | 00:00:00 | |
| OE5DXL-15 | 2026-09-02 09:45:39 | 49.41531 | 12.74975 | 87° | 38km/h | 17318m | 4.7m/s | 0°C | 0% | 0hPa | 0V | 00:00:00 | 00:00:00 | 00:00:00 | |
| DB0UT-7 | 2026-09-02 09:45:37 | 49.41531 | 12.74945 | 90° | 40km/h | 17308m | 5.1m/s | 0°C | 0% | 0hPa | 0V | 00:00:00 | 00:00:00 | 00:00:00 | |
| DM0DOS-11 | 2026-09-02 09:45:35 | 49.41527 | 12.74856 | 95° | 38km/h | 17280m | 4.3m/s | 0°C | 0% | 0hPa | 0V | 00:00:00 | 00:00:00 | 00:00:00 | |
| DF8AY | 2026-09-02 09:45:35 | 49.41531 | 12.74906 | 90° | 31km/h | 17299m | 3.4m/s | -52.3°C | 0% | 0hPa | 4.8V | 00:00:00 | 00:00:00 | 00:00:00 | |
| BIOWL1-15 | 2026-09-02 09:45:35 | 49.41529 | 12.74882 | 78° | 33km/h | 17290m | 3.9m/s | -52.2°C | 0% | 0hPa | 4.8V | 00:00:00 | 00:00:00 | 00:00:00 | |
| OE5MMP-10 | 2026-09-02 09:45:35 | 49.41531 | 12.74918 | 93° | 35km/h | 17299m | 5.0m/s | 0°C | 0% | 0hPa | 4.8V | 00:00:00 | 00:00:00 | 00:00:00 | |
| OE3JTB-15 | 2026-09-02 09:45:32 | 49.41529 | 12.74882 | 79° | 44km/h | 17290m | 3.8m/s | 0°C | 0% | 0hPa | 4.8V | 00:00:00 | 00:00:00 | 00:00:00 | |
| PETON7-10 | 2026-09-02 09:45:28 | 49.41529 | 12.74825 | 96° | 40km/h | 17271m | 4.4m/s | 0°C | 0% | 0hPa | 4.8V | 00:00:00 | 00:00:00 | 00:00:00 | |
| NBG1-10 | 2026-09-02 09:45:26 | 49.41533 | 12.74797 | 103° | 44km/h | 17257m | 5.4m/s | 0°C | 0% | 0hPa | 4.8V | 00:00:00 | 00:00:00 | 00:00:00 | |
| DF8AY | 2026-09-02 09:45:24 | 49.41536 | 12.74756 | 87° | 38km/h | 17248m | 3.4m/s | -52°C | 0% | 0hPa | 4.8V | 00:00:00 | 00:00:00 | 00:00:00 | |
| DO3MHA-11 | 2026-09-02 09:45:24 | 49.41536 | 12.74769 | 94° | 38km/h | 17249m | 5.1m/s | 0°C | 0% | 0hPa | 4.8V | 00:00:00 | 00:00:00 | 00:00:00 | |
| OE5WHR-10 | 2026-09-02 09:45:22 | 49.41536 | 12.74741 | 90° | 46km/h | 17240m | 4.9m/s | 0°C | 0% | 0hPa | 4.8V | 00:00:00 | 00:00:00 | 00:00:00 | |
| BIOWL1-15 | 2026-09-02 09:45:21 | 49.41536 | 12.74726 | 96° | 40km/h | 17239m | 4.2m/s | -52°C | 0% | 0hPa | 4.8V | 00:00:00 | 00:00:00 | 00:00:00 | |
| DK7TD | 2026-09-02 09:45:20 | 49.41539 | 12.74697 | 101° | 37km/h | 17230m | 4.1m/s | -51.9°C | 0% | 0hPa | 4.8V | 00:00:00 | 00:00:00 | 00:00:00 | |
| DF8AY | 2026-09-02 09:45:14 | 49.41550 | 12.74602 | 96° | 49km/h | 17202m | 5.1m/s | -51.8°C | 0% | 0hPa | 4.8V | 00:00:00 | 00:00:00 | 00:00:00 | |
| OE5MMP-10 | 2026-09-02 09:45:13 | 49.41548 | 12.74602 | 97° | 46km/h | 17203m | 5.0m/s | 0°C | 0% | 0hPa | 4.8V | 00:00:00 | 00:00:00 | 00:00:00 | |
| BIOWL1-15 | 2026-09-02 09:45:13 | 49.41554 | 12.74547 | 96° | 42km/h | 17189m | 4.2m/s | -51.9°C | 0% | 0hPa | 4.8V | 00:00:00 | 00:00:00 | 00:00:00 | |
| DB0NH | 2026-09-02 09:45:11 | 49.41553 | 12.74564 | 99° | 47km/h | 17189m | 5.0m/s | 0°C | 0% | 0hPa | 4.8V | 00:00:00 | 00:00:00 | 00:00:00 | |
| DK7TD | 2026-09-02 09:45:09 | 49.41558 | 12.74516 | 106° | 42km/h | 17180m | 4.8m/s | -51.9°C | 0% | 0hPa | 4.8V | 00:00:00 | 00:00:00 | 00:00:00 | |
| DO8TBO-1 | 2026-09-02 09:45:06 | 49.41564 | 12.74470 | 107° | 49km/h | 17152m | 4.4m/s | 0°C | 0% | 0hPa | 0V | 00:00:00 | 00:00:00 | 00:00:00 | |
| OE5DRO-10 | 2026-09-02 09:45:05 | 49.41567 | 12.74467 | 101° | 49km/h | 17162m | 3.2m/s | 0°C | 0% | 0hPa | 0V | 00:00:00 | 00:00:00 | 00:00:00 | |
| DO3MHA-11 | 2026-09-02 09:45:04 | 49.41567 | 12.74448 | 98° | 49km/h | 17162m | 5.5m/s | 0°C | 0% | 0hPa | 0V | 00:00:00 | 00:00:00 | 00:00:00 | |
| DM0DOS-11 | 2026-09-02 09:45:03 | 49.41579 | 12.74330 | 102° | 42km/h | 17129m | 4.2m/s | 0°C | 0% | 0hPa | 0V | 00:00:00 | 00:00:00 | 00:00:00 | |
| DF8AY | 2026-09-02 09:45:03 | 49.41572 | 12.74405 | 95° | 55km/h | 17152m | 5.3m/s | -51.9°C | 0% | 0hPa | 4.8V | 00:00:00 | 00:00:00 | 00:00:00 | |
| BIOWL1-15 | 2026-09-02 09:45:01 | 49.41575 | 12.74366 | 97° | 49km/h | 17143m | 5.4m/s | -51.9°C | 0% | 0hPa | 4.8V | 00:00:00 | 00:00:00 | 00:00:00 | |
| OE5WHR-10 | 2026-09-02 09:45:00 | 49.41573 | 12.74366 | 97° | 47km/h | 17143m | 5.3m/s | 0°C | 0% | 0hPa | 4.8V | 00:00:00 | 00:00:00 | 00:00:00 | |
| PETON7-10 | 2026-09-02 09:44:58 | 49.41579 | 12.74330 | 103° | 46km/h | 17130m | 4.1m/s | 0°C | 0% | 0hPa | 4.8V | 00:00:00 | 00:00:00 | 00:00:00 | |
| DK7TD | 2026-09-02 09:44:57 | 49.41583 | 12.74297 | 98° | 42km/h | 17125m | 4.6m/s | -51.9°C | 0% | 0hPa | 4.8V | 00:00:00 | 00:00:00 | 00:00:00 | |
| DO3MHA-11 | 2026-09-02 09:44:54 | 49.41585 | 12.74260 | 93° | 47km/h | 17111m | 4.3m/s | 0°C | 0% | 0hPa | 0V | 00:00:00 | 00:00:00 | 00:00:00 | |
| NBG1-10 | 2026-09-02 09:44:53 | 49.41585 | 12.74241 | 89° | 46km/h | 17111m | 4.9m/s | 0°C | 0% | 0hPa | 0V | 00:00:00 | 00:00:00 | 00:00:00 | |
| DM0DOS-11 | 2026-09-02 09:44:52 | 49.41590 | 12.74126 | 88° | 38km/h | 17086m | 4.3m/s | 0°C | 0% | 0hPa | 0V | 00:00:00 | 00:00:00 | 00:00:00 | |
| DF8AY | 2026-09-02 09:44:52 | 49.41586 | 12.74200 | 93° | 55km/h | 17103m | 5.2m/s | -51.9°C | 0% | 0hPa | 4.8V | 00:00:00 | 00:00:00 | 00:00:00 | |
| BIOWL1-15 | 2026-09-02 09:44:52 | 49.41588 | 12.74159 | 97° | 49km/h | 17095m | 4.1m/s | -51.9°C | 0% | 0hPa | 4.8V | 00:00:00 | 00:00:00 | 00:00:00 | |
| DK7TD | 2026-09-02 09:44:46 | 49.41589 | 12.74094 | 90° | 46km/h | 17077m | 3.8m/s | -52°C | 0% | 0hPa | 4.8V | 00:00:00 | 00:00:00 | 00:00:00 | |
| DO3MHA-11 | 2026-09-02 09:44:44 | 49.41589 | 12.74075 | 91° | 44km/h | 17072m | 5.4m/s | 0°C | 0% | 0hPa | 4.8V | 00:00:00 | 00:00:00 | 00:00:00 | |
| PETON7-10 | 2026-09-02 09:44:43 | 49.41589 | 12.74056 | 88° | 44km/h | 17063m | 4.2m/s | 0°C | 0% | 0hPa | 4.8V | 00:00:00 | 00:00:00 | 00:00:00 | |
| DF8AY | 2026-09-02 09:44:41 | 49.41590 | 12.73999 | 93° | 47km/h | 17054m | 4.5m/s | -51.9°C | 0% | 0hPa | 4.8V | 00:00:00 | 00:00:00 | 00:00:00 | |
| DB0NH | 2026-09-02 09:44:41 | 49.41589 | 12.74017 | 95° | 40km/h | 17055m | 3.7m/s | 0°C | 0% | 0hPa | 4.8V | 00:00:00 | 00:00:00 | 00:00:00 | |
| BIOWL1-15 | 2026-09-02 09:44:39 | 49.41589 | 12.73967 | 80° | 37km/h | 17045m | 3.9m/s | -51.9°C | 0% | 0hPa | 4.8V | 00:00:00 | 00:00:00 | 00:00:00 | |
| DB0UT-7 | 2026-09-02 09:44:36 | 49.41587 | 12.73937 | 86° | 40km/h | 17037m | 3.4m/s | 0°C | 0% | 0hPa | 4.8V | 00:00:00 | 00:00:00 | 00:00:00 | |
| DK7TD | 2026-09-02 09:44:35 | 49.41584 | 12.73905 | 84° | 42km/h | 17027m | 4.1m/s | -51.8°C | 0% | 0hPa | 4.8V | 00:00:00 | 00:00:00 | 00:00:00 | |
| OE3JTB-15 | 2026-09-02 09:44:31 | 49.41584 | 12.73849 | 92° | 38km/h | 17011m | 4.9m/s | 0°C | 0% | 0hPa | 4.8V | 00:00:00 | 00:00:00 | 00:00:00 | |
| DF8AY | 2026-09-02 09:44:30 | 49.41583 | 12.73820 | 78° | 37km/h | 17007m | 3.9m/s | -51.7°C | 0% | 0hPa | 4.8V | 00:00:00 | 00:00:00 | 00:00:00 | |
| BIOWL1-15 | 2026-09-02 09:44:28 | 49.41579 | 12.73791 | 80° | 38km/h | 16997m | 4.4m/s | -51.6°C | 0% | 0hPa | 4.8V | 00:00:00 | 00:00:00 | 00:00:00 | |
| OE5DRO-10 | 2026-09-02 09:44:26 | 49.41577 | 12.73777 | 80° | 38km/h | 16989m | 5.1m/s | 0°C | 0% | 0hPa | 4.8V | 00:00:00 | 00:00:00 | 00:00:00 | |
| DO3MHA-11 | 2026-09-02 09:44:24 | 49.41575 | 12.73744 | 87° | 38km/h | 16980m | 5.1m/s | 0°C | 0% | 0hPa | 4.8V | 00:00:00 | 00:00:00 | 00:00:00 | |
| DK7TD | 2026-09-02 09:44:22 | 49.41574 | 12.73707 | 90° | 47km/h | 16975m | 5.2m/s | -51.5°C | 0% | 0hPa | 4.8V | 00:00:00 | 00:00:00 | 00:00:00 | |
| DM0DOS-11 | 2026-09-02 09:44:20 | 49.41563 | 12.73609 | 82° | 40km/h | 16940m | 5m/s | 0°C | 0% | 0hPa | 0V | 00:00:00 | 00:00:00 | 00:00:00 | |
| DF8AY | 2026-09-02 09:44:20 | 49.41572 | 12.73662 | 83° | 35km/h | 16962m | 4.1m/s | -51.5°C | 0% | 0hPa | 4.8V | 00:00:00 | 00:00:00 | 00:00:00 | |
| NBG1-10 | 2026-09-02 09:44:20 | 49.41573 | 12.73675 | 84° | 38km/h | 16962m | 4.1m/s | 0°C | 0% | 0hPa | 4.8V | 00:00:00 | 00:00:00 | 00:00:00 | |
| OE5MMP-10 | 2026-09-02 09:44:19 | 49.41573 | 12.73662 | 84° | 37km/h | 16962m | 4.1m/s | 0°C | 0% | 0hPa | 4.8V | 00:00:00 | 00:00:00 | 00:00:00 | |
| BIOWL1-15 | 2026-09-02 09:44:17 | 49.41568 | 12.73637 | 69° | 35km/h | 16953m | 4.4m/s | -51.5°C | 0% | 0hPa | 4.8V | 00:00:00 | 00:00:00 | 00:00:00 | |
| OE5WHR-10 | 2026-09-02 09:44:17 | 49.41571 | 12.73636 | 70° | 37km/h | 16953m | 4.4m/s | 0°C | 0% | 0hPa | 4.8V | 00:00:00 | 00:00:00 | 00:00:00 | |
| PETON7-10 | 2026-09-02 09:44:13 | 49.41562 | 12.73575 | 87° | 38km/h | 16931m | 4.9m/s | 0°C | 0% | 0hPa | 4.8V | 00:00:00 | 00:00:00 | 00:00:00 | |
| DB0NH | 2026-09-02 09:44:11 | 49.41560 | 12.73544 | 86° | 38km/h | 16922m | 5.3m/s | 0°C | 0% | 0hPa | 4.8V | 00:00:00 | 00:00:00 | 00:00:00 | |
| DF8AY | 2026-09-02 09:44:10 | 49.41555 | 12.73508 | 71° | 31km/h | 16913m | 3.4m/s | -51.8°C | 0% | 0hPa | 4.8V | 00:00:00 | 00:00:00 | 00:00:00 | |
| DM0DOS-11 | 2026-09-02 09:44:09 | 49.41551 | 12.73453 | 83° | 42km/h | 16896m | 3.9m/s | 0°C | 0% | 0hPa | 0V | 00:00:00 | 00:00:00 | 00:00:00 | |
| OE5MMP-10 | 2026-09-02 09:44:09 | 49.41557 | 12.73519 | 73° | 37km/h | 16914m | 4.9m/s | 0°C | 0% | 0hPa | 4.8V | 00:00:00 | 00:00:00 | 00:00:00 | |
| OE5DRO-10 | 2026-09-02 09:44:07 | 49.41553 | 12.73497 | 80° | 38km/h | 16905m | 4.9m/s | 0°C | 0% | 0hPa | 4.8V | 00:00:00 | 00:00:00 | 00:00:00 | |
| BIOWL1-15 | 2026-09-02 09:44:06 | 49.41552 | 12.73483 | 87° | 37km/h | 16905m | 3.9m/s | -51.8°C | 0% | 0hPa | 4.8V | 00:00:00 | 00:00:00 | 00:00:00 | |
| DB0UT-7 | 2026-09-02 09:44:06 | 49.41553 | 12.73483 | 87° | 40km/h | 16905m | 3.8m/s | 0°C | 0% | 0hPa | 4.8V | 00:00:00 | 00:00:00 | 00:00:00 | |
| SP3BTT-10 | 2026-09-02 09:44:05 | 49.41551 | 12.73469 | 85° | 44km/h | 16896m | 3.8m/s | 0°C | 0% | 0hPa | 4.8V | 00:00:00 | 00:00:00 | 00:00:00 | |
| DO3MHA-11 | 2026-09-02 09:44:02 | 49.41549 | 12.73421 | 87° | 38km/h | 16882m | 4.0m/s | 0°C | 0% | 0hPa | 4.8V | 00:00:00 | 00:00:00 | 00:00:00 | |
| DF8AY | 2026-09-02 09:43:58 | 49.41545 | 12.73353 | 94° | 38km/h | 16864m | 5.3m/s | -51.6°C | 0% | 0hPa | 4.8V | 00:00:00 | 00:00:00 | 00:00:00 | |
| BIOWL1-15 | 2026-09-02 09:43:56 | 49.41546 | 12.73320 | 92° | 46km/h | 16855m | 5.7m/s | -51.6°C | 0% | 0hPa | 4.8V | 00:00:00 | 00:00:00 | 00:00:00 | |
| DK7TD | 2026-09-02 09:43:55 | 49.41547 | 12.73303 | 95° | 46km/h | 16850m | 3.5m/s | -51.7°C | 0% | 0hPa | 4.8V | 00:00:00 | 00:00:00 | 00:00:00 | |
| DF2AP-13 | 2026-09-02 09:43:53 | 49.41547 | 12.73285 | 92° | 44km/h | 16846m | 5.5m/s | 0°C | 0% | 0hPa | 4.8V | 00:00:00 | 00:00:00 | 00:00:00 | |
| DO3MHA-11 | 2026-09-02 09:43:51 | 49.41546 | 12.73256 | 94° | 40km/h | 16836m | 5.3m/s | 0°C | 0% | 0hPa | 4.8V | 00:00:00 | 00:00:00 | 00:00:00 | |
| BIOWL1-15 | 2026-09-02 09:43:49 | 49.41558 | 12.73142 | 97° | 47km/h | 16803m | 5.2m/s | -51.6°C | 0% | 0hPa | 4.8V | 00:00:00 | 00:00:00 | 00:00:00 | |
| DF8AY | 2026-09-02 09:43:47 | 49.41554 | 12.73180 | 98° | 47km/h | 16812m | 5.4m/s | -51.6°C | 0% | 0hPa | 4.8V | 00:00:00 | 00:00:00 | 00:00:00 | |
| DK7TD | 2026-09-02 09:43:44 | 49.41559 | 12.73125 | 94° | 44km/h | 16798m | 4.1m/s | 0°C | 0% | 0hPa | 4.8V | 00:00:00 | 00:00:00 | 00:00:00 | |
| PETON7-10 | 2026-09-02 09:43:43 | 49.41559 | 12.73125 | 94° | 46km/h | 16794m | 4.0m/s | 0°C | 0% | 0hPa | 4.8V | 00:00:00 | 00:00:00 | 00:00:00 | |
| DO3MHA-11 | 2026-09-02 09:43:41 | 49.41561 | 12.73091 | 98° | 47km/h | 16785m | 3.7m/s | 0°C | 0% | 0hPa | 4.8V | 00:00:00 | 00:00:00 | 00:00:00 | |
| DB0NH | 2026-09-02 09:43:40 | 49.41562 | 12.73075 | 94° | 46km/h | 16785m | 5.4m/s | 0°C | 0% | 0hPa | 4.8V | 00:00:00 | 00:00:00 | 00:00:00 | |
| OE5DXL-15 | 2026-09-02 09:43:39 | 49.41562 | 12.73058 | 90° | 46km/h | 16776m | 3.7m/s | 0°C | 0% | 0hPa | 4.8V | 00:00:00 | 00:00:00 | 00:00:00 | |
| DF8AY | 2026-09-02 09:43:37 | 49.41564 | 12.73002 | 94° | 51km/h | 16766m | 4.3m/s | -51.5°C | 0% | 0hPa | 4.8V | 00:00:00 | 00:00:00 | 00:00:00 | |
| BIOWL1-15 | 2026-09-02 09:43:36 | 49.41564 | 12.72945 | 91° | 47km/h | 16752m | 4.8m/s | -51.5°C | 0% | 0hPa | 4.8V | 00:00:00 | 00:00:00 | 00:00:00 | |
| SP3BTT-10 | 2026-09-02 09:43:35 | 49.41564 | 12.72983 | 95° | 46km/h | 16762m | 4.8m/s | 0°C | 0% | 0hPa | 4.8V | 00:00:00 | 00:00:00 | 00:00:00 | |
| OE5WHR-10 | 2026-09-02 09:43:34 | 49.41564 | 12.72964 | 88° | 44km/h | 16753m | 4.1m/s | 0°C | 0% | 0hPa | 4.8V | 00:00:00 | 00:00:00 | 00:00:00 | |
| OE3JTB-15 | 2026-09-02 09:43:32 | 49.41564 | 12.72927 | 96° | 44km/h | 16709m | 4.0m/s | 0°C | 0% | 0hPa | 4.8V | 00:00:00 | 00:00:00 | 00:00:00 | |
| DO3MHA-11 | 2026-09-02 09:43:30 | 49.41566 | 12.72895 | 94° | 44km/h | 16735m | 3.5m/s | 0°C | 0% | 0hPa | 4.8V | 00:00:00 | 00:00:00 | 00:00:00 | |
| PETON7-10 | 2026-09-02 09:43:28 | 49.41569 | 12.72862 | 102° | 44km/h | 16726m | 4.2m/s | 0°C | 0% | 0hPa | 4.8V | 00:00:00 | 00:00:00 | 00:00:00 | |
| DF8AY | 2026-09-02 09:43:26 | 49.41572 | 12.72806 | 88° | 47km/h | 16717m | 3.5m/s | -51.5°C | 0% | 0hPa | 4.8V | 00:00:00 | 00:00:00 | 00:00:00 | |
| OE5MMP-10 | 2026-09-02 09:43:26 | 49.41572 | 12.72824 | 93° | 44km/h | 16717m | 5.0m/s | 0°C | 0% | 0hPa | 4.8V | 00:00:00 | 00:00:00 | 00:00:00 | |
| BIOWL1-15 | 2026-09-02 09:43:23 | 49.41572 | 12.72770 | 91° | 44km/h | 16708m | 4.3m/s | -51.6°C | 0% | 0hPa | 4.8V | 00:00:00 | 00:00:00 | 00:00:00 | |
| DF2AP-13 | 2026-09-02 09:43:23 | 49.41572 | 12.72769 | 92° | 46km/h | 16709m | 4.3m/s | 0°C | 0% | 0hPa | 4.8V | 00:00:00 | 00:00:00 | 00:00:00 | |
| DO3MHA-11 | 2026-09-02 09:43:19 | 49.41575 | 12.72707 | 102° | 46km/h | 16685m | 4.4m/s | 0°C | 0% | 0hPa | 4.8V | 00:00:00 | 00:00:00 | 00:00:00 | |
| DF8AY | 2026-09-02 09:43:15 | 49.41583 | 12.72614 | 94° | 42km/h | 16668m | 5.4m/s | -51.7°C | 0% | 0hPa | 4.8V | 00:00:00 | 00:00:00 | 00:00:00 | |
| BIOWL1-15 | 2026-09-02 09:43:13 | 49.41584 | 12.72584 | 97° | 40km/h | 16659m | 4.7m/s | -51.8°C | 0% | 0hPa | 4.8V | 00:00:00 | 00:00:00 | 00:00:00 | |
| DK7TD | 2026-09-02 09:43:11 | 49.41586 | 12.72550 | 94° | 46km/h | 16650m | 5.2m/s | -51.8°C | 0% | 0hPa | 4.8V | 00:00:00 | 00:00:00 | 00:00:00 | |
| DB0NH | 2026-09-02 09:43:10 | 49.41586 | 12.72550 | 94° | 46km/h | 16650m | 5.2m/s | 0°C | 0% | 0hPa | 0V | 00:00:00 | 00:00:00 | 00:00:00 | |
| OE5DRO-10 | 2026-09-02 09:43:09 | 49.41587 | 12.72534 | 92° | 44km/h | 16641m | 5.5m/s | 0°C | 0% | 0hPa | 0V | 00:00:00 | 00:00:00 | 00:00:00 | |
| DO3MHA-11 | 2026-09-02 09:43:08 | 49.41586 | 12.72514 | 94° | 47km/h | 16641m | 5.5m/s | 0°C | 0% | 0hPa | 0V | 00:00:00 | 00:00:00 | 00:00:00 | |
| SP3BTT-10 | 2026-09-02 09:43:05 | 49.41589 | 12.72455 | 93° | 42km/h | 16627m | 3.9m/s | 0°C | 0% | 0hPa | 0V | 00:00:00 | 00:00:00 | 00:00:00 | |
| DM0DOS-11 | 2026-09-02 09:43:04 | 49.41591 | 12.72359 | 97° | 47km/h | 16600m | 4.4m/s | 0°C | 0% | 0hPa | 0V | 00:00:00 | 00:00:00 | 00:00:00 | |
| DF8AY | 2026-09-02 09:43:04 | 49.41590 | 12.72423 | 94° | 42km/h | 16618m | 4.4m/s | -51.9°C | 0% | 0hPa | 4.8V | 00:00:00 | 00:00:00 | 00:00:00 | |
| BIOWL1-15 | 2026-09-02 09:43:03 | 49.41591 | 12.72391 | 92° | 40km/h | 16609m | 4.2m/s | -51.9°C | 0% | 0hPa | 4.8V | 00:00:00 | 00:00:00 | 00:00:00 | |
| SONCRA | 2026-09-02 09:43:02 | 49.41591 | 12.72391 | 91° | 38km/h | 16609m | 4.2m/s | -51.9°C | -1.0% | -1.0hPa | 4.8V | 00:00:00 | 00:00:00 | 00:00:00 | |
| DK7TD | 2026-09-02 09:43:00 | 49.41593 | 12.72359 | 98° | 47km/h | 16600m | 4.4m/s | -51.9°C | 0% | 0hPa | 4.8V | 00:00:00 | 00:00:00 | 00:00:00 | |
| DB0UT-7 | 2026-09-02 09:42:59 | 49.41591 | 12.72359 | 98° | 44km/h | 16600m | 4.3m/s | 0°C | 0% | 0hPa | 4.8V | 00:00:00 | 00:00:00 | 00:00:00 | |
| DO3MHA-11 | 2026-09-02 09:42:58 | 49.41594 | 12.72340 | 97° | 44km/h | 16590m | 5.4m/s | 0°C | 0% | 0hPa | 4.8V | 00:00:00 | 00:00:00 | 00:00:00 | |
| DF8AY | 2026-09-02 09:42:53 | 49.41603 | 12.72254 | 102° | 37km/h | 16572m | 3.5m/s | -52°C | 0% | 0hPa | 4.8V | 00:00:00 | 00:00:00 | 00:00:00 | |
| OE5MMP-10 | 2026-09-02 09:42:53 | 49.41601 | 12.72254 | 102° | 42km/h | 16572m | 3.4m/s | 0°C | 0% | 0hPa | 4.8V | 00:00:00 | 00:00:00 | 00:00:00 | |
| DO8TBO-1 | 2026-09-02 09:42:52 | 49.41603 | 12.72242 | 102° | 42km/h | 16559m | 4.0m/s | 0°C | 0% | 0hPa | 4.8V | 00:00:00 | 00:00:00 | 00:00:00 | |
| BIOWL1-15 | 2026-09-02 09:42:51 | 49.41609 | 12.72209 | 100° | 44km/h | 16559m | 4m/s | -52°C | 0% | 0hPa | 4.8V | 00:00:00 | 00:00:00 | 00:00:00 | |
| DK7TD | 2026-09-02 09:42:49 | 49.41611 | 12.72175 | 94° | 46km/h | 16549m | 4.5m/s | -52°C | 0% | 0hPa | 4.8V | 00:00:00 | 00:00:00 | 00:00:00 | |
| DO3MHA-11 | 2026-09-02 09:42:47 | 49.41613 | 12.72157 | 100° | 44km/h | 16541m | 4.3m/s | 0°C | 0% | 0hPa | 4.8V | 00:00:00 | 00:00:00 | 00:00:00 | |
| DF8AY | 2026-09-02 09:42:43 | 49.41628 | 12.72078 | 114° | 44km/h | 16524m | 4.3m/s | -52.1°C | 0% | 0hPa | 4.8V | 00:00:00 | 00:00:00 | 00:00:00 | |
| OE5MMP-10 | 2026-09-02 09:42:43 | 49.41624 | 12.72093 | 112° | 44km/h | 16524m | 5.0m/s | 0°C | 0% | 0hPa | 4.8V | 00:00:00 | 00:00:00 | 00:00:00 | |
| PETON7-10 | 2026-09-02 09:42:42 | 49.41624 | 12.72078 | 114° | 44km/h | 16524m | 4.2m/s | 0°C | 0% | 0hPa | 4.8V | 00:00:00 | 00:00:00 | 00:00:00 | |
| BIOWL1-15 | 2026-09-02 09:42:41 | 49.41636 | 12.72044 | 102° | 46km/h | 16515m | 5m/s | -52.1°C | 0% | 0hPa | 4.8V | 00:00:00 | 00:00:00 | 00:00:00 | |
| DB0NH | 2026-09-02 09:42:40 | 49.41634 | 12.72044 | 103° | 46km/h | 16515m | 5.0m/s | 0°C | 0% | 0hPa | 4.8V | 00:00:00 | 00:00:00 | 00:00:00 | |
| OE5DXL-15 | 2026-09-02 09:42:39 | 49.41638 | 12.72027 | 99° | 46km/h | 16510m | 4.6m/s | 0°C | 0% | 0hPa | 4.8V | 00:00:00 | 00:00:00 | 00:00:00 | |
| DK7TD | 2026-09-02 09:42:38 | 49.41642 | 12.71994 | 104° | 42km/h | 16501m | 3.6m/s | -52°C | 0% | 0hPa | 4.8V | 00:00:00 | 00:00:00 | 00:00:00 | |
| DO3MHA-11 | 2026-09-02 09:42:36 | 49.41644 | 12.71978 | 102° | 42km/h | 16492m | 5.2m/s | 0°C | 0% | 0hPa | 0V | 00:00:00 | 00:00:00 | 00:00:00 | |
| DM0DOS-11 | 2026-09-02 09:42:32 | 49.41666 | 12.71835 | 98° | 40km/h | 16456m | 4.1m/s | 0°C | 0% | 0hPa | 0V | 00:00:00 | 00:00:00 | 00:00:00 | |
| DF8AY | 2026-09-02 09:42:32 | 49.41658 | 12.71901 | 102° | 46km/h | 16474m | 4.4m/s | -52°C | 0% | 0hPa | 4.8V | 00:00:00 | 00:00:00 | 00:00:00 | |
| BIOWL1-15 | 2026-09-02 09:42:32 | 49.41664 | 12.71866 | 103° | 44km/h | 16465m | 3.1m/s | -52°C | 0% | 0hPa | 4.8V | 00:00:00 | 00:00:00 | 00:00:00 | |
| OE5WHR-10 | 2026-09-02 09:42:30 | 49.41661 | 12.71883 | 104° | 47km/h | 16465m | 4.5m/s | 0°C | 0% | 0hPa | 4.8V | 00:00:00 | 00:00:00 | 00:00:00 | |
| DK7TD | 2026-09-02 09:42:28 | 49.41667 | 12.71835 | 98° | 38km/h | 16456m | 4.1m/s | -52°C | 0% | 0hPa | 4.8V | 00:00:00 | 00:00:00 | 00:00:00 | |
| PETON7-10 | 2026-09-02 09:42:27 | 49.41665 | 12.71835 | 98° | 46km/h | 16456m | 4.1m/s | 0°C | 0% | 0hPa | 4.8V | 00:00:00 | 00:00:00 | 00:00:00 | |
| DO3MHA-11 | 2026-09-02 09:42:26 | 49.41669 | 12.71822 | 105° | 44km/h | 16447m | 3.7m/s | 0°C | 0% | 0hPa | 4.8V | 00:00:00 | 00:00:00 | 00:00:00 | |
| OE3JTB-15 | 2026-09-02 09:42:24 | 49.41672 | 12.71788 | 110° | 49km/h | 16442m | 5.4m/s | 0°C | 0% | 0hPa | 4.8V | 00:00:00 | 00:00:00 | 00:00:00 | |
| DF2AP-13 | 2026-09-02 09:42:23 | 49.41678 | 12.71771 | 104° | 47km/h | 16425m | 3.9m/s | 0°C | 0% | 0hPa | 4.8V | 00:00:00 | 00:00:00 | 00:00:00 | |
| DF8AY | 2026-09-02 09:42:21 | 49.41684 | 12.71716 | 91° | 46km/h | 16425m | 5.5m/s | -52°C | 0% | 0hPa | 4.8V | 00:00:00 | 00:00:00 | 00:00:00 | |
| OE5MMP-10 | 2026-09-02 09:42:21 | 49.41683 | 12.71734 | 98° | 47km/h | 16425m | 3.0m/s | 0°C | 0% | 0hPa | 4.8V | 00:00:00 | 00:00:00 | 00:00:00 | |
| BIOWL1-15 | 2026-09-02 09:42:18 | 49.41684 | 12.71682 | 95° | 42km/h | 16415m | 4.7m/s | -52°C | 0% | 0hPa | 4.8V | 00:00:00 | 00:00:00 | 00:00:00 | |
| DK7TD | 2026-09-02 09:42:17 | 49.41688 | 12.71650 | 102° | 44km/h | 16407m | 4.7m/s | -52.2°C | 0% | 0hPa | 4.8V | 00:00:00 | 00:00:00 | 00:00:00 | |
| DO3MHA-11 | 2026-09-02 09:42:16 | 49.41686 | 12.71650 | 103° | 51km/h | 16407m | 4.6m/s | 0°C | 0% | 0hPa | 4.8V | 00:00:00 | 00:00:00 | 00:00:00 | |
| PETON7-10 | 2026-09-02 09:42:12 | 49.41697 | 12.71574 | 101° | 47km/h | 16389m | 5.0m/s | 0°C | 0% | 0hPa | 4.8V | 00:00:00 | 00:00:00 | 00:00:00 | |
| OE5DRO-10 | 2026-09-02 09:42:11 | 49.41701 | 12.71553 | 93° | 49km/h | 16380m | 4.5m/s | 0°C | 0% | 0hPa | 4.8V | 00:00:00 | 00:00:00 | 00:00:00 | |
| DF8AY | 2026-09-02 09:42:10 | 49.41701 | 12.71513 | 93° | 51km/h | 16375m | 4.5m/s | -52.3°C | 0% | 0hPa | 4.8V | 00:00:00 | 00:00:00 | 00:00:00 | |
| DB0NH | 2026-09-02 09:42:10 | 49.41701 | 12.71533 | 91° | 44km/h | 16375m | 4.5m/s | 0°C | 0% | 0hPa | 4.8V | 00:00:00 | 00:00:00 | 00:00:00 | |
| OE5DXL-15 | 2026-09-02 09:42:09 | 49.41701 | 12.71513 | 93° | 44km/h | 16375m | 4.4m/s | 0°C | 0% | 0hPa | 4.8V | 00:00:00 | 00:00:00 | 00:00:00 | |
| BIOWL1-15 | 2026-09-02 09:42:08 | 49.41703 | 12.71474 | 93° | 49km/h | 16366m | 4.8m/s | -52.3°C | 0% | 0hPa | 4.8V | 00:00:00 | 00:00:00 | 00:00:00 | |
| DO3MHA-11 | 2026-09-02 09:42:06 | 49.41704 | 12.71455 | 98° | 44km/h | 16358m | 3.5m/s | 0°C | 0% | 0hPa | 4.8V | 00:00:00 | 00:00:00 | 00:00:00 | |
| DK7TD | 2026-09-02 09:42:02 | 49.41717 | 12.71360 | 99° | 47km/h | 16340m | 4.9m/s | -52.3°C | 0% | 0hPa | 4.8V | 00:00:00 | 00:00:00 | 00:00:00 | |
| DF8AY | 2026-09-02 09:42:00 | 49.41719 | 12.71326 | 90° | 38km/h | 16331m | 5.2m/s | -52.3°C | 0% | 0hPa | 4.8V | 00:00:00 | 00:00:00 | 00:00:00 | |
| DB0UT-7 | 2026-09-02 09:41:59 | 49.41719 | 12.71326 | 91° | 42km/h | 16331m | 5.2m/s | 0°C | 0% | 0hPa | 4.8V | 00:00:00 | 00:00:00 | 00:00:00 | |
| BIOWL1-15 | 2026-09-02 09:41:58 | 49.41719 | 12.71296 | 96° | 42km/h | 16323m | 5m/s | -52.3°C | 0% | 0hPa | 4.8V | 00:00:00 | 00:00:00 | 00:00:00 | |
| PETON7-10 | 2026-09-02 09:41:57 | 49.41718 | 12.71296 | 96° | 42km/h | 16323m | 4.9m/s | 0°C | 0% | 0hPa | 0V | 00:00:00 | 00:00:00 | 00:00:00 | |
| DO3MHA-11 | 2026-09-02 09:41:56 | 49.41719 | 12.71279 | 96° | 44km/h | 16318m | 3.9m/s | 0°C | 0% | 0hPa | 0V | 00:00:00 | 00:00:00 | 00:00:00 | |
| DF2AP-13 | 2026-09-02 09:41:53 | 49.41727 | 12.71222 | 97° | 40km/h | 16301m | 3.9m/s | 0°C | 0% | 0hPa | 0V | 00:00:00 | 00:00:00 | 00:00:00 | |
| OE3JTB-15 | 2026-09-02 09:41:52 | 49.41727 | 12.71206 | 101° | 40km/h | 16301m | 5.3m/s | 0°C | 0% | 0hPa | 0V | 00:00:00 | 00:00:00 | 00:00:00 | |
| DM0DOS-11 | 2026-09-02 09:41:51 | 49.41740 | 12.71114 | 103° | 47km/h | 16275m | 5m/s | 0°C | 0% | 0hPa | 0V | 00:00:00 | 00:00:00 | 00:00:00 | |
| DO8TBO-1 | 2026-09-02 09:41:51 | 49.41731 | 12.71191 | 105° | 42km/h | 16292m | 3.5m/s | 0°C | 0% | 0hPa | 4.8V | 00:00:00 | 00:00:00 | 00:00:00 | |
| DF8AY | 2026-09-02 09:41:49 | 49.41737 | 12.71148 | 102° | 42km/h | 16284m | 5.4m/s | -52.4°C | 0% | 0hPa | 4.8V | 00:00:00 | 00:00:00 | 00:00:00 | |
| BIOWL1-15 | 2026-09-02 09:41:49 | 49.41742 | 12.71114 | 103° | 47km/h | 16275m | 5m/s | -52.5°C | 0% | 0hPa | 4.8V | 00:00:00 | 00:00:00 | 00:00:00 | |
| OE5WHR-10 | 2026-09-02 09:41:47 | 49.41739 | 12.71132 | 105° | 40km/h | 16275m | 3.6m/s | 0°C | 0% | 0hPa | 4.8V | 00:00:00 | 00:00:00 | 00:00:00 | |
| DO3MHA-11 | 2026-09-02 09:41:46 | 49.41740 | 12.71114 | 104° | 40km/h | 16275m | 5.0m/s | 0°C | 0% | 0hPa | 4.8V | 00:00:00 | 00:00:00 | 00:00:00 | |
| PETON7-10 | 2026-09-02 09:41:42 | 49.41749 | 12.71050 | 102° | 38km/h | 16253m | 3.8m/s | 0°C | 0% | 0hPa | 4.8V | 00:00:00 | 00:00:00 | 00:00:00 | |
| DK7TD | 2026-09-02 09:41:41 | 49.41752 | 12.71021 | 101° | 35km/h | 16249m | 4m/s | -52.5°C | 0% | 0hPa | 4.8V | 00:00:00 | 00:00:00 | 00:00:00 | |
| DB0NH | 2026-09-02 09:41:40 | 49.41752 | 12.71021 | 101° | 42km/h | 16244m | 3.9m/s | 0°C | 0% | 0hPa | 4.8V | 00:00:00 | 00:00:00 | 00:00:00 | |
| OE5DXL-15 | 2026-09-02 09:41:39 | 49.41754 | 12.71007 | 108° | 42km/h | 16244m | 5.2m/s | 0°C | 0% | 0hPa | 4.8V | 00:00:00 | 00:00:00 | 00:00:00 | |
| DF8AY | 2026-09-02 09:41:38 | 49.41761 | 12.70981 | 110° | 37km/h | 16235m | 5m/s | -52.4°C | 0% | 0hPa | 4.8V | 00:00:00 | 00:00:00 | 00:00:00 | |
| BIOWL1-15 | 2026-09-02 09:41:38 | 49.41766 | 12.70951 | 103° | 44km/h | 16225m | 5.4m/s | -52.4°C | 0% | 0hPa | 4.8V | 00:00:00 | 00:00:00 | 00:00:00 | |
| OE5MMP-10 | 2026-09-02 09:41:38 | 49.41758 | 12.70994 | 114° | 40km/h | 16235m | 4.0m/s | 0°C | 0% | 0hPa | 4.8V | 00:00:00 | 00:00:00 | 00:00:00 | |
| DO3MHA-11 | 2026-09-02 09:41:36 | 49.41764 | 12.70967 | 103° | 40km/h | 16225m | 4.1m/s | 0°C | 0% | 0hPa | 4.8V | 00:00:00 | 00:00:00 | 00:00:00 | |
| OE5DRO-10 | 2026-09-02 09:41:33 | 49.41771 | 12.70916 | 104° | 42km/h | 16212m | 4.0m/s | 0°C | 0% | 0hPa | 4.8V | 00:00:00 | 00:00:00 | 00:00:00 | |
| NBG1-10 | 2026-09-02 09:41:32 | 49.41774 | 12.70899 | 109° | 44km/h | 16207m | 5.1m/s | 0°C | 0% | 0hPa | 4.8V | 00:00:00 | 00:00:00 | 00:00:00 | |
| DB0UT-7 | 2026-09-02 09:41:30 | 49.41783 | 12.70860 | 120° | 46km/h | 16198m | 4.2m/s | 0°C | 0% | 0hPa | 4.8V | 00:00:00 | 00:00:00 | 00:00:00 | |
| DF8AY | 2026-09-02 09:41:27 | 49.41800 | 12.70819 | 109° | 47km/h | 16184m | 3.6m/s | -52.3°C | 0% | 0hPa | 4.8V | 00:00:00 | 00:00:00 | 00:00:00 | |
| BIOWL1-15 | 2026-09-02 09:41:25 | 49.41806 | 12.70784 | 101° | 46km/h | 16176m | 3.7m/s | -52.3°C | 0% | 0hPa | 4.8V | 00:00:00 | 00:00:00 | 00:00:00 | |
| OE3JTB-15 | 2026-09-02 09:41:23 | 49.41809 | 12.70767 | 107° | 47km/h | 16168m | 4.9m/s | 0°C | 0% | 0hPa | 0V | 00:00:00 | 00:00:00 | 00:00:00 | |
| DO8TBO-1 | 2026-09-02 09:41:21 | 49.41817 | 12.70733 | 112° | 49km/h | 16159m | 5.0m/s | 0°C | 0% | 0hPa | 0V | 00:00:00 | 00:00:00 | 00:00:00 | |
| DM0DOS-11 | 2026-09-02 09:41:20 | 49.41844 | 12.70623 | 108° | 49km/h | 16128m | 4.3m/s | 0°C | 0% | 0hPa | 0V | 00:00:00 | 00:00:00 | 00:00:00 | |
| DF8AY | 2026-09-02 09:41:17 | 49.41838 | 12.70656 | 106° | 40km/h | 16141m | 3.4m/s | -52.5°C | 0% | 0hPa | 4.8V | 00:00:00 | 00:00:00 | 00:00:00 | |
| OE5MMP-10 | 2026-09-02 09:41:17 | 49.41834 | 12.70656 | 111° | 46km/h | 16142m | 3.4m/s | 0°C | 0% | 0hPa | 4.8V | 00:00:00 | 00:00:00 | 00:00:00 | |
| DK7TD | 2026-09-02 09:41:15 | 49.41844 | 12.70623 | 108° | 49km/h | 16132m | 4.3m/s | -52.3°C | 0% | 0hPa | 4.8V | 00:00:00 | 00:00:00 | 00:00:00 | |
| BIOWL1-15 | 2026-09-02 09:41:14 | 49.41848 | 12.70605 | 108° | 47km/h | 16128m | 5m/s | -52.5°C | 0% | 0hPa | 4.8V | 00:00:00 | 00:00:00 | 00:00:00 | |
| PETON7-10 | 2026-09-02 09:41:12 | 49.41851 | 12.70588 | 107° | 49km/h | 16119m | 3.9m/s | 0°C | 0% | 0hPa | 0V | 00:00:00 | 00:00:00 | 00:00:00 | |
| DB0NH | 2026-09-02 09:41:10 | 49.41858 | 12.70555 | 111° | 53km/h | 16110m | 4.9m/s | 0°C | 0% | 0hPa | 0V | 00:00:00 | 00:00:00 | 00:00:00 | |
| OE5DXL-15 | 2026-09-02 09:41:09 | 49.41862 | 12.70538 | 110° | 53km/h | 16110m | 4.3m/s | 0°C | 0% | 0hPa | 0V | 00:00:00 | 00:00:00 | 00:00:00 | |
| DM0DOS-11 | 2026-09-02 09:41:08 | 49.41879 | 12.70431 | 105° | 49km/h | 16083m | 4.8m/s | 0°C | 0% | 0hPa | 0V | 00:00:00 | 00:00:00 | 00:00:00 | |
| DF8AY | 2026-09-02 09:41:06 | 49.41876 | 12.70468 | 106° | 49km/h | 16092m | 4.3m/s | -52.2°C | 0% | 0hPa | 4.8V | 00:00:00 | 00:00:00 | 00:00:00 | |
| DK7TD | 2026-09-02 09:41:04 | 49.41882 | 12.70431 | 106° | 49km/h | 16083m | 4.8m/s | -52.3°C | 0% | 0hPa | 4.8V | 00:00:00 | 00:00:00 | 00:00:00 | |
| OE5WHR-10 | 2026-09-02 09:41:03 | 49.41879 | 12.70431 | 106° | 53km/h | 16084m | 4.7m/s | 0°C | 0% | 0hPa | 4.8V | 00:00:00 | 00:00:00 | 00:00:00 | |
| NBG1-10 | 2026-09-02 09:40:59 | 49.41895 | 12.70357 | 105° | 57km/h | 16061m | 4.7m/s | 0°C | 0% | 0hPa | 4.8V | 00:00:00 | 00:00:00 | 00:00:00 | |
| PETON7-10 | 2026-09-02 09:40:57 | 49.41903 | 12.70317 | 108° | 55km/h | 16053m | 3.7m/s | 0°C | 0% | 0hPa | 4.8V | 00:00:00 | 00:00:00 | 00:00:00 | |
| DB0UT-7 | 2026-09-02 09:40:56 | 49.41903 | 12.70297 | 106° | 57km/h | 16053m | 4.7m/s | 0°C | 0% | 0hPa | 4.8V | 00:00:00 | 00:00:00 | 00:00:00 | |
| DF8AY | 2026-09-02 09:40:55 | 49.41913 | 12.70257 | 103° | 55km/h | 16044m | 4.5m/s | -52.2°C | 0% | 0hPa | 4.8V | 00:00:00 | 00:00:00 | 00:00:00 | |
| OE5MMP-10 | 2026-09-02 09:40:55 | 49.41910 | 12.70277 | 104° | 55km/h | 16044m | 4.5m/s | 0°C | 0% | 0hPa | 4.8V | 00:00:00 | 00:00:00 | 00:00:00 | |
| BIOWL1-15 | 2026-09-02 09:40:55 | 49.41918 | 12.70216 | 99° | 53km/h | 16034m | 3.9m/s | -52.2°C | 0% | 0hPa | 4.8V | 00:00:00 | 00:00:00 | 00:00:00 | |
| DO3MHA-11 | 2026-09-02 09:40:53 | 49.41916 | 12.70236 | 101° | 57km/h | 16034m | 5.3m/s | 0°C | 0% | 0hPa | 4.8V | 00:00:00 | 00:00:00 | 00:00:00 | |
| DO8TBO-1 | 2026-09-02 09:40:52 | 49.41918 | 12.70195 | 100° | 57km/h | 16030m | 3.1m/s | 0°C | 0% | 0hPa | 4.8V | 00:00:00 | 00:00:00 | 00:00:00 | |
| OE3JTB-15 | 2026-09-02 09:40:51 | 49.41921 | 12.70195 | 102° | 57km/h | 15970m | 4.9m/s | 0°C | 0% | 0hPa | 4.8V | 00:00:00 | 00:00:00 | 00:00:00 | |
| SP3BTT-10 | 2026-09-02 09:40:49 | 49.41927 | 12.70154 | 105° | 57km/h | 16018m | 3.5m/s | 0°C | 0% | 0hPa | 4.8V | 00:00:00 | 00:00:00 | 00:00:00 | |
| DK7TD | 2026-09-02 09:40:49 | 49.41931 | 12.70132 | 104° | 55km/h | 16018m | 3.5m/s | -52.2°C | 0% | 0hPa | 4.8V | 00:00:00 | 00:00:00 | 00:00:00 | |
| DF8AY | 2026-09-02 09:40:44 | 49.41944 | 12.70022 | 95° | 57km/h | 15996m | 5m/s | -52.1°C | 0% | 0hPa | 4.8V | 00:00:00 | 00:00:00 | 00:00:00 | |
| BIOWL1-15 | 2026-09-02 09:40:42 | 49.41949 | 12.69977 | 102° | 58km/h | 15987m | 4m/s | -52.2°C | 0% | 0hPa | 4.8V | 00:00:00 | 00:00:00 | 00:00:00 | |
| OE5WHR-10 | 2026-09-02 09:40:42 | 49.41946 | 12.69999 | 99° | 57km/h | 15987m | 4.2m/s | 0°C | 0% | 0hPa | 4.8V | 00:00:00 | 00:00:00 | 00:00:00 | |
| OE5DXL-15 | 2026-09-02 09:40:39 | 49.41954 | 12.69933 | 100° | 57km/h | 15978m | 4.1m/s | 0°C | 0% | 0hPa | 4.8V | 00:00:00 | 00:00:00 | 00:00:00 | |
| DK7TD | 2026-09-02 09:40:38 | 49.41958 | 12.69886 | 95° | 62km/h | 15969m | 3.9m/s | -52.2°C | 0% | 0hPa | 4.8V | 00:00:00 | 00:00:00 | 00:00:00 | |
| DM0DOS-11 | 2026-09-02 09:40:37 | 49.41963 | 12.69752 | 96° | 53km/h | 15939m | 3.9m/s | 0°C | 0% | 0hPa | 0V | 00:00:00 | 00:00:00 | 00:00:00 | |
| DB0NH | 2026-09-02 09:40:37 | 49.41957 | 12.69886 | 95° | 57km/h | 15970m | 3.9m/s | 0°C | 0% | 0hPa | 4.8V | 00:00:00 | 00:00:00 | 00:00:00 | |
| OE5DRO-10 | 2026-09-02 09:40:36 | 49.41959 | 12.69863 | 93° | 57km/h | 15961m | 5.2m/s | 0°C | 0% | 0hPa | 4.8V | 00:00:00 | 00:00:00 | 00:00:00 | |
| DF8AY | 2026-09-02 09:40:34 | 49.41960 | 12.69796 | 94° | 60km/h | 15952m | 3.3m/s | -52.3°C | 0% | 0hPa | 4.8V | 00:00:00 | 00:00:00 | 00:00:00 | |
| DO3MHA-11 | 2026-09-02 09:40:33 | 49.41960 | 12.69773 | 95° | 57km/h | 15948m | 4.9m/s | 0°C | 0% | 0hPa | 4.8V | 00:00:00 | 00:00:00 | 00:00:00 | |
| BIOWL1-15 | 2026-09-02 09:40:31 | 49.41965 | 12.69732 | 97° | 53km/h | 15939m | 5.7m/s | -52.3°C | 0% | 0hPa | 4.8V | 00:00:00 | 00:00:00 | 00:00:00 | |
| PETON7-10 | 2026-09-02 09:40:27 | 49.41969 | 12.69668 | 96° | 57km/h | 15920m | 4.0m/s | 0°C | 0% | 0hPa | 4.8V | 00:00:00 | 00:00:00 | 00:00:00 | |
| DB0UT-7 | 2026-09-02 09:40:26 | 49.41969 | 12.69647 | 99° | 58km/h | 15920m | 5.2m/s | 0°C | 0% | 0hPa | 4.8V | 00:00:00 | 00:00:00 | 00:00:00 | |
| DK7TD | 2026-09-02 09:40:25 | 49.41974 | 12.69626 | 101° | 58km/h | 15915m | 3.9m/s | -52.2°C | 0% | 0hPa | 4.8V | 00:00:00 | 00:00:00 | 00:00:00 | |
| DM0DOS-11 | 2026-09-02 09:40:25 | 49.41985 | 12.69520 | 98° | 57km/h | 15892m | 4.7m/s | 0°C | 0% | 0hPa | 0V | 00:00:00 | 00:00:00 | 00:00:00 | |
| NBG1-10 | 2026-09-02 09:40:24 | 49.41973 | 12.69604 | 103° | 58km/h | 15911m | 5.4m/s | 0°C | 0% | 0hPa | 4.8V | 00:00:00 | 00:00:00 | 00:00:00 | |
| DF8AY | 2026-09-02 09:40:23 | 49.41982 | 12.69563 | 103° | 55km/h | 15901m | 5.2m/s | -52.2°C | 0% | 0hPa | 4.8V | 00:00:00 | 00:00:00 | 00:00:00 | |
| DO3MHA-11 | 2026-09-02 09:40:23 | 49.41979 | 12.69584 | 104° | 57km/h | 15901m | 3.7m/s | 0°C | 0% | 0hPa | 4.8V | 00:00:00 | 00:00:00 | 00:00:00 | |
| DF2AP-13 | 2026-09-02 09:40:22 | 49.41980 | 12.69563 | 103° | 58km/h | 15901m | 5.1m/s | 0°C | 0% | 0hPa | 4.8V | 00:00:00 | 00:00:00 | 00:00:00 | |
| BIOWL1-15 | 2026-09-02 09:40:21 | 49.41987 | 12.69520 | 99° | 57km/h | 15892m | 4.7m/s | -52.2°C | 0% | 0hPa | 4.8V | 00:00:00 | 00:00:00 | 00:00:00 | |
| OE5WHR-10 | 2026-09-02 09:40:20 | 49.41986 | 12.69520 | 99° | 58km/h | 15892m | 4.6m/s | 0°C | 0% | 0hPa | 0V | 00:00:00 | 00:00:00 | 00:00:00 | |
| SP3BTT-10 | 2026-09-02 09:40:19 | 49.41989 | 12.69500 | 99° | 60km/h | 15883m | 4.5m/s | 0°C | 0% | 0hPa | 0V | 00:00:00 | 00:00:00 | 00:00:00 | |
| OE5DRO-10 | 2026-09-02 09:40:16 | 49.41997 | 12.69436 | 106° | 60km/h | 15870m | 3.6m/s | 0°C | 0% | 0hPa | 0V | 00:00:00 | 00:00:00 | 00:00:00 | |
| DM0DOS-11 | 2026-09-02 09:40:15 | 49.42020 | 12.69305 | 106° | 53km/h | 15843m | 3.8m/s | 0°C | 0% | 0hPa | 0V | 00:00:00 | 00:00:00 | 00:00:00 | |
| PETON7-10 | 2026-09-02 09:40:12 | 49.42013 | 12.69349 | 103° | 58km/h | 15852m | 3.5m/s | 0°C | 0% | 0hPa | 4.8V | 00:00:00 | 00:00:00 | 00:00:00 | |
| BIOWL1-15 | 2026-09-02 09:40:10 | 49.42025 | 12.69285 | 110° | 55km/h | 15843m | 4.8m/s | -51.9°C | 0% | 0hPa | 4.8V | 00:00:00 | 00:00:00 | 00:00:00 | |
| DK7TD | 2026-09-02 09:40:09 | 49.42030 | 12.69264 | 112° | 60km/h | 15838m | 4.6m/s | -51.9°C | 0% | 0hPa | 4.8V | 00:00:00 | 00:00:00 | 00:00:00 | |
| DB0NH | 2026-09-02 09:40:07 | 49.42030 | 12.69242 | 112° | 60km/h | 15835m | 3.2m/s | 0°C | 0% | 0hPa | 4.8V | 00:00:00 | 00:00:00 | 00:00:00 | |
| DF8AY | 2026-09-02 09:40:01 | 49.42070 | 12.69088 | 112° | 58km/h | 15804m | 5m/s | -51.9°C | 0% | 0hPa | 4.8V | 00:00:00 | 00:00:00 | 00:00:00 | |
| DO3MHA-11 | 2026-09-02 09:40:01 | 49.42065 | 12.69108 | 109° | 60km/h | 15804m | 3.6m/s | 0°C | 0% | 0hPa | 4.8V | 00:00:00 | 00:00:00 | 00:00:00 | |
| BIOWL1-15 | 2026-09-02 09:39:59 | 49.42082 | 12.69045 | 114° | 60km/h | 15795m | 5.1m/s | -52°C | 0% | 0hPa | 4.8V | 00:00:00 | 00:00:00 | 00:00:00 | |
| DK7TD | 2026-09-02 09:39:57 | 49.42096 | 12.69001 | 116° | 66km/h | 15787m | 4.7m/s | -52.1°C | 0% | 0hPa | 4.8V | 00:00:00 | 00:00:00 | 00:00:00 | |
| DB0UT-7 | 2026-09-02 09:39:56 | 49.42088 | 12.69001 | 116° | 64km/h | 15787m | 4.7m/s | 0°C | 0% | 0hPa | 0V | 00:00:00 | 00:00:00 | 00:00:00 | |
| DM0DOS-11 | 2026-09-02 09:39:53 | 49.42142 | 12.68828 | 110° | 60km/h | 15750m | 3.5m/s | 0°C | 0% | 0hPa | 0V | 00:00:00 | 00:00:00 | 00:00:00 | |
| DF2AP-13 | 2026-09-02 09:39:52 | 49.42115 | 12.68913 | 112° | 62km/h | 15771m | 4.9m/s | 0°C | 0% | 0hPa | 0V | 00:00:00 | 00:00:00 | 00:00:00 | |
| DF8AY | 2026-09-02 09:39:51 | 49.42132 | 12.68871 | 112° | 58km/h | 15762m | 4.2m/s | -52°C | 0% | 0hPa | 0V | 00:00:00 | 00:00:00 | 00:00:00 | |
| BIOWL1-15 | 2026-09-02 09:39:48 | 49.42148 | 12.68806 | 114° | 62km/h | 15750m | 5m/s | -51.9°C | 0% | 0hPa | 4.8V | 00:00:00 | 00:00:00 | 00:00:00 | |
| DK7TD | 2026-09-02 09:39:47 | 49.42154 | 12.68784 | 115° | 62km/h | 15746m | 3.1m/s | -51.8°C | 0% | 0hPa | 4.8V | 00:00:00 | 00:00:00 | 00:00:00 | |
| DM0DOS-11 | 2026-09-02 09:39:43 | 49.42193 | 12.68601 | 112° | 64km/h | 15708m | 3m/s | 0°C | 0% | 0hPa | 0V | 00:00:00 | 00:00:00 | 00:00:00 | |
| PETON7-10 | 2026-09-02 09:39:42 | 49.42173 | 12.68694 | 106° | 64km/h | 15725m | 4.1m/s | 0°C | 0% | 0hPa | 4.8V | 00:00:00 | 00:00:00 | 00:00:00 | |
| OE3JTB-15 | 2026-09-02 09:39:40 | 49.42182 | 12.68647 | 109° | 64km/h | 15716m | 4.1m/s | 0°C | 0% | 0hPa | 4.8V | 00:00:00 | 00:00:00 | 00:00:00 | |
| BIOWL1-15 | 2026-09-02 09:39:39 | 49.42199 | 12.68578 | 111° | 64km/h | 15708m | 3m/s | -51.8°C | 0% | 0hPa | 4.8V | 00:00:00 | 00:00:00 | 00:00:00 | |
| DO3MHA-11 | 2026-09-02 09:39:39 | 49.42181 | 12.68624 | 111° | 64km/h | 15716m | 4.1m/s | 0°C | 0% | 0hPa | 4.8V | 00:00:00 | 00:00:00 | 00:00:00 | |
| OE5DRO-10 | 2026-09-02 09:39:38 | 49.42193 | 12.68601 | 113° | 64km/h | 15708m | 3.0m/s | 0°C | 0% | 0hPa | 4.8V | 00:00:00 | 00:00:00 | 00:00:00 | |
| OE5WHR-10 | 2026-09-02 09:39:37 | 49.42194 | 12.68578 | 112° | 66km/h | 15708m | 3.0m/s | 0°C | 0% | 0hPa | 4.8V | 00:00:00 | 00:00:00 | 00:00:00 | |
| SP3BTT-10 | 2026-09-02 09:39:36 | 49.42199 | 12.68555 | 112° | 66km/h | 15704m | 4.9m/s | 0°C | 0% | 0hPa | 4.8V | 00:00:00 | 00:00:00 | 00:00:00 | |
| DK7TD | 2026-09-02 09:39:34 | 49.42215 | 12.68484 | 104° | 64km/h | 15690m | 3.2m/s | -51.8°C | 0% | 0hPa | 4.8V | 00:00:00 | 00:00:00 | 00:00:00 | |
| DM0DOS-11 | 2026-09-02 09:39:33 | 49.42234 | 12.68363 | 109° | 68km/h | 15669m | 5m/s | 0°C | 0% | 0hPa | 0V | 00:00:00 | 00:00:00 | 00:00:00 | |
| OE5MMP-10 | 2026-09-02 09:39:29 | 49.42233 | 12.68388 | 112° | 66km/h | 15669m | 4.0m/s | 0°C | 0% | 0hPa | 4.8V | 00:00:00 | 00:00:00 | 00:00:00 | |
| BIOWL1-15 | 2026-09-02 09:39:27 | 49.42247 | 12.68315 | 101° | 64km/h | 15660m | 4m/s | -51.6°C | 0% | 0hPa | 4.8V | 00:00:00 | 00:00:00 | 00:00:00 | |
| PETON7-10 | 2026-09-02 09:39:26 | 49.42244 | 12.68314 | 101° | 66km/h | 15661m | 4.0m/s | 0°C | 0% | 0hPa | 0V | 00:00:00 | 00:00:00 | 00:00:00 | |
| DB0UT-7 | 2026-09-02 09:39:25 | 49.42247 | 12.68290 | 102° | 66km/h | 15656m | 4.5m/s | 0°C | 0% | 0hPa | 0V | 00:00:00 | 00:00:00 | 00:00:00 | |
| DM0DOS-11 | 2026-09-02 09:39:23 | 49.42274 | 12.68118 | 100° | 66km/h | 15622m | 4.8m/s | 0°C | 0% | 0hPa | 0V | 00:00:00 | 00:00:00 | 00:00:00 | |
| DK7TD | 2026-09-02 09:39:22 | 49.42263 | 12.68192 | 105° | 66km/h | 15639m | 4.4m/s | -51.7°C | 0% | 0hPa | 4.8V | 00:00:00 | 00:00:00 | 00:00:00 | |
| DF2AP-13 | 2026-09-02 09:39:22 | 49.42259 | 12.68217 | 103° | 66km/h | 15639m | 4.4m/s | 0°C | 0% | 0hPa | 4.8V | 00:00:00 | 00:00:00 | 00:00:00 | |
| DO8TBO-1 | 2026-09-02 09:39:20 | 49.42267 | 12.68168 | 105° | 66km/h | 15631m | 4.0m/s | 0°C | 0% | 0hPa | 4.8V | 00:00:00 | 00:00:00 | 00:00:00 | |
| DO3MHA-11 | 2026-09-02 09:39:18 | 49.42274 | 12.68118 | 101° | 66km/h | 15622m | 4.8m/s | 0°C | 0% | 0hPa | 4.8V | 00:00:00 | 00:00:00 | 00:00:00 | |
| OE5WHR-10 | 2026-09-02 09:39:16 | 49.42279 | 12.68067 | 97° | 66km/h | 15613m | 5.1m/s | 0°C | 0% | 0hPa | 4.8V | 00:00:00 | 00:00:00 | 00:00:00 | |
| BIOWL1-15 | 2026-09-02 09:39:15 | 49.42281 | 12.68042 | 94° | 64km/h | 15613m | 3.4m/s | -51.6°C | 0% | 0hPa | 4.8V | 00:00:00 | 00:00:00 | 00:00:00 | |
| DM0DOS-11 | 2026-09-02 09:39:12 | 49.42299 | 12.67841 | 91° | 64km/h | 15573m | 3.7m/s | 0°C | 0% | 0hPa | 0V | 00:00:00 | 00:00:00 | 00:00:00 | |
| PETON7-10 | 2026-09-02 09:39:11 | 49.42287 | 12.67943 | 100° | 66km/h | 15596m | 3.7m/s | 0°C | 0% | 0hPa | 4.8V | 00:00:00 | 00:00:00 | 00:00:00 | |
| DK7TD | 2026-09-02 09:39:10 | 49.42296 | 12.67892 | 99° | 68km/h | 15587m | 3.7m/s | -51.5°C | 0% | 0hPa | 4.8V | 00:00:00 | 00:00:00 | 00:00:00 | |
| OE5DXL-15 | 2026-09-02 09:39:09 | 49.42296 | 12.67892 | 100° | 68km/h | 15587m | 3.6m/s | 0°C | 0% | 0hPa | 4.8V | 00:00:00 | 00:00:00 | 00:00:00 | |
| DO3MHA-11 | 2026-09-02 09:39:08 | 49.42296 | 12.67866 | 100° | 66km/h | 15582m | 5.5m/s | 0°C | 0% | 0hPa | 4.8V | 00:00:00 | 00:00:00 | 00:00:00 | |
| OE5MMP-10 | 2026-09-02 09:39:07 | 49.42299 | 12.67841 | 92° | 64km/h | 15573m | 3.7m/s | 0°C | 0% | 0hPa | 4.8V | 00:00:00 | 00:00:00 | 00:00:00 | |
| BIOWL1-15 | 2026-09-02 09:39:05 | 49.42303 | 12.67766 | 96° | 66km/h | 15565m | 4.4m/s | -51.7°C | 0% | 0hPa | 4.8V | 00:00:00 | 00:00:00 | 00:00:00 | |
| DM0DOS-11 | 2026-09-02 09:39:01 | 49.42313 | 12.67565 | 90° | 66km/h | 15527m | 5.3m/s | 0°C | 0% | 0hPa | 0V | 00:00:00 | 00:00:00 | 00:00:00 | |
| DK7TD | 2026-09-02 09:38:59 | 49.42312 | 12.67641 | 94° | 64km/h | 15544m | 4.8m/s | -51.8°C | 0% | 0hPa | 4.8V | 00:00:00 | 00:00:00 | 00:00:00 | |
| OE5DRO-10 | 2026-09-02 09:38:59 | 49.42312 | 12.67640 | 95° | 68km/h | 15540m | 4.8m/s | 0°C | 0% | 0hPa | 4.8V | 00:00:00 | 00:00:00 | 00:00:00 | |
| DO3MHA-11 | 2026-09-02 09:38:58 | 49.42312 | 12.67616 | 91° | 66km/h | 15540m | 3.6m/s | 0°C | 0% | 0hPa | 4.8V | 00:00:00 | 00:00:00 | 00:00:00 | |
| BIOWL1-15 | 2026-09-02 09:38:56 | 49.42312 | 12.67490 | 91° | 68km/h | 15518m | 5.5m/s | -51.8°C | 0% | 0hPa | 4.8V | 00:00:00 | 00:00:00 | 00:00:00 | |
| DB0UT-7 | 2026-09-02 09:38:55 | 49.42313 | 12.67540 | 89° | 71km/h | 15527m | 5.2m/s | 0°C | 0% | 0hPa | 0V | 00:00:00 | 00:00:00 | 00:00:00 | |
| OE5WHR-10 | 2026-09-02 09:38:54 | 49.42312 | 12.67515 | 89° | 71km/h | 15518m | 3.5m/s | 0°C | 0% | 0hPa | 0V | 00:00:00 | 00:00:00 | 00:00:00 | |
| DF2AP-13 | 2026-09-02 09:38:52 | 49.42312 | 12.67463 | 93° | 75km/h | 15509m | 4.3m/s | 0°C | 0% | 0hPa | 0V | 00:00:00 | 00:00:00 | 00:00:00 | |
| DM0DOS-11 | 2026-09-02 09:38:51 | 49.42310 | 12.67300 | 84° | 69km/h | 15483m | 4.9m/s | 0°C | 0% | 0hPa | 0V | 00:00:00 | 00:00:00 | 00:00:00 | |
| DO8TBO-1 | 2026-09-02 09:38:50 | 49.42314 | 12.67408 | 91° | 75km/h | 15500m | 4.2m/s | 0°C | 0% | 0hPa | 4.8V | 00:00:00 | 00:00:00 | 00:00:00 | |
| DO3MHA-11 | 2026-09-02 09:38:48 | 49.42313 | 12.67355 | 87° | 73km/h | 15492m | 4.5m/s | 0°C | 0% | 0hPa | 4.8V | 00:00:00 | 00:00:00 | 00:00:00 | |
| DK7TD | 2026-09-02 09:38:46 | 49.42308 | 12.67273 | 85° | 69km/h | 15483m | 3m/s | -52°C | 0% | 0hPa | 4.8V | 00:00:00 | 00:00:00 | 00:00:00 | |
| OE5MMP-10 | 2026-09-02 09:38:46 | 49.42310 | 12.67317 | 85° | 73km/h | 15483m | 4.9m/s | 0°C | 0% | 0hPa | 4.8V | 00:00:00 | 00:00:00 | 00:00:00 | |
| NBG1-10 | 2026-09-02 09:38:45 | 49.42310 | 12.67273 | 86° | 75km/h | 15483m | 2.9m/s | 0°C | 0% | 0hPa | 4.8V | 00:00:00 | 00:00:00 | 00:00:00 | |
| BIOWL1-15 | 2026-09-02 09:38:44 | 49.42306 | 12.67218 | 88° | 73km/h | 15474m | 4.1m/s | -52.1°C | 0% | 0hPa | 4.8V | 00:00:00 | 00:00:00 | 00:00:00 | |
| PETON7-10 | 2026-09-02 09:38:41 | 49.42306 | 12.67160 | 88° | 75km/h | 15466m | 5.2m/s | 0°C | 0% | 0hPa | 0V | 00:00:00 | 00:00:00 | 00:00:00 | |
| DM0DOS-11 | 2026-09-02 09:38:40 | 49.42297 | 12.66989 | 86° | 75km/h | 15435m | 3.4m/s | 0°C | 0% | 0hPa | 0V | 00:00:00 | 00:00:00 | 00:00:00 | |
| OE5DRO-10 | 2026-09-02 09:38:40 | 49.42304 | 12.67130 | 86° | 75km/h | 15457m | 5.2m/s | 0°C | 0% | 0hPa | 4.8V | 00:00:00 | 00:00:00 | 00:00:00 | |
| OE5DXL-15 | 2026-09-02 09:38:39 | 49.42302 | 12.67101 | 85° | 75km/h | 15452m | 5.2m/s | 0°C | 0% | 0hPa | 4.8V | 00:00:00 | 00:00:00 | 00:00:00 | |
| DO3MHA-11 | 2026-09-02 09:38:37 | 49.42299 | 12.67045 | 86° | 75km/h | 15444m | 4.6m/s | 0°C | 0% | 0hPa | 4.8V | 00:00:00 | 00:00:00 | 00:00:00 | |
| DK7TD | 2026-09-02 09:38:35 | 49.42296 | 12.66960 | 85° | 73km/h | 15435m | 4.6m/s | -52°C | 0% | 0hPa | 4.8V | 00:00:00 | 00:00:00 | 00:00:00 | |
| OE5WHR-10 | 2026-09-02 09:38:33 | 49.42294 | 12.66932 | 86° | 75km/h | 15427m | 3.0m/s | 0°C | 0% | 0hPa | 0V | 00:00:00 | 00:00:00 | 00:00:00 | |
| BIOWL1-15 | 2026-09-02 09:38:33 | 49.42293 | 12.66904 | 86° | 75km/h | 15427m | 4.7m/s | -52°C | 0% | 0hPa | 4.8V | 00:00:00 | 00:00:00 | 00:00:00 | |
| OE3JTB-15 | 2026-09-02 09:38:32 | 49.42293 | 12.66903 | 86° | 77km/h | 15427m | 4.7m/s | 0°C | 0% | 0hPa | 0V | 00:00:00 | 00:00:00 | 00:00:00 | |
| DM0DOS-11 | 2026-09-02 09:38:29 | 49.42276 | 12.66669 | 84° | 77km/h | 15385m | 5.5m/s | 0°C | 0% | 0hPa | 0V | 00:00:00 | 00:00:00 | 00:00:00 | |
| DO3MHA-11 | 2026-09-02 09:38:26 | 49.42280 | 12.66727 | 84° | 77km/h | 15396m | 5.0m/s | 0°C | 0% | 0hPa | 4.8V | 00:00:00 | 00:00:00 | 00:00:00 | |
| BIOWL1-15 | 2026-09-02 09:38:25 | 49.42269 | 12.66579 | 80° | 75km/h | 15376m | 3.9m/s | -51.8°C | 0% | 0hPa | 4.8V | 00:00:00 | 00:00:00 | 00:00:00 | |
| DB0UT-7 | 2026-09-02 09:38:25 | 49.42279 | 12.66698 | 84° | 75km/h | 15396m | 3.9m/s | 0°C | 0% | 0hPa | 4.8V | 00:00:00 | 00:00:00 | 00:00:00 | |
| DK7TD | 2026-09-02 09:38:24 | 49.42274 | 12.66638 | 84° | 78km/h | 15385m | 3.4m/s | -51.8°C | 0% | 0hPa | 4.8V | 00:00:00 | 00:00:00 | 00:00:00 | |
| OE5MMP-10 | 2026-09-02 09:38:24 | 49.42276 | 12.66669 | 85° | 77km/h | 15385m | 5.4m/s | 0°C | 0% | 0hPa | 0V | 00:00:00 | 00:00:00 | 00:00:00 | |
| DF2AP-13 | 2026-09-02 09:38:23 | 49.42274 | 12.66609 | 84° | 75km/h | 15372m | 5.1m/s | 0°C | 0% | 0hPa | 0V | 00:00:00 | 00:00:00 | 00:00:00 | |
| OE5DRO-10 | 2026-09-02 09:38:21 | 49.42268 | 12.66579 | 80° | 75km/h | 15372m | 5.1m/s | 0°C | 0% | 0hPa | 0V | 00:00:00 | 00:00:00 | 00:00:00 | |
| DO8TBO-1 | 2026-09-02 09:38:20 | 49.42265 | 12.66550 | 80° | 75km/h | 15367m | 5.1m/s | 0°C | 0% | 0hPa | 0V | 00:00:00 | 00:00:00 | 00:00:00 | |
| DM0DOS-11 | 2026-09-02 09:38:18 | 49.42250 | 12.66347 | 77° | 71km/h | 15340m | 4m/s | 0°C | 0% | 0hPa | 0V | 00:00:00 | 00:00:00 | 00:00:00 | |
| DO3MHA-11 | 2026-09-02 09:38:15 | 49.42255 | 12.66403 | 82° | 75km/h | 15349m | 3.4m/s | 0°C | 0% | 0hPa | 4.8V | 00:00:00 | 00:00:00 | 00:00:00 | |
| DK7TD | 2026-09-02 09:38:14 | 49.42246 | 12.66347 | 77° | 71km/h | 15340m | 4m/s | -51.7°C | 0% | 0hPa | 4.8V | 00:00:00 | 00:00:00 | 00:00:00 | |
| OE5MMP-10 | 2026-09-02 09:38:13 | 49.42250 | 12.66347 | 78° | 73km/h | 15340m | 4.0m/s | 0°C | 0% | 0hPa | 4.8V | 00:00:00 | 00:00:00 | 00:00:00 | |
| NBG1-10 | 2026-09-02 09:38:12 | 49.42246 | 12.66319 | 78° | 71km/h | 15335m | 4.6m/s | 0°C | 0% | 0hPa | 4.8V | 00:00:00 | 00:00:00 | 00:00:00 | |
| BIOWL1-15 | 2026-09-02 09:38:11 | 49.42234 | 12.66263 | 78° | 71km/h | 15327m | 5.2m/s | -51.6°C | 0% | 0hPa | 4.8V | 00:00:00 | 00:00:00 | 00:00:00 | |
| OE5DXL-15 | 2026-09-02 09:38:09 | 49.42230 | 12.66236 | 80° | 73km/h | 15317m | 4.6m/s | 0°C | 0% | 0hPa | 0V | 00:00:00 | 00:00:00 | 00:00:00 | |
| DM0DOS-11 | 2026-09-02 09:38:08 | 49.42214 | 12.66064 | 77° | 77km/h | 15294m | 4.8m/s | 0°C | 0% | 0hPa | 0V | 00:00:00 | 00:00:00 | 00:00:00 | |
| DO3MHA-11 | 2026-09-02 09:38:05 | 49.42218 | 12.66120 | 81° | 73km/h | 15299m | 3.4m/s | 0°C | 0% | 0hPa | 4.8V | 00:00:00 | 00:00:00 | 00:00:00 | |
| DK7TD | 2026-09-02 09:38:03 | 49.42205 | 12.66037 | 73° | 69km/h | 15290m | 4.1m/s | -51.3°C | 0% | 0hPa | 4.8V | 00:00:00 | 00:00:00 | 00:00:00 | |
| OE5MMP-10 | 2026-09-02 09:38:03 | 49.42210 | 12.66064 | 76° | 73km/h | 15290m | 4.8m/s | 0°C | 0% | 0hPa | 4.8V | 00:00:00 | 00:00:00 | 00:00:00 | |
| OE5DRO-10 | 2026-09-02 09:38:02 | 49.42205 | 12.66038 | 74° | 73km/h | 15285m | 4.9m/s | 0°C | 0% | 0hPa | 4.8V | 00:00:00 | 00:00:00 | 00:00:00 | |
| OE3JTB-15 | 2026-09-02 09:38:01 | 49.42199 | 12.65980 | 73° | 68km/h | 15263m | 3.7m/s | 0°C | 0% | 0hPa | 4.8V | 00:00:00 | 00:00:00 | 00:00:00 | |
| BIOWL1-15 | 2026-09-02 09:38:00 | 49.42194 | 12.65984 | 74° | 75km/h | 15281m | 3.9m/s | -51.3°C | 0% | 0hPa | 4.8V | 00:00:00 | 00:00:00 | 00:00:00 | |
| PETON7-10 | 2026-09-02 09:37:56 | 49.42177 | 12.65871 | 77° | 71km/h | 15259m | 3.7m/s | 0°C | 0% | 0hPa | 4.8V | 00:00:00 | 00:00:00 | 00:00:00 | |
| DB0UT-7 | 2026-09-02 09:37:55 | 49.42177 | 12.65843 | 76° | 69km/h | 15259m | 5.1m/s | 0°C | 0% | 0hPa | 4.8V | 00:00:00 | 00:00:00 | 00:00:00 | |
| SP3BTT-10 | 2026-09-02 09:37:54 | 49.42168 | 12.65816 | 73° | 68km/h | 15249m | 3.7m/s | 0°C | 0% | 0hPa | 4.8V | 00:00:00 | 00:00:00 | 00:00:00 | |
| DK7TD | 2026-09-02 09:37:52 | 49.42148 | 12.65737 | 69° | 73km/h | 15239m | 4.2m/s | -51.3°C | 0% | 0hPa | 4.8V | 00:00:00 | 00:00:00 | 00:00:00 | |
| OE5WHR-10 | 2026-09-02 09:37:50 | 49.42142 | 12.65711 | 73° | 68km/h | 15231m | 3.7m/s | 0°C | 0% | 0hPa | 4.8V | 00:00:00 | 00:00:00 | 00:00:00 | |
| BIOWL1-15 | 2026-09-02 09:37:49 | 49.42138 | 12.65685 | 76° | 71km/h | 15231m | 4.6m/s | -51.3°C | 0% | 0hPa | 4.8V | 00:00:00 | 00:00:00 | 00:00:00 | |
| DO3MHA-11 | 2026-09-02 09:37:44 | 49.42119 | 12.65552 | 72° | 68km/h | 15210m | 4.1m/s | 0°C | 0% | 0hPa | 4.8V | 00:00:00 | 00:00:00 | 00:00:00 | |
| OE5DRO-10 | 2026-09-02 09:37:43 | 49.42107 | 12.65527 | 70° | 66km/h | 15203m | 2.9m/s | 0°C | 0% | 0hPa | 4.8V | 00:00:00 | 00:00:00 | 00:00:00 | |
| DK7TD | 2026-09-02 09:37:42 | 49.42096 | 12.65476 | 74° | 68km/h | 15198m | 4.1m/s | -51.5°C | 0% | 0hPa | 4.8V | 00:00:00 | 00:00:00 | 00:00:00 | |
| OE5MMP-10 | 2026-09-02 09:37:41 | 49.42096 | 12.65476 | 74° | 68km/h | 15194m | 4.1m/s | 0°C | 0% | 0hPa | 4.8V | 00:00:00 | 00:00:00 | 00:00:00 | |
| BIOWL1-15 | 2026-09-02 09:37:39 | 49.42082 | 12.65399 | 75° | 69km/h | 15185m | 4.2m/s | -51.7°C | 0% | 0hPa | 4.8V | 00:00:00 | 00:00:00 | 00:00:00 | |
| DO3MHA-11 | 2026-09-02 09:37:35 | 49.42070 | 12.65324 | 75° | 64km/h | 15168m | 4.7m/s | 0°C | 0% | 0hPa | 4.8V | 00:00:00 | 00:00:00 | 00:00:00 | |
| DB0NH | 2026-09-02 09:37:32 | 49.42059 | 12.65249 | 73° | 55km/h | 15159m | 4.3m/s | 0°C | 0% | 0hPa | 4.8V | 00:00:00 | 00:00:00 | 00:00:00 | |
| DK7TD | 2026-09-02 09:37:31 | 49.42044 | 12.65201 | 72° | 66km/h | 15150m | 3.1m/s | -52°C | 0% | 0hPa | 4.8V | 00:00:00 | 00:00:00 | 00:00:00 | |
| BIOWL1-15 | 2026-09-02 09:37:30 | 49.42031 | 12.65133 | 74° | 60km/h | 15136m | 4.9m/s | -52.1°C | 0% | 0hPa | 4.8V | 00:00:00 | 00:00:00 | 00:00:00 | |
| OE5WHR-10 | 2026-09-02 09:37:28 | 49.42035 | 12.65155 | 75° | 55km/h | 15137m | 4.0m/s | 0°C | 0% | 0hPa | 4.8V | 00:00:00 | 00:00:00 | 00:00:00 | |
| PETON7-10 | 2026-09-02 09:37:26 | 49.42027 | 12.65110 | 75° | 55km/h | 15128m | 3.2m/s | 0°C | 0% | 0hPa | 4.8V | 00:00:00 | 00:00:00 | 00:00:00 | |
| DB0UT-7 | 2026-09-02 09:37:25 | 49.42027 | 12.65088 | 76° | 51km/h | 15128m | 4.8m/s | 0°C | 0% | 0hPa | 4.8V | 00:00:00 | 00:00:00 | 00:00:00 | |
| SP3BTT-10 | 2026-09-02 09:37:24 | 49.42019 | 12.65066 | 75° | 51km/h | 15120m | 3.5m/s | 0°C | 0% | 0hPa | 4.8V | 00:00:00 | 00:00:00 | 00:00:00 | |
| DK7TD | 2026-09-02 09:37:20 | 49.41998 | 12.64959 | 73° | 57km/h | 15102m | 4.5m/s | -52.1°C | 0% | 0hPa | 4.8V | 00:00:00 | 00:00:00 | 00:00:00 | |
| OE5MMP-10 | 2026-09-02 09:37:20 | 49.42002 | 12.64980 | 75° | 53km/h | 15103m | 3.3m/s | 0°C | 0% | 0hPa | 4.8V | 00:00:00 | 00:00:00 | 00:00:00 | |
| BIOWL1-15 | 2026-09-02 09:37:19 | 49.41989 | 12.64918 | 71° | 51km/h | 15094m | 4.9m/s | -52.1°C | 0% | 0hPa | 4.8V | 00:00:00 | 00:00:00 | 00:00:00 | |
| DO3MHA-11 | 2026-09-02 09:37:13 | 49.41973 | 12.64842 | 73° | 49km/h | 15073m | 5.1m/s | 0°C | 0% | 0hPa | 4.8V | 00:00:00 | 00:00:00 | 00:00:00 | |
| PETON7-10 | 2026-09-02 09:37:11 | 49.41966 | 12.64802 | 74° | 49km/h | 15064m | 5.1m/s | 0°C | 0% | 0hPa | 4.8V | 00:00:00 | 00:00:00 | 00:00:00 | |
| DK7TD | 2026-09-02 09:37:09 | 49.41954 | 12.64743 | 69° | 46km/h | 15055m | 4m/s | -52°C | 0% | 0hPa | 4.8V | 00:00:00 | 00:00:00 | 00:00:00 | |
| OE3JTB-15 | 2026-09-02 09:37:07 | 49.41949 | 12.64727 | 68° | 40km/h | 15038m | 4.8m/s | 0°C | 0% | 0hPa | 4.8V | 00:00:00 | 00:00:00 | 00:00:00 | |
| BIOWL1-15 | 2026-09-02 09:37:06 | 49.41945 | 12.64710 | 70° | 49km/h | 15046m | 4m/s | -52°C | 0% | 0hPa | 4.8V | 00:00:00 | 00:00:00 | 00:00:00 | |
| NBG1-10 | 2026-09-02 09:37:06 | 49.41949 | 12.64710 | 70° | 44km/h | 15046m | 3.9m/s | 0°C | 0% | 0hPa | 4.9V | 00:00:00 | 00:00:00 | 00:00:00 | |
| OE5DRO-10 | 2026-09-02 09:37:05 | 49.41941 | 12.64692 | 74° | 44km/h | 15038m | 4.3m/s | 0°C | 0% | 0hPa | 4.9V | 00:00:00 | 00:00:00 | 00:00:00 | |
| DB0NH | 2026-09-02 09:37:02 | 49.41936 | 12.64638 | 78° | 44km/h | 15030m | 4.6m/s | 0°C | 0% | 0hPa | 4.9V | 00:00:00 | 00:00:00 | 00:00:00 | |
| DK7TD | 2026-09-02 09:36:58 | 49.41916 | 12.64551 | 71° | 42km/h | 15008m | 3.3m/s | -51.9°C | 0% | 0hPa | 4.9V | 00:00:00 | 00:00:00 | 00:00:00 | |
| PETON7-10 | 2026-09-02 09:36:56 | 49.41913 | 12.64536 | 76° | 44km/h | 15000m | 4.7m/s | 0°C | 0% | 0hPa | 4.9V | 00:00:00 | 00:00:00 | 00:00:00 | |
| BIOWL1-15 | 2026-09-02 09:36:55 | 49.41911 | 12.64520 | 82° | 42km/h | 15000m | 3.4m/s | -51.8°C | 0% | 0hPa | 4.9V | 00:00:00 | 00:00:00 | 00:00:00 | |
| SP3BTT-10 | 2026-09-02 09:36:54 | 49.41910 | 12.64504 | 82° | 44km/h | 14992m | 4.6m/s | 0°C | 0% | 0hPa | 0V | 00:00:00 | 00:00:00 | 00:00:00 | |
| DO3MHA-11 | 2026-09-02 09:36:53 | 49.41910 | 12.64486 | 81° | 44km/h | 14992m | 3.5m/s | 0°C | 0% | 0hPa | 0V | 00:00:00 | 00:00:00 | 00:00:00 | |
| DO8TBO-1 | 2026-09-02 09:36:50 | 49.41901 | 12.64436 | 74° | 46km/h | 14979m | 4.0m/s | 0°C | 0% | 0hPa | 0V | 00:00:00 | 00:00:00 | 00:00:00 | |
| DM0DOS-11 | 2026-09-02 09:36:49 | 49.41894 | 12.64340 | 86° | 44km/h | 14954m | 4.5m/s | 0°C | 0% | 0hPa | 0V | 00:00:00 | 00:00:00 | 00:00:00 | |
| DF2AP-13 | 2026-09-02 09:36:49 | 49.41900 | 12.64420 | 74° | 46km/h | 14975m | 4.2m/s | 0°C | 0% | 0hPa | 4.8V | 00:00:00 | 00:00:00 | 00:00:00 | |
| DK7TD | 2026-09-02 09:36:47 | 49.41894 | 12.64375 | 87° | 42km/h | 14962m | 4.8m/s | -51.7°C | 0% | 0hPa | 4.8V | 00:00:00 | 00:00:00 | 00:00:00 | |
| BIOWL1-15 | 2026-09-02 09:36:45 | 49.41893 | 12.64340 | 87° | 44km/h | 14954m | 4.5m/s | -51.7°C | 0% | 0hPa | 4.8V | 00:00:00 | 00:00:00 | 00:00:00 | |
| DO3MHA-11 | 2026-09-02 09:36:43 | 49.41892 | 12.64323 | 84° | 42km/h | 14946m | 4.3m/s | 0°C | 0% | 0hPa | 0V | 00:00:00 | 00:00:00 | 00:00:00 | |
| PETON7-10 | 2026-09-02 09:36:41 | 49.41887 | 12.64288 | 78° | 46km/h | 14936m | 5.1m/s | 0°C | 0% | 0hPa | 0V | 00:00:00 | 00:00:00 | 00:00:00 | |
| DM0DOS-11 | 2026-09-02 09:36:40 | 49.41880 | 12.64177 | 89° | 46km/h | 14905m | 5.3m/s | 0°C | 0% | 0hPa | 0V | 00:00:00 | 00:00:00 | 00:00:00 | |
| OE5DXL-15 | 2026-09-02 09:36:39 | 49.41884 | 12.64258 | 80° | 46km/h | 14928m | 4.5m/s | 0°C | 0% | 0hPa | 4.9V | 00:00:00 | 00:00:00 | 00:00:00 | |
| DK7TD | 2026-09-02 09:36:36 | 49.41881 | 12.64212 | 90° | 42km/h | 14919m | 3.2m/s | -52°C | 0% | 0hPa | 4.9V | 00:00:00 | 00:00:00 | 00:00:00 | |
| OE5MMP-10 | 2026-09-02 09:36:36 | 49.41880 | 12.64212 | 91° | 47km/h | 14919m | 3.2m/s | 0°C | 0% | 0hPa | 4.9V | 00:00:00 | 00:00:00 | 00:00:00 | |
| BIOWL1-15 | 2026-09-02 09:36:35 | 49.41880 | 12.64177 | 85° | 51km/h | 14910m | 5.2m/s | -52°C | 0% | 0hPa | 4.9V | 00:00:00 | 00:00:00 | 00:00:00 | |
| DO3MHA-11 | 2026-09-02 09:36:34 | 49.41880 | 12.64158 | 85° | 49km/h | 14905m | 5.2m/s | 0°C | 0% | 0hPa | 0V | 00:00:00 | 00:00:00 | 00:00:00 | |
| NBG1-10 | 2026-09-02 09:36:33 | 49.41880 | 12.64158 | 85° | 44km/h | 14905m | 5.2m/s | 0°C | 0% | 0hPa | 0V | 00:00:00 | 00:00:00 | 00:00:00 | |
| DB0NH | 2026-09-02 09:36:32 | 49.41877 | 12.64139 | 83° | 44km/h | 14896m | 3.7m/s | 0°C | 0% | 0hPa | 0V | 00:00:00 | 00:00:00 | 00:00:00 | |
| DM0DOS-11 | 2026-09-02 09:36:28 | 49.41873 | 12.63971 | 88° | 49km/h | 14862m | 5m/s | 0°C | 0% | 0hPa | 0V | 00:00:00 | 00:00:00 | 00:00:00 | |
| DK7TD | 2026-09-02 09:36:26 | 49.41872 | 12.64030 | 91° | 51km/h | 14876m | 4.4m/s | -52.2°C | 0% | 0hPa | 4.9V | 00:00:00 | 00:00:00 | 00:00:00 | |
| OE5MMP-10 | 2026-09-02 09:36:26 | 49.41872 | 12.64030 | 92° | 46km/h | 14871m | 4.3m/s | 0°C | 0% | 0hPa | 4.9V | 00:00:00 | 00:00:00 | 00:00:00 | |
| PETON7-10 | 2026-09-02 09:36:25 | 49.41872 | 12.64010 | 92° | 44km/h | 14871m | 4.4m/s | 0°C | 0% | 0hPa | 4.9V | 00:00:00 | 00:00:00 | 00:00:00 | |
| BIOWL1-15 | 2026-09-02 09:36:24 | 49.41873 | 12.63971 | 89° | 49km/h | 14862m | 5m/s | -52.1°C | 0% | 0hPa | 4.9V | 00:00:00 | 00:00:00 | 00:00:00 | |
| OE5WHR-10 | 2026-09-02 09:36:24 | 49.41873 | 12.63990 | 91° | 42km/h | 14862m | 4.1m/s | 0°C | 0% | 0hPa | 4.8V | 00:00:00 | 00:00:00 | 00:00:00 | |
| DO3MHA-11 | 2026-09-02 09:36:23 | 49.41873 | 12.63971 | 89° | 44km/h | 14862m | 4.9m/s | 0°C | 0% | 0hPa | 4.8V | 00:00:00 | 00:00:00 | 00:00:00 | |
| DB0UT-7 | 2026-09-02 09:36:22 | 49.41873 | 12.63952 | 86° | 40km/h | 14858m | 3.1m/s | 0°C | 0% | 0hPa | 4.8V | 00:00:00 | 00:00:00 | 00:00:00 | |
| DF2AP-13 | 2026-09-02 09:36:19 | 49.41871 | 12.63903 | 91° | 40km/h | 14840m | 4.7m/s | 0°C | 0% | 0hPa | 4.8V | 00:00:00 | 00:00:00 | 00:00:00 | |
| DK7TD | 2026-09-02 09:36:15 | 49.41874 | 12.63821 | 86° | 42km/h | 14822m | 3.3m/s | -52.2°C | 0% | 0hPa | 4.8V | 00:00:00 | 00:00:00 | 00:00:00 | |
| BIOWL1-15 | 2026-09-02 09:36:13 | 49.41872 | 12.63790 | 91° | 38km/h | 14813m | 3.7m/s | -52.3°C | 0% | 0hPa | 4.8V | 00:00:00 | 00:00:00 | 00:00:00 | |
| DO3MHA-11 | 2026-09-02 09:36:13 | 49.41873 | 12.63805 | 87° | 40km/h | 14813m | 4.9m/s | 0°C | 0% | 0hPa | 4.9V | 00:00:00 | 00:00:00 | 00:00:00 | |
| PETON7-10 | 2026-09-02 09:36:10 | 49.41872 | 12.63759 | 94° | 42km/h | 14805m | 3.7m/s | 0°C | 0% | 0hPa | 4.9V | 00:00:00 | 00:00:00 | 00:00:00 | |
| OE5DXL-15 | 2026-09-02 09:36:09 | 49.41874 | 12.63743 | 99° | 42km/h | 14797m | 3.7m/s | 0°C | 0% | 0hPa | 4.9V | 00:00:00 | 00:00:00 | 00:00:00 | |
| OE5DRO-10 | 2026-09-02 09:36:06 | 49.41879 | 12.63697 | 96° | 40km/h | 14789m | 5.0m/s | 0°C | 0% | 0hPa | 4.9V | 00:00:00 | 00:00:00 | 00:00:00 | |
| OE5MMP-10 | 2026-09-02 09:36:05 | 49.41879 | 12.63681 | 96° | 42km/h | 14784m | 4.5m/s | 0°C | 0% | 0hPa | 4.9V | 00:00:00 | 00:00:00 | 00:00:00 | |
| DK7TD | 2026-09-02 09:36:04 | 49.41880 | 12.63651 | 91° | 37km/h | 14776m | 3.4m/s | -52.2°C | 0% | 0hPa | 4.9V | 00:00:00 | 00:00:00 | 00:00:00 | |
| BIOWL1-15 | 2026-09-02 09:36:03 | 49.41882 | 12.63621 | 102° | 42km/h | 14768m | 3.9m/s | -52.2°C | 0% | 0hPa | 4.9V | 00:00:00 | 00:00:00 | 00:00:00 | |
| OE5WHR-10 | 2026-09-02 09:36:02 | 49.41880 | 12.63637 | 95° | 42km/h | 14769m | 4.5m/s | 0°C | 0% | 0hPa | 4.9V | 00:00:00 | 00:00:00 | 00:00:00 | |
| NBG1-10 | 2026-09-02 09:36:00 | 49.41885 | 12.63606 | 111° | 42km/h | 14757m | 4.5m/s | 0°C | 0% | 0hPa | 4.9V | 00:00:00 | 00:00:00 | 00:00:00 | |
| PETON7-10 | 2026-09-02 09:35:56 | 49.41899 | 12.63541 | 101° | 42km/h | 14745m | 5.0m/s | 0°C | 0% | 0hPa | 4.9V | 00:00:00 | 00:00:00 | 00:00:00 | |
| OE5MMP-10 | 2026-09-02 09:35:55 | 49.41899 | 12.63526 | 96° | 38km/h | 14745m | 3.0m/s | 0°C | 0% | 0hPa | 4.9V | 00:00:00 | 00:00:00 | 00:00:00 | |
| DK7TD | 2026-09-02 09:35:54 | 49.41902 | 12.63498 | 97° | 38km/h | 14736m | 3.9m/s | -52°C | 0% | 0hPa | 4.9V | 00:00:00 | 00:00:00 | 00:00:00 | |
| SP3BTT-10 | 2026-09-02 09:35:54 | 49.41901 | 12.63512 | 94° | 42km/h | 14736m | 3.9m/s | 0°C | 0% | 0hPa | 0V | 00:00:00 | 00:00:00 | 00:00:00 | |
| DM0DOS-11 | 2026-09-02 09:35:52 | 49.41922 | 12.63410 | 109° | 40km/h | 14693m | 4.2m/s | 0°C | 0% | 0hPa | 0V | 00:00:00 | 00:00:00 | 00:00:00 | |
| DB0UT-7 | 2026-09-02 09:35:52 | 49.41900 | 12.63483 | 105° | 44km/h | 14732m | 3.6m/s | 0°C | 0% | 0hPa | 4.9V | 00:00:00 | 00:00:00 | 00:00:00 | |
| BIOWL1-15 | 2026-09-02 09:35:51 | 49.41907 | 12.63469 | 114° | 38km/h | 14728m | 3.9m/s | -52°C | 0% | 0hPa | 4.9V | 00:00:00 | 00:00:00 | 00:00:00 | |
| DF2AP-13 | 2026-09-02 09:35:49 | 49.41915 | 12.63440 | 111° | 44km/h | 14715m | 4.0m/s | 0°C | 0% | 0hPa | 4.9V | 00:00:00 | 00:00:00 | 00:00:00 | |
| OE5DRO-10 | 2026-09-02 09:35:47 | 49.41921 | 12.63409 | 110° | 44km/h | 14706m | 4.1m/s | 0°C | 0% | 0hPa | 4.9V | 00:00:00 | 00:00:00 | 00:00:00 | |
| OE5MMP-10 | 2026-09-02 09:35:45 | 49.41927 | 12.63377 | 104° | 44km/h | 14698m | 4.4m/s | 0°C | 0% | 0hPa | 4.9V | 00:00:00 | 00:00:00 | 00:00:00 | |
| DK7TD | 2026-09-02 09:35:43 | 49.41940 | 12.63325 | 120° | 46km/h | 14689m | 3.9m/s | -51.7°C | 0% | 0hPa | 4.9V | 00:00:00 | 00:00:00 | 00:00:00 | |
| DO3MHA-11 | 2026-09-02 09:35:43 | 49.41935 | 12.63342 | 114° | 44km/h | 14689m | 4.8m/s | 0°C | 0% | 0hPa | 0V | 00:00:00 | 00:00:00 | 00:00:00 | |
| PETON7-10 | 2026-09-02 09:35:40 | 49.41946 | 12.63296 | 116° | 44km/h | 14681m | 3.5m/s | 0°C | 0% | 0hPa | 0V | 00:00:00 | 00:00:00 | 00:00:00 | |
| DM0DOS-11 | 2026-09-02 09:35:39 | 49.41975 | 12.63203 | 118° | 46km/h | 14651m | 3.8m/s | 0°C | 0% | 0hPa | 0V | 00:00:00 | 00:00:00 | 00:00:00 | |
| OE5DXL-15 | 2026-09-02 09:35:39 | 49.41955 | 12.63282 | 117° | 46km/h | 14672m | 4.0m/s | 0°C | 0% | 0hPa | 4.9V | 00:00:00 | 00:00:00 | 00:00:00 | |
| BIOWL1-15 | 2026-09-02 09:35:38 | 49.41960 | 12.63267 | 113° | 44km/h | 14672m | 4m/s | -51.7°C | 0% | 0hPa | 4.9V | 00:00:00 | 00:00:00 | 00:00:00 | |
| OE5MMP-10 | 2026-09-02 09:35:34 | 49.41975 | 12.63203 | 119° | 44km/h | 14651m | 3.7m/s | 0°C | 0% | 0hPa | 4.9V | 00:00:00 | 00:00:00 | 00:00:00 | |
| DK7TD | 2026-09-02 09:35:32 | 49.41993 | 12.63158 | 125° | 46km/h | 14644m | 5m/s | -51.5°C | 0% | 0hPa | 4.9V | 00:00:00 | 00:00:00 | 00:00:00 | |
| BIOWL1-15 | 2026-09-02 09:35:29 | 49.42015 | 12.63098 | 116° | 46km/h | 14627m | 4.8m/s | -51.5°C | 0% | 0hPa | 4.9V | 00:00:00 | 00:00:00 | 00:00:00 | |
| DM0DOS-11 | 2026-09-02 09:35:28 | 49.42031 | 12.63043 | 120° | 40km/h | 14611m | 4.3m/s | 0°C | 0% | 0hPa | 0V | 00:00:00 | 00:00:00 | 00:00:00 | |
| OE5DRO-10 | 2026-09-02 09:35:28 | 49.42010 | 12.63114 | 114° | 47km/h | 14627m | 4.1m/s | 0°C | 0% | 0hPa | 4.9V | 00:00:00 | 00:00:00 | 00:00:00 | |
| NBG1-10 | 2026-09-02 09:35:26 | 49.42015 | 12.63082 | 119° | 51km/h | 14623m | 2.9m/s | 0°C | 0% | 0hPa | 4.9V | 00:00:00 | 00:00:00 | 00:00:00 | |
| PETON7-10 | 2026-09-02 09:35:25 | 49.42020 | 12.63067 | 119° | 47km/h | 14619m | 4.6m/s | 0°C | 0% | 0hPa | 4.9V | 00:00:00 | 00:00:00 | 00:00:00 | |
| OE5MMP-10 | 2026-09-02 09:35:23 | 49.42036 | 12.63040 | 126° | 47km/h | 14607m | 4.5m/s | 0°C | 0% | 0hPa | 4.9V | 00:00:00 | 00:00:00 | 00:00:00 | |
| DB0UT-7 | 2026-09-02 09:35:22 | 49.42036 | 12.63026 | 131° | 51km/h | 14607m | 4.5m/s | 0°C | 0% | 0hPa | 4.9V | 00:00:00 | 00:00:00 | 00:00:00 | |
| DK7TD | 2026-09-02 09:35:21 | 49.42060 | 12.62997 | 126° | 49km/h | 14598m | 3.8m/s | -51.5°C | 0% | 0hPa | 4.9V | 00:00:00 | 00:00:00 | 00:00:00 | |
| DO3MHA-11 | 2026-09-02 09:35:21 | 49.42051 | 12.63012 | 131° | 49km/h | 14598m | 4.3m/s | 0°C | 0% | 0hPa | 4.9V | 00:00:00 | 00:00:00 | 00:00:00 | |
| BIOWL1-15 | 2026-09-02 09:35:19 | 49.42080 | 12.62948 | 117° | 47km/h | 14586m | 4m/s | -51.6°C | 0% | 0hPa | 4.9V | 00:00:00 | 00:00:00 | 00:00:00 | |
| OE5WHR-10 | 2026-09-02 09:35:19 | 49.42067 | 12.62981 | 124° | 53km/h | 14590m | 4.5m/s | 0°C | 0% | 0hPa | 0V | 00:00:00 | 00:00:00 | 00:00:00 | |
| DM0DOS-11 | 2026-09-02 09:35:18 | 49.42094 | 12.62885 | 127° | 55km/h | 14570m | 3.7m/s | 0°C | 0% | 0hPa | 0V | 00:00:00 | 00:00:00 | 00:00:00 | |
| DO8TBO-1 | 2026-09-02 09:35:17 | 49.42080 | 12.62947 | 118° | 55km/h | 14582m | 3.9m/s | 0°C | 0% | 0hPa | 4.9V | 00:00:00 | 00:00:00 | 00:00:00 | |
| OE5MMP-10 | 2026-09-02 09:35:12 | 49.42105 | 12.62868 | 129° | 55km/h | 14565m | 4.7m/s | 0°C | 0% | 0hPa | 4.9V | 00:00:00 | 00:00:00 | 00:00:00 | |
| DK7TD | 2026-09-02 09:35:11 | 49.42126 | 12.62835 | 119° | 55km/h | 14557m | 4m/s | -51.8°C | 0% | 0hPa | 4.9V | 00:00:00 | 00:00:00 | 00:00:00 | |
| DO3MHA-11 | 2026-09-02 09:35:11 | 49.42111 | 12.62851 | 125° | 55km/h | 14561m | 3.4m/s | 0°C | 0% | 0hPa | 0V | 00:00:00 | 00:00:00 | 00:00:00 | |
| PETON7-10 | 2026-09-02 09:35:10 | 49.42119 | 12.62835 | 119° | 55km/h | 14557m | 4.0m/s | 0°C | 0% | 0hPa | 0V | 00:00:00 | 00:00:00 | 00:00:00 | |
| OE5DXL-15 | 2026-09-02 09:35:09 | 49.42132 | 12.62816 | 114° | 57km/h | 14553m | 4.5m/s | 0°C | 0% | 0hPa | 0V | 00:00:00 | 00:00:00 | 00:00:00 | |
| DM0DOS-11 | 2026-09-02 09:35:08 | 49.42163 | 12.62704 | 126° | 57km/h | 14529m | 4.9m/s | 0°C | 0% | 0hPa | 0V | 00:00:00 | 00:00:00 | 00:00:00 | |
| BIOWL1-15 | 2026-09-02 09:35:08 | 49.42154 | 12.62739 | 121° | 53km/h | 14537m | 5.2m/s | -52°C | 0% | 0hPa | 4.9V | 00:00:00 | 00:00:00 | 00:00:00 | |
| OE3JTB-15 | 2026-09-02 09:35:03 | 49.42158 | 12.62704 | 127° | 57km/h | 14529m | 4.9m/s | 0°C | 0% | 0hPa | 4.9V | 00:00:00 | 00:00:00 | 00:00:00 | |
| OE5MMP-10 | 2026-09-02 09:35:02 | 49.42177 | 12.62686 | 123° | 55km/h | 14521m | 2.9m/s | 0°C | 0% | 0hPa | 4.9V | 00:00:00 | 00:00:00 | 00:00:00 | |
| DO3MHA-11 | 2026-09-02 09:35:01 | 49.42178 | 12.62667 | 119° | 55km/h | 14521m | 4.6m/s | 0°C | 0% | 0hPa | 4.9V | 00:00:00 | 00:00:00 | 00:00:00 | |
| DK7TD | 2026-09-02 09:35:00 | 49.42195 | 12.62623 | 106° | 60km/h | 14512m | 5m/s | -52.1°C | 0% | 0hPa | 4.9V | 00:00:00 | 00:00:00 | 00:00:00 | |
| BIOWL1-15 | 2026-09-02 09:34:57 | 49.42220 | 12.62527 | 114° | 51km/h | 14492m | 4.2m/s | -52°C | 0% | 0hPa | 4.8V | 00:00:00 | 00:00:00 | 00:00:00 | |
| PETON7-10 | 2026-09-02 09:34:55 | 49.42210 | 12.62543 | 117° | 57km/h | 14493m | 3.3m/s | 0°C | 0% | 0hPa | 0V | 00:00:00 | 00:00:00 | 00:00:00 | |
| DM0DOS-11 | 2026-09-02 09:34:54 | 49.42242 | 12.62419 | 103° | 58km/h | 14466m | 3.4m/s | 0°C | 0% | 0hPa | 0V | 00:00:00 | 00:00:00 | 00:00:00 | |
| SP3BTT-10 | 2026-09-02 09:34:53 | 49.42225 | 12.62508 | 109° | 57km/h | 14484m | 3.4m/s | 0°C | 0% | 0hPa | 4.8V | 00:00:00 | 00:00:00 | 00:00:00 | |
| DB0UT-7 | 2026-09-02 09:34:52 | 49.42225 | 12.62488 | 108° | 58km/h | 14484m | 5.0m/s | 0°C | 0% | 0hPa | 4.8V | 00:00:00 | 00:00:00 | 00:00:00 | |
| DO3MHA-11 | 2026-09-02 09:34:51 | 49.42234 | 12.62465 | 107° | 58km/h | 14475m | 3.7m/s | 0°C | 0% | 0hPa | 4.8V | 00:00:00 | 00:00:00 | 00:00:00 | |
| DK7TD | 2026-09-02 09:34:49 | 49.42246 | 12.62397 | 107° | 55km/h | 14466m | 5m/s | -51.9°C | 0% | 0hPa | 4.8V | 00:00:00 | 00:00:00 | 00:00:00 | |
| DF2AP-13 | 2026-09-02 09:34:49 | 49.42242 | 12.62419 | 104° | 58km/h | 14467m | 3.3m/s | 0°C | 0% | 0hPa | 4.9V | 00:00:00 | 00:00:00 | 00:00:00 | |
| DO8TBO-1 | 2026-09-02 09:34:47 | 49.42250 | 12.62377 | 109° | 58km/h | 14458m | 4.0m/s | 0°C | 0% | 0hPa | 4.9V | 00:00:00 | 00:00:00 | 00:00:00 | |
| BIOWL1-15 | 2026-09-02 09:34:46 | 49.42261 | 12.62318 | 108° | 58km/h | 14448m | 4.4m/s | -51.7°C | 0% | 0hPa | 4.9V | 00:00:00 | 00:00:00 | 00:00:00 | |
| DM0DOS-11 | 2026-09-02 09:34:43 | 49.42279 | 12.62186 | 105° | 53km/h | 14422m | 3.4m/s | 0°C | 0% | 0hPa | 0V | 00:00:00 | 00:00:00 | 00:00:00 | |
| OE5MMP-10 | 2026-09-02 09:34:40 | 49.42276 | 12.62225 | 105° | 58km/h | 14427m | 4.5m/s | 0°C | 0% | 0hPa | 4.9V | 00:00:00 | 00:00:00 | 00:00:00 | |
| DK7TD | 2026-09-02 09:34:39 | 49.42283 | 12.62185 | 102° | 51km/h | 14422m | 5m/s | -51.6°C | 0% | 0hPa | 4.9V | 00:00:00 | 00:00:00 | 00:00:00 | |
| OE5DXL-15 | 2026-09-02 09:34:39 | 49.42280 | 12.62206 | 106° | 60km/h | 14427m | 3.8m/s | 0°C | 0% | 0hPa | 4.9V | 00:00:00 | 00:00:00 | 00:00:00 | |
| OE5WHR-10 | 2026-09-02 09:34:36 | 49.42288 | 12.62144 | 104° | 62km/h | 14409m | 4.3m/s | 0°C | 0% | 0hPa | 4.9V | 00:00:00 | 00:00:00 | 00:00:00 | |
| BIOWL1-15 | 2026-09-02 09:34:34 | 49.42297 | 12.62073 | 101° | 68km/h | 14401m | 4.6m/s | -51.4°C | 0% | 0hPa | 4.9V | 00:00:00 | 00:00:00 | 00:00:00 | |
| OE3JTB-15 | 2026-09-02 09:34:34 | 49.42294 | 12.62097 | 100° | 60km/h | 14384m | 3.1m/s | 0°C | 0% | 0hPa | 0V | 00:00:00 | 00:00:00 | 00:00:00 | |
| DM0DOS-11 | 2026-09-02 09:34:33 | 49.42309 | 12.61959 | 100° | 57km/h | 14380m | 2.9m/s | 0°C | 0% | 0hPa | 0V | 00:00:00 | 00:00:00 | 00:00:00 | |
| OE5DRO-10 | 2026-09-02 09:34:30 | 49.42306 | 12.62001 | 100° | 62km/h | 14384m | 5.0m/s | 0°C | 0% | 0hPa | 4.9V | 00:00:00 | 00:00:00 | 00:00:00 | |
| OE5MMP-10 | 2026-09-02 09:34:29 | 49.42306 | 12.61980 | 101° | 58km/h | 14384m | 5.0m/s | 0°C | 0% | 0hPa | 4.9V | 00:00:00 | 00:00:00 | 00:00:00 | |
| DO3MHA-11 | 2026-09-02 09:34:28 | 49.42309 | 12.61958 | 101° | 60km/h | 14380m | 2.8m/s | 0°C | 0% | 0hPa | 4.9V | 00:00:00 | 00:00:00 | 00:00:00 | |
| DK7TD | 2026-09-02 09:34:27 | 49.42317 | 12.61913 | 98° | 62km/h | 14373m | 3.4m/s | -51.3°C | 0% | 0hPa | 4.9V | 00:00:00 | 00:00:00 | 00:00:00 | |
| PETON7-10 | 2026-09-02 09:34:25 | 49.42319 | 12.61890 | 100° | 62km/h | 14364m | 5.0m/s | 0°C | 0% | 0hPa | 4.9V | 00:00:00 | 00:00:00 | 00:00:00 | |
| BIOWL1-15 | 2026-09-02 09:34:24 | 49.42326 | 12.61819 | 96° | 62km/h | 14355m | 3.8m/s | -51.3°C | 0% | 0hPa | 4.9V | 00:00:00 | 00:00:00 | 00:00:00 | |
| DM0DOS-11 | 2026-09-02 09:34:23 | 49.42332 | 12.61726 | 94° | 62km/h | 14340m | 4.7m/s | 0°C | 0% | 0hPa | 0V | 00:00:00 | 00:00:00 | 00:00:00 | |
| SP3BTT-10 | 2026-09-02 09:34:23 | 49.42324 | 12.61842 | 100° | 62km/h | 14356m | 4.9m/s | 0°C | 0% | 0hPa | 4.9V | 00:00:00 | 00:00:00 | 00:00:00 | |
| DB0UT-7 | 2026-09-02 09:34:22 | 49.42325 | 12.61819 | 96° | 62km/h | 14356m | 3.8m/s | 0°C | 0% | 0hPa | 4.9V | 00:00:00 | 00:00:00 | 00:00:00 | |
| DB0NH | 2026-09-02 09:34:20 | 49.42331 | 12.61772 | 98° | 62km/h | 14347m | 3.5m/s | 0°C | 0% | 0hPa | 4.9V | 00:00:00 | 00:00:00 | 00:00:00 | |
| DF2AP-13 | 2026-09-02 09:34:19 | 49.42332 | 12.61749 | 98° | 62km/h | 14340m | 3.7m/s | 0°C | 0% | 0hPa | 4.9V | 00:00:00 | 00:00:00 | 00:00:00 | |
| DO3MHA-11 | 2026-09-02 09:34:18 | 49.42332 | 12.61726 | 95° | 62km/h | 14340m | 4.6m/s | 0°C | 0% | 0hPa | 4.9V | 00:00:00 | 00:00:00 | 00:00:00 | |
| DK7TD | 2026-09-02 09:34:17 | 49.42337 | 12.61677 | 97° | 66km/h | 14331m | 4.2m/s | -51.3°C | 0% | 0hPa | 4.9V | 00:00:00 | 00:00:00 | 00:00:00 | |
| BIOWL1-15 | 2026-09-02 09:34:16 | 49.42344 | 12.61558 | 92° | 55km/h | 14312m | 4.2m/s | -51.2°C | 0% | 0hPa | 4.9V | 00:00:00 | 00:00:00 | 00:00:00 | |
| OE5WHR-10 | 2026-09-02 09:34:14 | 49.42339 | 12.61626 | 96° | 60km/h | 14323m | 4.7m/s | 0°C | 0% | 0hPa | 0V | 00:00:00 | 00:00:00 | 00:00:00 | |
| DM0DOS-11 | 2026-09-02 09:34:13 | 49.42343 | 12.61492 | 92° | 60km/h | 14295m | 4m/s | 0°C | 0% | 0hPa | 0V | 00:00:00 | 00:00:00 | 00:00:00 | |
| PETON7-10 | 2026-09-02 09:34:10 | 49.42343 | 12.61536 | 87° | 60km/h | 14304m | 4.1m/s | 0°C | 0% | 0hPa | 4.9V | 00:00:00 | 00:00:00 | 00:00:00 | |
| OE5DXL-15 | 2026-09-02 09:34:09 | 49.42343 | 12.61514 | 88° | 62km/h | 14304m | 3.2m/s | 0°C | 0% | 0hPa | 4.9V | 00:00:00 | 00:00:00 | 00:00:00 | |
| OE5MMP-10 | 2026-09-02 09:34:08 | 49.42343 | 12.61492 | 93° | 62km/h | 14296m | 4.0m/s | 0°C | 0% | 0hPa | 4.9V | 00:00:00 | 00:00:00 | 00:00:00 | |
| DK7TD | 2026-09-02 09:34:06 | 49.42346 | 12.61416 | 92° | 68km/h | 14287m | 3.5m/s | -51.2°C | 0% | 0hPa | 4.9V | 00:00:00 | 00:00:00 | 00:00:00 | |
| BIOWL1-15 | 2026-09-02 09:34:03 | 49.42346 | 12.61323 | 83° | 58km/h | 14271m | 3.2m/s | -51.2°C | 0% | 0hPa | 4.9V | 00:00:00 | 00:00:00 | 00:00:00 | |
| DM0DOS-11 | 2026-09-02 09:34:02 | 49.42344 | 12.61226 | 89° | 68km/h | 14250m | 4.2m/s | 0°C | 0% | 0hPa | 0V | 00:00:00 | 00:00:00 | 00:00:00 | |
| DF7PN | 2026-09-02 09:34:02 | 49.42346 | 12.61323 | 83° | 58km/h | 14271m | 3.2m/s | -51.2°C | -1.0% | -1.0hPa | 4.9V | 00:00:00 | 00:00:00 | 00:00:00 | |
| OE5MMP-10 | 2026-09-02 09:33:57 | 49.42344 | 12.61226 | 90° | 64km/h | 14251m | 4.2m/s | 0°C | 0% | 0hPa | 4.9V | 00:00:00 | 00:00:00 | 00:00:00 | |
| DK7TD | 2026-09-02 09:33:55 | 49.42344 | 12.61153 | 87° | 60km/h | 14241m | 5m/s | -51.3°C | 0% | 0hPa | 4.9V | 00:00:00 | 00:00:00 | 00:00:00 | |
| OE5WHR-10 | 2026-09-02 09:33:53 | 49.42342 | 12.61130 | 84° | 60km/h | 14233m | 4.0m/s | 0°C | 0% | 0hPa | 0V | 00:00:00 | 00:00:00 | 00:00:00 | |
| DB0UT-7 | 2026-09-02 09:33:52 | 49.42342 | 12.61106 | 85° | 60km/h | 14233m | 4.8m/s | 0°C | 0% | 0hPa | 0V | 00:00:00 | 00:00:00 | 00:00:00 | |
| DM0DOS-11 | 2026-09-02 09:33:51 | 49.42336 | 12.60955 | 89° | 62km/h | 14203m | 4.6m/s | 0°C | 0% | 0hPa | 0V | 00:00:00 | 00:00:00 | 00:00:00 | |
| BIOWL1-15 | 2026-09-02 09:33:51 | 49.42339 | 12.61058 | 86° | 68km/h | 14224m | 5.3m/s | -51.5°C | 0% | 0hPa | 4.9V | 00:00:00 | 00:00:00 | 00:00:00 | |
| OE5DRO-10 | 2026-09-02 09:33:50 | 49.42338 | 12.61057 | 86° | 60km/h | 14220m | 3.5m/s | 0°C | 0% | 0hPa | 4.9V | 00:00:00 | 00:00:00 | 00:00:00 | |
| DF2AP-13 | 2026-09-02 09:33:48 | 49.42336 | 12.61005 | 88° | 58km/h | 14215m | 4.8m/s | 0°C | 0% | 0hPa | 4.9V | 00:00:00 | 00:00:00 | 00:00:00 | |
| OE5MMP-10 | 2026-09-02 09:33:47 | 49.42336 | 12.60979 | 88° | 60km/h | 14211m | 3.5m/s | 0°C | 0% | 0hPa | 4.9V | 00:00:00 | 00:00:00 | 00:00:00 | |
| NBG1-10 | 2026-09-02 09:33:46 | 49.42336 | 12.60955 | 90° | 58km/h | 14203m | 4.6m/s | 0°C | 0% | 0hPa | 4.9V | 00:00:00 | 00:00:00 | 00:00:00 | |
| DK7TD | 2026-09-02 09:33:44 | 49.42335 | 12.60885 | 90° | 57km/h | 14195m | 3.9m/s | -51.4°C | 0% | 0hPa | 4.9V | 00:00:00 | 00:00:00 | 00:00:00 | |
| DB0NH | 2026-09-02 09:33:42 | 49.42334 | 12.60863 | 89° | 58km/h | 14186m | 4.5m/s | 0°C | 0% | 0hPa | 0V | 00:00:00 | 00:00:00 | 00:00:00 | |
| DM0DOS-11 | 2026-09-02 09:33:41 | 49.42331 | 12.60726 | 87° | 55km/h | 14157m | 3.5m/s | 0°C | 0% | 0hPa | 0V | 00:00:00 | 00:00:00 | 00:00:00 | |
| PETON7-10 | 2026-09-02 09:33:40 | 49.42333 | 12.60816 | 87° | 57km/h | 14179m | 3.7m/s | 0°C | 0% | 0hPa | 4.9V | 00:00:00 | 00:00:00 | 00:00:00 | |
| BIOWL1-15 | 2026-09-02 09:33:39 | 49.42332 | 12.60792 | 89° | 60km/h | 14178m | 4.2m/s | -51.3°C | 0% | 0hPa | 4.9V | 00:00:00 | 00:00:00 | 00:00:00 | |
| OE5DXL-15 | 2026-09-02 09:33:39 | 49.42332 | 12.60792 | 90° | 57km/h | 14179m | 4.2m/s | 0°C | 0% | 0hPa | 4.9V | 00:00:00 | 00:00:00 | 00:00:00 | |
| OE5MMP-10 | 2026-09-02 09:33:37 | 49.42332 | 12.60747 | 88° | 57km/h | 14170m | 4.9m/s | 0°C | 0% | 0hPa | 4.9V | 00:00:00 | 00:00:00 | 00:00:00 | |
| DO3MHA-11 | 2026-09-02 09:33:35 | 49.42330 | 12.60705 | 91° | 57km/h | 14162m | 4.7m/s | 0°C | 0% | 0hPa | 4.9V | 00:00:00 | 00:00:00 | 00:00:00 | |
| DK7TD | 2026-09-02 09:33:34 | 49.42331 | 12.60663 | 90° | 57km/h | 14153m | 4m/s | -51.2°C | 0% | 0hPa | 4.9V | 00:00:00 | 00:00:00 | 00:00:00 | |
| OE5WHR-10 | 2026-09-02 09:33:31 | 49.42332 | 12.60617 | 95° | 58km/h | 14139m | 4.0m/s | 0°C | 0% | 0hPa | 0V | 00:00:00 | 00:00:00 | 00:00:00 | |
| DM0DOS-11 | 2026-09-02 09:33:30 | 49.42335 | 12.60488 | 89° | 51km/h | 14113m | 3.4m/s | 0°C | 0% | 0hPa | 0V | 00:00:00 | 00:00:00 | 00:00:00 | |
| BIOWL1-15 | 2026-09-02 09:33:29 | 49.42335 | 12.60548 | 93° | 55km/h | 14130m | 4.8m/s | -51.2°C | 0% | 0hPa | 4.9V | 00:00:00 | 00:00:00 | 00:00:00 | |
| OE5MMP-10 | 2026-09-02 09:33:27 | 49.42335 | 12.60527 | 93° | 57km/h | 14121m | 3.3m/s | 0°C | 0% | 0hPa | 4.9V | 00:00:00 | 00:00:00 | 00:00:00 | |
| PETON7-10 | 2026-09-02 09:33:25 | 49.42335 | 12.60488 | 90° | 58km/h | 14113m | 3.4m/s | 0°C | 0% | 0hPa | 4.9V | 00:00:00 | 00:00:00 | 00:00:00 | |
| DK7TD | 2026-09-02 09:33:23 | 49.42338 | 12.60424 | 95° | 58km/h | 14104m | 3.6m/s | -51.4°C | 0% | 0hPa | 4.9V | 00:00:00 | 00:00:00 | 00:00:00 | |
| DB0UT-7 | 2026-09-02 09:33:21 | 49.42336 | 12.60401 | 98° | 57km/h | 14100m | 4.1m/s | 0°C | 0% | 0hPa | 4.9V | 00:00:00 | 00:00:00 | 00:00:00 | |
| BIOWL1-15 | 2026-09-02 09:33:20 | 49.42347 | 12.60332 | 96° | 58km/h | 14088m | 4.1m/s | -51.5°C | 0% | 0hPa | 4.9V | 00:00:00 | 00:00:00 | 00:00:00 | |
| DM0DOS-11 | 2026-09-02 09:33:19 | 49.42352 | 12.60243 | 92° | 57km/h | 14067m | 4.6m/s | 0°C | 0% | 0hPa | 0V | 00:00:00 | 00:00:00 | 00:00:00 | |
| DF2AP-13 | 2026-09-02 09:33:18 | 49.42346 | 12.60332 | 96° | 55km/h | 14088m | 4.0m/s | 0°C | 0% | 0hPa | 4.9V | 00:00:00 | 00:00:00 | 00:00:00 | |
| OE5MMP-10 | 2026-09-02 09:33:17 | 49.42347 | 12.60310 | 96° | 60km/h | 14083m | 4.7m/s | 0°C | 0% | 0hPa | 4.9V | 00:00:00 | 00:00:00 | 00:00:00 | |
| DO8TBO-1 | 2026-09-02 09:33:16 | 49.42349 | 12.60287 | 95° | 55km/h | 14075m | 4.3m/s | 0°C | 0% | 0hPa | 4.9V | 00:00:00 | 00:00:00 | 00:00:00 | |
| DO3MHA-11 | 2026-09-02 09:33:14 | 49.42351 | 12.60243 | 93° | 60km/h | 14067m | 4.5m/s | 0°C | 0% | 0hPa | 4.9V | 00:00:00 | 00:00:00 | 00:00:00 | |
| DK7TD | 2026-09-02 09:33:12 | 49.42356 | 12.60175 | 97° | 62km/h | 14058m | 5m/s | -51.7°C | 0% | 0hPa | 4.9V | 00:00:00 | 00:00:00 | 00:00:00 | |
| DB0NH | 2026-09-02 09:33:12 | 49.42354 | 12.60199 | 99° | 55km/h | 14058m | 4.2m/s | 0°C | 0% | 0hPa | 0V | 00:00:00 | 00:00:00 | 00:00:00 | |
| OE5DRO-10 | 2026-09-02 09:33:11 | 49.42356 | 12.60176 | 98° | 57km/h | 14054m | 3.7m/s | 0°C | 0% | 0hPa | 0V | 00:00:00 | 00:00:00 | 00:00:00 | |
| OE5WHR-10 | 2026-09-02 09:33:10 | 49.42358 | 12.60151 | 95° | 55km/h | 14049m | 3.7m/s | 0°C | 0% | 0hPa | 0V | 00:00:00 | 00:00:00 | 00:00:00 | |
| DM0DOS-11 | 2026-09-02 09:33:09 | 49.42363 | 12.60013 | 94° | 57km/h | 14028m | 3.5m/s | 0°C | 0% | 0hPa | 0V | 00:00:00 | 00:00:00 | 00:00:00 | |
| BIOWL1-15 | 2026-09-02 09:33:09 | 49.42362 | 12.60080 | 93° | 58km/h | 14041m | 5m/s | -51.9°C | 0% | 0hPa | 4.9V | 00:00:00 | 00:00:00 | 00:00:00 | |
| OE5MMP-10 | 2026-09-02 09:33:07 | 49.42362 | 12.60080 | 94° | 57km/h | 14041m | 4.9m/s | 0°C | 0% | 0hPa | 4.9V | 00:00:00 | 00:00:00 | 00:00:00 | |
| DK7TD | 2026-09-02 09:33:02 | 49.42371 | 12.59948 | 96° | 57km/h | 14015m | 4.9m/s | -52.1°C | 0% | 0hPa | 4.9V | 00:00:00 | 00:00:00 | 00:00:00 | |
| SP3BTT-10 | 2026-09-02 09:33:02 | 49.42369 | 12.59948 | 97° | 57km/h | 14015m | 4.9m/s | 0°C | 0% | 0hPa | 0V | 00:00:00 | 00:00:00 | 00:00:00 | |
| OE3JTB-15 | 2026-09-02 09:33:00 | 49.42373 | 12.59927 | 93° | 55km/h | 14010m | 4.2m/s | 0°C | 0% | 0hPa | 0V | 00:00:00 | 00:00:00 | 00:00:00 | |
| DM0DOS-11 | 2026-09-02 09:32:59 | 49.42377 | 12.59825 | 98° | 53km/h | 13984m | 4.5m/s | 0°C | 0% | 0hPa | 0V | 00:00:00 | 00:00:00 | 00:00:00 | |
| BIOWL1-15 | 2026-09-02 09:32:58 | 49.42376 | 12.59845 | 98° | 53km/h | 13993m | 3.9m/s | -52.1°C | 0% | 0hPa | 4.9V | 00:00:00 | 00:00:00 | 00:00:00 | |
| OE5MMP-10 | 2026-09-02 09:32:57 | 49.42374 | 12.59865 | 95° | 51km/h | 13993m | 5.0m/s | 0°C | 0% | 0hPa | 4.9V | 00:00:00 | 00:00:00 | 00:00:00 | |
| OE5DRO-10 | 2026-09-02 09:32:52 | 49.42384 | 12.59768 | 98° | 53km/h | 13971m | 3.8m/s | 0°C | 0% | 0hPa | 4.9V | 00:00:00 | 00:00:00 | 00:00:00 | |
| DK7TD | 2026-09-02 09:32:51 | 49.42386 | 12.59729 | 94° | 51km/h | 13967m | 4.7m/s | -52.1°C | 0% | 0hPa | 4.9V | 00:00:00 | 00:00:00 | 00:00:00 | |
| BIOWL1-15 | 2026-09-02 09:32:48 | 49.42395 | 12.59627 | 104° | 53km/h | 13945m | 3.4m/s | -52.1°C | 0% | 0hPa | 4.9V | 00:00:00 | 00:00:00 | 00:00:00 | |
| OE5WHR-10 | 2026-09-02 09:32:48 | 49.42388 | 12.59689 | 97° | 55km/h | 13954m | 4.9m/s | 0°C | 0% | 0hPa | 4.9V | 00:00:00 | 00:00:00 | 00:00:00 | |
| OE5MMP-10 | 2026-09-02 09:32:46 | 49.42392 | 12.59647 | 102° | 55km/h | 13946m | 5.2m/s | 0°C | 0% | 0hPa | 4.9V | 00:00:00 | 00:00:00 | 00:00:00 | |
| DO3MHA-11 | 2026-09-02 09:32:42 | 49.42404 | 12.59566 | 102° | 57km/h | 13929m | 4.0m/s | 0°C | 0% | 0hPa | 4.9V | 00:00:00 | 00:00:00 | 00:00:00 | |
| DK7TD | 2026-09-02 09:32:40 | 49.42408 | 12.59501 | 96° | 58km/h | 13921m | 3.7m/s | -51.8°C | 0% | 0hPa | 4.9V | 00:00:00 | 00:00:00 | 00:00:00 | |
| PETON7-10 | 2026-09-02 09:32:39 | 49.42406 | 12.59501 | 97° | 57km/h | 13921m | 3.7m/s | 0°C | 0% | 0hPa | 4.9V | 00:00:00 | 00:00:00 | 00:00:00 | |
| NBG1-10 | 2026-09-02 09:32:38 | 49.42407 | 12.59479 | 102° | 58km/h | 13917m | 4.5m/s | 0°C | 0% | 0hPa | 4.9V | 00:00:00 | 00:00:00 | 00:00:00 | |
| BIOWL1-15 | 2026-09-02 09:32:35 | 49.42425 | 12.59397 | 105° | 55km/h | 13899m | 4.9m/s | -51.8°C | 0% | 0hPa | 4.9V | 00:00:00 | 00:00:00 | 00:00:00 | |
| OE5DRO-10 | 2026-09-02 09:32:33 | 49.42428 | 12.59376 | 105° | 57km/h | 13891m | 3.8m/s | 0°C | 0% | 0hPa | 4.9V | 00:00:00 | 00:00:00 | 00:00:00 | |
| DO3MHA-11 | 2026-09-02 09:32:31 | 49.42433 | 12.59333 | 99° | 57km/h | 13882m | 4.0m/s | 0°C | 0% | 0hPa | 4.9V | 00:00:00 | 00:00:00 | 00:00:00 | |
| DK7TD | 2026-09-02 09:32:29 | 49.42443 | 12.59267 | 104° | 57km/h | 13873m | 4.5m/s | -51.7°C | 0% | 0hPa | 4.9V | 00:00:00 | 00:00:00 | 00:00:00 | |
| OE5WHR-10 | 2026-09-02 09:32:26 | 49.42446 | 12.59225 | 109° | 58km/h | 13865m | 5.0m/s | 0°C | 0% | 0hPa | 4.9V | 00:00:00 | 00:00:00 | 00:00:00 | |
| BIOWL1-15 | 2026-09-02 09:32:25 | 49.42459 | 12.59182 | 105° | 57km/h | 13856m | 3.8m/s | -51.7°C | 0% | 0hPa | 4.9V | 00:00:00 | 00:00:00 | 00:00:00 | |
| PETON7-10 | 2026-09-02 09:32:24 | 49.42456 | 12.59182 | 106° | 57km/h | 13856m | 3.8m/s | 0°C | 0% | 0hPa | 0V | 00:00:00 | 00:00:00 | 00:00:00 | |
| SP3BTT-10 | 2026-09-02 09:32:22 | 49.42462 | 12.59141 | 110° | 60km/h | 13848m | 4.4m/s | 0°C | 0% | 0hPa | 0V | 00:00:00 | 00:00:00 | 00:00:00 | |
| DB0UT-7 | 2026-09-02 09:32:21 | 49.42467 | 12.59121 | 110° | 62km/h | 13844m | 4.1m/s | 0°C | 0% | 0hPa | 0V | 00:00:00 | 00:00:00 | 00:00:00 | |
| DO3MHA-11 | 2026-09-02 09:32:20 | 49.42476 | 12.59102 | 107° | 57km/h | 13835m | 4.3m/s | 0°C | 0% | 0hPa | 0V | 00:00:00 | 00:00:00 | 00:00:00 | |
| DM0DOS-11 | 2026-09-02 09:32:18 | 49.42502 | 12.58953 | 110° | 55km/h | 13808m | 5.2m/s | 0°C | 0% | 0hPa | 0V | 00:00:00 | 00:00:00 | 00:00:00 | |
| DK7TD | 2026-09-02 09:32:18 | 49.42489 | 12.59038 | 107° | 60km/h | 13826m | 4.5m/s | -51.6°C | 0% | 0hPa | 4.9V | 00:00:00 | 00:00:00 | 00:00:00 | |
| DF2AP-13 | 2026-09-02 09:32:18 | 49.42484 | 12.59060 | 110° | 62km/h | 13826m | 4.0m/s | 0°C | 0% | 0hPa | 4.9V | 00:00:00 | 00:00:00 | 00:00:00 | |
| DO8TBO-1 | 2026-09-02 09:32:16 | 49.42493 | 12.59016 | 105° | 64km/h | 13817m | 3.9m/s | 0°C | 0% | 0hPa | 4.9V | 00:00:00 | 00:00:00 | 00:00:00 | |
| BIOWL1-15 | 2026-09-02 09:32:14 | 49.42507 | 12.58953 | 111° | 55km/h | 13808m | 5.2m/s | -51.5°C | 0% | 0hPa | 4.9V | 00:00:00 | 00:00:00 | 00:00:00 | |
| DB0NH | 2026-09-02 09:32:11 | 49.42511 | 12.58912 | 111° | 64km/h | 13800m | 5.0m/s | 0°C | 0% | 0hPa | 0V | 00:00:00 | 00:00:00 | 00:00:00 | |
| DO3MHA-11 | 2026-09-02 09:32:10 | 49.42522 | 12.58891 | 113° | 64km/h | 13790m | 5.0m/s | 0°C | 0% | 0hPa | 0V | 00:00:00 | 00:00:00 | 00:00:00 | |
| PETON7-10 | 2026-09-02 09:32:09 | 49.42522 | 12.58867 | 111° | 66km/h | 13790m | 5.0m/s | 0°C | 0% | 0hPa | 0V | 00:00:00 | 00:00:00 | 00:00:00 | |
| DM0DOS-11 | 2026-09-02 09:32:08 | 49.42560 | 12.58730 | 110° | 66km/h | 13760m | 4.4m/s | 0°C | 0% | 0hPa | 0V | 00:00:00 | 00:00:00 | 00:00:00 | |
| OE5WHR-10 | 2026-09-02 09:32:05 | 49.42550 | 12.58775 | 109° | 64km/h | 13768m | 4.5m/s | 0°C | 0% | 0hPa | 4.9V | 00:00:00 | 00:00:00 | 00:00:00 | |
| OE5MMP-10 | 2026-09-02 09:32:03 | 49.42560 | 12.58730 | 111° | 66km/h | 13760m | 4.3m/s | 0°C | 0% | 0hPa | 4.9V | 00:00:00 | 00:00:00 | 00:00:00 | |
| BIOWL1-15 | 2026-09-02 09:32:02 | 49.42566 | 12.58705 | 111° | 69km/h | 13760m | 3.7m/s | -51.8°C | 0% | 0hPa | 4.9V | 00:00:00 | 00:00:00 | 00:00:00 | |
| EDDB2-11 | 2026-09-02 09:32:02 | 49.42572 | 12.58680 | 108° | 68km/h | 13756m | 4.5m/s | -52.6°C | -1.0% | -1.0hPa | 0V | 00:00:00 | 00:00:00 | 00:00:00 | |
| OE3JTB-15 | 2026-09-02 09:32:01 | 49.42572 | 12.58680 | 109° | 62km/h | 13752m | 4.4m/s | 0°C | 0% | 0hPa | 0V | 00:00:00 | 00:00:00 | 00:00:00 | |
| DO3MHA-11 | 2026-09-02 09:32:00 | 49.42572 | 12.58655 | 110° | 64km/h | 13752m | 3.6m/s | 0°C | 0% | 0hPa | 0V | 00:00:00 | 00:00:00 | 00:00:00 | |
| DM0DOS-11 | 2026-09-02 09:31:58 | 49.42612 | 12.58489 | 109° | 64km/h | 13723m | 4.5m/s | 0°C | 0% | 0hPa | 0V | 00:00:00 | 00:00:00 | 00:00:00 | |
| BIOWL1-15 | 2026-09-02 09:31:54 | 49.42628 | 12.58444 | 113° | 64km/h | 13714m | 4.8m/s | -51.6°C | 0% | 0hPa | 4.9V | 00:00:00 | 00:00:00 | 00:00:00 | |
| PETON7-10 | 2026-09-02 09:31:54 | 49.42607 | 12.58512 | 110° | 60km/h | 13727m | 3.9m/s | 0°C | 0% | 0hPa | 4.9V | 00:00:00 | 00:00:00 | 00:00:00 | |
| OE5MMP-10 | 2026-09-02 09:31:52 | 49.42622 | 12.58466 | 111° | 60km/h | 13714m | 4.0m/s | 0°C | 0% | 0hPa | 4.9V | 00:00:00 | 00:00:00 | 00:00:00 | |
| DB0UT-7 | 2026-09-02 09:31:51 | 49.42621 | 12.58443 | 114° | 64km/h | 13714m | 4.7m/s | 0°C | 0% | 0hPa | 4.9V | 00:00:00 | 00:00:00 | 00:00:00 | |
| DK7TD | 2026-09-02 09:31:50 | 49.42635 | 12.58420 | 115° | 66km/h | 13710m | 3.2m/s | -51.5°C | 0% | 0hPa | 4.9V | 00:00:00 | 00:00:00 | 00:00:00 | |
| DO3MHA-11 | 2026-09-02 09:31:50 | 49.42635 | 12.58420 | 115° | 60km/h | 13706m | 3.2m/s | 0°C | 0% | 0hPa | 0V | 00:00:00 | 00:00:00 | 00:00:00 | |
| DM0DOS-11 | 2026-09-02 09:31:48 | 49.42667 | 12.58269 | 115° | 57km/h | 13681m | 5.1m/s | 0°C | 0% | 0hPa | 0V | 00:00:00 | 00:00:00 | 00:00:00 | |
| DF2AP-13 | 2026-09-02 09:31:48 | 49.42647 | 12.58374 | 109° | 62km/h | 13698m | 3.5m/s | 0°C | 0% | 0hPa | 4.9V | 00:00:00 | 00:00:00 | 00:00:00 | |
| DO8TBO-1 | 2026-09-02 09:31:46 | 49.42657 | 12.58331 | 111° | 62km/h | 13689m | 3.7m/s | 0°C | 0% | 0hPa | 4.9V | 00:00:00 | 00:00:00 | 00:00:00 | |
| OE5WHR-10 | 2026-09-02 09:31:44 | 49.42667 | 12.58289 | 112° | 62km/h | 13681m | 3.7m/s | 0°C | 0% | 0hPa | 4.9V | 00:00:00 | 00:00:00 | 00:00:00 | |
| BIOWL1-15 | 2026-09-02 09:31:43 | 49.42686 | 12.58228 | 114° | 60km/h | 13672m | 4.3m/s | -51.4°C | 0% | 0hPa | 4.9V | 00:00:00 | 00:00:00 | 00:00:00 | |
| OE5MMP-10 | 2026-09-02 09:31:41 | 49.42680 | 12.58228 | 114° | 60km/h | 13673m | 4.3m/s | 0°C | 0% | 0hPa | 0V | 00:00:00 | 00:00:00 | 00:00:00 | |
| DO3MHA-11 | 2026-09-02 09:31:40 | 49.42686 | 12.58207 | 114° | 60km/h | 13669m | 3.6m/s | 0°C | 0% | 0hPa | 0V | 00:00:00 | 00:00:00 | 00:00:00 | |
| PETON7-10 | 2026-09-02 09:31:39 | 49.42697 | 12.58184 | 114° | 62km/h | 13661m | 4.7m/s | 0°C | 0% | 0hPa | 0V | 00:00:00 | 00:00:00 | 00:00:00 | |
| DM0DOS-11 | 2026-09-02 09:31:38 | 49.42735 | 12.58057 | 118° | 58km/h | 13634m | 5.3m/s | 0°C | 0% | 0hPa | 0V | 00:00:00 | 00:00:00 | 00:00:00 | |
| DK7TD | 2026-09-02 09:31:37 | 49.42716 | 12.58119 | 111° | 60km/h | 13652m | 3.8m/s | -51.3°C | 0% | 0hPa | 4.9V | 00:00:00 | 00:00:00 | 00:00:00 | |
| OE5DRO-10 | 2026-09-02 09:31:35 | 49.42722 | 12.58097 | 114° | 64km/h | 13643m | 5.0m/s | 0°C | 0% | 0hPa | 4.9V | 00:00:00 | 00:00:00 | 00:00:00 | |
| OE3JTB-15 | 2026-09-02 09:31:32 | 49.42735 | 12.58036 | 118° | 68km/h | 13634m | 3.6m/s | 0°C | 0% | 0hPa | 4.9V | 00:00:00 | 00:00:00 | 00:00:00 | |
| OE5MMP-10 | 2026-09-02 09:31:31 | 49.42750 | 12.58016 | 120° | 64km/h | 13621m | 5.2m/s | 0°C | 0% | 0hPa | 4.9V | 00:00:00 | 00:00:00 | 00:00:00 | |
| BIOWL1-15 | 2026-09-02 09:31:30 | 49.42758 | 12.57994 | 120° | 66km/h | 13625m | 3.7m/s | -51.1°C | 0% | 0hPa | 4.9V | 00:00:00 | 00:00:00 | 00:00:00 | |
| DO3MHA-11 | 2026-09-02 09:31:30 | 49.42750 | 12.57994 | 120° | 64km/h | 13625m | 3.7m/s | 0°C | 0% | 0hPa | 0V | 00:00:00 | 00:00:00 | 00:00:00 | |
| DM0DOS-11 | 2026-09-02 09:31:27 | 49.42817 | 12.57819 | 124° | 64km/h | 13584m | 3.8m/s | 0°C | 0% | 0hPa | 0V | 00:00:00 | 00:00:00 | 00:00:00 | |
| DK7TD | 2026-09-02 09:31:26 | 49.42792 | 12.57881 | 117° | 62km/h | 13602m | 5.2m/s | -51°C | 0% | 0hPa | 4.9V | 00:00:00 | 00:00:00 | 00:00:00 | |
| PETON7-10 | 2026-09-02 09:31:24 | 49.42799 | 12.57860 | 120° | 69km/h | 13593m | 3.2m/s | 0°C | 0% | 0hPa | 4.9V | 00:00:00 | 00:00:00 | 00:00:00 | |
| OE5WHR-10 | 2026-09-02 09:31:22 | 49.42817 | 12.57819 | 125° | 69km/h | 13584m | 3.8m/s | 0°C | 0% | 0hPa | 4.9V | 00:00:00 | 00:00:00 | 00:00:00 | |
| DB0UT-7 | 2026-09-02 09:31:21 | 49.42817 | 12.57797 | 121° | 69km/h | 13584m | 4.1m/s | 0°C | 0% | 0hPa | 4.9V | 00:00:00 | 00:00:00 | 00:00:00 | |
| BIOWL1-15 | 2026-09-02 09:31:20 | 49.42842 | 12.57752 | 120° | 69km/h | 13576m | 4.7m/s | -51.1°C | 0% | 0hPa | 4.9V | 00:00:00 | 00:00:00 | 00:00:00 | |
| DF2AP-13 | 2026-09-02 09:31:17 | 49.42851 | 12.57705 | 117° | 69km/h | 13568m | 4.9m/s | 0°C | 0% | 0hPa | 0V | 00:00:00 | 00:00:00 | 00:00:00 | |
| DM0DOS-11 | 2026-09-02 09:31:16 | 49.42911 | 12.57563 | 122° | 75km/h | 13537m | 4.7m/s | 0°C | 0% | 0hPa | 0V | 00:00:00 | 00:00:00 | 00:00:00 | |
| DO8TBO-1 | 2026-09-02 09:31:16 | 49.42866 | 12.57682 | 117° | 69km/h | 13558m | 4.2m/s | 0°C | 0% | 0hPa | 4.9V | 00:00:00 | 00:00:00 | 00:00:00 | |
| DK7TD | 2026-09-02 09:31:14 | 49.42892 | 12.57611 | 120° | 69km/h | 13550m | 4.2m/s | -51.1°C | 0% | 0hPa | 4.9V | 00:00:00 | 00:00:00 | 00:00:00 | |
| DB0NH | 2026-09-02 09:31:11 | 49.42911 | 12.57563 | 123° | 68km/h | 13537m | 4.7m/s | 0°C | 0% | 0hPa | 4.9V | 00:00:00 | 00:00:00 | 00:00:00 | |
| BIOWL1-15 | 2026-09-02 09:31:09 | 49.42938 | 12.57489 | 116° | 71km/h | 13528m | 4.9m/s | -51.1°C | 0% | 0hPa | 4.9V | 00:00:00 | 00:00:00 | 00:00:00 | |
| OE5MMP-10 | 2026-09-02 09:31:09 | 49.42930 | 12.57514 | 119° | 69km/h | 13519m | 4.1m/s | 0°C | 0% | 0hPa | 0V | 00:00:00 | 00:00:00 | 00:00:00 | |
| DM0DOS-11 | 2026-09-02 09:31:06 | 49.42994 | 12.57320 | 118° | 68km/h | 13497m | 3.5m/s | 0°C | 0% | 0hPa | 0V | 00:00:00 | 00:00:00 | 00:00:00 | |
| OE3JTB-15 | 2026-09-02 09:31:03 | 49.42977 | 12.57367 | 120° | 68km/h | 13501m | 3.8m/s | 0°C | 0% | 0hPa | 4.9V | 00:00:00 | 00:00:00 | 00:00:00 | |
| DK7TD | 2026-09-02 09:31:01 | 49.43003 | 12.57296 | 117° | 71km/h | 13492m | 5.2m/s | -50.9°C | 0% | 0hPa | 4.9V | 00:00:00 | 00:00:00 | 00:00:00 | |
| OE5WHR-10 | 2026-09-02 09:31:00 | 49.42995 | 12.57296 | 118° | 68km/h | 13493m | 5.1m/s | 0°C | 0% | 0hPa | 0V | 00:00:00 | 00:00:00 | 00:00:00 | |
| OE5MMP-10 | 2026-09-02 09:30:59 | 49.43003 | 12.57270 | 118° | 68km/h | 13479m | 3.5m/s | 0°C | 0% | 0hPa | 0V | 00:00:00 | 00:00:00 | 00:00:00 | |
| DO3MHA-11 | 2026-09-02 09:30:58 | 49.43018 | 12.57247 | 113° | 68km/h | 13479m | 4.8m/s | 0°C | 0% | 0hPa | 0V | 00:00:00 | 00:00:00 | 00:00:00 | |
| BIOWL1-15 | 2026-09-02 09:30:58 | 49.43024 | 12.57222 | 113° | 68km/h | 13478m | 3.6m/s | -50.9°C | 0% | 0hPa | 4.9V | 00:00:00 | 00:00:00 | 00:00:00 | |
| OE5DRO-10 | 2026-09-02 09:30:56 | 49.43031 | 12.57198 | 114° | 66km/h | 13469m | 4.5m/s | 0°C | 0% | 0hPa | 0V | 00:00:00 | 00:00:00 | 00:00:00 | |
| PETON7-10 | 2026-09-02 09:30:54 | 49.43045 | 12.57151 | 118° | 68km/h | 13461m | 3.7m/s | 0°C | 0% | 0hPa | 0V | 00:00:00 | 00:00:00 | 00:00:00 | |
| DM0DOS-11 | 2026-09-02 09:30:52 | 49.43090 | 12.56987 | 109° | 68km/h | 13434m | 4.2m/s | 0°C | 0% | 0hPa | 0V | 00:00:00 | 00:00:00 | 00:00:00 | |
| DB0UT-7 | 2026-09-02 09:30:51 | 49.43063 | 12.57083 | 119° | 68km/h | 13452m | 5.1m/s | 0°C | 0% | 0hPa | 4.9V | 00:00:00 | 00:00:00 | 00:00:00 | |
| DK7TD | 2026-09-02 09:30:50 | 49.43078 | 12.57060 | 115° | 66km/h | 13447m | 3.9m/s | -51°C | 0% | 0hPa | 4.9V | 00:00:00 | 00:00:00 | 00:00:00 | |
| BIOWL1-15 | 2026-09-02 09:30:50 | 49.43096 | 12.56988 | 110° | 68km/h | 13434m | 4.2m/s | -50.9°C | 0% | 0hPa | 4.9V | 00:00:00 | 00:00:00 | 00:00:00 | |
| OE5MMP-10 | 2026-09-02 09:30:48 | 49.43090 | 12.57012 | 110° | 68km/h | 13434m | 4.1m/s | 0°C | 0% | 0hPa | 0V | 00:00:00 | 00:00:00 | 00:00:00 | |
| DF2AP-13 | 2026-09-02 09:30:47 | 49.43090 | 12.56988 | 110° | 68km/h | 13434m | 4.1m/s | 0°C | 0% | 0hPa | 0V | 00:00:00 | 00:00:00 | 00:00:00 | |
| DO8TBO-1 | 2026-09-02 09:30:45 | 49.43101 | 12.56939 | 114° | 68km/h | 13425m | 5.2m/s | 0°C | 0% | 0hPa | 0V | 00:00:00 | 00:00:00 | 00:00:00 | |
| DM0DOS-11 | 2026-09-02 09:30:42 | 49.43160 | 12.56749 | 106° | 68km/h | 13386m | 5.2m/s | 0°C | 0% | 0hPa | 0V | 00:00:00 | 00:00:00 | 00:00:00 | |
| DB0NH | 2026-09-02 09:30:41 | 49.43138 | 12.56848 | 115° | 68km/h | 13404m | 4.3m/s | 0°C | 0% | 0hPa | 4.9V | 00:00:00 | 00:00:00 | 00:00:00 | |
| OE5WHR-10 | 2026-09-02 09:30:39 | 49.43150 | 12.56799 | 108° | 68km/h | 13395m | 5.1m/s | 0°C | 0% | 0hPa | 4.9V | 00:00:00 | 00:00:00 | 00:00:00 | |
| DO3MHA-11 | 2026-09-02 09:30:37 | 49.43160 | 12.56749 | 107° | 68km/h | 13387m | 5.1m/s | 0°C | 0% | 0hPa | 4.9V | 00:00:00 | 00:00:00 | 00:00:00 | |
| BIOWL1-15 | 2026-09-02 09:30:37 | 49.43165 | 12.56724 | 109° | 69km/h | 13386m | 2.6m/s | -51.1°C | 0% | 0hPa | 4.9V | 00:00:00 | 00:00:00 | 00:00:00 | |
| OE3JTB-15 | 2026-09-02 09:30:34 | 49.43170 | 12.56674 | 112° | 68km/h | 13379m | 3.7m/s | 0°C | 0% | 0hPa | 4.9V | 00:00:00 | 00:00:00 | 00:00:00 | |
| DK7TD | 2026-09-02 09:30:33 | 49.43190 | 12.56625 | 112° | 69km/h | 13370m | 3.7m/s | -51°C | 0% | 0hPa | 4.9V | 00:00:00 | 00:00:00 | 00:00:00 | |
| SP3BTT-10 | 2026-09-02 09:30:28 | 49.43211 | 12.56527 | 109° | 69km/h | 13349m | 4.3m/s | 0°C | 0% | 0hPa | 4.9V | 00:00:00 | 00:00:00 | 00:00:00 | |
| OE5MMP-10 | 2026-09-02 09:30:26 | 49.43222 | 12.56476 | 109° | 69km/h | 13340m | 3.7m/s | 0°C | 0% | 0hPa | 4.9V | 00:00:00 | 00:00:00 | 00:00:00 | |
| BIOWL1-15 | 2026-09-02 09:30:26 | 49.43227 | 12.56451 | 108° | 69km/h | 13340m | 4.7m/s | -50.9°C | 0% | 0hPa | 4.9V | 00:00:00 | 00:00:00 | 00:00:00 | |
| PETON7-10 | 2026-09-02 09:30:24 | 49.43232 | 12.56425 | 107° | 68km/h | 13332m | 3.9m/s | 0°C | 0% | 0hPa | 4.9V | 00:00:00 | 00:00:00 | 00:00:00 | |
| DK7TD | 2026-09-02 09:30:21 | 49.43249 | 12.56322 | 105° | 69km/h | 13319m | 4.1m/s | -50.9°C | 0% | 0hPa | 4.9V | 00:00:00 | 00:00:00 | 00:00:00 | |
| DM0DOS-11 | 2026-09-02 09:30:19 | 49.43269 | 12.56165 | 100° | 68km/h | 13293m | 5m/s | 0°C | 0% | 0hPa | 0V | 00:00:00 | 00:00:00 | 00:00:00 | |
| OE5DRO-10 | 2026-09-02 09:30:18 | 49.43258 | 12.56266 | 106° | 68km/h | 13294m | 4.9m/s | 0°C | 0% | 0hPa | 5V | 00:00:00 | 00:00:00 | 00:00:00 | |
| OE5WHR-10 | 2026-09-02 09:30:17 | 49.43258 | 12.56245 | 105° | 68km/h | 13307m | 3.7m/s | 0°C | 0% | 0hPa | 5V | 00:00:00 | 00:00:00 | 00:00:00 | |
| BIOWL1-15 | 2026-09-02 09:30:17 | 49.43274 | 12.56165 | 100° | 68km/h | 13293m | 5m/s | -50.9°C | 0% | 0hPa | 4.9V | 00:00:00 | 00:00:00 | 00:00:00 | |
| DO3MHA-11 | 2026-09-02 09:30:15 | 49.43271 | 12.56191 | 101° | 66km/h | 13294m | 3.6m/s | 0°C | 0% | 0hPa | 5V | 00:00:00 | 00:00:00 | 00:00:00 | |
| DB0NH | 2026-09-02 09:30:11 | 49.43284 | 12.56091 | 104° | 69km/h | 13276m | 3.7m/s | 0°C | 0% | 0hPa | 5V | 00:00:00 | 00:00:00 | 00:00:00 | |
| PETON7-10 | 2026-09-02 09:30:09 | 49.43292 | 12.56044 | 105° | 68km/h | 13268m | 4.1m/s | 0°C | 0% | 0hPa | 5V | 00:00:00 | 00:00:00 | 00:00:00 | |
| DK7TD | 2026-09-02 09:30:07 | 49.43303 | 12.55967 | 103° | 69km/h | 13259m | 4.4m/s | -50.8°C | 0% | 0hPa | 5V | 00:00:00 | 00:00:00 | 00:00:00 | |
| BIOWL1-15 | 2026-09-02 09:30:06 | 49.43311 | 12.55915 | 102° | 66km/h | 13251m | 3.7m/s | -50.9°C | 0% | 0hPa | 5V | 00:00:00 | 00:00:00 | 00:00:00 | |
| DM0DOS-11 | 2026-09-02 09:30:06 | 49.43317 | 12.55839 | 101° | 66km/h | 13237m | 4.6m/s | 0°C | 0% | 0hPa | 0V | 00:00:00 | 00:00:00 | 00:00:00 | |
| OE5MMP-10 | 2026-09-02 09:30:05 | 49.43307 | 12.55915 | 104° | 68km/h | 13251m | 3.7m/s | 0°C | 0% | 0hPa | 5.0V | 00:00:00 | 00:00:00 | 00:00:00 | |
| DO3MHA-11 | 2026-09-02 09:30:04 | 49.43307 | 12.55915 | 102° | 68km/h | 13251m | 3.7m/s | 0°C | 0% | 0hPa | 5.0V | 00:00:00 | 00:00:00 | 00:00:00 | |
| DL1ZP-14 | 2026-09-02 09:30:03 | 49.43318 | 12.55864 | 103° | 68km/h | 13242m | 3.9m/s | -50.8°C | -1.0% | -1.0hPa | 5.0V | 00:00:00 | 00:00:00 | 00:00:00 | |
| OE5DRO-10 | 2026-09-02 09:29:58 | 49.43334 | 12.55762 | 106° | 71km/h | 13220m | 5.0m/s | 0°C | 0% | 0hPa | 0V | 00:00:00 | 00:00:00 | 00:00:00 | |
| OE5WHR-10 | 2026-09-02 09:29:56 | 49.43343 | 12.55712 | 106° | 71km/h | 13212m | 5.2m/s | 0°C | 0% | 0hPa | 0V | 00:00:00 | 00:00:00 | 00:00:00 | |
| DK7TD | 2026-09-02 09:29:54 | 49.43354 | 12.55661 | 108° | 68km/h | 13208m | 3.8m/s | 0°C | 0% | 0hPa | 0V | 00:00:00 | 00:00:00 | 00:00:00 | |
| DO3MHA-11 | 2026-09-02 09:29:54 | 49.43353 | 12.55661 | 108° | 73km/h | 13204m | 3.8m/s | 0°C | 0% | 0hPa | 5V | 00:00:00 | 00:00:00 | 00:00:00 | |
| BIOWL1-15 | 2026-09-02 09:29:53 | 49.43358 | 12.55636 | 103° | 68km/h | 13204m | 4m/s | -50.7°C | 0% | 0hPa | 5V | 00:00:00 | 00:00:00 | 00:00:00 | |
| PETON7-10 | 2026-09-02 09:29:53 | 49.43360 | 12.55636 | 102° | 71km/h | 13204m | 4.0m/s | 0°C | 0% | 0hPa | 0V | 00:00:00 | 00:00:00 | 00:00:00 | |
| BIOWL7-15 | 2026-09-02 09:29:51 | 49.43366 | 12.55555 | 103° | 73km/h | 13191m | 4.0m/s | -50.7°C | 0% | 0hPa | 0V | 00:00:00 | 00:00:00 | 00:00:00 | |
| DM0DOS-11 | 2026-09-02 09:29:50 | 49.43393 | 12.55417 | 105° | 69km/h | 13166m | 3.2m/s | 0°C | 0% | 0hPa | 0V | 00:00:00 | 00:00:00 | 00:00:00 | |
| DB0UT-7 | 2026-09-02 09:29:50 | 49.43366 | 12.55555 | 103° | 75km/h | 13191m | 4.0m/s | 0°C | 0% | 0hPa | 0V | 00:00:00 | 00:00:00 | 00:00:00 | |
| DF2AP-13 | 2026-09-02 09:29:48 | 49.43377 | 12.55470 | 104° | 75km/h | 13179m | 4.9m/s | 0°C | 0% | 0hPa | 0V | 00:00:00 | 00:00:00 | 00:00:00 | |
| DO8TBO-1 | 2026-09-02 09:29:45 | 49.43393 | 12.55417 | 106° | 75km/h | 13166m | 3.1m/s | 0°C | 0% | 0hPa | 0V | 00:00:00 | 00:00:00 | 00:00:00 | |
| DK7TD | 2026-09-02 09:29:43 | 49.43403 | 12.55365 | 107° | 69km/h | 13162m | 4m/s | 0°C | 0% | 0hPa | 0V | 00:00:00 | 00:00:00 | 00:00:00 | |
| OE5MMP-10 | 2026-09-02 09:29:43 | 49.43403 | 12.55365 | 107° | 71km/h | 13158m | 4.0m/s | 0°C | 0% | 0hPa | 5V | 00:00:00 | 00:00:00 | 00:00:00 | |
| BIOWL1-15 | 2026-09-02 09:29:42 | 49.43408 | 12.55340 | 105° | 68km/h | 13158m | 4m/s | -50.7°C | 0% | 0hPa | 5V | 00:00:00 | 00:00:00 | 00:00:00 | |
| DB0NH | 2026-09-02 09:29:41 | 49.43412 | 12.55314 | 105° | 75km/h | 13149m | 4.8m/s | 0°C | 0% | 0hPa | 0V | 00:00:00 | 00:00:00 | 00:00:00 | |
| DM0DOS-11 | 2026-09-02 09:29:39 | 49.43450 | 12.55128 | 108° | 71km/h | 13119m | 4.3m/s | 0°C | 0% | 0hPa | 0V | 00:00:00 | 00:00:00 | 00:00:00 | |
| OE5DXL-15 | 2026-09-02 09:29:39 | 49.43421 | 12.55261 | 105° | 75km/h | 13141m | 4.7m/s | 0°C | 0% | 0hPa | 5V | 00:00:00 | 00:00:00 | 00:00:00 | |
| OE5DRO-10 | 2026-09-02 09:29:38 | 49.43426 | 12.55233 | 106° | 75km/h | 13137m | 5.0m/s | 0°C | 0% | 0hPa | 5V | 00:00:00 | 00:00:00 | 00:00:00 | |
| OE3JTB-15 | 2026-09-02 09:29:35 | 49.43438 | 12.55154 | 111° | 73km/h | 13128m | 4.2m/s | 0°C | 0% | 0hPa | 5V | 00:00:00 | 00:00:00 | 00:00:00 | |
| BIOWL1-15 | 2026-09-02 09:29:34 | 49.43468 | 12.55047 | 106° | 73km/h | 13111m | 3.5m/s | -50.7°C | 0% | 0hPa | 5V | 00:00:00 | 00:00:00 | 00:00:00 | |
| OE5MMP-10 | 2026-09-02 09:29:32 | 49.43462 | 12.55075 | 109° | 77km/h | 13111m | 4.7m/s | 0°C | 0% | 0hPa | 0V | 00:00:00 | 00:00:00 | 00:00:00 | |
| DM0DOS-11 | 2026-09-02 09:29:29 | 49.43504 | 12.54847 | 107° | 75km/h | 13081m | 4.5m/s | 0°C | 0% | 0hPa | 0V | 00:00:00 | 00:00:00 | 00:00:00 | |
| BIOWL1-15 | 2026-09-02 09:29:26 | 49.43525 | 12.54760 | 104° | 80km/h | 13069m | 4.2m/s | -51°C | 0% | 0hPa | 5V | 00:00:00 | 00:00:00 | 00:00:00 | |
| PETON7-10 | 2026-09-02 09:29:23 | 49.43510 | 12.54819 | 106° | 77km/h | 13078m | 3.8m/s | 0°C | 0% | 0hPa | 0V | 00:00:00 | 00:00:00 | 00:00:00 | |
| DO3MHA-11 | 2026-09-02 09:29:22 | 49.43520 | 12.54790 | 106° | 77km/h | 13070m | 4.2m/s | 0°C | 0% | 0hPa | 0V | 00:00:00 | 00:00:00 | 00:00:00 | |
| DB0UT-7 | 2026-09-02 09:29:20 | 49.43525 | 12.54730 | 103° | 75km/h | 13066m | 3.4m/s | 0°C | 0% | 0hPa | 0V | 00:00:00 | 00:00:00 | 00:00:00 | |
| DM0DOS-11 | 2026-09-02 09:29:19 | 49.43554 | 12.54562 | 103° | 71km/h | 13041m | 4.2m/s | 0°C | 0% | 0hPa | 0V | 00:00:00 | 00:00:00 | 00:00:00 | |
| OE5DRO-10 | 2026-09-02 09:29:19 | 49.43534 | 12.54701 | 105° | 75km/h | 13057m | 4.9m/s | 0°C | 0% | 0hPa | 5V | 00:00:00 | 00:00:00 | 00:00:00 | |
| NBG1-10 | 2026-09-02 09:29:17 | 49.43545 | 12.54644 | 107° | 75km/h | 13049m | 4.1m/s | 0°C | 0% | 0hPa | 5V | 00:00:00 | 00:00:00 | 00:00:00 | |
| DO8TBO-1 | 2026-09-02 09:29:15 | 49.43554 | 12.54589 | 103° | 73km/h | 13041m | 3.2m/s | 0°C | 0% | 0hPa | 5V | 00:00:00 | 00:00:00 | 00:00:00 | |
| OE5WHR-10 | 2026-09-02 09:29:13 | 49.43563 | 12.54535 | 105° | 75km/h | 13034m | 4.0m/s | 0°C | 0% | 0hPa | 5V | 00:00:00 | 00:00:00 | 00:00:00 | |
| OE5MMP-10 | 2026-09-02 09:29:12 | 49.43562 | 12.54508 | 104° | 75km/h | 13034m | 3.5m/s | 0°C | 0% | 0hPa | 5V | 00:00:00 | 00:00:00 | 00:00:00 | |
| BIOWL1-15 | 2026-09-02 09:29:11 | 49.43578 | 12.54452 | 109° | 77km/h | 13025m | 3.3m/s | -51.1°C | 0% | 0hPa | 5V | 00:00:00 | 00:00:00 | 00:00:00 | |
| DB0NH | 2026-09-02 09:29:10 | 49.43572 | 12.54452 | 109° | 73km/h | 13025m | 3.2m/s | 0°C | 0% | 0hPa | 0V | 00:00:00 | 00:00:00 | 00:00:00 | |
| DM0DOS-11 | 2026-09-02 09:29:09 | 49.43602 | 12.54282 | 98° | 71km/h | 12996m | 4.1m/s | 0°C | 0% | 0hPa | 0V | 00:00:00 | 00:00:00 | 00:00:00 | |
| PETON7-10 | 2026-09-02 09:29:08 | 49.43585 | 12.54395 | 102° | 75km/h | 13017m | 4.0m/s | 0°C | 0% | 0hPa | 0V | 00:00:00 | 00:00:00 | 00:00:00 | |
| DK7TD | 2026-09-02 09:29:04 | 49.43602 | 12.54282 | 99° | 71km/h | 13000m | 4.1m/s | 0°C | 0% | 0hPa | 0V | 00:00:00 | 00:00:00 | 00:00:00 | |
| OE3JTB-15 | 2026-09-02 09:29:04 | 49.43602 | 12.54282 | 99° | 73km/h | 12996m | 4.1m/s | 0°C | 0% | 0hPa | 5V | 00:00:00 | 00:00:00 | 00:00:00 | |
| DO3MHA-11 | 2026-09-02 09:29:02 | 49.43609 | 12.54227 | 105° | 75km/h | 12988m | 3.5m/s | 0°C | 0% | 0hPa | 5V | 00:00:00 | 00:00:00 | 00:00:00 | |
| OE5DRO-10 | 2026-09-02 09:29:00 | 49.43618 | 12.54170 | 101° | 73km/h | 12980m | 4.0m/s | 0°C | 0% | 0hPa | 5V | 00:00:00 | 00:00:00 | 00:00:00 | |
| BIOWL1-15 | 2026-09-02 09:28:59 | 49.43621 | 12.54142 | 99° | 75km/h | 12979m | 3.6m/s | -51.4°C | 0% | 0hPa | 5V | 00:00:00 | 00:00:00 | 00:00:00 | |
| DK7TD | 2026-09-02 09:28:54 | 49.43635 | 12.53970 | 100° | 73km/h | 12955m | 3.9m/s | 0°C | 0% | 0hPa | 0V | 00:00:00 | 00:00:00 | 00:00:00 | |
| PETON7-10 | 2026-09-02 09:28:53 | 49.43632 | 12.53970 | 101° | 71km/h | 12955m | 3.8m/s | 0°C | 0% | 0hPa | 5V | 00:00:00 | 00:00:00 | 00:00:00 | |
| DO3MHA-11 | 2026-09-02 09:28:52 | 49.43635 | 12.53943 | 101° | 73km/h | 12951m | 4.3m/s | 0°C | 0% | 0hPa | 5V | 00:00:00 | 00:00:00 | 00:00:00 | |
| OE5WHR-10 | 2026-09-02 09:28:51 | 49.43641 | 12.53914 | 99° | 71km/h | 12942m | 4.5m/s | 0°C | 0% | 0hPa | 5V | 00:00:00 | 00:00:00 | 00:00:00 | |
| DB0UT-7 | 2026-09-02 09:28:50 | 49.43642 | 12.53886 | 99° | 71km/h | 12942m | 3.6m/s | 0°C | 0% | 0hPa | 5V | 00:00:00 | 00:00:00 | 00:00:00 | |
| BIOWL1-15 | 2026-09-02 09:28:49 | 49.43648 | 12.53829 | 95° | 73km/h | 12934m | 3.1m/s | -51.3°C | 0% | 0hPa | 5V | 00:00:00 | 00:00:00 | 00:00:00 | |
| DF2AP-13 | 2026-09-02 09:28:47 | 49.43650 | 12.53800 | 98° | 69km/h | 12926m | 4.2m/s | 0°C | 0% | 0hPa | 5V | 00:00:00 | 00:00:00 | 00:00:00 | |
| DO8TBO-1 | 2026-09-02 09:28:45 | 49.43656 | 12.53745 | 100° | 69km/h | 12918m | 4.5m/s | 0°C | 0% | 0hPa | 5V | 00:00:00 | 00:00:00 | 00:00:00 | |
| NBG1-10 | 2026-09-02 09:28:43 | 49.43662 | 12.53692 | 104° | 68km/h | 12911m | 4.6m/s | 0°C | 0% | 0hPa | 5V | 00:00:00 | 00:00:00 | 00:00:00 | |
| BIOWL1-15 | 2026-09-02 09:28:42 | 49.43682 | 12.53561 | 102° | 71km/h | 12893m | 3.2m/s | -51.3°C | 0% | 0hPa | 5V | 00:00:00 | 00:00:00 | 00:00:00 | |
| DO3MHA-11 | 2026-09-02 09:28:42 | 49.43662 | 12.53667 | 107° | 71km/h | 12911m | 3.4m/s | 0°C | 0% | 0hPa | 0V | 00:00:00 | 00:00:00 | 00:00:00 | |
| OE5DRO-10 | 2026-09-02 09:28:41 | 49.43671 | 12.53641 | 105° | 69km/h | 12902m | 3.7m/s | 0°C | 0% | 0hPa | 0V | 00:00:00 | 00:00:00 | 00:00:00 | |
| OE5MMP-10 | 2026-09-02 09:28:40 | 49.43672 | 12.53614 | 101° | 71km/h | 12902m | 3.7m/s | 0°C | 0% | 0hPa | 0V | 00:00:00 | 00:00:00 | 00:00:00 | |
| PETON7-10 | 2026-09-02 09:28:38 | 49.43679 | 12.53561 | 102° | 69km/h | 12893m | 3.2m/s | 0°C | 0% | 0hPa | 0V | 00:00:00 | 00:00:00 | 00:00:00 | |
| OE3JTB-15 | 2026-09-02 09:28:34 | 49.43697 | 12.53452 | 105° | 66km/h | 12870m | 3.3m/s | 0°C | 0% | 0hPa | 0V | 00:00:00 | 00:00:00 | 00:00:00 | |
| DO3MHA-11 | 2026-09-02 09:28:32 | 49.43706 | 12.53397 | 104° | 68km/h | 12866m | 3.5m/s | 0°C | 0% | 0hPa | 0V | 00:00:00 | 00:00:00 | 00:00:00 | |
| OE5WHR-10 | 2026-09-02 09:28:30 | 49.43715 | 12.53345 | 108° | 66km/h | 12857m | 4.2m/s | 0°C | 0% | 0hPa | 0V | 00:00:00 | 00:00:00 | 00:00:00 | |
| DK7TD | 2026-09-02 09:28:28 | 49.43725 | 12.53296 | 107° | 66km/h | 12853m | 4.2m/s | 0°C | 0% | 0hPa | 0V | 00:00:00 | 00:00:00 | 00:00:00 | |
| BIOWL1-15 | 2026-09-02 09:28:27 | 49.43730 | 12.53271 | 107° | 69km/h | 12849m | 4m/s | -51.1°C | 0% | 0hPa | 5V | 00:00:00 | 00:00:00 | 00:00:00 | |
| PETON7-10 | 2026-09-02 09:28:23 | 49.43747 | 12.53166 | 105° | 64km/h | 12828m | 3.5m/s | 0°C | 0% | 0hPa | 5V | 00:00:00 | 00:00:00 | 00:00:00 | |
| OE5DRO-10 | 2026-09-02 09:28:21 | 49.43755 | 12.53116 | 105° | 64km/h | 12819m | 3.7m/s | 0°C | 0% | 0hPa | 5V | 00:00:00 | 00:00:00 | 00:00:00 | |
| DB0UT-7 | 2026-09-02 09:28:20 | 49.43755 | 12.53092 | 108° | 64km/h | 12819m | 4.6m/s | 0°C | 0% | 0hPa | 5V | 00:00:00 | 00:00:00 | 00:00:00 | |
| OE5MMP-10 | 2026-09-02 09:28:19 | 49.43764 | 12.53068 | 108° | 64km/h | 12811m | 3.7m/s | 0°C | 0% | 0hPa | 5V | 00:00:00 | 00:00:00 | 00:00:00 | |
| BIOWL1-15 | 2026-09-02 09:28:17 | 49.43780 | 12.52995 | 109° | 68km/h | 12803m | 3.6m/s | -51°C | 0% | 0hPa | 5V | 00:00:00 | 00:00:00 | 00:00:00 | |
| DF2AP-13 | 2026-09-02 09:28:17 | 49.43774 | 12.53020 | 108° | 66km/h | 12803m | 4.2m/s | 0°C | 0% | 0hPa | 0V | 00:00:00 | 00:00:00 | 00:00:00 | |
| DK7TD | 2026-09-02 09:28:16 | 49.43785 | 12.52971 | 108° | 66km/h | 12799m | 4.3m/s | 0°C | 0% | 0hPa | 0V | 00:00:00 | 00:00:00 | 00:00:00 | |
| DO8TBO-1 | 2026-09-02 09:28:15 | 49.43785 | 12.52971 | 109° | 66km/h | 12795m | 4.2m/s | 0°C | 0% | 0hPa | 5V | 00:00:00 | 00:00:00 | 00:00:00 | |
| NBG1-10 | 2026-09-02 09:28:10 | 49.43809 | 12.52856 | 108° | 66km/h | 12775m | 4.8m/s | 0°C | 0% | 0hPa | 5V | 00:00:00 | 00:00:00 | 00:00:00 | |
| OE5DXL-15 | 2026-09-02 09:28:09 | 49.43813 | 12.52832 | 106° | 66km/h | 12775m | 3.9m/s | 0°C | 0% | 0hPa | 5V | 00:00:00 | 00:00:00 | 00:00:00 | |
| OE5WHR-10 | 2026-09-02 09:28:08 | 49.43818 | 12.52807 | 107° | 66km/h | 12766m | 4.9m/s | 0°C | 0% | 0hPa | 5V | 00:00:00 | 00:00:00 | 00:00:00 | |
| BIOWL1-15 | 2026-09-02 09:28:05 | 49.43834 | 12.52735 | 110° | 64km/h | 12757m | 3.7m/s | -50.7°C | 0% | 0hPa | 5V | 00:00:00 | 00:00:00 | 00:00:00 | |
| OE3JTB-15 | 2026-09-02 09:28:04 | 49.43840 | 12.52711 | 113° | 66km/h | 12749m | 4.5m/s | 0°C | 0% | 0hPa | 5V | 00:00:00 | 00:00:00 | 00:00:00 | |
| DK7TD | 2026-09-02 09:28:04 | 49.43845 | 12.52689 | 111° | 62km/h | 12749m | 4.3m/s | 0°C | 0% | 0hPa | 0V | 00:00:00 | 00:00:00 | 00:00:00 | |
| OE5DRO-10 | 2026-09-02 09:28:02 | 49.43851 | 12.52666 | 109° | 66km/h | 12740m | 3.9m/s | 0°C | 0% | 0hPa | 5V | 00:00:00 | 00:00:00 | 00:00:00 | |
| DO3MHA-11 | 2026-09-02 09:27:59 | 49.43861 | 12.52596 | 110° | 66km/h | 12732m | 4.9m/s | 0°C | 0% | 0hPa | 5V | 00:00:00 | 00:00:00 | 00:00:00 | |
| OE5MMP-10 | 2026-09-02 09:27:57 | 49.43872 | 12.52549 | 113° | 68km/h | 12724m | 4.7m/s | 0°C | 0% | 0hPa | 5V | 00:00:00 | 00:00:00 | 00:00:00 | |
| BIOWL1-15 | 2026-09-02 09:27:56 | 49.43892 | 12.52502 | 112° | 66km/h | 12716m | 4.7m/s | -51.1°C | 0% | 0hPa | 5V | 00:00:00 | 00:00:00 | 00:00:00 | |
| PETON7-10 | 2026-09-02 09:27:53 | 49.43903 | 12.52454 | 110° | 69km/h | 12703m | 4.6m/s | 0°C | 0% | 0hPa | 5V | 00:00:00 | 00:00:00 | 00:00:00 | |
| DK7TD | 2026-09-02 09:27:53 | 49.43909 | 12.52430 | 111° | 68km/h | 12703m | 3.7m/s | 0°C | 0% | 0hPa | 0V | 00:00:00 | 00:00:00 | 00:00:00 | |
| DB0UT-7 | 2026-09-02 09:27:50 | 49.43915 | 12.52380 | 107° | 66km/h | 12695m | 3.9m/s | 0°C | 0% | 0hPa | 5V | 00:00:00 | 00:00:00 | 00:00:00 | |
| OE5MMP-10 | 2026-09-02 09:27:47 | 49.43937 | 12.52304 | 113° | 69km/h | 12678m | 4.4m/s | 0°C | 0% | 0hPa | 5V | 00:00:00 | 00:00:00 | 00:00:00 | |
| BIOWL1-15 | 2026-09-02 09:27:46 | 49.43957 | 12.52228 | 112° | 71km/h | 12669m | 3.6m/s | -51.1°C | 0% | 0hPa | 5V | 00:00:00 | 00:00:00 | 00:00:00 | |
| DF2AP-13 | 2026-09-02 09:27:46 | 49.43937 | 12.52279 | 112° | 68km/h | 12678m | 3.9m/s | 0°C | 0% | 0hPa | 0V | 00:00:00 | 00:00:00 | 00:00:00 | |
| DO8TBO-1 | 2026-09-02 09:27:44 | 49.43951 | 12.52228 | 113° | 66km/h | 12669m | 3.6m/s | 0°C | 0% | 0hPa | 0V | 00:00:00 | 00:00:00 | 00:00:00 | |
| OE5DRO-10 | 2026-09-02 09:27:42 | 49.43969 | 12.52178 | 111° | 66km/h | 12657m | 3.5m/s | 0°C | 0% | 0hPa | 0V | 00:00:00 | 00:00:00 | 00:00:00 | |
| DB0NH | 2026-09-02 09:27:40 | 49.43982 | 12.52131 | 113° | 66km/h | 12648m | 3.5m/s | 0°C | 0% | 0hPa | 0V | 00:00:00 | 00:00:00 | 00:00:00 | |
| OE5DXL-15 | 2026-09-02 09:27:39 | 49.43988 | 12.52107 | 111° | 66km/h | 12648m | 5.0m/s | 0°C | 0% | 0hPa | 0V | 00:00:00 | 00:00:00 | 00:00:00 | |
| DO3MHA-11 | 2026-09-02 09:27:38 | 49.43994 | 12.52082 | 110° | 66km/h | 12639m | 3.5m/s | 0°C | 0% | 0hPa | 0V | 00:00:00 | 00:00:00 | 00:00:00 | |
| DK7TD | 2026-09-02 09:27:36 | 49.44006 | 12.52035 | 115° | 64km/h | 12635m | 3.6m/s | 0°C | 0% | 0hPa | 0V | 00:00:00 | 00:00:00 | 00:00:00 | |
| OE5MMP-10 | 2026-09-02 09:27:36 | 49.44006 | 12.52035 | 115° | 66km/h | 12630m | 3.5m/s | 0°C | 0% | 0hPa | 5V | 00:00:00 | 00:00:00 | 00:00:00 | |
| BIOWL1-15 | 2026-09-02 09:27:35 | 49.44020 | 12.51990 | 115° | 62km/h | 12625m | 4.1m/s | -51.2°C | 0% | 0hPa | 5V | 00:00:00 | 00:00:00 | 00:00:00 | |
| OE3JTB-15 | 2026-09-02 09:27:34 | 49.44019 | 12.51990 | 115° | 66km/h | 12621m | 4.1m/s | 0°C | 0% | 0hPa | 5V | 00:00:00 | 00:00:00 | 00:00:00 | |
| DO3MHA-11 | 2026-09-02 09:27:27 | 49.44066 | 12.51825 | 113° | 64km/h | 12592m | 3.0m/s | 0°C | 0% | 0hPa | 5V | 00:00:00 | 00:00:00 | 00:00:00 | |
| OE5MMP-10 | 2026-09-02 09:27:25 | 49.44079 | 12.51779 | 113° | 66km/h | 12583m | 4.3m/s | 0°C | 0% | 0hPa | 5V | 00:00:00 | 00:00:00 | 00:00:00 | |
| PETON7-10 | 2026-09-02 09:27:23 | 49.44091 | 12.51732 | 111° | 66km/h | 12575m | 4.6m/s | 0°C | 0% | 0hPa | 5V | 00:00:00 | 00:00:00 | 00:00:00 | |
| BIOWL1-15 | 2026-09-02 09:27:20 | 49.44109 | 12.51661 | 111° | 62km/h | 12567m | 4.3m/s | -51°C | 0% | 0hPa | 5V | 00:00:00 | 00:00:00 | 00:00:00 | |
| DB0UT-7 | 2026-09-02 09:27:17 | 49.44122 | 12.51592 | 111° | 68km/h | 12553m | 4.9m/s | 0°C | 0% | 0hPa | 5V | 00:00:00 | 00:00:00 | 00:00:00 | |
| DF2AP-13 | 2026-09-02 09:27:16 | 49.44127 | 12.51568 | 111° | 68km/h | 12550m | 3.4m/s | 0°C | 0% | 0hPa | 5V | 00:00:00 | 00:00:00 | 00:00:00 | |
| OE5MMP-10 | 2026-09-02 09:27:14 | 49.44145 | 12.51522 | 115° | 66km/h | 12536m | 3.8m/s | 0°C | 0% | 0hPa | 5V | 00:00:00 | 00:00:00 | 00:00:00 | |
| BIOWL1-15 | 2026-09-02 09:27:10 | 49.44176 | 12.51407 | 108° | 66km/h | 12519m | 4.5m/s | -51.1°C | 0% | 0hPa | 5V | 00:00:00 | 00:00:00 | 00:00:00 | |
| DB0NH | 2026-09-02 09:27:10 | 49.44170 | 12.51431 | 112° | 68km/h | 12519m | 4.4m/s | 0°C | 0% | 0hPa | 5V | 00:00:00 | 00:00:00 | 00:00:00 | |
| OE5DXL-15 | 2026-09-02 09:27:09 | 49.44176 | 12.51406 | 109° | 69km/h | 12519m | 4.4m/s | 0°C | 0% | 0hPa | 5V | 00:00:00 | 00:00:00 | 00:00:00 | |
| PETON7-10 | 2026-09-02 09:27:08 | 49.44176 | 12.51381 | 109° | 68km/h | 12514m | 3.7m/s | 0°C | 0% | 0hPa | 5V | 00:00:00 | 00:00:00 | 00:00:00 | |
| DO3MHA-11 | 2026-09-02 09:27:06 | 49.44192 | 12.51332 | 110° | 68km/h | 12502m | 5.0m/s | 0°C | 0% | 0hPa | 5V | 00:00:00 | 00:00:00 | 00:00:00 | |
| OE5WHR-10 | 2026-09-02 09:27:04 | 49.44203 | 12.51286 | 112° | 69km/h | 12494m | 4.3m/s | 0°C | 0% | 0hPa | 5V | 00:00:00 | 00:00:00 | 00:00:00 | |
| NBG1-10 | 2026-09-02 09:27:02 | 49.44210 | 12.51239 | 110° | 69km/h | 12490m | 4.6m/s | 0°C | 0% | 0hPa | 5V | 00:00:00 | 00:00:00 | 00:00:00 | |
| BIOWL1-15 | 2026-09-02 09:26:59 | 49.44233 | 12.51137 | 101° | 69km/h | 12472m | 4.2m/s | -51.3°C | 0% | 0hPa | 5V | 00:00:00 | 00:00:00 | 00:00:00 | |
| DO3MHA-11 | 2026-09-02 09:26:55 | 49.44247 | 12.51058 | 108° | 69km/h | 12455m | 3.7m/s | 0°C | 0% | 0hPa | 5V | 00:00:00 | 00:00:00 | 00:00:00 | |
| OE5MMP-10 | 2026-09-02 09:26:53 | 49.44257 | 12.51007 | 107° | 69km/h | 12447m | 4.0m/s | 0°C | 0% | 0hPa | 5V | 00:00:00 | 00:00:00 | 00:00:00 | |
| BIOWL1-15 | 2026-09-02 09:26:50 | 49.44281 | 12.50879 | 108° | 69km/h | 12429m | 3.9m/s | -51.4°C | 0% | 0hPa | 5V | 00:00:00 | 00:00:00 | 00:00:00 | |
| DB0UT-7 | 2026-09-02 09:26:47 | 49.44280 | 12.50854 | 108° | 66km/h | 12425m | 5.3m/s | 0°C | 0% | 0hPa | 5V | 00:00:00 | 00:00:00 | 00:00:00 | |
| DF2AP-13 | 2026-09-02 09:26:46 | 49.44292 | 12.50828 | 109° | 69km/h | 12416m | 4.0m/s | 0°C | 0% | 0hPa | 5V | 00:00:00 | 00:00:00 | 00:00:00 | |
| DO3MHA-11 | 2026-09-02 09:26:44 | 49.44304 | 12.50775 | 109° | 71km/h | 12407m | 3.9m/s | 0°C | 0% | 0hPa | 5V | 00:00:00 | 00:00:00 | 00:00:00 | |
| OE5WHR-10 | 2026-09-02 09:26:42 | 49.44314 | 12.50720 | 106° | 69km/h | 12399m | 3.1m/s | 0°C | 0% | 0hPa | 5V | 00:00:00 | 00:00:00 | 00:00:00 | |
| DB0NH | 2026-09-02 09:26:40 | 49.44325 | 12.50666 | 109° | 68km/h | 12391m | 4.0m/s | 0°C | 0% | 0hPa | 5V | 00:00:00 | 00:00:00 | 00:00:00 | |
| BIOWL1-15 | 2026-09-02 09:26:39 | 49.44342 | 12.50591 | 109° | 68km/h | 12382m | 3.8m/s | -51.6°C | 0% | 0hPa | 5V | 00:00:00 | 00:00:00 | 00:00:00 | |
| OE5DXL-15 | 2026-09-02 09:26:39 | 49.44330 | 12.50640 | 109° | 66km/h | 12391m | 4.5m/s | 0°C | 0% | 0hPa | 5V | 00:00:00 | 00:00:00 | 00:00:00 | |
| PETON7-10 | 2026-09-02 09:26:38 | 49.44336 | 12.50615 | 110° | 69km/h | 12382m | 4.7m/s | 0°C | 0% | 0hPa | 5V | 00:00:00 | 00:00:00 | 00:00:00 | |
| DO3MHA-11 | 2026-09-02 09:26:34 | 49.44356 | 12.50510 | 106° | 69km/h | 12364m | 2.9m/s | 0°C | 0% | 0hPa | 5V | 00:00:00 | 00:00:00 | 00:00:00 | |
| OE5MMP-10 | 2026-09-02 09:26:32 | 49.44361 | 12.50456 | 108° | 68km/h | 12361m | 4.6m/s | 0°C | 0% | 0hPa | 5V | 00:00:00 | 00:00:00 | 00:00:00 | |
| NBG1-10 | 2026-09-02 09:26:29 | 49.44382 | 12.50386 | 113° | 64km/h | 12344m | 3.7m/s | 0°C | 0% | 0hPa | 5V | 00:00:00 | 00:00:00 | 00:00:00 | |
| BIOWL1-15 | 2026-09-02 09:26:27 | 49.44398 | 12.50319 | 110° | 68km/h | 12335m | 4.8m/s | -52.1°C | 0% | 0hPa | 5V | 00:00:00 | 00:00:00 | 00:00:00 | |
| OE5DRO-10 | 2026-09-02 09:26:25 | 49.44404 | 12.50294 | 111° | 64km/h | 12327m | 3.5m/s | 0°C | 0% | 0hPa | 0V | 00:00:00 | 00:00:00 | 00:00:00 | |
| DO3MHA-11 | 2026-09-02 09:26:24 | 49.44405 | 12.50268 | 110° | 66km/h | 12327m | 4.9m/s | 0°C | 0% | 0hPa | 0V | 00:00:00 | 00:00:00 | 00:00:00 | |
| PETON7-10 | 2026-09-02 09:26:22 | 49.44417 | 12.50217 | 112° | 64km/h | 12318m | 4.3m/s | 0°C | 0% | 0hPa | 0V | 00:00:00 | 00:00:00 | 00:00:00 | |
| OE5WHR-10 | 2026-09-02 09:26:20 | 49.44429 | 12.50170 | 109° | 64km/h | 12310m | 3.7m/s | 0°C | 0% | 0hPa | 0V | 00:00:00 | 00:00:00 | 00:00:00 | |
| DM0DOS-11 | 2026-09-02 09:26:19 | 49.44464 | 12.50025 | 110° | 64km/h | 12277m | 3.5m/s | 0°C | 0% | 0hPa | 0V | 00:00:00 | 00:00:00 | 00:00:00 | |
| BIOWL1-15 | 2026-09-02 09:26:16 | 49.44454 | 12.50074 | 106° | 68km/h | 12293m | 3.4m/s | -52.3°C | 0% | 0hPa | 5V | 00:00:00 | 00:00:00 | 00:00:00 | |
| DF2AP-13 | 2026-09-02 09:26:16 | 49.44454 | 12.50073 | 106° | 66km/h | 12289m | 3.3m/s | 0°C | 0% | 0hPa | 0V | 00:00:00 | 00:00:00 | 00:00:00 | |
| DO3MHA-11 | 2026-09-02 09:26:14 | 49.44464 | 12.50025 | 111° | 62km/h | 12281m | 3.5m/s | 0°C | 0% | 0hPa | 0V | 00:00:00 | 00:00:00 | 00:00:00 | |
| OE5MMP-10 | 2026-09-02 09:26:12 | 49.44475 | 12.49978 | 108° | 62km/h | 12273m | 3.9m/s | 0°C | 0% | 0hPa | 0V | 00:00:00 | 00:00:00 | 00:00:00 | |
| DB0UT-7 | 2026-09-02 09:26:11 | 49.44474 | 12.49954 | 111° | 66km/h | 12273m | 4.4m/s | 0°C | 0% | 0hPa | 0V | 00:00:00 | 00:00:00 | 00:00:00 | |
| DB0NH | 2026-09-02 09:26:10 | 49.44486 | 12.49930 | 111° | 66km/h | 12265m | 3.6m/s | 0°C | 0% | 0hPa | 0V | 00:00:00 | 00:00:00 | 00:00:00 | |
| OE5DXL-15 | 2026-09-02 09:26:09 | 49.44491 | 12.49907 | 109° | 68km/h | 12265m | 5.0m/s | 0°C | 0% | 0hPa | 0V | 00:00:00 | 00:00:00 | 00:00:00 | |
| DM0DOS-11 | 2026-09-02 09:26:08 | 49.44526 | 12.49774 | 116° | 66km/h | 12234m | 3.4m/s | 0°C | 0% | 0hPa | 0V | 00:00:00 | 00:00:00 | 00:00:00 | |
| PETON7-10 | 2026-09-02 09:26:07 | 49.44496 | 12.49862 | 111° | 64km/h | 12256m | 4.9m/s | 0°C | 0% | 0hPa | 5V | 00:00:00 | 00:00:00 | 00:00:00 | |
| OE5DRO-10 | 2026-09-02 09:26:06 | 49.44507 | 12.49818 | 113° | 66km/h | 12247m | 3.9m/s | 0°C | 0% | 0hPa | 5V | 00:00:00 | 00:00:00 | 00:00:00 | |
| OE3JTB-15 | 2026-09-02 09:26:05 | 49.44506 | 12.49818 | 113° | 68km/h | 12247m | 3.9m/s | 0°C | 0% | 0hPa | 5V | 00:00:00 | 00:00:00 | 00:00:00 | |
| DO3MHA-11 | 2026-09-02 09:26:04 | 49.44513 | 12.49797 | 113° | 64km/h | 12243m | 5.2m/s | 0°C | 0% | 0hPa | 5V | 00:00:00 | 00:00:00 | 00:00:00 | |
| BIOWL1-15 | 2026-09-02 09:26:03 | 49.44533 | 12.49751 | 114° | 64km/h | 12234m | 4.8m/s | -52.4°C | 0% | 0hPa | 5V | 00:00:00 | 00:00:00 | 00:00:00 | |
| OE5MMP-10 | 2026-09-02 09:26:01 | 49.44540 | 12.49728 | 113° | 68km/h | 12226m | 3.8m/s | 0°C | 0% | 0hPa | 0V | 00:00:00 | 00:00:00 | 00:00:00 | |
| OE5WHR-10 | 2026-09-02 09:25:59 | 49.44552 | 12.49683 | 114° | 69km/h | 12218m | 3.2m/s | 0°C | 0% | 0hPa | 0V | 00:00:00 | 00:00:00 | 00:00:00 | |
| DM0DOS-11 | 2026-09-02 09:25:57 | 49.44590 | 12.49513 | 113° | 71km/h | 12191m | 3.1m/s | 0°C | 0% | 0hPa | 0V | 00:00:00 | 00:00:00 | 00:00:00 | |
| NBG1-10 | 2026-09-02 09:25:55 | 49.44577 | 12.49589 | 113° | 73km/h | 12200m | 4.2m/s | 0°C | 0% | 0hPa | 5V | 00:00:00 | 00:00:00 | 00:00:00 | |
| DO3MHA-11 | 2026-09-02 09:25:54 | 49.44577 | 12.49564 | 112° | 69km/h | 12200m | 4.1m/s | 0°C | 0% | 0hPa | 5V | 00:00:00 | 00:00:00 | 00:00:00 | |
| BIOWL1-15 | 2026-09-02 09:25:53 | 49.44597 | 12.49513 | 113° | 71km/h | 12191m | 3.1m/s | -52.3°C | 0% | 0hPa | 5V | 00:00:00 | 00:00:00 | 00:00:00 | |
| PETON7-10 | 2026-09-02 09:25:52 | 49.44590 | 12.49512 | 114° | 71km/h | 12191m | 3.1m/s | 0°C | 0% | 0hPa | 0V | 00:00:00 | 00:00:00 | 00:00:00 | |
| OE5MMP-10 | 2026-09-02 09:25:50 | 49.44610 | 12.49463 | 111° | 69km/h | 12179m | 3.9m/s | 0°C | 0% | 0hPa | 0V | 00:00:00 | 00:00:00 | 00:00:00 | |
| DM0DOS-11 | 2026-09-02 09:25:47 | 49.44663 | 12.49268 | 110° | 73km/h | 12141m | 5.3m/s | 0°C | 0% | 0hPa | 0V | 00:00:00 | 00:00:00 | 00:00:00 | |
| DF2AP-13 | 2026-09-02 09:25:46 | 49.44635 | 12.49367 | 114° | 77km/h | 12163m | 4.0m/s | 0°C | 0% | 0hPa | 5V | 00:00:00 | 00:00:00 | 00:00:00 | |
| DO3MHA-11 | 2026-09-02 09:25:44 | 49.44650 | 12.49319 | 115° | 73km/h | 12154m | 5.0m/s | 0°C | 0% | 0hPa | 5V | 00:00:00 | 00:00:00 | 00:00:00 | |
| BIOWL1-15 | 2026-09-02 09:25:42 | 49.44670 | 12.49241 | 112° | 77km/h | 12145m | 3.5m/s | -51.9°C | 0% | 0hPa | 5V | 00:00:00 | 00:00:00 | 00:00:00 | |
| DB0UT-7 | 2026-09-02 09:25:41 | 49.44663 | 12.49241 | 111° | 78km/h | 12145m | 3.5m/s | 0°C | 0% | 0hPa | 0V | 00:00:00 | 00:00:00 | 00:00:00 | |
| DB0NH | 2026-09-02 09:25:40 | 49.44677 | 12.49213 | 111° | 80km/h | 12137m | 5.4m/s | 0°C | 0% | 0hPa | 0V | 00:00:00 | 00:00:00 | 00:00:00 | |
| OE5MMP-10 | 2026-09-02 09:25:39 | 49.44676 | 12.49186 | 111° | 73km/h | 12137m | 3.2m/s | 0°C | 0% | 0hPa | 0V | 00:00:00 | 00:00:00 | 00:00:00 | |
| PETON7-10 | 2026-09-02 09:25:38 | 49.44690 | 12.49134 | 114° | 77km/h | 12127m | 3.5m/s | 0°C | 0% | 0hPa | 0V | 00:00:00 | 00:00:00 | 00:00:00 | |
| OE3JTB-15 | 2026-09-02 09:25:37 | 49.44698 | 12.49110 | 117° | 80km/h | 12123m | 5.0m/s | 0°C | 0% | 0hPa | 0V | 00:00:00 | 00:00:00 | 00:00:00 | |
| DM0DOS-11 | 2026-09-02 09:25:36 | 49.44742 | 12.48977 | 109° | 78km/h | 12097m | 3.5m/s | 0°C | 0% | 0hPa | 0V | 00:00:00 | 00:00:00 | 00:00:00 | |
| DO3MHA-11 | 2026-09-02 09:25:33 | 49.44728 | 12.49032 | 113° | 78km/h | 12106m | 3.6m/s | 0°C | 0% | 0hPa | 5V | 00:00:00 | 00:00:00 | 00:00:00 | |
| BIOWL1-15 | 2026-09-02 09:25:31 | 49.44749 | 12.48948 | 112° | 80km/h | 12097m | 5m/s | -52°C | 0% | 0hPa | 5V | 00:00:00 | 00:00:00 | 00:00:00 | |
| OE5MMP-10 | 2026-09-02 09:25:29 | 49.44757 | 12.48919 | 114° | 80km/h | 12089m | 3.1m/s | 0°C | 0% | 0hPa | 0V | 00:00:00 | 00:00:00 | 00:00:00 | |
| OE5DRO-10 | 2026-09-02 09:25:27 | 49.44772 | 12.48863 | 111° | 82km/h | 12080m | 3.6m/s | 0°C | 0% | 0hPa | 0V | 00:00:00 | 00:00:00 | 00:00:00 | |
| DM0DOS-11 | 2026-09-02 09:25:25 | 49.44820 | 12.48657 | 110° | 84km/h | 12051m | 3.4m/s | 0°C | 0% | 0hPa | 0V | 00:00:00 | 00:00:00 | 00:00:00 | |
| DO3MHA-11 | 2026-09-02 09:25:22 | 49.44805 | 12.48719 | 110° | 86km/h | 12060m | 4.4m/s | 0°C | 0% | 0hPa | 5V | 00:00:00 | 00:00:00 | 00:00:00 | |
| BIOWL1-15 | 2026-09-02 09:25:20 | 49.44828 | 12.48626 | 112° | 86km/h | 12051m | 4.7m/s | -52.8°C | 0% | 0hPa | 5V | 00:00:00 | 00:00:00 | 00:00:00 | |
| OE5MMP-10 | 2026-09-02 09:25:18 | 49.44836 | 12.48596 | 112° | 84km/h | 12043m | 4.0m/s | 0°C | 0% | 0hPa | 0V | 00:00:00 | 00:00:00 | 00:00:00 | |
| OE5WHR-10 | 2026-09-02 09:25:16 | 49.44850 | 12.48536 | 108° | 84km/h | 12035m | 3.5m/s | 0°C | 0% | 0hPa | 0V | 00:00:00 | 00:00:00 | 00:00:00 | |
| DM0DOS-11 | 2026-09-02 09:25:14 | 49.44889 | 12.48311 | 109° | 80km/h | 12011m | 3.6m/s | 0°C | 0% | 0hPa | 0V | 00:00:00 | 00:00:00 | 00:00:00 | |
| DO8TBO-1 | 2026-09-02 09:25:14 | 49.44863 | 12.48472 | 108° | 82km/h | 12027m | 3.2m/s | 0°C | 0% | 0hPa | 5V | 00:00:00 | 00:00:00 | 00:00:00 | |
| DO3MHA-11 | 2026-09-02 09:25:11 | 49.44875 | 12.48373 | 108° | 84km/h | 12020m | 4.1m/s | 0°C | 0% | 0hPa | 5V | 00:00:00 | 00:00:00 | 00:00:00 | |
| DB0NH | 2026-09-02 09:25:10 | 49.44882 | 12.48341 | 110° | 80km/h | 12016m | 4.5m/s | 0°C | 0% | 0hPa | 5V | 00:00:00 | 00:00:00 | 00:00:00 | |
| BIOWL1-15 | 2026-09-02 09:25:09 | 49.44896 | 12.48311 | 110° | 80km/h | 12011m | 3.6m/s | -53°C | 0% | 0hPa | 5V | 00:00:00 | 00:00:00 | 00:00:00 | |
| OE5DXL-15 | 2026-09-02 09:25:09 | 49.44896 | 12.48311 | 110° | 80km/h | 12012m | 3.5m/s | 0°C | 0% | 0hPa | 0V | 00:00:00 | 00:00:00 | 00:00:00 | |
| PETON7-10 | 2026-09-02 09:25:07 | 49.44911 | 12.48251 | 112° | 82km/h | 11998m | 3.9m/s | 0°C | 0% | 0hPa | 0V | 00:00:00 | 00:00:00 | 00:00:00 | |
| DM0DOS-11 | 2026-09-02 09:25:04 | 49.44967 | 12.48003 | 112° | 77km/h | 11962m | 4m/s | 0°C | 0% | 0hPa | 0V | 00:00:00 | 00:00:00 | 00:00:00 | |
| BIOWL1-15 | 2026-09-02 09:25:01 | 49.44975 | 12.47974 | 112° | 77km/h | 11966m | 4.5m/s | -54°C | 0% | 0hPa | 5V | 00:00:00 | 00:00:00 | 00:00:00 | |
| DO3MHA-11 | 2026-09-02 09:25:01 | 49.44952 | 12.48062 | 109° | 80km/h | 11974m | 3.8m/s | 0°C | 0% | 0hPa | 0V | 00:00:00 | 00:00:00 | 00:00:00 | |
| OE5MMP-10 | 2026-09-02 09:24:56 | 49.44982 | 12.47918 | 109° | 80km/h | 11959m | 4.2m/s | 0°C | 0% | 0hPa | 0V | 00:00:00 | 00:00:00 | 00:00:00 | |
| OE5WHR-10 | 2026-09-02 09:24:54 | 49.45000 | 12.47856 | 106° | 80km/h | 11946m | 4.7m/s | 0°C | 0% | 0hPa | 0V | 00:00:00 | 00:00:00 | 00:00:00 | |
| DM0DOS-11 | 2026-09-02 09:24:53 | 49.45039 | 12.47683 | 112° | 77km/h | 11922m | 4.2m/s | 0°C | 0% | 0hPa | 0V | 00:00:00 | 00:00:00 | 00:00:00 | |
| PETON7-10 | 2026-09-02 09:24:51 | 49.45022 | 12.47766 | 111° | 78km/h | 11938m | 3.6m/s | 0°C | 0% | 0hPa | 5V | 00:00:00 | 00:00:00 | 00:00:00 | |
| BIOWL1-15 | 2026-09-02 09:24:50 | 49.45046 | 12.47655 | 111° | 77km/h | 11922m | 3.5m/s | -54.5°C | 0% | 0hPa | 5V | 00:00:00 | 00:00:00 | 00:00:00 | |
| DO3MHA-11 | 2026-09-02 09:24:50 | 49.45025 | 12.47737 | 111° | 78km/h | 11930m | 4.0m/s | 0°C | 0% | 0hPa | 0V | 00:00:00 | 00:00:00 | 00:00:00 | |
| NBG1-10 | 2026-09-02 09:24:48 | 49.45039 | 12.47682 | 113° | 80km/h | 11922m | 4.1m/s | 0°C | 0% | 0hPa | 0V | 00:00:00 | 00:00:00 | 00:00:00 | |
| OE5MMP-10 | 2026-09-02 09:24:46 | 49.45053 | 12.47627 | 108° | 78km/h | 11914m | 3.8m/s | 0°C | 0% | 0hPa | 0V | 00:00:00 | 00:00:00 | 00:00:00 | |
| DF2AP-13 | 2026-09-02 09:24:45 | 49.45053 | 12.47598 | 106° | 82km/h | 11914m | 4.6m/s | 0°C | 0% | 0hPa | 0V | 00:00:00 | 00:00:00 | 00:00:00 | |
| DO8TBO-1 | 2026-09-02 09:24:43 | 49.45075 | 12.47508 | 107° | 82km/h | 11898m | 3.2m/s | 0°C | 0% | 0hPa | 0V | 00:00:00 | 00:00:00 | 00:00:00 | |
| DM0DOS-11 | 2026-09-02 09:24:42 | 49.45104 | 12.47361 | 105° | 80km/h | 11878m | 4.9m/s | 0°C | 0% | 0hPa | 0V | 00:00:00 | 00:00:00 | 00:00:00 | |
| DB0UT-7 | 2026-09-02 09:24:40 | 49.45081 | 12.47449 | 108° | 82km/h | 11895m | 4.1m/s | 0°C | 0% | 0hPa | 5V | 00:00:00 | 00:00:00 | 00:00:00 | |
| BIOWL1-15 | 2026-09-02 09:24:39 | 49.45110 | 12.47331 | 105° | 84km/h | 11878m | 3.2m/s | -54.7°C | 0% | 0hPa | 5V | 00:00:00 | 00:00:00 | 00:00:00 | |
| PETON7-10 | 2026-09-02 09:24:36 | 49.45105 | 12.47331 | 106° | 82km/h | 11878m | 3.2m/s | 0°C | 0% | 0hPa | 0V | 00:00:00 | 00:00:00 | 00:00:00 | |
| OE3JTB-15 | 2026-09-02 09:24:35 | 49.45115 | 12.47299 | 105° | 82km/h | 11870m | 5.1m/s | 0°C | 0% | 0hPa | 0V | 00:00:00 | 00:00:00 | 00:00:00 | |
| DM0DOS-11 | 2026-09-02 09:24:32 | 49.45161 | 12.47022 | 102° | 82km/h | 11832m | 4.8m/s | 0°C | 0% | 0hPa | 0V | 00:00:00 | 00:00:00 | 00:00:00 | |
| BIOWL1-15 | 2026-09-02 09:24:30 | 49.45166 | 12.46991 | 101° | 86km/h | 11832m | 2.8m/s | -54.8°C | 0% | 0hPa | 5V | 00:00:00 | 00:00:00 | 00:00:00 | |
| OE5DRO-10 | 2026-09-02 09:24:29 | 49.45147 | 12.47113 | 105° | 82km/h | 11844m | 5.1m/s | 0°C | 0% | 0hPa | 0V | 00:00:00 | 00:00:00 | 00:00:00 | |
| DO3MHA-11 | 2026-09-02 09:24:28 | 49.45148 | 12.47083 | 104° | 82km/h | 11844m | 5.1m/s | 0°C | 0% | 0hPa | 0V | 00:00:00 | 00:00:00 | 00:00:00 | |
| OE5MMP-10 | 2026-09-02 09:24:24 | 49.45169 | 12.46958 | 100° | 84km/h | 11824m | 4.6m/s | 0°C | 0% | 0hPa | 0V | 00:00:00 | 00:00:00 | 00:00:00 | |
| DM0DOS-11 | 2026-09-02 09:24:20 | 49.45203 | 12.46674 | 101° | 84km/h | 11791m | 4.6m/s | 0°C | 0% | 0hPa | 0V | 00:00:00 | 00:00:00 | 00:00:00 | |
| PETON7-10 | 2026-09-02 09:24:20 | 49.45186 | 12.46832 | 103° | 82km/h | 11804m | 4.5m/s | 0°C | 0% | 0hPa | 5V | 00:00:00 | 00:00:00 | 00:00:00 | |
| DO3MHA-11 | 2026-09-02 09:24:18 | 49.45194 | 12.46770 | 103° | 82km/h | 11799m | 3.7m/s | 0°C | 0% | 0hPa | 5V | 00:00:00 | 00:00:00 | 00:00:00 | |
| BIOWL1-15 | 2026-09-02 09:24:15 | 49.45207 | 12.46674 | 101° | 84km/h | 11791m | 4.6m/s | -55.4°C | 0% | 0hPa | 5V | 00:00:00 | 00:00:00 | 00:00:00 | |
| DF2AP-13 | 2026-09-02 09:24:14 | 49.45207 | 12.46642 | 102° | 93km/h | 11787m | 3.5m/s | 0°C | 0% | 0hPa | 0V | 00:00:00 | 00:00:00 | 00:00:00 | |
| DO8TBO-1 | 2026-09-02 09:24:13 | 49.45215 | 12.46610 | 100° | 78km/h | 11779m | 3.4m/s | 0°C | 0% | 0hPa | 0V | 00:00:00 | 00:00:00 | 00:00:00 | |
| OE5WHR-10 | 2026-09-02 09:24:12 | 49.45218 | 12.46550 | 99° | 78km/h | 11774m | 2.9m/s | 0°C | 0% | 0hPa | 0V | 00:00:00 | 00:00:00 | 00:00:00 | |
| DM0DOS-11 | 2026-09-02 09:24:10 | 49.45240 | 12.46364 | 98° | 78km/h | 11747m | 4.9m/s | 0°C | 0% | 0hPa | 0V | 00:00:00 | 00:00:00 | 00:00:00 | |
| DB0NH | 2026-09-02 09:24:10 | 49.45228 | 12.46518 | 99° | 78km/h | 11755m | 2.9m/s | 0°C | 0% | 0hPa | 5V | 00:00:00 | 00:00:00 | 00:00:00 | |
| OE5DXL-15 | 2026-09-02 09:24:09 | 49.45228 | 12.46487 | 98° | 78km/h | 11763m | 4.5m/s | 0°C | 0% | 0hPa | 5V | 00:00:00 | 00:00:00 | 00:00:00 | |
| BIOWL1-15 | 2026-09-02 09:24:07 | 49.45242 | 12.46333 | 97° | 78km/h | 11747m | 3.1m/s | -55.5°C | 0% | 0hPa | 5V | 00:00:00 | 00:00:00 | 00:00:00 | |
| OE3JTB-15 | 2026-09-02 09:24:05 | 49.45240 | 12.46364 | 99° | 78km/h | 11747m | 4.8m/s | 0°C | 0% | 0hPa | 0V | 00:00:00 | 00:00:00 | 00:00:00 | |
| PETON7-10 | 2026-09-02 09:24:04 | 49.45239 | 12.46333 | 99° | 78km/h | 11747m | 3.0m/s | 0°C | 0% | 0hPa | 0V | 00:00:00 | 00:00:00 | 00:00:00 | |
| OE5MMP-10 | 2026-09-02 09:24:03 | 49.45245 | 12.46303 | 99° | 78km/h | 11739m | 4.3m/s | 0°C | 0% | 0hPa | 0V | 00:00:00 | 00:00:00 | 00:00:00 | |
| DM0DOS-11 | 2026-09-02 09:23:59 | 49.45276 | 12.46035 | 103° | 78km/h | 11702m | 4.6m/s | 0°C | 0% | 0hPa | 0V | 00:00:00 | 00:00:00 | 00:00:00 | |
| DO3MHA-11 | 2026-09-02 09:23:56 | 49.45267 | 12.46095 | 101° | 75km/h | 11710m | 4.6m/s | 0°C | 0% | 0hPa | 5V | 00:00:00 | 00:00:00 | 00:00:00 | |
| BIOWL1-15 | 2026-09-02 09:23:54 | 49.45281 | 12.46005 | 103° | 78km/h | 11702m | 3.2m/s | -55.8°C | 0% | 0hPa | 5V | 00:00:00 | 00:00:00 | 00:00:00 | |
| OE5MMP-10 | 2026-09-02 09:23:53 | 49.45282 | 12.46005 | 104° | 77km/h | 11702m | 3.1m/s | 0°C | 0% | 0hPa | 0V | 00:00:00 | 00:00:00 | 00:00:00 | |
| OE5WHR-10 | 2026-09-02 09:23:50 | 49.45293 | 12.45919 | 102° | 78km/h | 11686m | 4.7m/s | 0°C | 0% | 0hPa | 0V | 00:00:00 | 00:00:00 | 00:00:00 | |
| DM0DOS-11 | 2026-09-02 09:23:49 | 49.45315 | 12.45747 | 101° | 80km/h | 11667m | 4.6m/s | 0°C | 0% | 0hPa | 0V | 00:00:00 | 00:00:00 | 00:00:00 | |
| PETON7-10 | 2026-09-02 09:23:48 | 49.45301 | 12.45864 | 105° | 78km/h | 11679m | 3.8m/s | 0°C | 0% | 0hPa | 5V | 00:00:00 | 00:00:00 | 00:00:00 | |
| DO3MHA-11 | 2026-09-02 09:23:46 | 49.45310 | 12.45808 | 104° | 78km/h | 11671m | 3.7m/s | 0°C | 0% | 0hPa | 5V | 00:00:00 | 00:00:00 | 00:00:00 | |
| BIOWL1-15 | 2026-09-02 09:23:43 | 49.45328 | 12.45685 | 102° | 80km/h | 11658m | 4.1m/s | -56°C | 0% | 0hPa | 5V | 00:00:00 | 00:00:00 | 00:00:00 | |
| NBG1-10 | 2026-09-02 09:23:42 | 49.45328 | 12.45655 | 102° | 78km/h | 11654m | 4.0m/s | 0°C | 0% | 0hPa | 0V | 00:00:00 | 00:00:00 | 00:00:00 | |
| DM0DOS-11 | 2026-09-02 09:23:39 | 49.45356 | 12.45476 | 99° | 84km/h | 11624m | 4m/s | 0°C | 0% | 0hPa | 0V | 00:00:00 | 00:00:00 | 00:00:00 | |
| OE5DXL-15 | 2026-09-02 09:23:39 | 49.45340 | 12.45597 | 101° | 78km/h | 11641m | 4.0m/s | 0°C | 0% | 0hPa | 5V | 00:00:00 | 00:00:00 | 00:00:00 | |
| DB0UT-7 | 2026-09-02 09:23:38 | 49.45340 | 12.45568 | 101° | 78km/h | 11641m | 4.4m/s | 0°C | 0% | 0hPa | 5V | 00:00:00 | 00:00:00 | 00:00:00 | |
| DO3MHA-11 | 2026-09-02 09:23:36 | 49.45348 | 12.45508 | 102° | 82km/h | 11633m | 4.4m/s | 0°C | 0% | 0hPa | 5V | 00:00:00 | 00:00:00 | 00:00:00 | |
| OE3JTB-15 | 2026-09-02 09:23:35 | 49.45356 | 12.45476 | 100° | 78km/h | 11624m | 4.0m/s | 0°C | 0% | 0hPa | 5V | 00:00:00 | 00:00:00 | 00:00:00 | |
| PETON7-10 | 2026-09-02 09:23:33 | 49.45360 | 12.45412 | 101° | 78km/h | 11621m | 3.8m/s | 0°C | 0% | 0hPa | 5V | 00:00:00 | 00:00:00 | 00:00:00 | |
| BIOWL1-15 | 2026-09-02 09:23:32 | 49.45367 | 12.45381 | 99° | 80km/h | 11616m | 4.7m/s | -56.3°C | 0% | 0hPa | 5V | 00:00:00 | 00:00:00 | 00:00:00 | |
| OE5MMP-10 | 2026-09-02 09:23:32 | 49.45364 | 12.45381 | 100° | 80km/h | 11616m | 4.7m/s | 0°C | 0% | 0hPa | 0V | 00:00:00 | 00:00:00 | 00:00:00 | |
| OE5DRO-10 | 2026-09-02 09:23:31 | 49.45370 | 12.45351 | 98° | 78km/h | 11608m | 4.4m/s | 0°C | 0% | 0hPa | 0V | 00:00:00 | 00:00:00 | 00:00:00 | |
| DM0DOS-11 | 2026-09-02 09:23:29 | 49.45390 | 12.45130 | 96° | 80km/h | 11579m | 3.5m/s | 0°C | 0% | 0hPa | 0V | 00:00:00 | 00:00:00 | 00:00:00 | |
| DO3MHA-11 | 2026-09-02 09:23:26 | 49.45384 | 12.45193 | 100° | 77km/h | 11588m | 4.0m/s | 0°C | 0% | 0hPa | 5V | 00:00:00 | 00:00:00 | 00:00:00 | |
| BIOWL1-15 | 2026-09-02 09:23:23 | 49.45397 | 12.45041 | 95° | 73km/h | 11572m | 3.8m/s | -56.6°C | 0% | 0hPa | 5V | 00:00:00 | 00:00:00 | 00:00:00 | |
| OE5MMP-10 | 2026-09-02 09:23:22 | 49.45393 | 12.45070 | 98° | 77km/h | 11576m | 3.7m/s | 0°C | 0% | 0hPa | 0V | 00:00:00 | 00:00:00 | 00:00:00 | |
| DM0DOS-11 | 2026-09-02 09:23:18 | 49.45420 | 12.44807 | 97° | 77km/h | 11536m | 3.5m/s | 0°C | 0% | 0hPa | 0V | 00:00:00 | 00:00:00 | 00:00:00 | |
| DO3MHA-11 | 2026-09-02 09:23:16 | 49.45409 | 12.44896 | 99° | 77km/h | 11553m | 4.4m/s | 0°C | 0% | 0hPa | 5V | 00:00:00 | 00:00:00 | 00:00:00 | |
| PETON7-10 | 2026-09-02 09:23:14 | 49.45422 | 12.44836 | 99° | 78km/h | 11544m | 4.5m/s | 0°C | 0% | 0hPa | 5V | 00:00:00 | 00:00:00 | 00:00:00 | |
| BIOWL1-15 | 2026-09-02 09:23:13 | 49.45429 | 12.44721 | 97° | 73km/h | 11528m | 4m/s | -56.8°C | 0% | 0hPa | 5V | 00:00:00 | 00:00:00 | 00:00:00 | |
| OE5DRO-10 | 2026-09-02 09:23:12 | 49.45423 | 12.44777 | 99° | 77km/h | 11533m | 4.1m/s | 0°C | 0% | 0hPa | 0V | 00:00:00 | 00:00:00 | 00:00:00 | |
| OE5MMP-10 | 2026-09-02 09:23:11 | 49.45426 | 12.44749 | 99° | 78km/h | 11521m | 4.1m/s | 0°C | 0% | 0hPa | 0V | 00:00:00 | 00:00:00 | 00:00:00 | |
| OE5DXL-15 | 2026-09-02 09:23:09 | 49.45431 | 12.44692 | 99° | 78km/h | 11521m | 4.0m/s | 0°C | 0% | 0hPa | 0V | 00:00:00 | 00:00:00 | 00:00:00 | |
| DB0UT-7 | 2026-09-02 09:23:08 | 49.45431 | 12.44662 | 100° | 78km/h | 11521m | 3.6m/s | 0°C | 0% | 0hPa | 0V | 00:00:00 | 00:00:00 | 00:00:00 | |
| DM0DOS-11 | 2026-09-02 09:23:07 | 49.45450 | 12.44481 | 97° | 77km/h | 11496m | 3.8m/s | 0°C | 0% | 0hPa | 0V | 00:00:00 | 00:00:00 | 00:00:00 | |
| NBG1-10 | 2026-09-02 09:23:07 | 49.45437 | 12.44632 | 99° | 78km/h | 11512m | 4.7m/s | 0°C | 0% | 0hPa | 5V | 00:00:00 | 00:00:00 | 00:00:00 | |
| DO3MHA-11 | 2026-09-02 09:23:06 | 49.45437 | 12.44601 | 99° | 78km/h | 11512m | 2.9m/s | 0°C | 0% | 0hPa | 5V | 00:00:00 | 00:00:00 | 00:00:00 | |
| OE3JTB-15 | 2026-09-02 09:23:05 | 49.45443 | 12.44540 | 100° | 78km/h | 11504m | 3.6m/s | 0°C | 0% | 0hPa | 5V | 00:00:00 | 00:00:00 | 00:00:00 | |
| BIOWL1-15 | 2026-09-02 09:23:00 | 49.45463 | 12.44393 | 99° | 78km/h | 11485m | 3.6m/s | -57°C | 0% | 0hPa | 5V | 00:00:00 | 00:00:00 | 00:00:00 | |
| DO3MHA-11 | 2026-09-02 09:22:56 | 49.45473 | 12.44301 | 100° | 80km/h | 11468m | 4.8m/s | 0°C | 0% | 0hPa | 5V | 00:00:00 | 00:00:00 | 00:00:00 | |
| BIOWL1-15 | 2026-09-02 09:22:54 | 49.45492 | 12.44090 | 101° | 82km/h | 11445m | 3.2m/s | -57.1°C | 0% | 0hPa | 5V | 00:00:00 | 00:00:00 | 00:00:00 | |
| OE5DRO-10 | 2026-09-02 09:22:53 | 49.45481 | 12.44209 | 98° | 78km/h | 11457m | 4.7m/s | 0°C | 0% | 0hPa | 5V | 00:00:00 | 00:00:00 | 00:00:00 | |
| OE5MMP-10 | 2026-09-02 09:22:50 | 49.45485 | 12.44120 | 100° | 78km/h | 11449m | 4.5m/s | 0°C | 0% | 0hPa | 5V | 00:00:00 | 00:00:00 | 00:00:00 | |
| DH7VM-15 | 2026-09-02 09:22:49 | 49.45492 | 12.44058 | 102° | 82km/h | 11441m | 4.3m/s | -57.1°C | 0% | 0hPa | 5V | 00:00:00 | 00:00:00 | 00:00:00 | |
| OE5WHR-10 | 2026-09-02 09:22:47 | 49.45499 | 12.44026 | 97° | 78km/h | 11433m | 4.2m/s | 0°C | 0% | 0hPa | 5V | 00:00:00 | 00:00:00 | 00:00:00 | |
| DO3MHA-11 | 2026-09-02 09:22:45 | 49.45503 | 12.43963 | 95° | 78km/h | 11425m | 3.7m/s | 0°C | 0% | 0hPa | 5V | 00:00:00 | 00:00:00 | 00:00:00 | |
| BIOWL1-15 | 2026-09-02 09:22:40 | 49.45516 | 12.43754 | 95° | 80km/h | 11401m | 4m/s | -57.4°C | 0% | 0hPa | 5V | 00:00:00 | 00:00:00 | 00:00:00 | |
| OE5MMP-10 | 2026-09-02 09:22:40 | 49.45510 | 12.43814 | 98° | 77km/h | 11409m | 4.3m/s | 0°C | 0% | 0hPa | 5V | 00:00:00 | 00:00:00 | 00:00:00 | |
| OE5DXL-15 | 2026-09-02 09:22:39 | 49.45514 | 12.43784 | 96° | 78km/h | 11401m | 3.5m/s | 0°C | 0% | 0hPa | 5V | 00:00:00 | 00:00:00 | 00:00:00 | |
| DB0NH | 2026-09-02 09:22:38 | 49.45514 | 12.43754 | 95° | 80km/h | 11401m | 4.0m/s | 0°C | 0% | 0hPa | 5V | 00:00:00 | 00:00:00 | 00:00:00 | |
| DB0UT-7 | 2026-09-02 09:22:37 | 49.45517 | 12.43723 | 93° | 80km/h | 11397m | 3.9m/s | 0°C | 0% | 0hPa | 5V | 00:00:00 | 00:00:00 | 00:00:00 | |
| OE3JTB-15 | 2026-09-02 09:22:36 | 49.45518 | 12.43692 | 91° | 80km/h | 11393m | 3.5m/s | 0°C | 0% | 0hPa | 5V | 00:00:00 | 00:00:00 | 00:00:00 | |
| NBG1-10 | 2026-09-02 09:22:34 | 49.45519 | 12.43632 | 96° | 80km/h | 11381m | 3.8m/s | 0°C | 0% | 0hPa | 5V | 00:00:00 | 00:00:00 | 00:00:00 | |
| BIOWL1-15 | 2026-09-02 09:22:29 | 49.45530 | 12.43425 | 92° | 82km/h | 11357m | 3.7m/s | -57.4°C | 0% | 0hPa | 5V | 00:00:00 | 00:00:00 | 00:00:00 | |
| OE5MMP-10 | 2026-09-02 09:22:26 | 49.45531 | 12.43393 | 94° | 80km/h | 11349m | 3.8m/s | 0°C | 0% | 0hPa | 5V | 00:00:00 | 00:00:00 | 00:00:00 | |
| OE5WHR-10 | 2026-09-02 09:22:25 | 49.45531 | 12.43362 | 95° | 80km/h | 11349m | 3.9m/s | 0°C | 0% | 0hPa | 5V | 00:00:00 | 00:00:00 | 00:00:00 | |
| DO3MHA-11 | 2026-09-02 09:22:23 | 49.45535 | 12.43302 | 96° | 80km/h | 11341m | 3.6m/s | 0°C | 0% | 0hPa | 5V | 00:00:00 | 00:00:00 | 00:00:00 | |
| BIOWL1-15 | 2026-09-02 09:22:19 | 49.45539 | 12.43083 | 93° | 80km/h | 11312m | 4.7m/s | -57.1°C | 0% | 0hPa | 5V | 00:00:00 | 00:00:00 | 00:00:00 | |
| OE5MMP-10 | 2026-09-02 09:22:15 | 49.45540 | 12.43052 | 94° | 80km/h | 11300m | 4.5m/s | 0°C | 0% | 0hPa | 5V | 00:00:00 | 00:00:00 | 00:00:00 | |
| DO3MHA-11 | 2026-09-02 09:22:13 | 49.45542 | 12.42992 | 94° | 82km/h | 11296m | 4.0m/s | 0°C | 0% | 0hPa | 5V | 00:00:00 | 00:00:00 | 00:00:00 | |
| OE5DXL-15 | 2026-09-02 09:22:09 | 49.45543 | 12.42864 | 87° | 82km/h | 11283m | 4.6m/s | 0°C | 0% | 0hPa | 5V | 00:00:00 | 00:00:00 | 00:00:00 | |
| DB0NH | 2026-09-02 09:22:08 | 49.45544 | 12.42832 | 87° | 82km/h | 11279m | 3.7m/s | 0°C | 0% | 0hPa | 5V | 00:00:00 | 00:00:00 | 00:00:00 | |
| DB0UT-7 | 2026-09-02 09:22:07 | 49.45542 | 12.42800 | 87° | 82km/h | 11275m | 4.6m/s | 0°C | 0% | 0hPa | 5V | 00:00:00 | 00:00:00 | 00:00:00 | |
| BIOWL1-15 | 2026-09-02 09:22:06 | 49.45538 | 12.42737 | 88° | 82km/h | 11267m | 4.1m/s | -57.2°C | 0% | 0hPa | 5V | 00:00:00 | 00:00:00 | 00:00:00 | |
| DM0DOS-11 | 2026-09-02 09:22:05 | 49.45535 | 12.42575 | 86° | 82km/h | 11242m | 4.8m/s | 0°C | 0% | 0hPa | 0V | 00:00:00 | 00:00:00 | 00:00:00 | |
| OE5WHR-10 | 2026-09-02 09:22:04 | 49.45538 | 12.42705 | 89° | 82km/h | 11258m | 4.5m/s | 0°C | 0% | 0hPa | 5V | 00:00:00 | 00:00:00 | 00:00:00 | |
| DO3MHA-11 | 2026-09-02 09:22:02 | 49.45537 | 12.42641 | 89° | 82km/h | 11250m | 4.6m/s | 0°C | 0% | 0hPa | 5V | 00:00:00 | 00:00:00 | 00:00:00 | |
| NBG1-10 | 2026-09-02 09:22:00 | 49.45535 | 12.42575 | 87° | 86km/h | 11242m | 4.7m/s | 0°C | 0% | 0hPa | 5V | 00:00:00 | 00:00:00 | 00:00:00 | |
| OE5DRO-10 | 2026-09-02 09:21:56 | 49.45528 | 12.42450 | 85° | 84km/h | 11226m | 3.1m/s | 0°C | 0% | 0hPa | 5V | 00:00:00 | 00:00:00 | 00:00:00 | |
| BIOWL1-15 | 2026-09-02 09:21:55 | 49.45527 | 12.42419 | 86° | 80km/h | 11226m | 4.6m/s | -56.9°C | 0% | 0hPa | 5V | 00:00:00 | 00:00:00 | 00:00:00 | |
| DM0DOS-11 | 2026-09-02 09:21:54 | 49.45520 | 12.42229 | 84° | 80km/h | 11195m | 5.9m/s | 0°C | 0% | 0hPa | 0V | 00:00:00 | 00:00:00 | 00:00:00 | |
| OE5MMP-10 | 2026-09-02 09:21:54 | 49.45525 | 12.42355 | 89° | 82km/h | 11218m | 5.7m/s | 0°C | 0% | 0hPa | 5.1V | 00:00:00 | 00:00:00 | 00:00:00 | |
| DO3MHA-11 | 2026-09-02 09:21:51 | 49.45523 | 12.42291 | 87° | 84km/h | 11204m | 5.3m/s | 0°C | 0% | 0hPa | 5.1V | 00:00:00 | 00:00:00 | 00:00:00 | |
| PETON7-10 | 2026-09-02 09:21:45 | 49.45515 | 12.42101 | 90° | 91km/h | 11170m | 4.5m/s | 0°C | 0% | 0hPa | 5.1V | 00:00:00 | 00:00:00 | 00:00:00 | |
| BIOWL1-15 | 2026-09-02 09:21:44 | 49.45515 | 12.42066 | 90° | 89km/h | 11179m | 3.7m/s | -56.7°C | 0% | 0hPa | 5.1V | 00:00:00 | 00:00:00 | 00:00:00 | |
| DM0DOS-11 | 2026-09-02 09:21:44 | 49.45511 | 12.41869 | 84° | 86km/h | 11148m | 4.9m/s | 0°C | 0% | 0hPa | 0V | 00:00:00 | 00:00:00 | 00:00:00 | |
| OE5MMP-10 | 2026-09-02 09:21:43 | 49.45515 | 12.42031 | 91° | 248km/h | 11166m | 5.1m/s | 0°C | 0% | 0hPa | 5.1V | 00:00:00 | 00:00:00 | 00:00:00 | |
| OE5WHR-10 | 2026-09-02 09:21:42 | 49.45516 | 12.41997 | 91° | 91km/h | 11170m | 4.4m/s | 0°C | 0% | 0hPa | 5.1V | 00:00:00 | 00:00:00 | 00:00:00 | |
| BIOWL1-15 | 2026-09-02 09:21:40 | 49.45503 | 12.41694 | 86° | 93km/h | 11129m | 5.2m/s | -56.6°C | 0% | 0hPa | 5.1V | 00:00:00 | 00:00:00 | 00:00:00 | |
| OE5DXL-15 | 2026-09-02 09:21:39 | 49.45512 | 12.41901 | 87° | 95km/h | 11157m | 3.7m/s | 0°C | 0% | 0hPa | 0V | 00:00:00 | 00:00:00 | 00:00:00 | |
| OE3JTB-15 | 2026-09-02 09:21:38 | 49.45511 | 12.41869 | 85° | 95km/h | 11148m | 4.8m/s | 0°C | 0% | 0hPa | 0V | 00:00:00 | 00:00:00 | 00:00:00 | |
| DB0UT-7 | 2026-09-02 09:21:37 | 49.45509 | 12.41835 | 86° | 97km/h | 11148m | 3.6m/s | 0°C | 0% | 0hPa | 0V | 00:00:00 | 00:00:00 | 00:00:00 | |
| OE5DRO-10 | 2026-09-02 09:21:36 | 49.45506 | 12.41800 | 86° | 95km/h | 11135m | 5.0m/s | 0°C | 0% | 0hPa | 0V | 00:00:00 | 00:00:00 | 00:00:00 | |
| DO8TBO-1 | 2026-09-02 09:21:34 | 49.45504 | 12.41730 | 89° | 99km/h | 11129m | 5.0m/s | 0°C | 0% | 0hPa | 0V | 00:00:00 | 00:00:00 | 00:00:00 | |
| DM0DOS-11 | 2026-09-02 09:21:32 | 49.45497 | 12.41481 | 88° | 91km/h | 11102m | 4.7m/s | 0°C | 0% | 0hPa | 0V | 00:00:00 | 00:00:00 | 00:00:00 | |
| OE5MMP-10 | 2026-09-02 09:21:32 | 49.45501 | 12.41658 | 86° | 97km/h | 11111m | 3.9m/s | 0°C | 0% | 0hPa | 5.1V | 00:00:00 | 00:00:00 | 00:00:00 | |
| DO3MHA-11 | 2026-09-02 09:21:30 | 49.45499 | 12.41586 | 89° | 97km/h | 11111m | 4.3m/s | 0°C | 0% | 0hPa | 5.1V | 00:00:00 | 00:00:00 | 00:00:00 | |
| NBG1-10 | 2026-09-02 09:21:26 | 49.45497 | 12.41445 | 88° | 102km/h | 11097m | 4.6m/s | 0°C | 0% | 0hPa | 5.1V | 00:00:00 | 00:00:00 | 00:00:00 | |
| BIOWL1-15 | 2026-09-02 09:21:23 | 49.45488 | 12.41288 | 87° | 100km/h | 11081m | 4.2m/s | -56.3°C | 0% | 0hPa | 5.1V | 00:00:00 | 00:00:00 | 00:00:00 | |
| DM0DOS-11 | 2026-09-02 09:21:22 | 49.45479 | 12.41105 | 86° | 97km/h | 11056m | 4.7m/s | 0°C | 0% | 0hPa | 0V | 00:00:00 | 00:00:00 | 00:00:00 | |
| OE5WHR-10 | 2026-09-02 09:21:21 | 49.45486 | 12.41250 | 85° | 100km/h | 11072m | 4.7m/s | 0°C | 0% | 0hPa | 5.1V | 00:00:00 | 00:00:00 | 00:00:00 | |
| DO3MHA-11 | 2026-09-02 09:21:19 | 49.45482 | 12.41178 | 87° | 99km/h | 11064m | 4.4m/s | 0°C | 0% | 0hPa | 5.1V | 00:00:00 | 00:00:00 | 00:00:00 | |
| OE5DRO-10 | 2026-09-02 09:21:17 | 49.45479 | 12.41105 | 87° | 102km/h | 11056m | 4.6m/s | 0°C | 0% | 0hPa | 5.1V | 00:00:00 | 00:00:00 | 00:00:00 | |
| BIOWL1-15 | 2026-09-02 09:21:13 | 49.45469 | 12.40913 | 84° | 102km/h | 11039m | 3.7m/s | -56.3°C | 0% | 0hPa | 5.1V | 00:00:00 | 00:00:00 | 00:00:00 | |
| OE5MMP-10 | 2026-09-02 09:21:12 | 49.45471 | 12.40913 | 84° | 102km/h | 11040m | 3.6m/s | 0°C | 0% | 0hPa | 0V | 00:00:00 | 00:00:00 | 00:00:00 | |
| DM0DOS-11 | 2026-09-02 09:21:11 | 49.45456 | 12.40673 | 86° | 106km/h | 11012m | 3.8m/s | 0°C | 0% | 0hPa | 0V | 00:00:00 | 00:00:00 | 00:00:00 | |
| OE5DXL-15 | 2026-09-02 09:21:09 | 49.45462 | 12.40795 | 85° | 104km/h | 11028m | 4.7m/s | 0°C | 0% | 0hPa | 5.1V | 00:00:00 | 00:00:00 | 00:00:00 | |
| DB0NH | 2026-09-02 09:21:08 | 49.45459 | 12.40754 | 86° | 104km/h | 11020m | 4.1m/s | 0°C | 0% | 0hPa | 5.1V | 00:00:00 | 00:00:00 | 00:00:00 | |
| BIOWL1-15 | 2026-09-02 09:21:05 | 49.45440 | 12.40470 | 82° | 106km/h | 10995m | 3.5m/s | -56.1°C | 0% | 0hPa | 5.1V | 00:00:00 | 00:00:00 | 00:00:00 | |
| DB0UT-7 | 2026-09-02 09:21:05 | 49.45456 | 12.40632 | 85° | 104km/h | 11012m | 4.1m/s | 0°C | 0% | 0hPa | 0V | 00:00:00 | 00:00:00 | 00:00:00 | |
| DO8TBO-1 | 2026-09-02 09:21:04 | 49.45451 | 12.40591 | 84° | 104km/h | 11004m | 4.3m/s | 0°C | 0% | 0hPa | 0V | 00:00:00 | 00:00:00 | 00:00:00 | |
| OE5MMP-10 | 2026-09-02 09:21:02 | 49.45444 | 12.40510 | 82° | 104km/h | 10991m | 4.8m/s | 0°C | 0% | 0hPa | 0V | 00:00:00 | 00:00:00 | 00:00:00 | |
| DM0DOS-11 | 2026-09-02 09:21:00 | 49.45429 | 12.40228 | 84° | 102km/h | 10967m | 4.2m/s | 0°C | 0% | 0hPa | 0V | 00:00:00 | 00:00:00 | 00:00:00 | |
| OE5WHR-10 | 2026-09-02 09:20:59 | 49.45437 | 12.40389 | 87° | 102km/h | 10987m | 4.5m/s | 0°C | 0% | 0hPa | 5.1V | 00:00:00 | 00:00:00 | 00:00:00 | |
| OE5DRO-10 | 2026-09-02 09:20:58 | 49.45434 | 12.40348 | 87° | 102km/h | 10979m | 4.3m/s | 0°C | 0% | 0hPa | 5.1V | 00:00:00 | 00:00:00 | 00:00:00 | |
| NBG1-10 | 2026-09-02 09:20:53 | 49.45422 | 12.40148 | 82° | 102km/h | 10958m | 4.1m/s | 0°C | 0% | 0hPa | 5.1V | 00:00:00 | 00:00:00 | 00:00:00 | |
| BIOWL1-15 | 2026-09-02 09:20:51 | 49.45412 | 12.40032 | 83° | 102km/h | 10950m | 4.4m/s | -55.9°C | 0% | 0hPa | 5.1V | 00:00:00 | 00:00:00 | 00:00:00 | |
| DM0DOS-11 | 2026-09-02 09:20:49 | 49.45396 | 12.39795 | 82° | 102km/h | 10926m | 3.7m/s | 0°C | 0% | 0hPa | 0V | 00:00:00 | 00:00:00 | 00:00:00 | |
| DO3MHA-11 | 2026-09-02 09:20:48 | 49.45409 | 12.39953 | 84° | 102km/h | 10942m | 3.0m/s | 0°C | 0% | 0hPa | 5.1V | 00:00:00 | 00:00:00 | 00:00:00 | |
| OE5MMP-10 | 2026-09-02 09:20:41 | 49.45386 | 12.39678 | 83° | 102km/h | 10914m | 3.2m/s | 0°C | 0% | 0hPa | 5.1V | 00:00:00 | 00:00:00 | 00:00:00 | |
| BIOWL1-15 | 2026-09-02 09:20:40 | 49.45375 | 12.39599 | 82° | 106km/h | 10906m | 3.1m/s | -55.5°C | 0% | 0hPa | 5.1V | 00:00:00 | 00:00:00 | 00:00:00 | |
| DM0DOS-11 | 2026-09-02 09:20:39 | 49.45356 | 12.39399 | 82° | 100km/h | 10882m | 4m/s | 0°C | 0% | 0hPa | 0V | 00:00:00 | 00:00:00 | 00:00:00 | |
| OE3JTB-15 | 2026-09-02 09:20:39 | 49.45375 | 12.39598 | 82° | 102km/h | 10902m | 3.2m/s | 0°C | 0% | 0hPa | 5.1V | 00:00:00 | 00:00:00 | 00:00:00 | |
| OE5WHR-10 | 2026-09-02 09:20:38 | 49.45371 | 12.39558 | 83° | 102km/h | 10898m | 4.6m/s | 0°C | 0% | 0hPa | 5.1V | 00:00:00 | 00:00:00 | 00:00:00 | |
| DB0UT-7 | 2026-09-02 09:20:35 | 49.45364 | 12.39438 | 82° | 102km/h | 10890m | 3.8m/s | 0°C | 0% | 0hPa | 5.1V | 00:00:00 | 00:00:00 | 00:00:00 | |
| DO8TBO-1 | 2026-09-02 09:20:34 | 49.45356 | 12.39399 | 83° | 102km/h | 10882m | 4.0m/s | 0°C | 0% | 0hPa | 5.1V | 00:00:00 | 00:00:00 | 00:00:00 | |
| BIOWL1-15 | 2026-09-02 09:20:29 | 49.45338 | 12.39206 | 81° | 102km/h | 10866m | 4.7m/s | -55.3°C | 0% | 0hPa | 5.1V | 00:00:00 | 00:00:00 | 00:00:00 | |
| DM0DOS-11 | 2026-09-02 09:20:28 | 49.45317 | 12.38969 | 81° | 99km/h | 10839m | 3m/s | 0°C | 0% | 0hPa | 0V | 00:00:00 | 00:00:00 | 00:00:00 | |
| BIOWL1-15 | 2026-09-02 09:20:24 | 49.45299 | 12.38773 | 84° | 108km/h | 10824m | 4.3m/s | -54.9°C | 0% | 0hPa | 5.1V | 00:00:00 | 00:00:00 | 00:00:00 | |
| OE5DRO-10 | 2026-09-02 09:20:19 | 49.45302 | 12.38813 | 85° | 100km/h | 10824m | 3.4m/s | 0°C | 0% | 0hPa | 0V | 00:00:00 | 00:00:00 | 00:00:00 | |
| OE5MMP-10 | 2026-09-02 09:20:18 | 49.45298 | 12.38773 | 84° | 102km/h | 10824m | 4.3m/s | 0°C | 0% | 0hPa | 0V | 00:00:00 | 00:00:00 | 00:00:00 | |
| DM0DOS-11 | 2026-09-02 09:20:17 | 49.45279 | 12.38536 | 82° | 100km/h | 10796m | 3.7m/s | 0°C | 0% | 0hPa | 0V | 00:00:00 | 00:00:00 | 00:00:00 | |
| OE5WHR-10 | 2026-09-02 09:20:16 | 49.45296 | 12.38691 | 84° | 99km/h | 10816m | 4.3m/s | 0°C | 0% | 0hPa | 5.1V | 00:00:00 | 00:00:00 | 00:00:00 | |
| BIOWL1-15 | 2026-09-02 09:20:10 | 49.45261 | 12.38342 | 81° | 100km/h | 10780m | 3.4m/s | -54.7°C | 0% | 0hPa | 5.1V | 00:00:00 | 00:00:00 | 00:00:00 | |
| OE5DXL-15 | 2026-09-02 09:20:09 | 49.45268 | 12.38419 | 83° | 99km/h | 10788m | 4.5m/s | 0°C | 0% | 0hPa | 0V | 00:00:00 | 00:00:00 | 00:00:00 | |
| OE3JTB-15 | 2026-09-02 09:20:08 | 49.45265 | 12.38380 | 82° | 99km/h | 10780m | 4.5m/s | 0°C | 0% | 0hPa | 0V | 00:00:00 | 00:00:00 | 00:00:00 | |
| DM0DOS-11 | 2026-09-02 09:20:07 | 49.45244 | 12.38155 | 82° | 95km/h | 10756m | 3m/s | 0°C | 0% | 0hPa | 0V | 00:00:00 | 00:00:00 | 00:00:00 | |
| DB0UT-7 | 2026-09-02 09:20:05 | 49.45257 | 12.38267 | 83° | 97km/h | 10772m | 3.2m/s | 0°C | 0% | 0hPa | 5.1V | 00:00:00 | 00:00:00 | 00:00:00 | |
| DO8TBO-1 | 2026-09-02 09:20:04 | 49.45250 | 12.38229 | 83° | 97km/h | 10764m | 3.7m/s | 0°C | 0% | 0hPa | 5.1V | 00:00:00 | 00:00:00 | 00:00:00 | |
| DF7PN | 2026-09-02 09:20:03 | 49.45241 | 12.38117 | 82° | 95km/h | 10756m | 3.1m/s | -54.4°C | -1.0% | -1.0hPa | 5.1V | 00:00:00 | 00:00:00 | 00:00:00 | |
| BIOWL1-15 | 2026-09-02 09:19:59 | 49.45225 | 12.37927 | 83° | 95km/h | 10737m | 4.5m/s | -54.3°C | 0% | 0hPa | 5.1V | 00:00:00 | 00:00:00 | 00:00:00 | |
| DM0DOS-11 | 2026-09-02 09:19:57 | 49.45217 | 12.37781 | 82° | 100km/h | 10722m | 3.4m/s | 0°C | 0% | 0hPa | 0V | 00:00:00 | 00:00:00 | 00:00:00 | |
| OE5MMP-10 | 2026-09-02 09:19:57 | 49.45228 | 12.37963 | 84° | 97km/h | 10722m | 2.8m/s | 0°C | 0% | 0hPa | 0V | 00:00:00 | 00:00:00 | 00:00:00 | |
| OE5WHR-10 | 2026-09-02 09:19:55 | 49.45222 | 12.37890 | 83° | 97km/h | 10729m | 4.2m/s | 0°C | 0% | 0hPa | 0V | 00:00:00 | 00:00:00 | 00:00:00 | |
| DM0DOS-11 | 2026-09-02 09:19:47 | 49.45182 | 12.37410 | 79° | 100km/h | 10677m | 4.1m/s | 0°C | 0% | 0hPa | 0V | 00:00:00 | 00:00:00 | 00:00:00 | |
| BIOWL1-15 | 2026-09-02 09:19:46 | 49.45194 | 12.37519 | 84° | 91km/h | 10693m | 4.4m/s | -53.9°C | 0% | 0hPa | 5.1V | 00:00:00 | 00:00:00 | 00:00:00 | |
| NBG1-10 | 2026-09-02 09:19:46 | 49.45196 | 12.37554 | 85° | 95km/h | 10693m | 2.9m/s | 0°C | 0% | 0hPa | 0V | 00:00:00 | 00:00:00 | 00:00:00 | |
| OE5DRO-10 | 2026-09-02 09:19:40 | 49.45174 | 12.37331 | 82° | 95km/h | 10668m | 4.7m/s | 0°C | 0% | 0hPa | 0V | 00:00:00 | 00:00:00 | 00:00:00 | |
| OE5DXL-15 | 2026-09-02 09:19:39 | 49.45171 | 12.37292 | 84° | 93km/h | 10668m | 3.1m/s | 0°C | 0% | 0hPa | 0V | 00:00:00 | 00:00:00 | 00:00:00 | |
| OE3JTB-15 | 2026-09-02 09:19:38 | 49.45168 | 12.37253 | 86° | 93km/h | 10656m | 4.9m/s | 0°C | 0% | 0hPa | 0V | 00:00:00 | 00:00:00 | 00:00:00 | |
| DM0DOS-11 | 2026-09-02 09:19:37 | 49.45152 | 12.37041 | 79° | 99km/h | 10638m | 5m/s | 0°C | 0% | 0hPa | 0V | 00:00:00 | 00:00:00 | 00:00:00 | |
| DB0NH | 2026-09-02 09:19:37 | 49.45169 | 12.37217 | 87° | 93km/h | 10659m | 4.1m/s | 0°C | 0% | 0hPa | 5.1V | 00:00:00 | 00:00:00 | 00:00:00 | |
| DF2AP-13 | 2026-09-02 09:19:36 | 49.45165 | 12.37182 | 84° | 93km/h | 10648m | 4.1m/s | 0°C | 0% | 0hPa | 5.1V | 00:00:00 | 00:00:00 | 00:00:00 | |
| BIOWL1-15 | 2026-09-02 09:19:35 | 49.45161 | 12.37149 | 79° | 88km/h | 10652m | 2.8m/s | -53.6°C | 0% | 0hPa | 5.1V | 00:00:00 | 00:00:00 | 00:00:00 | |
| OE5MMP-10 | 2026-09-02 09:19:35 | 49.45166 | 12.37149 | 80° | 93km/h | 10652m | 2.8m/s | 0°C | 0% | 0hPa | 0V | 00:00:00 | 00:00:00 | 00:00:00 | |
| DO8TBO-1 | 2026-09-02 09:19:34 | 49.45157 | 12.37116 | 79° | 93km/h | 10643m | 4.5m/s | 0°C | 0% | 0hPa | 0V | 00:00:00 | 00:00:00 | 00:00:00 | |
| OE5WHR-10 | 2026-09-02 09:19:33 | 49.45157 | 12.37079 | 80° | 93km/h | 10643m | 4.5m/s | 0°C | 0% | 0hPa | 0V | 00:00:00 | 00:00:00 | 00:00:00 | |
| DM0DOS-11 | 2026-09-02 09:19:27 | 49.45120 | 12.36678 | 82° | 93km/h | 10593m | 5.3m/s | 0°C | 0% | 0hPa | 0V | 00:00:00 | 00:00:00 | 00:00:00 | |
| BIOWL1-15 | 2026-09-02 09:19:25 | 49.45122 | 12.36749 | 83° | 91km/h | 10602m | 6.2m/s | -53.3°C | 0% | 0hPa | 5.1V | 00:00:00 | 00:00:00 | 00:00:00 | |
| OE5DRO-10 | 2026-09-02 09:19:21 | 49.45114 | 12.36605 | 83° | 91km/h | 10584m | 5.0m/s | 0°C | 0% | 0hPa | 5.1V | 00:00:00 | 00:00:00 | 00:00:00 | |
| BIOWL1-15 | 2026-09-02 09:19:14 | 49.45093 | 12.36358 | 80° | 89km/h | 10552m | 6.2m/s | -52.8°C | 0% | 0hPa | 5.1V | 00:00:00 | 00:00:00 | 00:00:00 | |
| NBG1-10 | 2026-09-02 09:19:12 | 49.45089 | 12.36324 | 82° | 89km/h | 10543m | 3.8m/s | 0°C | 0% | 0hPa | 5.1V | 00:00:00 | 00:00:00 | 00:00:00 | |
| OE5DXL-15 | 2026-09-02 09:19:09 | 49.45083 | 12.36214 | 89° | 88km/h | 10534m | 4.9m/s | 0°C | 0% | 0hPa | 5.1V | 00:00:00 | 00:00:00 | 00:00:00 | |
| OE3JTB-15 | 2026-09-02 09:19:08 | 49.45083 | 12.36177 | 89° | 88km/h | 10530m | 3.9m/s | 0°C | 0% | 0hPa | 5.1V | 00:00:00 | 00:00:00 | 00:00:00 | |
| DF2AP-13 | 2026-09-02 09:19:06 | 49.45077 | 12.36078 | 81° | 88km/h | 10515m | 5.3m/s | 0°C | 0% | 0hPa | 5.1V | 00:00:00 | 00:00:00 | 00:00:00 | |
| BIOWL1-15 | 2026-09-02 09:19:05 | 49.45065 | 12.35973 | 86° | 95km/h | 10502m | 4.9m/s | -52.3°C | 0% | 0hPa | 5.1V | 00:00:00 | 00:00:00 | 00:00:00 | |
| OE5MMP-10 | 2026-09-02 09:19:04 | 49.45071 | 12.36010 | 83° | 88km/h | 10507m | 4.8m/s | 0°C | 0% | 0hPa | 0V | 00:00:00 | 00:00:00 | 00:00:00 | |
| DO8TBO-1 | 2026-09-02 09:19:03 | 49.45068 | 12.36010 | 84° | 88km/h | 10502m | 4.9m/s | 0°C | 0% | 0hPa | 0V | 00:00:00 | 00:00:00 | 00:00:00 | |
| OE5DRO-10 | 2026-09-02 09:19:01 | 49.45064 | 12.35937 | 88° | 88km/h | 10493m | 4.3m/s | 0°C | 0% | 0hPa | 0V | 00:00:00 | 00:00:00 | 00:00:00 | |
| DM0DOS-11 | 2026-09-02 09:18:55 | 49.45041 | 12.35561 | 85° | 88km/h | 10443m | 5m/s | 0°C | 0% | 0hPa | 0V | 00:00:00 | 00:00:00 | 00:00:00 | |
| DO3MHA-11 | 2026-09-02 09:18:55 | 49.45050 | 12.35734 | 82° | 89km/h | 10465m | 3.9m/s | 0°C | 0% | 0hPa | 5.1V | 00:00:00 | 00:00:00 | 00:00:00 | |
| BIOWL1-15 | 2026-09-02 09:18:54 | 49.45044 | 12.35631 | 86° | 91km/h | 10456m | 5.2m/s | -51.9°C | 0% | 0hPa | 5.1V | 00:00:00 | 00:00:00 | 00:00:00 | |
| OE5MMP-10 | 2026-09-02 09:18:52 | 49.45047 | 12.35630 | 87° | 88km/h | 10456m | 5.1m/s | 0°C | 0% | 0hPa | 0V | 00:00:00 | 00:00:00 | 00:00:00 | |
| OE5WHR-10 | 2026-09-02 09:18:50 | 49.45041 | 12.35560 | 86° | 86km/h | 10443m | 5.0m/s | 0°C | 0% | 0hPa | 0V | 00:00:00 | 00:00:00 | 00:00:00 | |
| DM0DOS-11 | 2026-09-02 09:18:44 | 49.45017 | 12.35191 | 87° | 84km/h | 10399m | 3.6m/s | 0°C | 0% | 0hPa | 0V | 00:00:00 | 00:00:00 | 00:00:00 | |
| DO3MHA-11 | 2026-09-02 09:18:44 | 49.45028 | 12.35360 | 85° | 86km/h | 10417m | 5.0m/s | 0°C | 0% | 0hPa | 5.1V | 00:00:00 | 00:00:00 | 00:00:00 | |
| BIOWL1-15 | 2026-09-02 09:18:42 | 49.45020 | 12.35257 | 85° | 86km/h | 10408m | 3.7m/s | -51.5°C | 0% | 0hPa | 5.1V | 00:00:00 | 00:00:00 | 00:00:00 | |
| OE3JTB-15 | 2026-09-02 09:18:39 | 49.45016 | 12.35158 | 85° | 86km/h | 10390m | 3.8m/s | 0°C | 0% | 0hPa | 5.1V | 00:00:00 | 00:00:00 | 00:00:00 | |
| NBG1-10 | 2026-09-02 09:18:38 | 49.45016 | 12.35158 | 88° | 88km/h | 10395m | 5.3m/s | 0°C | 0% | 0hPa | 5.1V | 00:00:00 | 00:00:00 | 00:00:00 | |
| DF2AP-13 | 2026-09-02 09:18:35 | 49.45009 | 12.35059 | 82° | 88km/h | 10378m | 3.5m/s | 0°C | 0% | 0hPa | 5.1V | 00:00:00 | 00:00:00 | 00:00:00 | |
| DB0UT-7 | 2026-09-02 09:18:34 | 49.45009 | 12.35025 | 83° | 88km/h | 10378m | 4.4m/s | 0°C | 0% | 0hPa | 5.1V | 00:00:00 | 00:00:00 | 00:00:00 | |
| DO3MHA-11 | 2026-09-02 09:18:33 | 49.45003 | 12.34992 | 83° | 88km/h | 10368m | 5.1m/s | 0°C | 0% | 0hPa | 5.1V | 00:00:00 | 00:00:00 | 00:00:00 | |
| BIOWL1-15 | 2026-09-02 09:18:31 | 49.44998 | 12.34891 | 88° | 84km/h | 10359m | 3.2m/s | -51°C | 0% | 0hPa | 5.1V | 00:00:00 | 00:00:00 | 00:00:00 | |
| OE5MMP-10 | 2026-09-02 09:18:29 | 49.44997 | 12.34859 | 87° | 88km/h | 10351m | 5.0m/s | 0°C | 0% | 0hPa | 5.1V | 00:00:00 | 00:00:00 | 00:00:00 | |
| OE5DRO-10 | 2026-09-02 09:18:23 | 49.44982 | 12.34654 | 88° | 88km/h | 10325m | 4.0m/s | 0°C | 0% | 0hPa | 5.1V | 00:00:00 | 00:00:00 | 00:00:00 | |
| DO3MHA-11 | 2026-09-02 09:18:22 | 49.44980 | 12.34620 | 87° | 88km/h | 10321m | 3.9m/s | 0°C | 0% | 0hPa | 5.1V | 00:00:00 | 00:00:00 | 00:00:00 | |
| BIOWL1-15 | 2026-09-02 09:18:20 | 49.44972 | 12.34519 | 82° | 84km/h | 10311m | 2.7m/s | -50.6°C | 0% | 0hPa | 5.1V | 00:00:00 | 00:00:00 | 00:00:00 | |
| OE5MMP-10 | 2026-09-02 09:18:18 | 49.44969 | 12.34487 | 83° | 86km/h | 10294m | 4.3m/s | 0°C | 0% | 0hPa | 0V | 00:00:00 | 00:00:00 | 00:00:00 | |
| DM0DOS-11 | 2026-09-02 09:18:12 | 49.44944 | 12.34118 | 82° | 82km/h | 10255m | 3.8m/s | 0°C | 0% | 0hPa | 0V | 00:00:00 | 00:00:00 | 00:00:00 | |
| DO3MHA-11 | 2026-09-02 09:18:12 | 49.44955 | 12.34285 | 87° | 88km/h | 10277m | 5.1m/s | 0°C | 0% | 0hPa | 5.1V | 00:00:00 | 00:00:00 | 00:00:00 | |
| BIOWL1-15 | 2026-09-02 09:18:11 | 49.44949 | 12.34183 | 84° | 88km/h | 10268m | 3.6m/s | -50.2°C | 0% | 0hPa | 5.1V | 00:00:00 | 00:00:00 | 00:00:00 | |
| OE5DXL-15 | 2026-09-02 09:18:09 | 49.44949 | 12.34183 | 84° | 88km/h | 10268m | 3.6m/s | 0°C | 0% | 0hPa | 0V | 00:00:00 | 00:00:00 | 00:00:00 | |
| OE3JTB-15 | 2026-09-02 09:18:08 | 49.44948 | 12.34150 | 83° | 86km/h | 10264m | 5.2m/s | 0°C | 0% | 0hPa | 0V | 00:00:00 | 00:00:00 | 00:00:00 | |
| OE5WHR-10 | 2026-09-02 09:18:07 | 49.44944 | 12.34118 | 83° | 88km/h | 10255m | 3.8m/s | 0°C | 0% | 0hPa | 0V | 00:00:00 | 00:00:00 | 00:00:00 | |
| OE5MMP-10 | 2026-09-02 09:18:05 | 49.44938 | 12.34051 | 84° | 88km/h | 10233m | 3.5m/s | 0°C | 0% | 0hPa | 0V | 00:00:00 | 00:00:00 | 00:00:00 | |
| OE5DRO-10 | 2026-09-02 09:18:03 | 49.44935 | 12.33983 | 87° | 88km/h | 10238m | 4.6m/s | 0°C | 0% | 0hPa | 0V | 00:00:00 | 00:00:00 | 00:00:00 | |
| SONDE2-11 | 2026-09-02 09:18:02 | 49.44932 | 12.33914 | 86° | 86km/h | 10233m | 5.6m/s | -50.6°C | -1.0% | -1.0hPa | 0V | 00:00:00 | 00:00:00 | 00:00:00 | |
| DM0DOS-11 | 2026-09-02 09:18:01 | 49.44926 | 12.33746 | 87° | 91km/h | 10212m | 3.8m/s | 0°C | 0% | 0hPa | 0V | 00:00:00 | 00:00:00 | 00:00:00 | |
| DO3MHA-11 | 2026-09-02 09:18:01 | 49.44932 | 12.33914 | 87° | 88km/h | 10229m | 5.6m/s | 0°C | 0% | 0hPa | 5.1V | 00:00:00 | 00:00:00 | 00:00:00 | |
| BIOWL1-15 | 2026-09-02 09:17:58 | 49.44927 | 12.33815 | 85° | 88km/h | 10221m | 4.1m/s | -49.9°C | 0% | 0hPa | 5.1V | 00:00:00 | 00:00:00 | 00:00:00 | |
| OE5MMP-10 | 2026-09-02 09:17:53 | 49.44919 | 12.33608 | 87° | 86km/h | 10196m | 3.7m/s | 0°C | 0% | 0hPa | 5.1V | 00:00:00 | 00:00:00 | 00:00:00 | |
| DO3MHA-11 | 2026-09-02 09:17:50 | 49.44913 | 12.33543 | 86° | 86km/h | 10184m | 3.7m/s | 0°C | 0% | 0hPa | 5.1V | 00:00:00 | 00:00:00 | 00:00:00 | |
| BIOWL1-15 | 2026-09-02 09:17:48 | 49.44908 | 12.33440 | 87° | 91km/h | 10176m | 4.5m/s | -49.4°C | 0% | 0hPa | 5.1V | 00:00:00 | 00:00:00 | 00:00:00 | |
| OE5DRO-10 | 2026-09-02 09:17:44 | 49.44903 | 12.33338 | 85° | 86km/h | 10161m | 4.4m/s | 0°C | 0% | 0hPa | 0V | 00:00:00 | 00:00:00 | 00:00:00 | |
| DM0DOS-11 | 2026-09-02 09:17:40 | 49.44886 | 12.33038 | 84° | 82km/h | 10124m | 4.5m/s | 0°C | 0% | 0hPa | 0V | 00:00:00 | 00:00:00 | 00:00:00 | |
| OE3JTB-15 | 2026-09-02 09:17:39 | 49.44894 | 12.33172 | 87° | 86km/h | 10128m | 3.7m/s | 0°C | 0% | 0hPa | 0V | 00:00:00 | 00:00:00 | 00:00:00 | |
| DO8TBO-1 | 2026-09-02 09:17:33 | 49.44882 | 12.32973 | 85° | 86km/h | 10116m | 5.4m/s | 0°C | 0% | 0hPa | 0V | 00:00:00 | 00:00:00 | 00:00:00 | |
| DB0UT-7 | 2026-09-02 09:17:31 | 49.44878 | 12.32904 | 86° | 84km/h | 10087m | 4.1m/s | 0°C | 0% | 0hPa | 0V | 00:00:00 | 00:00:00 | 00:00:00 | |
| DO3MHA-11 | 2026-09-02 09:17:30 | 49.44878 | 12.32869 | 87° | 86km/h | 10107m | 5.0m/s | 0°C | 0% | 0hPa | 0V | 00:00:00 | 00:00:00 | 00:00:00 | |
| DM0DOS-11 | 2026-09-02 09:17:29 | 49.44864 | 12.32670 | 84° | 86km/h | 10078m | 3.8m/s | 0°C | 0% | 0hPa | 0V | 00:00:00 | 00:00:00 | 00:00:00 | |
| BIOWL1-15 | 2026-09-02 09:17:28 | 49.44868 | 12.32735 | 83° | 84km/h | 10091m | 4.6m/s | 0°C | 0% | 0hPa | 5.1V | 00:00:00 | 00:00:00 | 00:00:00 | |
| OE5WHR-10 | 2026-09-02 09:17:24 | 49.44864 | 12.32670 | 85° | 84km/h | 10078m | 3.8m/s | 0°C | 0% | 0hPa | 0V | 00:00:00 | 00:00:00 | 00:00:00 | |
| DO3MHA-11 | 2026-09-02 09:17:20 | 49.44857 | 12.32534 | 84° | 84km/h | 10061m | 3.5m/s | 0°C | 0% | 0hPa | 0V | 00:00:00 | 00:00:00 | 00:00:00 | |
| DM0DOS-11 | 2026-09-02 09:17:19 | 49.44845 | 12.32339 | 85° | 80km/h | 10037m | 3.9m/s | 0°C | 0% | 0hPa | 0V | 00:00:00 | 00:00:00 | 00:00:00 | |
| BIOWL1-15 | 2026-09-02 09:17:11 | 49.44835 | 12.32208 | 83° | 88km/h | 10025m | 5.2m/s | -48.1°C | 0% | 0hPa | 5.1V | 00:00:00 | 00:00:00 | 00:00:00 | |
| DM0DOS-11 | 2026-09-02 09:17:09 | 49.44824 | 12.32014 | 82° | 84km/h | 10001m | 3.5m/s | 0°C | 0% | 0hPa | 0V | 00:00:00 | 00:00:00 | 00:00:00 | |
| OE3JTB-15 | 2026-09-02 09:17:09 | 49.44832 | 12.32175 | 84° | 82km/h | 10016m | 3.8m/s | 0°C | 0% | 0hPa | 5.1V | 00:00:00 | 00:00:00 | 00:00:00 | |
| DF2AP-13 | 2026-09-02 09:17:05 | 49.44824 | 12.32046 | 84° | 84km/h | 10001m | 3.6m/s | 0°C | 0% | 0hPa | 5.1V | 00:00:00 | 00:00:00 | 00:00:00 | |
| DO8TBO-1 | 2026-09-02 09:17:03 | 49.44819 | 12.31981 | 84° | 84km/h | 9993m | 5.0m/s | 0°C | 0% | 0hPa | 5.1V | 00:00:00 | 00:00:00 | 00:00:00 | |
| OE5WHR-10 | 2026-09-02 09:17:02 | 49.44819 | 12.31948 | 85° | 84km/h | 9993m | 3.8m/s | 0°C | 0% | 0hPa | 5.1V | 00:00:00 | 00:00:00 | 00:00:00 | |
| BIOWL1-15 | 2026-09-02 09:17:00 | 49.44812 | 12.31884 | 84° | 82km/h | 9984m | 3.3m/s | -47.7°C | 0% | 0hPa | 5.1V | 00:00:00 | 00:00:00 | 00:00:00 | |
| DB0UT-7 | 2026-09-02 09:17:00 | 49.44815 | 12.31884 | 84° | 84km/h | 9984m | 3.3m/s | 0°C | 0% | 0hPa | 0V | 00:00:00 | 00:00:00 | 00:00:00 | |
| DM0DOS-11 | 2026-09-02 09:16:59 | 49.44798 | 12.31689 | 82° | 82km/h | 9955m | 3.5m/s | 0°C | 0% | 0hPa | 0V | 00:00:00 | 00:00:00 | 00:00:00 | |
| NBG1-10 | 2026-09-02 09:16:58 | 49.44808 | 12.31819 | 84° | 82km/h | 9972m | 4.9m/s | 0°C | 0% | 0hPa | 0V | 00:00:00 | 00:00:00 | 00:00:00 | |
| DO3MHA-11 | 2026-09-02 09:16:54 | 49.44797 | 12.31689 | 83° | 84km/h | 9955m | 3.5m/s | 0°C | 0% | 0hPa | 0V | 00:00:00 | 00:00:00 | 00:00:00 | |
| BIOWL1-15 | 2026-09-02 09:16:52 | 49.44787 | 12.31559 | 85° | 84km/h | 9943m | 4.8m/s | 0°C | 0% | 0hPa | 0V | 00:00:00 | 00:00:00 | 00:00:00 | |
| OE5DRO-10 | 2026-09-02 09:16:45 | 49.44779 | 12.31399 | 84° | 82km/h | 9919m | 3.9m/s | 0°C | 0% | 0hPa | 0V | 00:00:00 | 00:00:00 | 00:00:00 | |
| DO3MHA-11 | 2026-09-02 09:16:44 | 49.44779 | 12.31366 | 84° | 82km/h | 9919m | 3.9m/s | 0°C | 0% | 0hPa | 0V | 00:00:00 | 00:00:00 | 00:00:00 | |
| OE5WHR-10 | 2026-09-02 09:16:41 | 49.44767 | 12.31270 | 83° | 82km/h | 9901m | 5.1m/s | 0°C | 0% | 0hPa | 0V | 00:00:00 | 00:00:00 | 00:00:00 | |
| OE3JTB-15 | 2026-09-02 09:16:40 | 49.44766 | 12.31239 | 84° | 80km/h | 9901m | 4.1m/s | 0°C | 0% | 0hPa | 0V | 00:00:00 | 00:00:00 | 00:00:00 | |
| OE5DXL-15 | 2026-09-02 09:16:39 | 49.44762 | 12.31208 | 86° | 80km/h | 9893m | 4.0m/s | 0°C | 0% | 0hPa | 0V | 00:00:00 | 00:00:00 | 00:00:00 | |
| DB0NH | 2026-09-02 09:16:35 | 49.44755 | 12.31083 | 83° | 82km/h | 9877m | 3.5m/s | 0°C | 0% | 0hPa | 0V | 00:00:00 | 00:00:00 | 00:00:00 | |
| DO3MHA-11 | 2026-09-02 09:16:34 | 49.44755 | 12.31051 | 83° | 82km/h | 9877m | 4.4m/s | 0°C | 0% | 0hPa | 0V | 00:00:00 | 00:00:00 | 00:00:00 | |
| DO8TBO-1 | 2026-09-02 09:16:33 | 49.44749 | 12.31019 | 84° | 80km/h | 9869m | 4.7m/s | 0°C | 0% | 0hPa | 0V | 00:00:00 | 00:00:00 | 00:00:00 | |
| DB0UT-7 | 2026-09-02 09:16:31 | 49.44746 | 12.30908 | 87° | 80km/h | 9860m | 5.0m/s | 0°C | 0% | 0hPa | 0V | 00:00:00 | 00:00:00 | 00:00:00 | |
| OE5DRO-10 | 2026-09-02 09:16:26 | 49.44737 | 12.30799 | 83° | 80km/h | 9840m | 4.2m/s | 0°C | 0% | 0hPa | 0V | 00:00:00 | 00:00:00 | 00:00:00 | |
| DO3MHA-11 | 2026-09-02 09:16:24 | 49.44732 | 12.30736 | 84° | 82km/h | 9831m | 4.4m/s | 0°C | 0% | 0hPa | 0V | 00:00:00 | 00:00:00 | 00:00:00 | |
| OE5WHR-10 | 2026-09-02 09:16:19 | 49.44722 | 12.30579 | 85° | 80km/h | 9813m | 4.4m/s | 0°C | 0% | 0hPa | 0V | 00:00:00 | 00:00:00 | 00:00:00 | |
| DO3MHA-11 | 2026-09-02 09:16:13 | 49.44709 | 12.30394 | 84° | 80km/h | 9784m | 3.7m/s | 0°C | 0% | 0hPa | 0V | 00:00:00 | 00:00:00 | 00:00:00 | |
| OE5DXL-15 | 2026-09-02 09:16:09 | 49.44701 | 12.30271 | 85° | 80km/h | 9767m | 4.6m/s | 0°C | 0% | 0hPa | 0V | 00:00:00 | 00:00:00 | 00:00:00 | |
| OE5DRO-10 | 2026-09-02 09:16:07 | 49.44697 | 12.30209 | 84° | 80km/h | 9758m | 3.6m/s | 0°C | 0% | 0hPa | 0V | 00:00:00 | 00:00:00 | 00:00:00 | |
| DF2AP-13 | 2026-09-02 09:16:05 | 49.44692 | 12.30147 | 85° | 80km/h | 9749m | 4.4m/s | 0°C | 0% | 0hPa | 0V | 00:00:00 | 00:00:00 | 00:00:00 | |
| DB0NH | 2026-09-02 09:16:04 | 49.44692 | 12.30116 | 85° | 80km/h | 9749m | 4.4m/s | 0°C | 0% | 0hPa | 0V | 00:00:00 | 00:00:00 | 00:00:00 | |
| DO3MHA-11 | 2026-09-02 09:16:02 | 49.44687 | 12.30052 | 87° | 80km/h | 9736m | 3.7m/s | 0°C | 0% | 0hPa | 0V | 00:00:00 | 00:00:00 | 00:00:00 | |
| DB0UT-7 | 2026-09-02 09:16:01 | 49.44686 | 12.30061 | 86° | 80km/h | 9716m | 4.5m/s | 0°C | 0% | 0hPa | 0V | 00:00:00 | 00:00:00 | 00:00:00 | |
| OE5WHR-10 | 2026-09-02 09:15:58 | 49.44680 | 12.29927 | 85° | 80km/h | 9719m | 4.7m/s | 0°C | 0% | 0hPa | 0V | 00:00:00 | 00:00:00 | 00:00:00 | |
| DO3MHA-11 | 2026-09-02 09:15:51 | 49.44670 | 12.29710 | 85° | 80km/h | 9694m | 4.5m/s | 0°C | 0% | 0hPa | 0V | 00:00:00 | 00:00:00 | 00:00:00 | |
| NBG1-10 | 2026-09-02 09:15:50 | 49.44668 | 12.29679 | 85° | 82km/h | 9690m | 3.9m/s | 0°C | 0% | 0hPa | 0V | 00:00:00 | 00:00:00 | 00:00:00 | |
| OE5DRO-10 | 2026-09-02 09:15:47 | 49.44660 | 12.29586 | 85° | 82km/h | 9673m | 3.5m/s | 0°C | 0% | 0hPa | 0V | 00:00:00 | 00:00:00 | 00:00:00 | |
| DO3MHA-11 | 2026-09-02 09:15:41 | 49.44651 | 12.29398 | 87° | 82km/h | 9647m | 4.5m/s | 0°C | 0% | 0hPa | 0V | 00:00:00 | 00:00:00 | 00:00:00 | |
| OE5DXL-15 | 2026-09-02 09:15:39 | 49.44648 | 12.29336 | 86° | 80km/h | 9638m | 3.7m/s | 0°C | 0% | 0hPa | 0V | 00:00:00 | 00:00:00 | 00:00:00 | |
| OE5WHR-10 | 2026-09-02 09:15:36 | 49.44644 | 12.29244 | 85° | 82km/h | 9630m | 5.0m/s | 0°C | 0% | 0hPa | 0V | 00:00:00 | 00:00:00 | 00:00:00 | |
| OE3JTB-15 | 2026-09-02 09:15:35 | 49.44640 | 12.29209 | 85° | 80km/h | 9621m | 4.4m/s | 0°C | 0% | 0hPa | 0V | 00:00:00 | 00:00:00 | 00:00:00 | |
| DF2AP-13 | 2026-09-02 09:15:34 | 49.44639 | 12.29177 | 85° | 80km/h | 9621m | 4.4m/s | 0°C | 0% | 0hPa | 0V | 00:00:00 | 00:00:00 | 00:00:00 | |
| DO8TBO-1 | 2026-09-02 09:15:32 | 49.44633 | 12.29114 | 84° | 80km/h | 9608m | 5.1m/s | 0°C | 0% | 0hPa | 0V | 00:00:00 | 00:00:00 | 00:00:00 | |
| DO3MHA-11 | 2026-09-02 09:15:30 | 49.44629 | 12.29051 | 86° | 80km/h | 9600m | 3.6m/s | 0°C | 0% | 0hPa | 0V | 00:00:00 | 00:00:00 | 00:00:00 | |
| DB0UT-7 | 2026-09-02 09:15:29 | 49.44629 | 12.29020 | 85° | 80km/h | 9600m | 4.8m/s | 0°C | 0% | 0hPa | 0V | 00:00:00 | 00:00:00 | 00:00:00 | |
| OE5DRO-10 | 2026-09-02 09:15:28 | 49.44625 | 12.28988 | 85° | 80km/h | 9592m | 3.5m/s | 0°C | 0% | 0hPa | 0V | 00:00:00 | 00:00:00 | 00:00:00 | |
| DO3MHA-11 | 2026-09-02 09:15:20 | 49.44608 | 12.28740 | 85° | 80km/h | 9562m | 3.1m/s | 0°C | 0% | 0hPa | 0V | 00:00:00 | 00:00:00 | 00:00:00 | |
| NBG1-10 | 2026-09-02 09:15:17 | 49.44601 | 12.28644 | 85° | 80km/h | 9546m | 4.4m/s | 0°C | 0% | 0hPa | 0V | 00:00:00 | 00:00:00 | 00:00:00 | |
| OE5WHR-10 | 2026-09-02 09:15:15 | 49.44597 | 12.28583 | 82° | 80km/h | 9538m | 4.1m/s | 0°C | 0% | 0hPa | 0V | 00:00:00 | 00:00:00 | 00:00:00 | |
| DO3MHA-11 | 2026-09-02 09:15:11 | 49.44587 | 12.28461 | 85° | 80km/h | 9522m | 4.0m/s | 0°C | 0% | 0hPa | 0V | 00:00:00 | 00:00:00 | 00:00:00 | |
| OE5DXL-15 | 2026-09-02 09:15:09 | 49.44583 | 12.28399 | 85° | 80km/h | 9517m | 4.5m/s | 0°C | 0% | 0hPa | 0V | 00:00:00 | 00:00:00 | 00:00:00 | |
| OE5DRO-10 | 2026-09-02 09:15:08 | 49.44583 | 12.28367 | 84° | 80km/h | 9514m | 3.1m/s | 0°C | 0% | 0hPa | 0V | 00:00:00 | 00:00:00 | 00:00:00 | |
| OE3JTB-15 | 2026-09-02 09:15:06 | 49.44577 | 12.28305 | 85° | 80km/h | 9502m | 4.1m/s | 0°C | 0% | 0hPa | 0V | 00:00:00 | 00:00:00 | 00:00:00 | |
| DB0NH | 2026-09-02 09:15:04 | 49.44573 | 12.28244 | 86° | 78km/h | 9494m | 4.0m/s | 0°C | 0% | 0hPa | 0V | 00:00:00 | 00:00:00 | 00:00:00 | |
| DO8TBO-1 | 2026-09-02 09:15:02 | 49.44569 | 12.28182 | 85° | 80km/h | 9486m | 3.6m/s | 0°C | 0% | 0hPa | 0V | 00:00:00 | 00:00:00 | 00:00:00 | |
| DO3MHA-11 | 2026-09-02 09:15:00 | 49.44565 | 12.28118 | 85° | 80km/h | 9478m | 3.2m/s | 0°C | 0% | 0hPa | 0V | 00:00:00 | 00:00:00 | 00:00:00 | |
| DB0UT-7 | 2026-09-02 09:14:59 | 49.44565 | 12.28086 | 84° | 78km/h | 9478m | 4.5m/s | 0°C | 0% | 0hPa | 0V | 00:00:00 | 00:00:00 | 00:00:00 | |
| OE5WHR-10 | 2026-09-02 09:14:53 | 49.44555 | 12.27903 | 86° | 78km/h | 9453m | 3.1m/s | 0°C | 0% | 0hPa | 0V | 00:00:00 | 00:00:00 | 00:00:00 | |
| DO3MHA-11 | 2026-09-02 09:14:49 | 49.44544 | 12.27775 | 85° | 80km/h | 9433m | 4.8m/s | 0°C | 0% | 0hPa | 0V | 00:00:00 | 00:00:00 | 00:00:00 | |
| NBG1-10 | 2026-09-02 09:14:44 | 49.44536 | 12.27623 | 83° | 77km/h | 9416m | 4.8m/s | 0°C | 0% | 0hPa | 0V | 00:00:00 | 00:00:00 | 00:00:00 | |
| OE3JTB-15 | 2026-09-02 09:14:38 | 49.44523 | 12.27410 | 83° | 73km/h | 9387m | 4.3m/s | 0°C | 0% | 0hPa | 0V | 00:00:00 | 00:00:00 | 00:00:00 | |
| DB0NH | 2026-09-02 09:14:34 | 49.44512 | 12.27321 | 81° | 73km/h | 9369m | 3.9m/s | 0°C | 0% | 0hPa | 0V | 00:00:00 | 00:00:00 | 00:00:00 | |
| OE5WHR-10 | 2026-09-02 09:14:32 | 49.44506 | 12.27261 | 84° | 73km/h | 9361m | 2.9m/s | 0°C | 0% | 0hPa | 0V | 00:00:00 | 00:00:00 | 00:00:00 | |
| DB0UT-7 | 2026-09-02 09:14:29 | 49.44501 | 12.27173 | 84° | 73km/h | 9352m | 4.9m/s | 0°C | 0% | 0hPa | 0V | 00:00:00 | 00:00:00 | 00:00:00 | |
| DO3MHA-11 | 2026-09-02 09:14:28 | 49.44497 | 12.27145 | 85° | 75km/h | 9344m | 3.4m/s | 0°C | 0% | 0hPa | 0V | 00:00:00 | 00:00:00 | 00:00:00 | |
| DO3MHA-11 | 2026-09-02 09:14:17 | 49.44469 | 12.26829 | 83° | 71km/h | 9298m | 4.9m/s | 0°C | 0% | 0hPa | 0V | 00:00:00 | 00:00:00 | 00:00:00 | |
| NBG1-10 | 2026-09-02 09:14:11 | 49.44457 | 12.26667 | 81° | 69km/h | 9278m | 3.9m/s | 0°C | 0% | 0hPa | 0V | 00:00:00 | 00:00:00 | 00:00:00 | |
| OE5WHR-10 | 2026-09-02 09:14:10 | 49.44452 | 12.26640 | 83° | 69km/h | 9270m | 3.8m/s | 0°C | 0% | 0hPa | 0V | 00:00:00 | 00:00:00 | 00:00:00 | |
| OE3JTB-15 | 2026-09-02 09:14:08 | 49.44447 | 12.26584 | 83° | 68km/h | 9261m | 4.9m/s | 0°C | 0% | 0hPa | 0V | 00:00:00 | 00:00:00 | 00:00:00 | |
| DO3MHA-11 | 2026-09-02 09:14:06 | 49.44442 | 12.26528 | 83° | 71km/h | 9253m | 3.8m/s | 0°C | 0% | 0hPa | 0V | 00:00:00 | 00:00:00 | 00:00:00 | |
| DB0NH | 2026-09-02 09:14:04 | 49.44438 | 12.26476 | 84° | 68km/h | 9245m | 3.9m/s | 0°C | 0% | 0hPa | 0V | 00:00:00 | 00:00:00 | 00:00:00 | |
| DO8TBO-1 | 2026-09-02 09:14:02 | 49.44434 | 12.26426 | 82° | 68km/h | 9236m | 3.3m/s | 0°C | 0% | 0hPa | 0V | 00:00:00 | 00:00:00 | 00:00:00 | |
| DB0UT-7 | 2026-09-02 09:13:59 | 49.44430 | 12.26344 | 83° | 68km/h | 9229m | 3.9m/s | 0°C | 0% | 0hPa | 0V | 00:00:00 | 00:00:00 | 00:00:00 | |
| DO3MHA-11 | 2026-09-02 09:13:56 | 49.44423 | 12.26260 | 86° | 68km/h | 9217m | 3.9m/s | 0°C | 0% | 0hPa | 0V | 00:00:00 | 00:00:00 | 00:00:00 | |
| OE5DRO-10 | 2026-09-02 09:13:51 | 49.44411 | 12.26133 | 83° | 66km/h | 9193m | 4.9m/s | 0°C | 0% | 0hPa | 0V | 00:00:00 | 00:00:00 | 00:00:00 | |
| OE5WHR-10 | 2026-09-02 09:13:49 | 49.44408 | 12.26079 | 86° | 66km/h | 9185m | 4.4m/s | 0°C | 0% | 0hPa | 0V | 00:00:00 | 00:00:00 | 00:00:00 | |
| DO3MHA-11 | 2026-09-02 09:13:46 | 49.44406 | 12.25999 | 85° | 66km/h | 9178m | 4.4m/s | 0°C | 0% | 0hPa | 0V | 00:00:00 | 00:00:00 | 00:00:00 | |
| OE3JTB-15 | 2026-09-02 09:13:38 | 49.44394 | 12.25798 | 86° | 64km/h | 9139m | 4.2m/s | 0°C | 0% | 0hPa | 0V | 00:00:00 | 00:00:00 | 00:00:00 | |
| DO3MHA-11 | 2026-09-02 09:13:36 | 49.44392 | 12.25748 | 85° | 64km/h | 9135m | 4.7m/s | 0°C | 0% | 0hPa | 0V | 00:00:00 | 00:00:00 | 00:00:00 | |
| DB0NH | 2026-09-02 09:13:34 | 49.44389 | 12.25698 | 87° | 62km/h | 9126m | 4.6m/s | 0°C | 0% | 0hPa | 0V | 00:00:00 | 00:00:00 | 00:00:00 | |
| DO8TBO-1 | 2026-09-02 09:13:32 | 49.44388 | 12.25646 | 88° | 60km/h | 9118m | 4.8m/s | 0°C | 0% | 0hPa | 0V | 00:00:00 | 00:00:00 | 00:00:00 | |
| OE5DRO-10 | 2026-09-02 09:13:31 | 49.44387 | 12.25621 | 89° | 60km/h | 9118m | 4.8m/s | 0°C | 0% | 0hPa | 0V | 00:00:00 | 00:00:00 | 00:00:00 | |
| DB0UT-7 | 2026-09-02 09:13:29 | 49.44387 | 12.25571 | 86° | 60km/h | 9111m | 3.6m/s | 0°C | 0% | 0hPa | 0V | 00:00:00 | 00:00:00 | 00:00:00 | |
| OE5WHR-10 | 2026-09-02 09:13:28 | 49.44386 | 12.25548 | 86° | 60km/h | 9107m | 4.5m/s | 0°C | 0% | 0hPa | 0V | 00:00:00 | 00:00:00 | 00:00:00 | |
| DO3MHA-11 | 2026-09-02 09:13:25 | 49.44382 | 12.25475 | 87° | 60km/h | 9092m | 3.3m/s | 0°C | 0% | 0hPa | 0V | 00:00:00 | 00:00:00 | 00:00:00 | |
| DO3MHA-11 | 2026-09-02 09:13:14 | 49.44381 | 12.25218 | 93° | 58km/h | 9050m | 4.4m/s | 0°C | 0% | 0hPa | 0V | 00:00:00 | 00:00:00 | 00:00:00 | |
| OE5DRO-10 | 2026-09-02 09:13:13 | 49.44382 | 12.25173 | 95° | 58km/h | 9045m | 3.1m/s | 0°C | 0% | 0hPa | 0V | 00:00:00 | 00:00:00 | 00:00:00 | |
| OE5DXL-15 | 2026-09-02 09:13:08 | 49.44384 | 12.25080 | 91° | 58km/h | 9026m | 4.8m/s | 0°C | 0% | 0hPa | 0V | 00:00:00 | 00:00:00 | 00:00:00 | |
| OE5WHR-10 | 2026-09-02 09:13:07 | 49.44384 | 12.25057 | 91° | 58km/h | 9026m | 4.0m/s | 0°C | 0% | 0hPa | 0V | 00:00:00 | 00:00:00 | 00:00:00 | |
| DB0NH | 2026-09-02 09:13:04 | 49.44386 | 12.24968 | 95° | 58km/h | 9010m | 4.2m/s | 0°C | 0% | 0hPa | 0V | 00:00:00 | 00:00:00 | 00:00:00 | |
| DO3MHA-11 | 2026-09-02 09:13:03 | 49.44386 | 12.24968 | 97° | 58km/h | 9010m | 4.2m/s | 0°C | 0% | 0hPa | 0V | 00:00:00 | 00:00:00 | 00:00:00 | |
| SONCRA | 2026-09-02 09:13:02 | 49.44390 | 12.24923 | 94° | 57km/h | 9002m | 3.0m/s | -39.8°C | -1.0% | -1.0hPa | 0V | 00:00:00 | 00:00:00 | 00:00:00 | |
| DB0UT-7 | 2026-09-02 09:13:00 | 49.44392 | 12.24933 | 96° | 58km/h | 8977m | 2.8m/s | 0°C | 0% | 0hPa | 0V | 00:00:00 | 00:00:00 | 00:00:00 | |
| DO3MHA-11 | 2026-09-02 09:12:53 | 49.44399 | 12.24742 | 97° | 60km/h | 8969m | 4.2m/s | 0°C | 0% | 0hPa | 0V | 00:00:00 | 00:00:00 | 00:00:00 | |
| OE5WHR-10 | 2026-09-02 09:12:47 | 49.44407 | 12.24581 | 94° | 57km/h | 8942m | 4.5m/s | 0°C | 0% | 0hPa | 0V | 00:00:00 | 00:00:00 | 00:00:00 | |
| DO3MHA-11 | 2026-09-02 09:12:42 | 49.44416 | 12.24488 | 95° | 57km/h | 8926m | 3.1m/s | 0°C | 0% | 0hPa | 0V | 00:00:00 | 00:00:00 | 00:00:00 | |
| OE5DXL-15 | 2026-09-02 09:12:38 | 49.44420 | 12.24395 | 95° | 55km/h | 8910m | 4.2m/s | 0°C | 0% | 0hPa | 0V | 00:00:00 | 00:00:00 | 00:00:00 | |
| OE3JTB-15 | 2026-09-02 09:12:34 | 49.44427 | 12.24308 | 99° | 55km/h | 8894m | 4.4m/s | 0°C | 0% | 0hPa | 0V | 00:00:00 | 00:00:00 | 00:00:00 | |
| DF2AP-13 | 2026-09-02 09:12:33 | 49.44428 | 12.24286 | 97° | 55km/h | 8894m | 4.4m/s | 0°C | 0% | 0hPa | 0V | 00:00:00 | 00:00:00 | 00:00:00 | |
| DO3MHA-11 | 2026-09-02 09:12:31 | 49.44432 | 12.24243 | 97° | 55km/h | 8882m | 4.9m/s | 0°C | 0% | 0hPa | 0V | 00:00:00 | 00:00:00 | 00:00:00 | |
| DB0UT-7 | 2026-09-02 09:12:29 | 49.44435 | 12.24200 | 96° | 55km/h | 8867m | 4.0m/s | 0°C | 0% | 0hPa | 0V | 00:00:00 | 00:00:00 | 00:00:00 | |
| OE5WHR-10 | 2026-09-02 09:12:25 | 49.44442 | 12.24113 | 96° | 53km/h | 8860m | 4.0m/s | 0°C | 0% | 0hPa | 0V | 00:00:00 | 00:00:00 | 00:00:00 | |
| DO3MHA-11 | 2026-09-02 09:12:20 | 49.44447 | 12.24009 | 95° | 53km/h | 8844m | 3.9m/s | 0°C | 0% | 0hPa | 0V | 00:00:00 | 00:00:00 | 00:00:00 | |
| OE5DRO-10 | 2026-09-02 09:12:15 | 49.44454 | 12.23884 | 97° | 55km/h | 8822m | 3.2m/s | 0°C | 0% | 0hPa | 0V | 00:00:00 | 00:00:00 | 00:00:00 | |
| DO3MHA-11 | 2026-09-02 09:12:10 | 49.44460 | 12.23801 | 94° | 55km/h | 8802m | 3.5m/s | 0°C | 0% | 0hPa | 0V | 00:00:00 | 00:00:00 | 00:00:00 | |
| OE5DXL-15 | 2026-09-02 09:12:08 | 49.44462 | 12.23760 | 93° | 55km/h | 8798m | 2.7m/s | 0°C | 0% | 0hPa | 0V | 00:00:00 | 00:00:00 | 00:00:00 | |
| OE3JTB-15 | 2026-09-02 09:12:05 | 49.44465 | 12.23695 | 97° | 55km/h | 8787m | 4.1m/s | 0°C | 0% | 0hPa | 0V | 00:00:00 | 00:00:00 | 00:00:00 | |
| OE5WHR-10 | 2026-09-02 09:12:04 | 49.44467 | 12.23675 | 97° | 55km/h | 8783m | 4.0m/s | 0°C | 0% | 0hPa | 0V | 00:00:00 | 00:00:00 | 00:00:00 | |
| DF2AP-13 | 2026-09-02 09:12:03 | 49.44470 | 12.23653 | 97° | 55km/h | 8775m | 3.2m/s | 0°C | 0% | 0hPa | 0V | 00:00:00 | 00:00:00 | 00:00:00 | |
| DO3MHA-11 | 2026-09-02 09:11:59 | 49.44473 | 12.23566 | 97° | 55km/h | 8760m | 3.5m/s | 0°C | 0% | 0hPa | 0V | 00:00:00 | 00:00:00 | 00:00:00 | |
| DB0UT-7 | 2026-09-02 09:11:58 | 49.44473 | 12.23545 | 98° | 53km/h | 8760m | 4.3m/s | 0°C | 0% | 0hPa | 0V | 00:00:00 | 00:00:00 | 00:00:00 | |
| NBG1-10 | 2026-09-02 09:11:57 | 49.44477 | 12.23523 | 97° | 53km/h | 8753m | 2.9m/s | 0°C | 0% | 0hPa | 0V | 00:00:00 | 00:00:00 | 00:00:00 | |
| OE5DRO-10 | 2026-09-02 09:11:54 | 49.44481 | 12.23459 | 95° | 53km/h | 8745m | 3.5m/s | 0°C | 0% | 0hPa | 0V | 00:00:00 | 00:00:00 | 00:00:00 | |
| DO3MHA-11 | 2026-09-02 09:11:48 | 49.44488 | 12.23334 | 96° | 53km/h | 8718m | 4.1m/s | 0°C | 0% | 0hPa | 0V | 00:00:00 | 00:00:00 | 00:00:00 | |
| DO8TBO-1 | 2026-09-02 09:11:44 | 49.44493 | 12.23249 | 95° | 55km/h | 8703m | 3.8m/s | 0°C | 0% | 0hPa | 0V | 00:00:00 | 00:00:00 | 00:00:00 | |
| OE5WHR-10 | 2026-09-02 09:11:43 | 49.44493 | 12.23229 | 94° | 55km/h | 8703m | 4.4m/s | 0°C | 0% | 0hPa | 0V | 00:00:00 | 00:00:00 | 00:00:00 | |
| DO3MHA-11 | 2026-09-02 09:11:38 | 49.44499 | 12.23129 | 97° | 55km/h | 8684m | 3.9m/s | 0°C | 0% | 0hPa | 0V | 00:00:00 | 00:00:00 | 00:00:00 | |
| OE3JTB-15 | 2026-09-02 09:11:36 | 49.44502 | 12.23086 | 97° | 55km/h | 8676m | 4.0m/s | 0°C | 0% | 0hPa | 0V | 00:00:00 | 00:00:00 | 00:00:00 | |
| OE5DRO-10 | 2026-09-02 09:11:35 | 49.44504 | 12.23064 | 96° | 55km/h | 8669m | 3.8m/s | 0°C | 0% | 0hPa | 0V | 00:00:00 | 00:00:00 | 00:00:00 | |
| DB0NH | 2026-09-02 09:11:33 | 49.44506 | 12.23022 | 93° | 55km/h | 8661m | 4.3m/s | 0°C | 0% | 0hPa | 0V | 00:00:00 | 00:00:00 | 00:00:00 | |
| DO3MHA-11 | 2026-09-02 09:11:28 | 49.44511 | 12.22918 | 97° | 55km/h | 8646m | 3.5m/s | 0°C | 0% | 0hPa | 0V | 00:00:00 | 00:00:00 | 00:00:00 | |
| NBG1-10 | 2026-09-02 09:11:23 | 49.44518 | 12.22811 | 96° | 55km/h | 8626m | 3.5m/s | 0°C | 0% | 0hPa | 0V | 00:00:00 | 00:00:00 | 00:00:00 | |
| OE5WHR-10 | 2026-09-02 09:11:20 | 49.44523 | 12.22749 | 97° | 55km/h | 8612m | 4.1m/s | 0°C | 0% | 0hPa | 0V | 00:00:00 | 00:00:00 | 00:00:00 | |
| DO3MHA-11 | 2026-09-02 09:11:18 | 49.44526 | 12.22706 | 96° | 55km/h | 8604m | 4.7m/s | 0°C | 0% | 0hPa | 0V | 00:00:00 | 00:00:00 | 00:00:00 | |
| OE5DRO-10 | 2026-09-02 09:11:16 | 49.44529 | 12.22663 | 94° | 55km/h | 8595m | 4.4m/s | 0°C | 0% | 0hPa | 0V | 00:00:00 | 00:00:00 | 00:00:00 | |
| OE5DXL-15 | 2026-09-02 09:11:08 | 49.44540 | 12.22496 | 96° | 57km/h | 8567m | 3.8m/s | 0°C | 0% | 0hPa | 0V | 00:00:00 | 00:00:00 | 00:00:00 | |
| OE3JTB-15 | 2026-09-02 09:11:07 | 49.44542 | 12.22475 | 98° | 57km/h | 8555m | 3.7m/s | 0°C | 0% | 0hPa | 0V | 00:00:00 | 00:00:00 | 00:00:00 | |
| DF2AP-13 | 2026-09-02 09:11:03 | 49.44547 | 12.22389 | 98° | 57km/h | 8543m | 3.1m/s | 0°C | 0% | 0hPa | 0V | 00:00:00 | 00:00:00 | 00:00:00 | |
| DB0NH | 2026-09-02 09:11:02 | 49.44547 | 12.22369 | 96° | 57km/h | 8543m | 3.6m/s | 0°C | 0% | 0hPa | 0V | 00:00:00 | 00:00:00 | 00:00:00 | |
| OE5WHR-10 | 2026-09-02 09:10:59 | 49.44554 | 12.22306 | 97° | 57km/h | 8523m | 4.3m/s | 0°C | 0% | 0hPa | 0V | 00:00:00 | 00:00:00 | 00:00:00 | |
| DO3MHA-11 | 2026-09-02 09:10:58 | 49.44554 | 12.22283 | 97° | 57km/h | 8527m | 4.0m/s | 0°C | 0% | 0hPa | 0V | 00:00:00 | 00:00:00 | 00:00:00 | |
| DB0UT-7 | 2026-09-02 09:10:57 | 49.44553 | 12.22261 | 97° | 58km/h | 8523m | 3.3m/s | 0°C | 0% | 0hPa | 0V | 00:00:00 | 00:00:00 | 00:00:00 | |
| OE5DRO-10 | 2026-09-02 09:10:56 | 49.44558 | 12.22240 | 97° | 57km/h | 8519m | 4.6m/s | 0°C | 0% | 0hPa | 0V | 00:00:00 | 00:00:00 | 00:00:00 | |
| NBG1-10 | 2026-09-02 09:10:50 | 49.44571 | 12.22114 | 100° | 58km/h | 8492m | 3.6m/s | 0°C | 0% | 0hPa | 0V | 00:00:00 | 00:00:00 | 00:00:00 | |
| DO3MHA-11 | 2026-09-02 09:10:48 | 49.44575 | 12.22068 | 99° | 57km/h | 8483m | 5.0m/s | 0°C | 0% | 0hPa | 0V | 00:00:00 | 00:00:00 | 00:00:00 | |
| DO8TBO-1 | 2026-09-02 09:10:44 | 49.44584 | 12.21987 | 102° | 60km/h | 8467m | 4.7m/s | 0°C | 0% | 0hPa | 0V | 00:00:00 | 00:00:00 | 00:00:00 | |
| OE3JTB-15 | 2026-09-02 09:10:38 | 49.44599 | 12.21830 | 99° | 60km/h | 8439m | 4.5m/s | 0°C | 0% | 0hPa | 0V | 00:00:00 | 00:00:00 | 00:00:00 | |
| DO3MHA-11 | 2026-09-02 09:10:37 | 49.44601 | 12.21829 | 102° | 58km/h | 8439m | 3.1m/s | 0°C | 0% | 0hPa | 0V | 00:00:00 | 00:00:00 | 00:00:00 | |
| DB0NH | 2026-09-02 09:10:31 | 49.44617 | 12.21692 | 101° | 60km/h | 8414m | 5.4m/s | 0°C | 0% | 0hPa | 0V | 00:00:00 | 00:00:00 | 00:00:00 | |
| DB0UT-7 | 2026-09-02 09:10:27 | 49.44623 | 12.21603 | 99° | 62km/h | 8401m | 4.5m/s | 0°C | 0% | 0hPa | 0V | 00:00:00 | 00:00:00 | 00:00:00 | |
| DO3MHA-11 | 2026-09-02 09:10:26 | 49.44628 | 12.21580 | 101° | 60km/h | 8394m | 2.9m/s | 0°C | 0% | 0hPa | 0V | 00:00:00 | 00:00:00 | 00:00:00 | |
| OE5DRO-10 | 2026-09-02 09:10:18 | 49.44649 | 12.21398 | 102° | 62km/h | 8360m | 4.4m/s | 0°C | 0% | 0hPa | 0V | 00:00:00 | 00:00:00 | 00:00:00 | |
| NBG1-10 | 2026-09-02 09:10:16 | 49.44655 | 12.21349 | 104° | 62km/h | 8351m | 5.1m/s | 0°C | 0% | 0hPa | 0V | 00:00:00 | 00:00:00 | 00:00:00 | |
| DO3MHA-11 | 2026-09-02 09:10:15 | 49.44656 | 12.21325 | 104° | 62km/h | 8351m | 3.8m/s | 0°C | 0% | 0hPa | 0V | 00:00:00 | 00:00:00 | 00:00:00 | |
| DO8TBO-1 | 2026-09-02 09:10:14 | 49.44663 | 12.21299 | 101° | 62km/h | 8342m | 4.2m/s | 0°C | 0% | 0hPa | 0V | 00:00:00 | 00:00:00 | 00:00:00 | |
| OE5DXL-15 | 2026-09-02 09:10:08 | 49.44674 | 12.21163 | 103° | 64km/h | 8322m | 5.8m/s | 0°C | 0% | 0hPa | 0V | 00:00:00 | 00:00:00 | 00:00:00 | |
| OE3JTB-15 | 2026-09-02 09:10:07 | 49.44677 | 12.21139 | 103° | 64km/h | 8313m | 4.4m/s | 0°C | 0% | 0hPa | 0V | 00:00:00 | 00:00:00 | 00:00:00 | |
| DO3MHA-11 | 2026-09-02 09:10:05 | 49.44684 | 12.21092 | 103° | 64km/h | 8303m | 5.2m/s | 0°C | 0% | 0hPa | 0V | 00:00:00 | 00:00:00 | 00:00:00 | |
| DF2AP-13 | 2026-09-02 09:10:02 | 49.44691 | 12.21023 | 103° | 64km/h | 8293m | 4.5m/s | 0°C | 0% | 0hPa | 0V | 00:00:00 | 00:00:00 | 00:00:00 | |
| DB0NH | 2026-09-02 09:10:01 | 49.44699 | 12.20999 | 104° | 64km/h | 8285m | 4.6m/s | 0°C | 0% | 0hPa | 0V | 00:00:00 | 00:00:00 | 00:00:00 | |
| OE5DRO-10 | 2026-09-02 09:09:58 | 49.44709 | 12.20925 | 103° | 64km/h | 8271m | 5.0m/s | 0°C | 0% | 0hPa | 0V | 00:00:00 | 00:00:00 | 00:00:00 | |
| DB0UT-7 | 2026-09-02 09:09:57 | 49.44709 | 12.20900 | 105° | 64km/h | 8271m | 4.0m/s | 0°C | 0% | 0hPa | 0V | 00:00:00 | 00:00:00 | 00:00:00 | |
| DO3MHA-11 | 2026-09-02 09:09:54 | 49.44724 | 12.20829 | 105° | 62km/h | 8253m | 4.1m/s | 0°C | 0% | 0hPa | 0V | 00:00:00 | 00:00:00 | 00:00:00 | |
| DO3MHA-11 | 2026-09-02 09:09:44 | 49.44757 | 12.20592 | 105° | 62km/h | 8216m | 3.6m/s | 0°C | 0% | 0hPa | 0V | 00:00:00 | 00:00:00 | 00:00:00 | |
| NBG1-10 | 2026-09-02 09:09:43 | 49.44765 | 12.20568 | 105° | 66km/h | 8208m | 4.2m/s | 0°C | 0% | 0hPa | 0V | 00:00:00 | 00:00:00 | 00:00:00 | |
| OE5DRO-10 | 2026-09-02 09:09:39 | 49.44779 | 12.20468 | 102° | 66km/h | 8191m | 4.8m/s | 0°C | 0% | 0hPa | 0V | 00:00:00 | 00:00:00 | 00:00:00 | |
| OE5DXL-15 | 2026-09-02 09:09:38 | 49.44782 | 12.20443 | 104° | 66km/h | 8191m | 2.6m/s | 0°C | 0% | 0hPa | 0V | 00:00:00 | 00:00:00 | 00:00:00 | |
| DO3MHA-11 | 2026-09-02 09:09:35 | 49.44794 | 12.20375 | 103° | 64km/h | 8175m | 3.5m/s | 0°C | 0% | 0hPa | 0V | 00:00:00 | 00:00:00 | 00:00:00 | |
| DF2AP-13 | 2026-09-02 09:09:32 | 49.44802 | 12.20301 | 103° | 68km/h | 8167m | 3.5m/s | 0°C | 0% | 0hPa | 0V | 00:00:00 | 00:00:00 | 00:00:00 | |
| DB0NH | 2026-09-02 09:09:31 | 49.44815 | 12.20276 | 105° | 68km/h | 8163m | 4.1m/s | 0°C | 0% | 0hPa | 0V | 00:00:00 | 00:00:00 | 00:00:00 | |
| DB0UT-7 | 2026-09-02 09:09:27 | 49.44825 | 12.20193 | 106° | 64km/h | 8139m | 3.2m/s | 0°C | 0% | 0hPa | 0V | 00:00:00 | 00:00:00 | 00:00:00 | |
| OE5DRO-10 | 2026-09-02 09:09:20 | 49.44852 | 12.20003 | 104° | 68km/h | 8113m | 3.6m/s | 0°C | 0% | 0hPa | 0V | 00:00:00 | 00:00:00 | 00:00:00 | |
| DO3MHA-11 | 2026-09-02 09:09:13 | 49.44880 | 12.19827 | 104° | 68km/h | 8077m | 3.3m/s | 0°C | 0% | 0hPa | 0V | 00:00:00 | 00:00:00 | 00:00:00 | |
| NBG1-10 | 2026-09-02 09:09:10 | 49.44892 | 12.19726 | 103° | 68km/h | 8063m | 5.3m/s | 0°C | 0% | 0hPa | 0V | 00:00:00 | 00:00:00 | 00:00:00 | |
| OE3JTB-15 | 2026-09-02 09:09:09 | 49.44892 | 12.19732 | 103° | 68km/h | 8047m | 3.9m/s | 0°C | 0% | 0hPa | 0V | 00:00:00 | 00:00:00 | 00:00:00 | |
| OE5DXL-15 | 2026-09-02 09:09:08 | 49.44900 | 12.19702 | 105° | 68km/h | 8058m | 5.3m/s | 0°C | 0% | 0hPa | 0V | 00:00:00 | 00:00:00 | 00:00:00 | |
| DF2AP-13 | 2026-09-02 09:09:02 | 49.44926 | 12.19547 | 99° | 68km/h | 8023m | 4.1m/s | 0°C | 0% | 0hPa | 0V | 00:00:00 | 00:00:00 | 00:00:00 | |
| OE5DRO-10 | 2026-09-02 09:09:01 | 49.44929 | 12.19520 | 100° | 68km/h | 8018m | 5.1m/s | 0°C | 0% | 0hPa | 0V | 00:00:00 | 00:00:00 | 00:00:00 | |
| DB0NH | 2026-09-02 09:09:00 | 49.44929 | 12.19495 | 100° | 49km/h | 8012m | 5.5m/s | 0°C | 0% | 0hPa | 0V | 00:00:00 | 00:00:00 | 00:00:00 | |
| DO3MHA-11 | 2026-09-02 09:08:52 | 49.44963 | 12.19274 | 106° | 68km/h | 7974m | 3.7m/s | 0°C | 0% | 0hPa | 0V | 00:00:00 | 00:00:00 | 00:00:00 | |
| DB0UT-7 | 2026-09-02 09:08:48 | 49.44973 | 12.19197 | 101° | 68km/h | 7959m | 4.1m/s | 0°C | 0% | 0hPa | 0V | 00:00:00 | 00:00:00 | 00:00:00 | |
| DO8TBO-1 | 2026-09-02 09:08:43 | 49.44998 | 12.19065 | 103° | 68km/h | 7935m | 3.3m/s | 0°C | 0% | 0hPa | 0V | 00:00:00 | 00:00:00 | 00:00:00 | |
| OE5DRO-10 | 2026-09-02 09:08:42 | 49.45001 | 12.19042 | 103° | 66km/h | 7931m | 2.7m/s | 0°C | 0% | 0hPa | 0V | 00:00:00 | 00:00:00 | 00:00:00 | |
| DO3MHA-11 | 2026-09-02 09:08:41 | 49.45005 | 12.19017 | 104° | 66km/h | 7929m | 2.7m/s | 0°C | 0% | 0hPa | 0V | 00:00:00 | 00:00:00 | 00:00:00 | |
| OE5DXL-15 | 2026-09-02 09:08:38 | 49.45017 | 12.18940 | 106° | 68km/h | 7916m | 7.4m/s | 0°C | 0% | 0hPa | 0V | 00:00:00 | 00:00:00 | 00:00:00 | |
| OE3JTB-15 | 2026-09-02 09:08:37 | 49.45022 | 12.18913 | 105° | 68km/h | 7905m | 3.0m/s | 0°C | 0% | 0hPa | 0V | 00:00:00 | 00:00:00 | 00:00:00 | |
| NBG1-10 | 2026-09-02 09:08:35 | 49.45026 | 12.18864 | 105° | 68km/h | 7902m | 2.7m/s | 0°C | 0% | 0hPa | 0V | 00:00:00 | 00:00:00 | 00:00:00 | |
| DF2AP-13 | 2026-09-02 09:08:32 | 49.45042 | 12.18791 | 103° | 68km/h | 7877m | 6.9m/s | 0°C | 0% | 0hPa | 0V | 00:00:00 | 00:00:00 | 00:00:00 | |
| DO3MHA-11 | 2026-09-02 09:08:30 | 49.45049 | 12.18741 | 101° | 66km/h | 7869m | 3.5m/s | 0°C | 0% | 0hPa | 0V | 00:00:00 | 00:00:00 | 00:00:00 | |
| DB0NH | 2026-09-02 09:08:25 | 49.45067 | 12.18613 | 103° | 69km/h | 7847m | 6.8m/s | 0°C | 0% | 0hPa | 0V | 00:00:00 | 00:00:00 | 00:00:00 | |
| OE5DRO-10 | 2026-09-02 09:08:23 | 49.45073 | 12.18563 | 104° | 69km/h | 7835m | 4.5m/s | 0°C | 0% | 0hPa | 0V | 00:00:00 | 00:00:00 | 00:00:00 | |
| DO3MHA-11 | 2026-09-02 09:08:20 | 49.45086 | 12.18490 | 108° | 69km/h | 7821m | 3.9m/s | 0°C | 0% | 0hPa | 0V | 00:00:00 | 00:00:00 | 00:00:00 | |
| DB0UT-7 | 2026-09-02 09:08:18 | 49.45096 | 12.18437 | 103° | 69km/h | 7811m | 3.8m/s | 0°C | 0% | 0hPa | 0V | 00:00:00 | 00:00:00 | 00:00:00 | |
| DO8TBO-1 | 2026-09-02 09:08:13 | 49.45120 | 12.18303 | 108° | 69km/h | 7784m | 4.1m/s | 0°C | 0% | 0hPa | 0V | 00:00:00 | 00:00:00 | 00:00:00 | |
| DO3MHA-11 | 2026-09-02 09:08:10 | 49.45130 | 12.18227 | 103° | 69km/h | 7775m | 4.4m/s | 0°C | 0% | 0hPa | 0V | 00:00:00 | 00:00:00 | 00:00:00 | |
| OE5DXL-15 | 2026-09-02 09:08:08 | 49.45141 | 12.18174 | 102° | 71km/h | 7767m | 4.4m/s | 0°C | 0% | 0hPa | 0V | 00:00:00 | 00:00:00 | 00:00:00 | |
| OE5DRO-10 | 2026-09-02 09:08:04 | 49.45158 | 12.18069 | 107° | 71km/h | 7744m | 4.5m/s | 0°C | 0% | 0hPa | 0V | 00:00:00 | 00:00:00 | 00:00:00 | |
| DF2AP-13 | 2026-09-02 09:08:02 | 49.45167 | 12.18017 | 103° | 71km/h | 7733m | 6.1m/s | 0°C | 0% | 0hPa | 0V | 00:00:00 | 00:00:00 | 00:00:00 | |
| DO3MHA-11 | 2026-09-02 09:08:00 | 49.45173 | 12.17963 | 100° | 69km/h | 7724m | 5.4m/s | 0°C | 0% | 0hPa | 0V | 00:00:00 | 00:00:00 | 00:00:00 | |
| DB0NH | 2026-09-02 09:07:55 | 49.45188 | 12.17827 | 101° | 71km/h | 7707m | 4.3m/s | 0°C | 0% | 0hPa | 0V | 00:00:00 | 00:00:00 | 00:00:00 | |
| DB0UT-7 | 2026-09-02 09:07:49 | 49.45207 | 12.17670 | 102° | 73km/h | 7668m | 5.3m/s | 0°C | 0% | 0hPa | 0V | 00:00:00 | 00:00:00 | 00:00:00 | |
| OE5DRO-10 | 2026-09-02 09:07:45 | 49.45222 | 12.17556 | 99° | 73km/h | 7658m | 4.1m/s | 0°C | 0% | 0hPa | 0V | 00:00:00 | 00:00:00 | 00:00:00 | |
| DO8TBO-1 | 2026-09-02 09:07:43 | 49.45228 | 12.17501 | 101° | 73km/h | 7649m | 4.4m/s | 0°C | 0% | 0hPa | 0V | 00:00:00 | 00:00:00 | 00:00:00 | |
| OE3JTB-15 | 2026-09-02 09:07:39 | 49.45238 | 12.17390 | 103° | 73km/h | 7632m | 5.4m/s | 0°C | 0% | 0hPa | 0V | 00:00:00 | 00:00:00 | 00:00:00 | |
| DO3MHA-11 | 2026-09-02 09:07:38 | 49.45246 | 12.17362 | 101° | 73km/h | 7628m | 5.4m/s | 0°C | 0% | 0hPa | 0V | 00:00:00 | 00:00:00 | 00:00:00 | |
| DF2AP-13 | 2026-09-02 09:07:32 | 49.45264 | 12.17194 | 100° | 75km/h | 7601m | 4.2m/s | 0°C | 0% | 0hPa | 0V | 00:00:00 | 00:00:00 | 00:00:00 | |
| NBG1-10 | 2026-09-02 09:07:28 | 49.45278 | 12.17082 | 100° | 75km/h | 7578m | 6.5m/s | 0°C | 0% | 0hPa | 0V | 00:00:00 | 00:00:00 | 00:00:00 | |
| DO3MHA-11 | 2026-09-02 09:07:27 | 49.45278 | 12.17054 | 100° | 73km/h | 7578m | 6.5m/s | 0°C | 0% | 0hPa | 0V | 00:00:00 | 00:00:00 | 00:00:00 | |
| OE5DRO-10 | 2026-09-02 09:07:26 | 49.45284 | 12.17027 | 100° | 73km/h | 7566m | 6.0m/s | 0°C | 0% | 0hPa | 0V | 00:00:00 | 00:00:00 | 00:00:00 | |
| DB0NH | 2026-09-02 09:07:25 | 49.45282 | 12.16999 | 99° | 75km/h | 7566m | 6.0m/s | 0°C | 0% | 0hPa | 0V | 00:00:00 | 00:00:00 | 00:00:00 | |
| DB0UT-7 | 2026-09-02 09:07:18 | 49.45307 | 12.16799 | 100° | 75km/h | 7534m | 6.9m/s | 0°C | 0% | 0hPa | 0V | 00:00:00 | 00:00:00 | 00:00:00 | |
| DO3MHA-11 | 2026-09-02 09:07:17 | 49.45313 | 12.16771 | 100° | 75km/h | 7522m | 6.0m/s | 0°C | 0% | 0hPa | 0V | 00:00:00 | 00:00:00 | 00:00:00 | |
| DO8TBO-1 | 2026-09-02 09:07:13 | 49.45326 | 12.16657 | 102° | 75km/h | 7508m | 5.1m/s | 0°C | 0% | 0hPa | 0V | 00:00:00 | 00:00:00 | 00:00:00 | |
| OE5DXL-15 | 2026-09-02 09:07:08 | 49.45346 | 12.16517 | 100° | 75km/h | 7480m | 5.1m/s | 0°C | 0% | 0hPa | 0V | 00:00:00 | 00:00:00 | 00:00:00 | |
| OE5DRO-10 | 2026-09-02 09:07:06 | 49.45351 | 12.16462 | 99° | 75km/h | 7471m | 3.7m/s | 0°C | 0% | 0hPa | 0V | 00:00:00 | 00:00:00 | 00:00:00 | |
| DF2AP-13 | 2026-09-02 09:07:02 | 49.45364 | 12.16346 | 104° | 75km/h | 7453m | 4.4m/s | 0°C | 0% | 0hPa | 0V | 00:00:00 | 00:00:00 | 00:00:00 | |
| DB0NH | 2026-09-02 09:06:55 | 49.45390 | 12.16139 | 101° | 73km/h | 7418m | 4.8m/s | 0°C | 0% | 0hPa | 0V | 00:00:00 | 00:00:00 | 00:00:00 | |
| OE5DRO-10 | 2026-09-02 09:06:47 | 49.45417 | 12.15918 | 102° | 71km/h | 7376m | 5.6m/s | 0°C | 0% | 0hPa | 0V | 00:00:00 | 00:00:00 | 00:00:00 | |
| DO3MHA-11 | 2026-09-02 09:06:44 | 49.45424 | 12.15832 | 103° | 73km/h | 7369m | 2.6m/s | 0°C | 0% | 0hPa | 0V | 00:00:00 | 00:00:00 | 00:00:00 | |
| DO8TBO-1 | 2026-09-02 09:06:43 | 49.45432 | 12.15804 | 102° | 71km/h | 7358m | 6.7m/s | 0°C | 0% | 0hPa | 0V | 00:00:00 | 00:00:00 | 00:00:00 | |
| OE3JTB-15 | 2026-09-02 09:06:41 | 49.45435 | 12.15751 | 101° | 71km/h | 7352m | 6.3m/s | 0°C | 0% | 0hPa | 0V | 00:00:00 | 00:00:00 | 00:00:00 | |
| OE5DXL-15 | 2026-09-02 09:06:38 | 49.45450 | 12.15669 | 102° | 73km/h | 7333m | 3.7m/s | 0°C | 0% | 0hPa | 0V | 00:00:00 | 00:00:00 | 00:00:00 | |
| DO3MHA-11 | 2026-09-02 09:06:34 | 49.45464 | 12.15554 | 102° | 71km/h | 7314m | 5.8m/s | 0°C | 0% | 0hPa | 0V | 00:00:00 | 00:00:00 | 00:00:00 | |
| DF2AP-13 | 2026-09-02 09:06:31 | 49.45471 | 12.15470 | 104° | 71km/h | 7305m | 4.5m/s | 0°C | 0% | 0hPa | 0V | 00:00:00 | 00:00:00 | 00:00:00 | |
| OE5DRO-10 | 2026-09-02 09:06:28 | 49.45483 | 12.15391 | 101° | 71km/h | 7293m | 4.4m/s | 0°C | 0% | 0hPa | 0V | 00:00:00 | 00:00:00 | 00:00:00 | |
| DB0NH | 2026-09-02 09:06:25 | 49.45494 | 12.15309 | 99° | 69km/h | 7275m | 4.5m/s | 0°C | 0% | 0hPa | 0V | 00:00:00 | 00:00:00 | 00:00:00 | |
| DO3MHA-11 | 2026-09-02 09:06:23 | 49.45500 | 12.15255 | 102° | 73km/h | 7266m | 4.8m/s | 0°C | 0% | 0hPa | 0V | 00:00:00 | 00:00:00 | 00:00:00 | |
| NBG1-10 | 2026-09-02 09:06:21 | 49.45507 | 12.15200 | 102° | 69km/h | 7256m | 5.5m/s | 0°C | 0% | 0hPa | 0V | 00:00:00 | 00:00:00 | 00:00:00 | |
| DB0UT-7 | 2026-09-02 09:06:15 | 49.45526 | 12.15032 | 102° | 69km/h | 7232m | 3.8m/s | 0°C | 0% | 0hPa | 0V | 00:00:00 | 00:00:00 | 00:00:00 | |
| DO8TBO-1 | 2026-09-02 09:06:13 | 49.45535 | 12.14977 | 98° | 144km/h | 7218m | 3.2m/s | 0°C | 0% | 0hPa | 0V | 00:00:00 | 00:00:00 | 00:00:00 | |
| DO3MHA-11 | 2026-09-02 09:06:12 | 49.45538 | 12.14950 | 98° | 69km/h | 7214m | 3.2m/s | 0°C | 0% | 0hPa | 0V | 00:00:00 | 00:00:00 | 00:00:00 | |
| OE5DXL-15 | 2026-09-02 09:06:08 | 49.45549 | 12.14840 | 102° | 68km/h | 7196m | 5.2m/s | 0°C | 0% | 0hPa | 0V | 00:00:00 | 00:00:00 | 00:00:00 | |
| OE5DRO-10 | 2026-09-02 09:06:06 | 49.45556 | 12.14786 | 102° | 66km/h | 7187m | 3.5m/s | 0°C | 0% | 0hPa | 0V | 00:00:00 | 00:00:00 | 00:00:00 | |
| DO3MHA-11 | 2026-09-02 09:06:02 | 49.45567 | 12.14684 | 99° | 68km/h | 7170m | 3.9m/s | 0°C | 0% | 0hPa | 0V | 00:00:00 | 00:00:00 | 00:00:00 | |
| DF2AP-13 | 2026-09-02 09:06:01 | 49.45567 | 12.14657 | 100° | 68km/h | 7170m | 3.9m/s | 0°C | 0% | 0hPa | 0V | 00:00:00 | 00:00:00 | 00:00:00 | |
| DB0NH | 2026-09-02 09:05:55 | 49.45588 | 12.14499 | 103° | 68km/h | 7139m | 3.8m/s | 0°C | 0% | 0hPa | 0V | 00:00:00 | 00:00:00 | 00:00:00 | |
| DO3MHA-11 | 2026-09-02 09:05:52 | 49.45595 | 12.14425 | 95° | 68km/h | 7130m | 5.6m/s | 0°C | 0% | 0hPa | 0V | 00:00:00 | 00:00:00 | 00:00:00 | |
| NBG1-10 | 2026-09-02 09:05:47 | 49.45600 | 12.14300 | 94° | 68km/h | 7105m | 5.2m/s | 0°C | 0% | 0hPa | 0V | 00:00:00 | 00:00:00 | 00:00:00 | |
| DO3MHA-11 | 2026-09-02 09:05:42 | 49.45616 | 12.14168 | 92° | 68km/h | 7072m | 5.5m/s | 0°C | 0% | 0hPa | 0V | 00:00:00 | 00:00:00 | 00:00:00 | |
| OE5DXL-15 | 2026-09-02 09:05:38 | 49.45617 | 12.14059 | 89° | 68km/h | 7047m | 5.9m/s | 0°C | 0% | 0hPa | 0V | 00:00:00 | 00:00:00 | 00:00:00 | |
| DO3MHA-11 | 2026-09-02 09:05:32 | 49.45617 | 12.13903 | 93° | 69km/h | 7025m | 4.7m/s | 0°C | 0% | 0hPa | 0V | 00:00:00 | 00:00:00 | 00:00:00 | |
| DF2AP-13 | 2026-09-02 09:05:31 | 49.45617 | 12.13875 | 90° | 69km/h | 7016m | 4.4m/s | 0°C | 0% | 0hPa | 0V | 00:00:00 | 00:00:00 | 00:00:00 | |
| OE5DRO-10 | 2026-09-02 09:05:28 | 49.45618 | 12.13800 | 83° | 68km/h | 7008m | 4.1m/s | 0°C | 0% | 0hPa | 0V | 00:00:00 | 00:00:00 | 00:00:00 | |
| OE5HKT-10 | 2026-09-02 09:05:27 | 49.45613 | 12.13775 | 86° | 68km/h | 6985m | 3.3m/s | 0°C | 0% | 0hPa | 0V | 00:00:00 | 00:00:00 | 00:00:00 | |
| DB0NH | 2026-09-02 09:05:25 | 49.45610 | 12.13722 | 87° | 68km/h | 6990m | 4.8m/s | 0°C | 0% | 0hPa | 0V | 00:00:00 | 00:00:00 | 00:00:00 | |
| DO3MHA-11 | 2026-09-02 09:05:22 | 49.45609 | 12.13639 | 87° | 68km/h | 6980m | 6.1m/s | 0°C | 0% | 0hPa | 0V | 00:00:00 | 00:00:00 | 00:00:00 | |
| NBG1-10 | 2026-09-02 09:05:14 | 49.45600 | 12.13427 | 86° | 66km/h | 6927m | 3.4m/s | 0°C | 0% | 0hPa | 0V | 00:00:00 | 00:00:00 | 00:00:00 | |
| DO3MHA-11 | 2026-09-02 09:05:12 | 49.45597 | 12.13375 | 87° | 68km/h | 6918m | 4.4m/s | 0°C | 0% | 0hPa | 0V | 00:00:00 | 00:00:00 | 00:00:00 | |
| OE5DRO-10 | 2026-09-02 09:05:09 | 49.45595 | 12.13298 | 86° | 66km/h | 6905m | 3.8m/s | 0°C | 0% | 0hPa | 0V | 00:00:00 | 00:00:00 | 00:00:00 | |
| OE5DXL-15 | 2026-09-02 09:05:08 | 49.45593 | 12.13271 | 86° | 66km/h | 6905m | 3.8m/s | 0°C | 0% | 0hPa | 0V | 00:00:00 | 00:00:00 | 00:00:00 | |
| DF2AP-13 | 2026-09-02 09:05:01 | 49.45586 | 12.13093 | 84° | 66km/h | 6844m | 4.0m/s | 0°C | 0% | 0hPa | 0V | 00:00:00 | 00:00:00 | 00:00:00 | |
| OE5HKT-10 | 2026-09-02 09:04:57 | 49.45584 | 12.12993 | 90° | 66km/h | 6831m | 5.3m/s | 0°C | 0% | 0hPa | 0V | 00:00:00 | 00:00:00 | 00:00:00 | |
| DB0UT-7 | 2026-09-02 09:04:56 | 49.45584 | 12.12967 | 90° | 66km/h | 6848m | 4.8m/s | 0°C | 0% | 0hPa | 0V | 00:00:00 | 00:00:00 | 00:00:00 | |
| DB0NH | 2026-09-02 09:04:54 | 49.45583 | 12.12915 | 91° | 66km/h | 6840m | 5.1m/s | 0°C | 0% | 0hPa | 0V | 00:00:00 | 00:00:00 | 00:00:00 | |
| DO3MHA-11 | 2026-09-02 09:04:50 | 49.45583 | 12.12813 | 89° | 66km/h | 6818m | 4.9m/s | 0°C | 0% | 0hPa | 0V | 00:00:00 | 00:00:00 | 00:00:00 | |
| OE3JTB-15 | 2026-09-02 09:04:42 | 49.45580 | 12.12613 | 89° | 68km/h | 6783m | 4.9m/s | 0°C | 0% | 0hPa | 0V | 00:00:00 | 00:00:00 | 00:00:00 | |
| NBG1-10 | 2026-09-02 09:04:40 | 49.45578 | 12.12559 | 86° | 68km/h | 6774m | 4.8m/s | 0°C | 0% | 0hPa | 0V | 00:00:00 | 00:00:00 | 00:00:00 | |
| DO3MHA-11 | 2026-09-02 09:04:39 | 49.45578 | 12.12532 | 86° | 68km/h | 6774m | 5.1m/s | 0°C | 0% | 0hPa | 0V | 00:00:00 | 00:00:00 | 00:00:00 | |
| OE5DXL-15 | 2026-09-02 09:04:38 | 49.45575 | 12.12506 | 88° | 68km/h | 6769m | 3.8m/s | 0°C | 0% | 0hPa | 0V | 00:00:00 | 00:00:00 | 00:00:00 | |
| DO8TBO-1 | 2026-09-02 09:04:36 | 49.45575 | 12.12455 | 90° | 66km/h | 6760m | 4.4m/s | 0°C | 0% | 0hPa | 0V | 00:00:00 | 00:00:00 | 00:00:00 | |
| OE5HKT-10 | 2026-09-02 09:04:34 | 49.45574 | 12.12378 | 90° | 66km/h | 6747m | 3.8m/s | 0°C | 0% | 0hPa | 0V | 00:00:00 | 00:00:00 | 00:00:00 | |
| OE5DRO-10 | 2026-09-02 09:04:31 | 49.45572 | 12.12324 | 86° | 66km/h | 6734m | 4.2m/s | 0°C | 0% | 0hPa | 0V | 00:00:00 | 00:00:00 | 00:00:00 | |
| DO3MHA-11 | 2026-09-02 09:04:29 | 49.45570 | 12.12271 | 89° | 66km/h | 6726m | 3.8m/s | 0°C | 0% | 0hPa | 0V | 00:00:00 | 00:00:00 | 00:00:00 | |
| DB0UT-7 | 2026-09-02 09:04:25 | 49.45569 | 12.12171 | 91° | 66km/h | 6715m | 3.2m/s | 0°C | 0% | 0hPa | 0V | 00:00:00 | 00:00:00 | 00:00:00 | |
| DB0NH | 2026-09-02 09:04:24 | 49.45569 | 12.12145 | 89° | 66km/h | 6710m | 5.2m/s | 0°C | 0% | 0hPa | 0V | 00:00:00 | 00:00:00 | 00:00:00 | |
| DO3MHA-11 | 2026-09-02 09:04:18 | 49.45563 | 12.11989 | 88° | 68km/h | 6679m | 4.0m/s | 0°C | 0% | 0hPa | 0V | 00:00:00 | 00:00:00 | 00:00:00 | |
| OE5DRO-10 | 2026-09-02 09:04:12 | 49.45561 | 12.11832 | 86° | 66km/h | 6654m | 3.7m/s | 0°C | 0% | 0hPa | 0V | 00:00:00 | 00:00:00 | 00:00:00 | |
| OE5HKT-10 | 2026-09-02 09:04:08 | 49.45559 | 12.11727 | 93° | 64km/h | 6641m | 4.9m/s | 0°C | 0% | 0hPa | 0V | 00:00:00 | 00:00:00 | 00:00:00 | |
| NBG1-10 | 2026-09-02 09:04:07 | 49.45560 | 12.11700 | 93° | 64km/h | 6634m | 2.4m/s | 0°C | 0% | 0hPa | 0V | 00:00:00 | 00:00:00 | 00:00:00 | |
| DF2AP-13 | 2026-09-02 09:04:01 | 49.45569 | 12.11554 | 97° | 62km/h | 6606m | 5.6m/s | 0°C | 0% | 0hPa | 0V | 00:00:00 | 00:00:00 | 00:00:00 | |
| DO3MHA-11 | 2026-09-02 09:03:56 | 49.45573 | 12.11429 | 95° | 64km/h | 6585m | 4.1m/s | 0°C | 0% | 0hPa | 0V | 00:00:00 | 00:00:00 | 00:00:00 | |
| DB0UT-7 | 2026-09-02 09:03:55 | 49.45574 | 12.11404 | 98° | 62km/h | 6582m | 4.0m/s | 0°C | 0% | 0hPa | 0V | 00:00:00 | 00:00:00 | 00:00:00 | |
| DB0NH | 2026-09-02 09:03:54 | 49.45579 | 12.11378 | 97° | 62km/h | 6574m | 3.3m/s | 0°C | 0% | 0hPa | 0V | 00:00:00 | 00:00:00 | 00:00:00 | |
| OE5DRO-10 | 2026-09-02 09:03:52 | 49.45581 | 12.11329 | 93° | 64km/h | 6561m | 4.4m/s | 0°C | 0% | 0hPa | 0V | 00:00:00 | 00:00:00 | 00:00:00 | |
| OE5HKT-10 | 2026-09-02 09:03:47 | 49.45586 | 12.11207 | 95° | 62km/h | 6549m | 3.6m/s | 0°C | 0% | 0hPa | 0V | 00:00:00 | 00:00:00 | 00:00:00 | |
| DO3MHA-11 | 2026-09-02 09:03:46 | 49.45586 | 12.11183 | 95° | 64km/h | 6539m | 4.3m/s | 0°C | 0% | 0hPa | 0V | 00:00:00 | 00:00:00 | 00:00:00 | |
| OE3JTB-15 | 2026-09-02 09:03:43 | 49.45585 | 12.11112 | 96° | 60km/h | 6531m | 3.5m/s | 0°C | 0% | 0hPa | 0V | 00:00:00 | 00:00:00 | 00:00:00 | |
| OE5DXL-15 | 2026-09-02 09:03:37 | 49.45597 | 12.10959 | 94° | 58km/h | 6504m | 4.4m/s | 0°C | 0% | 0hPa | 0V | 00:00:00 | 00:00:00 | 00:00:00 | |
| DO3MHA-11 | 2026-09-02 09:03:35 | 49.45597 | 12.10912 | 90° | 58km/h | 6496m | 3.9m/s | 0°C | 0% | 0hPa | 0V | 00:00:00 | 00:00:00 | 00:00:00 | |
| NBG1-10 | 2026-09-02 09:03:33 | 49.45599 | 12.10864 | 97° | 57km/h | 6486m | 5.1m/s | 0°C | 0% | 0hPa | 0V | 00:00:00 | 00:00:00 | 00:00:00 | |
| OE5DRO-10 | 2026-09-02 09:03:32 | 49.45601 | 12.10842 | 100° | 58km/h | 6481m | 4.5m/s | 0°C | 0% | 0hPa | 0V | 00:00:00 | 00:00:00 | 00:00:00 | |
| DF2AP-13 | 2026-09-02 09:03:30 | 49.45604 | 12.10799 | 96° | 58km/h | 6477m | 3.6m/s | 0°C | 0% | 0hPa | 0V | 00:00:00 | 00:00:00 | 00:00:00 | |
| DO8TBO-1 | 2026-09-02 09:03:29 | 49.45607 | 12.10777 | 95° | 57km/h | 6469m | 4.0m/s | 0°C | 0% | 0hPa | 0V | 00:00:00 | 00:00:00 | 00:00:00 | |
| DB0UT-7 | 2026-09-02 09:03:25 | 49.45611 | 12.10684 | 98° | 57km/h | 6456m | 3.7m/s | 0°C | 0% | 0hPa | 0V | 00:00:00 | 00:00:00 | 00:00:00 | |
| DB0NH | 2026-09-02 09:03:24 | 49.45614 | 12.10661 | 97° | 57km/h | 6447m | 4.8m/s | 0°C | 0% | 0hPa | 0V | 00:00:00 | 00:00:00 | 00:00:00 | |
| OE3JTB-15 | 2026-09-02 09:03:14 | 49.45626 | 12.10436 | 94° | 82km/h | 6408m | 3.9m/s | 0°C | 0% | 0hPa | 0V | 00:00:00 | 00:00:00 | 00:00:00 | |
| DO3MHA-11 | 2026-09-02 09:03:13 | 49.45625 | 12.10414 | 96° | 55km/h | 6408m | 3.9m/s | 0°C | 0% | 0hPa | 0V | 00:00:00 | 00:00:00 | 00:00:00 | |
| OE5DXL-15 | 2026-09-02 09:03:07 | 49.45635 | 12.10286 | 94° | 57km/h | 6380m | 4.1m/s | 0°C | 0% | 0hPa | 0V | 00:00:00 | 00:00:00 | 00:00:00 | |
| DO3MHA-11 | 2026-09-02 09:03:03 | 49.45641 | 12.10201 | 100° | 57km/h | 6365m | 3.9m/s | 0°C | 0% | 0hPa | 0V | 00:00:00 | 00:00:00 | 00:00:00 | |
| NBG1-10 | 2026-09-02 09:02:59 | 49.45646 | 12.10113 | 96° | 55km/h | 6353m | 4.5m/s | 0°C | 0% | 0hPa | 0V | 00:00:00 | 00:00:00 | 00:00:00 | |
| DO8TBO-1 | 2026-09-02 09:02:58 | 49.45648 | 12.10092 | 93° | 141km/h | 6345m | 3.4m/s | 0°C | 0% | 0hPa | 0V | 00:00:00 | 00:00:00 | 00:00:00 | |
| DB0UT-7 | 2026-09-02 09:02:55 | 49.45651 | 12.10030 | 95° | 55km/h | 6337m | 3.6m/s | 0°C | 0% | 0hPa | 0V | 00:00:00 | 00:00:00 | 00:00:00 | |
| DB0NH | 2026-09-02 09:02:54 | 49.45653 | 12.10008 | 95° | 55km/h | 6329m | 3.8m/s | 0°C | 0% | 0hPa | 0V | 00:00:00 | 00:00:00 | 00:00:00 | |
| DO3MHA-11 | 2026-09-02 09:02:52 | 49.45655 | 12.09961 | 91° | 55km/h | 6322m | 2.8m/s | 0°C | 0% | 0hPa | 0V | 00:00:00 | 00:00:00 | 00:00:00 | |
| OE3JTB-15 | 2026-09-02 09:02:45 | 49.45660 | 12.09812 | 94° | 57km/h | 6299m | 4.5m/s | 0°C | 0% | 0hPa | 0V | 00:00:00 | 00:00:00 | 00:00:00 | |
| DO3MHA-11 | 2026-09-02 09:02:41 | 49.45667 | 12.09725 | 99° | 55km/h | 6280m | 3.0m/s | 0°C | 0% | 0hPa | 0V | 00:00:00 | 00:00:00 | 00:00:00 | |
| OE5DRO-10 | 2026-09-02 09:02:35 | 49.45673 | 12.09592 | 91° | 55km/h | 6256m | 5.2m/s | 0°C | 0% | 0hPa | 0V | 00:00:00 | 00:00:00 | 00:00:00 | |
| DO3MHA-11 | 2026-09-02 09:02:30 | 49.45678 | 12.09488 | 98° | 55km/h | 6237m | 3.6m/s | 0°C | 0% | 0hPa | 0V | 00:00:00 | 00:00:00 | 00:00:00 | |
| DO8TBO-1 | 2026-09-02 09:02:28 | 49.45680 | 12.09444 | 92° | 57km/h | 6229m | 5.6m/s | 0°C | 0% | 0hPa | 0V | 00:00:00 | 00:00:00 | 00:00:00 | |
| NBG1-10 | 2026-09-02 09:02:26 | 49.45680 | 12.09403 | 90° | 57km/h | 6221m | 4.7m/s | 0°C | 0% | 0hPa | 0V | 00:00:00 | 00:00:00 | 00:00:00 | |
| DB0UT-7 | 2026-09-02 09:02:25 | 49.45680 | 12.09382 | 88° | 57km/h | 6221m | 3.1m/s | 0°C | 0% | 0hPa | 0V | 00:00:00 | 00:00:00 | 00:00:00 | |
| DB0NH | 2026-09-02 09:02:24 | 49.45680 | 12.09361 | 90° | 57km/h | 6213m | 4.9m/s | 0°C | 0% | 0hPa | 0V | 00:00:00 | 00:00:00 | 00:00:00 | |
| DO3MHA-11 | 2026-09-02 09:02:20 | 49.45684 | 12.09273 | 97° | 55km/h | 6197m | 3.6m/s | 0°C | 0% | 0hPa | 0V | 00:00:00 | 00:00:00 | 00:00:00 | |
| OE3JTB-15 | 2026-09-02 09:02:16 | 49.45684 | 12.09187 | 91° | 57km/h | 6187m | 4.0m/s | 0°C | 0% | 0hPa | 0V | 00:00:00 | 00:00:00 | 00:00:00 | |
| OE5DRO-10 | 2026-09-02 09:02:15 | 49.45684 | 12.09165 | 91° | 57km/h | 6178m | 4.7m/s | 0°C | 0% | 0hPa | 0V | 00:00:00 | 00:00:00 | 00:00:00 | |
| DO3MHA-11 | 2026-09-02 09:02:09 | 49.45689 | 12.09033 | 93° | 57km/h | 6153m | 3.5m/s | 0°C | 0% | 0hPa | 0V | 00:00:00 | 00:00:00 | 00:00:00 | |
| OE5DXL-15 | 2026-09-02 09:02:07 | 49.45690 | 12.08990 | 94° | 57km/h | 6146m | 3.3m/s | 0°C | 0% | 0hPa | 0V | 00:00:00 | 00:00:00 | 00:00:00 | |
| DL6DJ-15 | 2026-09-02 09:02:06 | 49.45692 | 12.08926 | 91° | 55km/h | 6138m | 4.8m/s | -20.6°C | -1.0% | -1.0hPa | 0V | 00:00:00 | 00:00:00 | 00:00:00 | |
| DB0ND-19 | 2026-09-02 09:02:03 | 49.45694 | 12.08882 | 95° | 58km/h | 6129m | 3.4m/s | -20.1°C | -1.0% | -1.0hPa | 0V | 00:00:00 | 00:00:00 | 00:00:00 | |
| DO3MHA-11 | 2026-09-02 09:01:58 | 49.45695 | 12.08792 | 89° | 57km/h | 6109m | 4.9m/s | 0°C | 0% | 0hPa | 0V | 00:00:00 | 00:00:00 | 00:00:00 | |
| OE5DRO-10 | 2026-09-02 09:01:56 | 49.45695 | 12.08749 | 92° | 55km/h | 6097m | 3.1m/s | 0°C | 0% | 0hPa | 0V | 00:00:00 | 00:00:00 | 00:00:00 | |
| DB0UT-7 | 2026-09-02 09:01:55 | 49.45695 | 12.08727 | 93° | 57km/h | 6102m | 5.1m/s | 0°C | 0% | 0hPa | 0V | 00:00:00 | 00:00:00 | 00:00:00 | |
| DB0NH | 2026-09-02 09:01:53 | 49.45697 | 12.08683 | 92° | 57km/h | 6092m | 4.0m/s | 0°C | 0% | 0hPa | 0V | 00:00:00 | 00:00:00 | 00:00:00 | |
| NBG1-10 | 2026-09-02 09:01:52 | 49.45697 | 12.08661 | 90° | 57km/h | 6085m | 3.6m/s | 0°C | 0% | 0hPa | 0V | 00:00:00 | 00:00:00 | 00:00:00 | |
| DO3MHA-11 | 2026-09-02 09:01:48 | 49.45698 | 12.08577 | 91° | 55km/h | 6073m | 5.0m/s | 0°C | 0% | 0hPa | 0V | 00:00:00 | 00:00:00 | 00:00:00 | |
| OE3JTB-15 | 2026-09-02 09:01:47 | 49.45699 | 12.08555 | 95° | 57km/h | 6065m | 2.7m/s | 0°C | 0% | 0hPa | 0V | 00:00:00 | 00:00:00 | 00:00:00 | |
| DO3MHA-11 | 2026-09-02 09:01:38 | 49.45703 | 12.08359 | 99° | 57km/h | 6032m | 3.9m/s | 0°C | 0% | 0hPa | 0V | 00:00:00 | 00:00:00 | 00:00:00 | |
| OE5DXL-15 | 2026-09-02 09:01:37 | 49.45707 | 12.08338 | 98° | 57km/h | 6024m | 3.6m/s | 0°C | 0% | 0hPa | 0V | 00:00:00 | 00:00:00 | 00:00:00 | |
| OE5DRO-10 | 2026-09-02 09:01:36 | 49.45707 | 12.08316 | 96° | 57km/h | 6024m | 3.6m/s | 0°C | 0% | 0hPa | 0V | 00:00:00 | 00:00:00 | 00:00:00 | |
| DO3MHA-11 | 2026-09-02 09:01:28 | 49.45715 | 12.08142 | 98° | 57km/h | 5989m | 3.4m/s | 0°C | 0% | 0hPa | 0V | 00:00:00 | 00:00:00 | 00:00:00 | |
| DB0UT-7 | 2026-09-02 09:01:25 | 49.45719 | 12.08075 | 96° | 58km/h | 5980m | 3.5m/s | 0°C | 0% | 0hPa | 0V | 00:00:00 | 00:00:00 | 00:00:00 | |
| DB0NH | 2026-09-02 09:01:23 | 49.45721 | 12.08032 | 92° | 58km/h | 5972m | 2.3m/s | 0°C | 0% | 0hPa | 0V | 00:00:00 | 00:00:00 | 00:00:00 | |
| OE3JTB-15 | 2026-09-02 09:01:17 | 49.45734 | 12.07900 | 94° | 58km/h | 5945m | 4.5m/s | 0°C | 0% | 0hPa | 0V | 00:00:00 | 00:00:00 | 00:00:00 | |
| DO3MHA-11 | 2026-09-02 09:01:06 | 49.45746 | 12.07650 | 89° | 58km/h | 5901m | 3.0m/s | 0°C | 0% | 0hPa | 0V | 00:00:00 | 00:00:00 | 00:00:00 | |
| DL6DJ-15 | 2026-09-02 09:01:04 | 49.45746 | 12.07585 | 91° | 55km/h | 5893m | 5.2m/s | -18.8°C | -1.0% | -1.0hPa | 0V | 00:00:00 | 00:00:00 | 00:00:00 | |
| DO8TBO-1 | 2026-09-02 09:00:58 | 49.45751 | 12.07474 | 93° | 58km/h | 5868m | 5.5m/s | 0°C | 0% | 0hPa | 0V | 00:00:00 | 00:00:00 | 00:00:00 | |
| DB0UT-7 | 2026-09-02 09:00:55 | 49.45751 | 12.07404 | 91° | 58km/h | 5859m | 3.3m/s | 0°C | 0% | 0hPa | 0V | 00:00:00 | 00:00:00 | 00:00:00 | |
| DB0NH | 2026-09-02 09:00:53 | 49.45752 | 12.07360 | 97° | 58km/h | 5852m | 2.6m/s | 0°C | 0% | 0hPa | 0V | 00:00:00 | 00:00:00 | 00:00:00 | |
| OE3JTB-15 | 2026-09-02 09:00:47 | 49.45758 | 12.07224 | 94° | 58km/h | 5820m | 4.0m/s | 0°C | 0% | 0hPa | 0V | 00:00:00 | 00:00:00 | 00:00:00 | |
| DO3MHA-11 | 2026-09-02 09:00:45 | 49.45760 | 12.07177 | 94° | 60km/h | 5817m | 4.5m/s | 0°C | 0% | 0hPa | 0V | 00:00:00 | 00:00:00 | 00:00:00 | |
| OE5DXL-15 | 2026-09-02 09:00:36 | 49.45765 | 12.06971 | 90° | 57km/h | 5783m | 4.3m/s | 0°C | 0% | 0hPa | 0V | 00:00:00 | 00:00:00 | 00:00:00 | |
| DO3MHA-11 | 2026-09-02 09:00:34 | 49.45766 | 12.06924 | 91° | 57km/h | 5775m | 4.5m/s | 0°C | 0% | 0hPa | 0V | 00:00:00 | 00:00:00 | 00:00:00 | |
| DO8TBO-1 | 2026-09-02 09:00:28 | 49.45768 | 12.06786 | 89° | 55km/h | 5751m | 5.0m/s | 0°C | 0% | 0hPa | 0V | 00:00:00 | 00:00:00 | 00:00:00 | |
| DB0UT-7 | 2026-09-02 09:00:25 | 49.45767 | 12.06721 | 96° | 53km/h | 5743m | 3.1m/s | 0°C | 0% | 0hPa | 0V | 00:00:00 | 00:00:00 | 00:00:00 | |
| DB0NH | 2026-09-02 09:00:23 | 49.45769 | 12.06680 | 92° | 53km/h | 5731m | 3.3m/s | 0°C | 0% | 0hPa | 0V | 00:00:00 | 00:00:00 | 00:00:00 | |
| OE3JTB-15 | 2026-09-02 09:00:18 | 49.45770 | 12.06567 | 94° | 53km/h | 5716m | 2.7m/s | 0°C | 0% | 0hPa | 0V | 00:00:00 | 00:00:00 | 00:00:00 | |
| DO3MHA-11 | 2026-09-02 09:00:12 | 49.45774 | 12.06445 | 91° | 53km/h | 5694m | 4.8m/s | 0°C | 0% | 0hPa | 0V | 00:00:00 | 00:00:00 | 00:00:00 | |
| OE5DXL-15 | 2026-09-02 09:00:06 | 49.45773 | 12.06320 | 90° | 53km/h | 5668m | 4.3m/s | 0°C | 0% | 0hPa | 0V | 00:00:00 | 00:00:00 | 00:00:00 | |
| NBG1-10 | 2026-09-02 09:00:04 | 49.45773 | 12.06279 | 91° | 53km/h | 5660m | 4.4m/s | 0°C | 0% | 0hPa | 0V | 00:00:00 | 00:00:00 | 00:00:00 | |
| DO3MHA-11 | 2026-09-02 09:00:02 | 49.45774 | 12.06238 | 91° | 53km/h | 5651m | 3.2m/s | 0°C | 0% | 0hPa | 0V | 00:00:00 | 00:00:00 | 00:00:00 | |
| DO8TBO-1 | 2026-09-02 08:59:57 | 49.45772 | 12.06135 | 87° | 55km/h | 5636m | 3.6m/s | 0°C | 0% | 0hPa | 0V | 00:00:00 | 00:00:00 | 00:00:00 | |
| DB0UT-7 | 2026-09-02 08:59:54 | 49.45771 | 12.06073 | 87° | 55km/h | 5625m | 3.5m/s | 0°C | 0% | 0hPa | 0V | 00:00:00 | 00:00:00 | 00:00:00 | |
| DB0NH | 2026-09-02 08:59:53 | 49.45769 | 12.06053 | 86° | 55km/h | 5618m | 3.4m/s | 0°C | 0% | 0hPa | 0V | 00:00:00 | 00:00:00 | 00:00:00 | |
| DO3MHA-11 | 2026-09-02 08:59:51 | 49.45767 | 12.06010 | 86° | 53km/h | 5611m | 4.4m/s | 0°C | 0% | 0hPa | 0V | 00:00:00 | 00:00:00 | 00:00:00 | |
| OE3JTB-15 | 2026-09-02 08:59:49 | 49.45765 | 12.05967 | 91° | 55km/h | 5604m | 3.0m/s | 0°C | 0% | 0hPa | 0V | 00:00:00 | 00:00:00 | 00:00:00 | |
| DO3MHA-11 | 2026-09-02 08:59:40 | 49.45766 | 12.05779 | 91° | 55km/h | 5571m | 3.2m/s | 0°C | 0% | 0hPa | 0V | 00:00:00 | 00:00:00 | 00:00:00 | |
| OE5DXL-15 | 2026-09-02 08:59:36 | 49.45764 | 12.05696 | 88° | 53km/h | 5556m | 4.6m/s | 0°C | 0% | 0hPa | 0V | 00:00:00 | 00:00:00 | 00:00:00 | |
| DO3MHA-11 | 2026-09-02 08:59:30 | 49.45762 | 12.05569 | 90° | 55km/h | 5533m | 3.5m/s | 0°C | 0% | 0hPa | 0V | 00:00:00 | 00:00:00 | 00:00:00 | |
| DO8TBO-1 | 2026-09-02 08:59:27 | 49.45760 | 12.05504 | 88° | 51km/h | 5522m | 2.9m/s | 0°C | 0% | 0hPa | 0V | 00:00:00 | 00:00:00 | 00:00:00 | |
| DB0UT-7 | 2026-09-02 08:59:25 | 49.45758 | 12.05463 | 85° | 51km/h | 5514m | 3.6m/s | 0°C | 0% | 0hPa | 0V | 00:00:00 | 00:00:00 | 00:00:00 | |
| DB0NH | 2026-09-02 08:59:23 | 49.45756 | 12.05423 | 86° | 51km/h | 5508m | 2.3m/s | 0°C | 0% | 0hPa | 0V | 00:00:00 | 00:00:00 | 00:00:00 | |
| DO3MHA-11 | 2026-09-02 08:59:20 | 49.45753 | 12.05361 | 88° | 51km/h | 5500m | 3.6m/s | 0°C | 0% | 0hPa | 0V | 00:00:00 | 00:00:00 | 00:00:00 | |
| OE3JTB-15 | 2026-09-02 08:59:19 | 49.45752 | 12.05341 | 90° | 51km/h | 5492m | 4.3m/s | 0°C | 0% | 0hPa | 0V | 00:00:00 | 00:00:00 | 00:00:00 | |
| DO3MHA-11 | 2026-09-02 08:59:10 | 49.45746 | 12.05161 | 87° | 51km/h | 5460m | 4.0m/s | 0°C | 0% | 0hPa | 0V | 00:00:00 | 00:00:00 | 00:00:00 | |
| OE5DXL-15 | 2026-09-02 08:59:06 | 49.45743 | 12.05082 | 87° | 51km/h | 5445m | 2.8m/s | 0°C | 0% | 0hPa | 0V | 00:00:00 | 00:00:00 | 00:00:00 | |
| DO3MHA-11 | 2026-09-02 08:59:00 | 49.45738 | 12.04964 | 87° | 51km/h | 5425m | 3.4m/s | 0°C | 0% | 0hPa | 0V | 00:00:00 | 00:00:00 | 00:00:00 | |
| NBG1-10 | 2026-09-02 08:58:57 | 49.45735 | 12.04903 | 85° | 49km/h | 5410m | 2.8m/s | 0°C | 0% | 0hPa | 0V | 00:00:00 | 00:00:00 | 00:00:00 | |
| DB0NH | 2026-09-02 08:58:53 | 49.45732 | 12.04824 | 88° | 51km/h | 5394m | 4.3m/s | 0°C | 0% | 0hPa | 0V | 00:00:00 | 00:00:00 | 00:00:00 | |
| OE3JTB-15 | 2026-09-02 08:58:50 | 49.45730 | 12.04764 | 88° | 53km/h | 5386m | 4.3m/s | 0°C | 0% | 0hPa | 0V | 00:00:00 | 00:00:00 | 00:00:00 | |
| DO3MHA-11 | 2026-09-02 08:58:40 | 49.45725 | 12.04565 | 86° | 49km/h | 5347m | 3.1m/s | 0°C | 0% | 0hPa | 0V | 00:00:00 | 00:00:00 | 00:00:00 | |
| OE5DXL-15 | 2026-09-02 08:58:36 | 49.45722 | 12.04486 | 90° | 51km/h | 5333m | 3.5m/s | 0°C | 0% | 0hPa | 0V | 00:00:00 | 00:00:00 | 00:00:00 | |
| DO3MHA-11 | 2026-09-02 08:58:29 | 49.45716 | 12.04353 | 85° | 51km/h | 5307m | 3.3m/s | 0°C | 0% | 0hPa | 0V | 00:00:00 | 00:00:00 | 00:00:00 | |
| DO8TBO-1 | 2026-09-02 08:58:27 | 49.45714 | 12.04314 | 84° | 51km/h | 5299m | 3.5m/s | 0°C | 0% | 0hPa | 0V | 00:00:00 | 00:00:00 | 00:00:00 | |
| NBG1-10 | 2026-09-02 08:58:23 | 49.45709 | 12.04236 | 88° | 51km/h | 5285m | 4.0m/s | 0°C | 0% | 0hPa | 0V | 00:00:00 | 00:00:00 | 00:00:00 | |
| DB0NH | 2026-09-02 08:58:22 | 49.45710 | 12.04216 | 88° | 51km/h | 5285m | 3.7m/s | 0°C | 0% | 0hPa | 0V | 00:00:00 | 00:00:00 | 00:00:00 | |
| DB0UT-7 | 2026-09-02 08:58:18 | 49.45704 | 12.04134 | 86° | 51km/h | 5265m | 4.0m/s | 0°C | 0% | 0hPa | 0V | 00:00:00 | 00:00:00 | 00:00:00 | |
| DO3MHA-11 | 2026-09-02 08:58:07 | 49.45693 | 12.03914 | 90° | 51km/h | 5227m | 4.3m/s | 0°C | 0% | 0hPa | 0V | 00:00:00 | 00:00:00 | 00:00:00 | |
| OE5DXL-15 | 2026-09-02 08:58:06 | 49.45692 | 12.03894 | 91° | 51km/h | 5220m | 3.8m/s | 0°C | 0% | 0hPa | 0V | 00:00:00 | 00:00:00 | 00:00:00 | |
| DO3MHA-11 | 2026-09-02 08:57:57 | 49.45684 | 12.03719 | 86° | 51km/h | 5189m | 4.5m/s | 0°C | 0% | 0hPa | 0V | 00:00:00 | 00:00:00 | 00:00:00 | |
| DB0NH | 2026-09-02 08:57:52 | 49.45680 | 12.03618 | 86° | 51km/h | 5174m | 4.0m/s | 0°C | 0% | 0hPa | 0V | 00:00:00 | 00:00:00 | 00:00:00 | |
| NBG1-10 | 2026-09-02 08:57:50 | 49.45676 | 12.03579 | 83° | 49km/h | 5162m | 4.5m/s | 0°C | 0% | 0hPa | 0V | 00:00:00 | 00:00:00 | 00:00:00 | |
| DO3MHA-11 | 2026-09-02 08:57:46 | 49.45671 | 12.03502 | 91° | 51km/h | 5148m | 2.6m/s | 0°C | 0% | 0hPa | 0V | 00:00:00 | 00:00:00 | 00:00:00 | |
| DO3MHA-11 | 2026-09-02 08:57:35 | 49.45662 | 12.03285 | 87° | 49km/h | 5108m | 4.0m/s | 0°C | 0% | 0hPa | 0V | 00:00:00 | 00:00:00 | 00:00:00 | |
| DO8TBO-1 | 2026-09-02 08:57:27 | 49.45652 | 12.03134 | 82° | 46km/h | 5079m | 3.5m/s | 0°C | 0% | 0hPa | 0V | 00:00:00 | 00:00:00 | 00:00:00 | |
| DO3MHA-11 | 2026-09-02 08:57:24 | 49.45649 | 12.03074 | 81° | 47km/h | 5072m | 4.0m/s | 0°C | 0% | 0hPa | 0V | 00:00:00 | 00:00:00 | 00:00:00 | |
| DB0NH | 2026-09-02 08:57:23 | 49.45645 | 12.03035 | 80° | 42km/h | 5061m | 4.4m/s | 0°C | 0% | 0hPa | 0V | 00:00:00 | 00:00:00 | 00:00:00 | |
| NBG1-10 | 2026-09-02 08:57:16 | 49.45628 | 12.02934 | 79° | 44km/h | 5040m | 3.9m/s | 0°C | 0% | 0hPa | 0V | 00:00:00 | 00:00:00 | 00:00:00 | |
| DO3MHA-11 | 2026-09-02 08:57:14 | 49.45624 | 12.02899 | 82° | 44km/h | 5033m | 3.7m/s | 0°C | 0% | 0hPa | 0V | 00:00:00 | 00:00:00 | 00:00:00 | |
| OE5DXL-15 | 2026-09-02 08:57:06 | 49.45603 | 12.02765 | 78° | 40km/h | 5007m | 4.5m/s | 0°C | 0% | 0hPa | 0V | 00:00:00 | 00:00:00 | 00:00:00 | |
| DO8TBO-1 | 2026-09-02 08:56:57 | 49.45580 | 12.02621 | 72° | 42km/h | 4971m | 4.1m/s | 0°C | 0% | 0hPa | 0V | 00:00:00 | 00:00:00 | 00:00:00 | |
| DB0NH | 2026-09-02 08:56:52 | 49.45565 | 12.02540 | 74° | 42km/h | 4953m | 3.9m/s | 0°C | 0% | 0hPa | 0V | 00:00:00 | 00:00:00 | 00:00:00 | |
| DO3MHA-11 | 2026-09-02 08:56:42 | 49.45533 | 12.02378 | 69° | 42km/h | 4916m | 3.2m/s | 0°C | 0% | 0hPa | 0V | 00:00:00 | 00:00:00 | 00:00:00 | |
| OE5DXL-15 | 2026-09-02 08:56:36 | 49.45514 | 12.02290 | 73° | 42km/h | 4897m | 2.5m/s | 0°C | 0% | 0hPa | 0V | 00:00:00 | 00:00:00 | 00:00:00 | |
| DO3MHA-11 | 2026-09-02 08:56:32 | 49.45504 | 12.02225 | 71° | 40km/h | 4883m | 3.7m/s | 0°C | 0% | 0hPa | 0V | 00:00:00 | 00:00:00 | 00:00:00 | |
| DO8TBO-1 | 2026-09-02 08:56:26 | 49.45480 | 12.02136 | 71° | 42km/h | 4857m | 4.3m/s | 0°C | 0% | 0hPa | 0V | 00:00:00 | 00:00:00 | 00:00:00 | |
| DB0NH | 2026-09-02 08:56:22 | 49.45465 | 12.02077 | 75° | 42km/h | 4843m | 3.3m/s | 0°C | 0% | 0hPa | 0V | 00:00:00 | 00:00:00 | 00:00:00 | |
| DO3MHA-11 | 2026-09-02 08:56:12 | 49.45434 | 12.01925 | 71° | 42km/h | 4810m | 4.5m/s | 0°C | 0% | 0hPa | 0V | 00:00:00 | 00:00:00 | 00:00:00 | |
| NBG1-10 | 2026-09-02 08:56:09 | 49.45422 | 12.01880 | 73° | 40km/h | 4798m | 2.6m/s | 0°C | 0% | 0hPa | 0V | 00:00:00 | 00:00:00 | 00:00:00 | |
| DO3MHA-11 | 2026-09-02 08:56:02 | 49.45401 | 12.01773 | 76° | 40km/h | 4775m | 4.3m/s | 0°C | 0% | 0hPa | 0V | 00:00:00 | 00:00:00 | 00:00:00 | |
| DO8TBO-1 | 2026-09-02 08:55:56 | 49.45380 | 12.01681 | 72° | 40km/h | 4750m | 4.7m/s | 0°C | 0% | 0hPa | 0V | 00:00:00 | 00:00:00 | 00:00:00 | |
| DB0NH | 2026-09-02 08:55:52 | 49.45369 | 12.01624 | 71° | 42km/h | 4737m | 2.7m/s | 0°C | 0% | 0hPa | 0V | 00:00:00 | 00:00:00 | 00:00:00 | |
| DO3MHA-11 | 2026-09-02 08:55:41 | 49.45332 | 12.01458 | 73° | 40km/h | 4697m | 3.3m/s | 0°C | 0% | 0hPa | 0V | 00:00:00 | 00:00:00 | 00:00:00 | |
| NBG1-10 | 2026-09-02 08:55:35 | 49.45315 | 12.01366 | 76° | 40km/h | 4676m | 3.4m/s | 0°C | 0% | 0hPa | 0V | 00:00:00 | 00:00:00 | 00:00:00 | |
| DO3MHA-11 | 2026-09-02 08:55:30 | 49.45299 | 12.01290 | 75° | 42km/h | 4658m | 4.5m/s | 0°C | 0% | 0hPa | 0V | 00:00:00 | 00:00:00 | 00:00:00 | |
| DO8TBO-1 | 2026-09-02 08:55:26 | 49.45286 | 12.01227 | 74° | 40km/h | 4644m | 3.5m/s | 0°C | 0% | 0hPa | 0V | 00:00:00 | 00:00:00 | 00:00:00 | |
| DB0NH | 2026-09-02 08:55:21 | 49.45275 | 12.01151 | 71° | 40km/h | 4628m | 3.3m/s | 0°C | 0% | 0hPa | 0V | 00:00:00 | 00:00:00 | 00:00:00 | |
| DO3MHA-11 | 2026-09-02 08:55:19 | 49.45269 | 12.01121 | 69° | 40km/h | 4622m | 3.9m/s | 0°C | 0% | 0hPa | 0V | 00:00:00 | 00:00:00 | 00:00:00 | |
| DO3MHA-11 | 2026-09-02 08:55:09 | 49.45235 | 12.00971 | 75° | 40km/h | 4584m | 3.4m/s | 0°C | 0% | 0hPa | 0V | 00:00:00 | 00:00:00 | 00:00:00 | |
| NBG1-10 | 2026-09-02 08:55:02 | 49.45215 | 12.00866 | 72° | 38km/h | 4559m | 4.0m/s | 0°C | 0% | 0hPa | 0V | 00:00:00 | 00:00:00 | 00:00:00 | |
| DO3MHA-11 | 2026-09-02 08:54:58 | 49.45201 | 12.00808 | 75° | 38km/h | 4545m | 3.0m/s | 0°C | 0% | 0hPa | 0V | 00:00:00 | 00:00:00 | 00:00:00 | |
| DO8TBO-1 | 2026-09-02 08:54:56 | 49.45196 | 12.00778 | 77° | 40km/h | 4537m | 3.6m/s | 0°C | 0% | 0hPa | 0V | 00:00:00 | 00:00:00 | 00:00:00 | |
| DB0NH | 2026-09-02 08:54:51 | 49.45184 | 12.00705 | 69° | 40km/h | 4523m | 2.9m/s | 0°C | 0% | 0hPa | 0V | 00:00:00 | 00:00:00 | 00:00:00 | |
| DO3MHA-11 | 2026-09-02 08:54:47 | 49.45171 | 12.00648 | 80° | 38km/h | 4506m | 3.6m/s | 0°C | 0% | 0hPa | 0V | 00:00:00 | 00:00:00 | 00:00:00 | |
| DO3MHA-11 | 2026-09-02 08:54:36 | 49.45140 | 12.00490 | 73° | 40km/h | 4471m | 2.3m/s | 0°C | 0% | 0hPa | 0V | 00:00:00 | 00:00:00 | 00:00:00 | |
| NBG1-10 | 2026-09-02 08:54:28 | 49.45113 | 12.00372 | 71° | 38km/h | 4439m | 3.9m/s | 0°C | 0% | 0hPa | 0V | 00:00:00 | 00:00:00 | 00:00:00 | |
| DO3MHA-11 | 2026-09-02 08:54:26 | 49.45106 | 12.00344 | 75° | 40km/h | 4432m | 3.7m/s | 0°C | 0% | 0hPa | 0V | 00:00:00 | 00:00:00 | 00:00:00 | |
| DB0NH | 2026-09-02 08:54:21 | 49.45097 | 12.00267 | 72° | 38km/h | 4417m | 3.6m/s | 0°C | 0% | 0hPa | 0V | 00:00:00 | 00:00:00 | 00:00:00 | |
| DO3MHA-11 | 2026-09-02 08:54:15 | 49.45076 | 12.00179 | 75° | 38km/h | 4391m | 2.8m/s | 0°C | 0% | 0hPa | 0V | 00:00:00 | 00:00:00 | 00:00:00 | |
| DO3MHA-11 | 2026-09-02 08:54:04 | 49.45045 | 12.00022 | 72° | 37km/h | 4350m | 4.7m/s | 0°C | 0% | 0hPa | 0V | 00:00:00 | 00:00:00 | 00:00:00 | |
| DO8TBO-1 | 2026-09-02 08:53:56 | 49.45023 | 11.99911 | 75° | 37km/h | 4321m | 2.8m/s | 0°C | 0% | 0hPa | 0V | 00:00:00 | 00:00:00 | 00:00:00 | |
| NBG1-10 | 2026-09-02 08:53:54 | 49.45021 | 11.99885 | 72° | 37km/h | 4317m | 4.2m/s | 0°C | 0% | 0hPa | 0V | 00:00:00 | 00:00:00 | 00:00:00 | |
| DO3MHA-11 | 2026-09-02 08:53:53 | 49.45018 | 11.99874 | 71° | 33km/h | 4313m | 3.9m/s | 0°C | 0% | 0hPa | 0V | 00:00:00 | 00:00:00 | 00:00:00 | |
| DB0NH | 2026-09-02 08:53:51 | 49.45010 | 11.99850 | 73° | 37km/h | 4302m | 3.8m/s | 0°C | 0% | 0hPa | 0V | 00:00:00 | 00:00:00 | 00:00:00 | |
| DO3MHA-11 | 2026-09-02 08:53:43 | 49.44990 | 11.99745 | 73° | 37km/h | 4272m | 4.3m/s | 0°C | 0% | 0hPa | 0V | 00:00:00 | 00:00:00 | 00:00:00 | |
| DO3MHA-11 | 2026-09-02 08:53:32 | 49.44964 | 11.99594 | 70° | 37km/h | 4232m | 3.3m/s | 0°C | 0% | 0hPa | 0V | 00:00:00 | 00:00:00 | 00:00:00 | |
| DO8TBO-1 | 2026-09-02 08:53:25 | 49.44948 | 11.99497 | 77° | 35km/h | 4209m | 4.3m/s | 0°C | 0% | 0hPa | 0V | 00:00:00 | 00:00:00 | 00:00:00 | |
| DB0NH | 2026-09-02 08:53:21 | 49.44937 | 11.99443 | 78° | 35km/h | 4190m | 2.9m/s | 0°C | 0% | 0hPa | 0V | 00:00:00 | 00:00:00 | 00:00:00 | |
| DO3MHA-11 | 2026-09-02 08:53:10 | 49.44914 | 11.99296 | 73° | 35km/h | 4149m | 4.1m/s | 0°C | 0% | 0hPa | 0V | 00:00:00 | 00:00:00 | 00:00:00 | |
| DF7PN | 2026-09-02 08:53:08 | 49.44907 | 11.99255 | 75° | 37km/h | 4142m | 4.3m/s | -6.3°C | -1.0% | -1.0hPa | 0V | 00:00:00 | 00:00:00 | 00:00:00 | |
| DO3MHA-11 | 2026-09-02 08:53:00 | 49.44895 | 11.99152 | 73° | 33km/h | 4112m | 4.1m/s | 0°C | 0% | 0hPa | 0V | 00:00:00 | 00:00:00 | 00:00:00 | |
| DO8TBO-1 | 2026-09-02 08:52:55 | 49.44886 | 11.99103 | 79° | 33km/h | 4093m | 4.2m/s | 0°C | 0% | 0hPa | 0V | 00:00:00 | 00:00:00 | 00:00:00 | |
| DB0NH | 2026-09-02 08:52:51 | 49.44879 | 11.99056 | 75° | 33km/h | 4078m | 3.5m/s | 0°C | 0% | 0hPa | 0V | 00:00:00 | 00:00:00 | 00:00:00 | |
| DO3MHA-11 | 2026-09-02 08:52:49 | 49.44874 | 11.99029 | 80° | 31km/h | 4071m | 3.4m/s | 0°C | 0% | 0hPa | 0V | 00:00:00 | 00:00:00 | 00:00:00 | |
| NBG1-10 | 2026-09-02 08:52:47 | 49.44872 | 11.99004 | 84° | 31km/h | 4063m | 4.3m/s | 0°C | 0% | 0hPa | 0V | 00:00:00 | 00:00:00 | 00:00:00 | |
| DO3MHA-11 | 2026-09-02 08:52:38 | 49.44861 | 11.98897 | 77° | 33km/h | 4030m | 2.7m/s | 0°C | 0% | 0hPa | 0V | 00:00:00 | 00:00:00 | 00:00:00 | |
| DO3MHA-11 | 2026-09-02 08:52:28 | 49.44845 | 11.98772 | 74° | 31km/h | 3995m | 4.5m/s | 0°C | 0% | 0hPa | 0V | 00:00:00 | 00:00:00 | 00:00:00 | |
| DO8TBO-1 | 2026-09-02 08:52:25 | 49.44840 | 11.98735 | 81° | 31km/h | 3981m | 3.1m/s | 0°C | 0% | 0hPa | 0V | 00:00:00 | 00:00:00 | 00:00:00 | |
| DB0NH | 2026-09-02 08:52:21 | 49.44833 | 11.98688 | 77° | 31km/h | 3968m | 3.2m/s | 0°C | 0% | 0hPa | 0V | 00:00:00 | 00:00:00 | 00:00:00 | |
| DO3MHA-11 | 2026-09-02 08:52:18 | 49.44831 | 11.98652 | 79° | 31km/h | 3960m | 3.4m/s | 0°C | 0% | 0hPa | 0V | 00:00:00 | 00:00:00 | 00:00:00 | |
| NBG1-10 | 2026-09-02 08:52:14 | 49.44821 | 11.98607 | 74° | 35km/h | 3940m | 4.6m/s | 0°C | 0% | 0hPa | 0V | 00:00:00 | 00:00:00 | 00:00:00 | |
| DO3MHA-11 | 2026-09-02 08:52:08 | 49.44806 | 11.98532 | 70° | 31km/h | 3918m | 3.8m/s | 0°C | 0% | 0hPa | 0V | 00:00:00 | 00:00:00 | 00:00:00 | |
| DO3MHA-11 | 2026-09-02 08:51:57 | 49.44784 | 11.98400 | 79° | 35km/h | 3876m | 2.9m/s | 0°C | 0% | 0hPa | 0V | 00:00:00 | 00:00:00 | 00:00:00 | |
| DO8TBO-1 | 2026-09-02 08:51:54 | 49.44779 | 11.98362 | 69° | 37km/h | 3868m | 3.1m/s | 0°C | 0% | 0hPa | 0V | 00:00:00 | 00:00:00 | 00:00:00 | |
| DB0NH | 2026-09-02 08:51:50 | 49.44768 | 11.98311 | 80° | 37km/h | 3853m | 4.4m/s | 0°C | 0% | 0hPa | 0V | 00:00:00 | 00:00:00 | 00:00:00 | |
| DO3MHA-11 | 2026-09-02 08:51:46 | 49.44758 | 11.98258 | 70° | 37km/h | 3834m | 3.3m/s | 0°C | 0% | 0hPa | 0V | 00:00:00 | 00:00:00 | 00:00:00 | |
| NBG1-10 | 2026-09-02 08:51:40 | 49.44740 | 11.98178 | 76° | 38km/h | 3812m | 4.5m/s | 0°C | 0% | 0hPa | 0V | 00:00:00 | 00:00:00 | 00:00:00 | |
| DO3MHA-11 | 2026-09-02 08:51:35 | 49.44730 | 11.98111 | 69° | 37km/h | 3796m | 3.6m/s | 0°C | 0% | 0hPa | 0V | 00:00:00 | 00:00:00 | 00:00:00 | |
| DO3MHA-11 | 2026-09-02 08:51:25 | 49.44697 | 11.97975 | 70° | 38km/h | 3755m | 2.9m/s | 0°C | 0% | 0hPa | 0V | 00:00:00 | 00:00:00 | 00:00:00 | |
| DO8TBO-1 | 2026-09-02 08:51:24 | 49.44697 | 11.97961 | 71° | 40km/h | 3755m | 3.1m/s | 0°C | 0% | 0hPa | 0V | 00:00:00 | 00:00:00 | 00:00:00 | |
| DB0NH | 2026-09-02 08:51:20 | 49.44688 | 11.97902 | 74° | 38km/h | 3739m | 3.2m/s | 0°C | 0% | 0hPa | 0V | 00:00:00 | 00:00:00 | 00:00:00 | |
| DO3MHA-11 | 2026-09-02 08:51:14 | 49.44667 | 11.97819 | 71° | 38km/h | 3711m | 4.5m/s | 0°C | 0% | 0hPa | 0V | 00:00:00 | 00:00:00 | 00:00:00 | |
| NBG1-10 | 2026-09-02 08:51:06 | 49.44644 | 11.97704 | 75° | 38km/h | 3679m | 3.2m/s | 0°C | 0% | 0hPa | 0V | 00:00:00 | 00:00:00 | 00:00:00 | |
| DO3MHA-11 | 2026-09-02 08:51:03 | 49.44636 | 11.97664 | 71° | 38km/h | 3668m | 3.7m/s | 0°C | 0% | 0hPa | 0V | 00:00:00 | 00:00:00 | 00:00:00 | |
| DO3MHA-11 | 2026-09-02 08:50:52 | 49.44606 | 11.97512 | 73° | 38km/h | 3630m | 3.2m/s | 0°C | 0% | 0hPa | 0V | 00:00:00 | 00:00:00 | 00:00:00 | |
| DB0NH | 2026-09-02 08:50:50 | 49.44597 | 11.97484 | 71° | 38km/h | 3618m | 4.2m/s | 0°C | 0% | 0hPa | 0V | 00:00:00 | 00:00:00 | 00:00:00 | |
| DO3MHA-11 | 2026-09-02 08:50:42 | 49.44572 | 11.97369 | 73° | 38km/h | 3587m | 3.4m/s | 0°C | 0% | 0hPa | 0V | 00:00:00 | 00:00:00 | 00:00:00 | |
| NBG1-10 | 2026-09-02 08:50:33 | 49.44542 | 11.97240 | 72° | 38km/h | 3554m | 2.8m/s | 0°C | 0% | 0hPa | 0V | 00:00:00 | 00:00:00 | 00:00:00 | |
| DO3MHA-11 | 2026-09-02 08:50:31 | 49.44536 | 11.97213 | 70° | 38km/h | 3546m | 4.0m/s | 0°C | 0% | 0hPa | 0V | 00:00:00 | 00:00:00 | 00:00:00 | |
| DB0NH | 2026-09-02 08:50:20 | 49.44497 | 11.97059 | 67° | 38km/h | 3502m | 3.5m/s | 0°C | 0% | 0hPa | 0V | 00:00:00 | 00:00:00 | 00:00:00 | |
| DO3MHA-11 | 2026-09-02 08:50:09 | 49.44460 | 11.96909 | 66° | 38km/h | 3464m | 4.3m/s | 0°C | 0% | 0hPa | 0V | 00:00:00 | 00:00:00 | 00:00:00 | |
| DB0NH | 2026-09-02 08:49:50 | 49.44384 | 11.96651 | 73° | 37km/h | 3392m | 3.9m/s | 0°C | 0% | 0hPa | 0V | 00:00:00 | 00:00:00 | 00:00:00 | |
| DO3MHA-11 | 2026-09-02 08:49:48 | 49.44377 | 11.96625 | 65° | 37km/h | 3384m | 3.3m/s | 0°C | 0% | 0hPa | 0V | 00:00:00 | 00:00:00 | 00:00:00 | |
| DO3MHA-11 | 2026-09-02 08:49:37 | 49.44336 | 11.96480 | 67° | 35km/h | 3339m | 3.5m/s | 0°C | 0% | 0hPa | 0V | 00:00:00 | 00:00:00 | 00:00:00 | |
| NBG1-10 | 2026-09-02 08:49:26 | 49.44295 | 11.96344 | 62° | 38km/h | 3299m | 4.3m/s | 0°C | 0% | 0hPa | 0V | 00:00:00 | 00:00:00 | 00:00:00 | |
| DB0NH | 2026-09-02 08:49:20 | 49.44271 | 11.96268 | 62° | 38km/h | 3276m | 3.9m/s | 0°C | 0% | 0hPa | 0V | 00:00:00 | 00:00:00 | 00:00:00 | |
| DO3MHA-11 | 2026-09-02 08:49:16 | 49.44253 | 11.96201 | 63° | 38km/h | 3261m | 4.1m/s | 0°C | 0% | 0hPa | 0V | 00:00:00 | 00:00:00 | 00:00:00 | |
| DO3MHA-11 | 2026-09-02 08:49:05 | 49.44201 | 11.96074 | 57° | 37km/h | 3221m | 3.6m/s | 0°C | 0% | 0hPa | 0V | 00:00:00 | 00:00:00 | 00:00:00 | |
| DO3MHA-11 | 2026-09-02 08:48:54 | 49.44151 | 11.95936 | 63° | 37km/h | 3182m | 4.7m/s | 0°C | 0% | 0hPa | 0V | 00:00:00 | 00:00:00 | 00:00:00 | |
| NBG1-10 | 2026-09-02 08:48:52 | 49.44142 | 11.95910 | 62° | 35km/h | 3175m | 4.1m/s | 0°C | 0% | 0hPa | 0V | 00:00:00 | 00:00:00 | 00:00:00 | |
| DB0NH | 2026-09-02 08:48:49 | 49.44133 | 11.95872 | 60° | 35km/h | 3167m | 4.0m/s | 0°C | 0% | 0hPa | 0V | 00:00:00 | 00:00:00 | 00:00:00 | |
| DO3MHA-11 | 2026-09-02 08:48:44 | 49.44110 | 11.95814 | 56° | 35km/h | 3149m | 3.3m/s | 0°C | 0% | 0hPa | 0V | 00:00:00 | 00:00:00 | 00:00:00 | |
| DO3MHA-11 | 2026-09-02 08:48:34 | 49.44065 | 11.95697 | 57° | 35km/h | 3111m | 3.9m/s | 0°C | 0% | 0hPa | 0V | 00:00:00 | 00:00:00 | 00:00:00 | |
| DO3MHA-11 | 2026-09-02 08:48:24 | 49.44018 | 11.95582 | 59° | 31km/h | 3072m | 3.0m/s | 0°C | 0% | 0hPa | 0V | 00:00:00 | 00:00:00 | 00:00:00 | |
| DB0NH | 2026-09-02 08:48:19 | 49.44003 | 11.95526 | 68° | 33km/h | 3057m | 3.3m/s | 0°C | 0% | 0hPa | 0V | 00:00:00 | 00:00:00 | 00:00:00 | |
| NBG1-10 | 2026-09-02 08:48:18 | 49.44000 | 11.95514 | 65° | 33km/h | 3053m | 3.3m/s | 0°C | 0% | 0hPa | 0V | 00:00:00 | 00:00:00 | 00:00:00 | |
| DO3MHA-11 | 2026-09-02 08:48:02 | 49.43931 | 11.95340 | 63° | 33km/h | 2991m | 3.8m/s | 0°C | 0% | 0hPa | 0V | 00:00:00 | 00:00:00 | 00:00:00 | |
| DB0NH | 2026-09-02 08:47:49 | 49.43881 | 11.95199 | 65° | 33km/h | 2947m | 2.3m/s | 0°C | 0% | 0hPa | 0V | 00:00:00 | 00:00:00 | 00:00:00 | |
| NBG1-10 | 2026-09-02 08:47:45 | 49.43863 | 11.95153 | 57° | 33km/h | 2929m | 4.2m/s | 0°C | 0% | 0hPa | 0V | 00:00:00 | 00:00:00 | 00:00:00 | |
| DO3MHA-11 | 2026-09-02 08:47:41 | 49.43844 | 11.95111 | 61° | 33km/h | 2916m | 3.6m/s | 0°C | 0% | 0hPa | 0V | 00:00:00 | 00:00:00 | 00:00:00 | |
| DO3MHA-11 | 2026-09-02 08:47:30 | 49.43795 | 11.94994 | 68° | 31km/h | 2877m | 3.2m/s | 0°C | 0% | 0hPa | 0V | 00:00:00 | 00:00:00 | 00:00:00 | |
| DO3MHA-11 | 2026-09-02 08:47:20 | 49.43759 | 11.94888 | 55° | 33km/h | 2844m | 4.1m/s | 0°C | 0% | 0hPa | 0V | 00:00:00 | 00:00:00 | 00:00:00 | |
| DB0NH | 2026-09-02 08:47:19 | 49.43749 | 11.94877 | 57° | 31km/h | 2837m | 3.2m/s | 0°C | 0% | 0hPa | 0V | 00:00:00 | 00:00:00 | 00:00:00 | |
| DL6DJ-15 | 2026-09-02 08:47:05 | 49.43695 | 11.94709 | 62° | 33km/h | 2788m | 4.0m/s | 4.0°C | -1.0% | -1.0hPa | 0V | 00:00:00 | 00:00:00 | 00:00:00 | |
| DO3MHA-11 | 2026-09-02 08:47:00 | 49.43681 | 11.94664 | 69° | 29km/h | 2770m | 3.5m/s | 0°C | 0% | 0hPa | 0V | 00:00:00 | 00:00:00 | 00:00:00 | |
| DO3MHA-11 | 2026-09-02 08:46:49 | 49.43645 | 11.94552 | 59° | 27km/h | 2732m | 3.4m/s | 0°C | 0% | 0hPa | 0V | 00:00:00 | 00:00:00 | 00:00:00 | |
| NBG1-10 | 2026-09-02 08:46:38 | 49.43613 | 11.94443 | 69° | 26km/h | 2693m | 3.3m/s | 0°C | 0% | 0hPa | 0V | 00:00:00 | 00:00:00 | 00:00:00 | |
| DO3MHA-11 | 2026-09-02 08:46:28 | 49.43584 | 11.94339 | 71° | 24km/h | 2658m | 3.8m/s | 0°C | 0% | 0hPa | 0V | 00:00:00 | 00:00:00 | 00:00:00 | |
| DB0NH | 2026-09-02 08:46:19 | 49.43556 | 11.94273 | 65° | 26km/h | 2626m | 4.2m/s | 0°C | 0% | 0hPa | 0V | 00:00:00 | 00:00:00 | 00:00:00 | |
| DO3MHA-11 | 2026-09-02 08:46:17 | 49.43552 | 11.94257 | 66° | 26km/h | 2619m | 3.7m/s | 0°C | 0% | 0hPa | 0V | 00:00:00 | 00:00:00 | 00:00:00 | |
| DO3MHA-11 | 2026-09-02 08:46:06 | 49.43518 | 11.94161 | 71° | 26km/h | 2574m | 3.3m/s | 0°C | 0% | 0hPa | 0V | 00:00:00 | 00:00:00 | 00:00:00 | |
| NBG1-10 | 2026-09-02 08:46:04 | 49.43513 | 11.94141 | 64° | 26km/h | 2568m | 3.7m/s | 0°C | 0% | 0hPa | 0V | 00:00:00 | 00:00:00 | 00:00:00 | |
| DL6DJ-15 | 2026-09-02 08:46:03 | 49.43507 | 11.94122 | 59° | 24km/h | 2564m | 3.7m/s | 5.1°C | -1.0% | -1.0hPa | 0V | 00:00:00 | 00:00:00 | 00:00:00 | |
| DO3MHA-11 | 2026-09-02 08:45:56 | 49.43493 | 11.94071 | 66° | 26km/h | 2543m | 3.6m/s | 0°C | 0% | 0hPa | 0V | 00:00:00 | 00:00:00 | 00:00:00 | |
| DB0NH | 2026-09-02 08:45:49 | 49.43468 | 11.94009 | 71° | 27km/h | 2512m | 2.8m/s | 0°C | 0% | 0hPa | 0V | 00:00:00 | 00:00:00 | 00:00:00 | |
| DO3MHA-11 | 2026-09-02 08:45:46 | 49.43463 | 11.93980 | 69° | 26km/h | 2510m | 3.3m/s | 0°C | 0% | 0hPa | 0V | 00:00:00 | 00:00:00 | 00:00:00 | |
| DO3MHA-11 | 2026-09-02 08:45:36 | 49.43433 | 11.93890 | 68° | 27km/h | 2466m | 3.0m/s | 0°C | 0% | 0hPa | 0V | 00:00:00 | 00:00:00 | 00:00:00 | |
| NBG1-10 | 2026-09-02 08:45:30 | 49.43418 | 11.93829 | 70° | 31km/h | 2443m | 3.1m/s | 0°C | 0% | 0hPa | 0V | 00:00:00 | 00:00:00 | 00:00:00 | |
| DO3MHA-11 | 2026-09-02 08:45:25 | 49.43408 | 11.93782 | 73° | 29km/h | 2424m | 3.3m/s | 0°C | 0% | 0hPa | 0V | 00:00:00 | 00:00:00 | 00:00:00 | |
| DB0NH | 2026-09-02 08:45:18 | 49.43393 | 11.93708 | 74° | 33km/h | 2402m | 3.6m/s | 0°C | 0% | 0hPa | 0V | 00:00:00 | 00:00:00 | 00:00:00 | |
| DO3MHA-11 | 2026-09-02 08:45:14 | 49.43383 | 11.93664 | 71° | 33km/h | 2383m | 4.5m/s | 0°C | 0% | 0hPa | 0V | 00:00:00 | 00:00:00 | 00:00:00 | |
| NBG1-10 | 2026-09-02 08:44:57 | 49.43340 | 11.93453 | 80° | 33km/h | 2316m | 3.9m/s | 0°C | 0% | 0hPa | 0V | 00:00:00 | 00:00:00 | 00:00:00 | |
| DO3MHA-11 | 2026-09-02 08:44:53 | 49.43328 | 11.93397 | 64° | 35km/h | 2301m | 3.3m/s | 0°C | 0% | 0hPa | 0V | 00:00:00 | 00:00:00 | 00:00:00 | |
| DB0NH | 2026-09-02 08:44:48 | 49.43317 | 11.93337 | 82° | 33km/h | 2286m | 5.3m/s | 0°C | 0% | 0hPa | 0V | 00:00:00 | 00:00:00 | 00:00:00 | |
| DO3MHA-11 | 2026-09-02 08:44:42 | 49.43306 | 11.93256 | 74° | 33km/h | 2260m | 2.9m/s | 0°C | 0% | 0hPa | 0V | 00:00:00 | 00:00:00 | 00:00:00 | |
| DO3MHA-11 | 2026-09-02 08:44:31 | 49.43291 | 11.93117 | 80° | 33km/h | 2219m | 4.2m/s | 0°C | 0% | 0hPa | 0V | 00:00:00 | 00:00:00 | 00:00:00 | |
| NBG1-10 | 2026-09-02 08:44:23 | 49.43276 | 11.93019 | 80° | 33km/h | 2189m | 4.5m/s | 0°C | 0% | 0hPa | 0V | 00:00:00 | 00:00:00 | 00:00:00 | |
| DO3MHA-11 | 2026-09-02 08:44:20 | 49.43275 | 11.92977 | 90° | 33km/h | 2183m | 3.4m/s | 0°C | 0% | 0hPa | 0V | 00:00:00 | 00:00:00 | 00:00:00 | |
| DB0NH | 2026-09-02 08:44:18 | 49.43273 | 11.92950 | 84° | 31km/h | 2171m | 4.3m/s | 0°C | 0% | 0hPa | 0V | 00:00:00 | 00:00:00 | 00:00:00 | |
| DO3MHA-11 | 2026-09-02 08:44:10 | 49.43260 | 11.92855 | 80° | 33km/h | 2141m | 3.8m/s | 0°C | 0% | 0hPa | 0V | 00:00:00 | 00:00:00 | 00:00:00 | |
| DO3MHA-11 | 2026-09-02 08:43:59 | 49.43240 | 11.92722 | 72° | 29km/h | 2098m | 3.6m/s | 0°C | 0% | 0hPa | 0V | 00:00:00 | 00:00:00 | 00:00:00 | |
| NBG1-10 | 2026-09-02 08:43:50 | 49.43226 | 11.92619 | 79° | 27km/h | 2064m | 3.2m/s | 0°C | 0% | 0hPa | 0V | 00:00:00 | 00:00:00 | 00:00:00 | |
| DB0NH | 2026-09-02 08:43:48 | 49.43223 | 11.92599 | 76° | 26km/h | 2056m | 3.3m/s | 0°C | 0% | 0hPa | 0V | 00:00:00 | 00:00:00 | 00:00:00 | |
| DO3MHA-11 | 2026-09-02 08:43:37 | 49.43211 | 11.92480 | 75° | 27km/h | 2019m | 3.6m/s | 0°C | 0% | 0hPa | 0V | 00:00:00 | 00:00:00 | 00:00:00 | |
| DO3MHA-11 | 2026-09-02 08:43:27 | 49.43196 | 11.92380 | 75° | 24km/h | 1974m | 5.0m/s | 0°C | 0% | 0hPa | 0V | 00:00:00 | 00:00:00 | 00:00:00 | |
| DB0NH | 2026-09-02 08:43:18 | 49.43182 | 11.92297 | 70° | 22km/h | 1939m | 4.2m/s | 0°C | 0% | 0hPa | 0V | 00:00:00 | 00:00:00 | 00:00:00 | |
| DO3MHA-11 | 2026-09-02 08:43:16 | 49.43180 | 11.92280 | 79° | 24km/h | 1932m | 4.0m/s | 0°C | 0% | 0hPa | 0V | 00:00:00 | 00:00:00 | 00:00:00 | |
| NBG1-10 | 2026-09-02 08:43:16 | 49.43180 | 11.92280 | 79° | 22km/h | 1932m | 4.0m/s | 0°C | 0% | 0hPa | 0V | 00:00:00 | 00:00:00 | 00:00:00 | |
| DO3MHA-11 | 2026-09-02 08:43:05 | 49.43172 | 11.92178 | 82° | 22km/h | 1892m | 3.3m/s | 0°C | 0% | 0hPa | 0V | 00:00:00 | 00:00:00 | 00:00:00 | |
| DO3MHA-11 | 2026-09-02 08:42:54 | 49.43160 | 11.92087 | 84° | 22km/h | 1851m | 3.0m/s | 0°C | 0% | 0hPa | 0V | 00:00:00 | 00:00:00 | 00:00:00 | |
| DB0NH | 2026-09-02 08:42:48 | 49.43155 | 11.92042 | 77° | 20km/h | 1828m | 4.0m/s | 0°C | 0% | 0hPa | 0V | 00:00:00 | 00:00:00 | 00:00:00 | |
| DO3MHA-11 | 2026-09-02 08:42:44 | 49.43151 | 11.92007 | 82° | 20km/h | 1814m | 3.9m/s | 0°C | 0% | 0hPa | 0V | 00:00:00 | 00:00:00 | 00:00:00 | |
| NBG1-10 | 2026-09-02 08:42:42 | 49.43150 | 11.91993 | 79° | 22km/h | 1807m | 2.3m/s | 0°C | 0% | 0hPa | 0V | 00:00:00 | 00:00:00 | 00:00:00 | |
| DO3MHA-11 | 2026-09-02 08:42:33 | 49.43145 | 11.91917 | 82° | 20km/h | 1769m | 3.3m/s | 0°C | 0% | 0hPa | 0V | 00:00:00 | 00:00:00 | 00:00:00 | |
| DO3MHA-11 | 2026-09-02 08:42:22 | 49.43142 | 11.91829 | 80° | 24km/h | 1724m | 3.4m/s | 0°C | 0% | 0hPa | 0V | 00:00:00 | 00:00:00 | 00:00:00 | |
| DB0NH | 2026-09-02 08:42:17 | 49.43138 | 11.91789 | 94° | 22km/h | 1707m | 3.3m/s | 0°C | 0% | 0hPa | 0V | 00:00:00 | 00:00:00 | 00:00:00 | |
| DO3MHA-11 | 2026-09-02 08:42:11 | 49.43136 | 11.91732 | 95° | 20km/h | 1680m | 3.6m/s | 0°C | 0% | 0hPa | 0V | 00:00:00 | 00:00:00 | 00:00:00 | |
| NBG1-10 | 2026-09-02 08:42:09 | 49.43138 | 11.91717 | 94° | 20km/h | 1673m | 2.5m/s | 0°C | 0% | 0hPa | 0V | 00:00:00 | 00:00:00 | 00:00:00 | |
| DO3MHA-11 | 2026-09-02 08:42:01 | 49.43138 | 11.91656 | 92° | 22km/h | 1643m | 4.6m/s | 0°C | 0% | 0hPa | 0V | 00:00:00 | 00:00:00 | 00:00:00 | |
| DO3MHA-11 | 2026-09-02 08:41:51 | 49.43139 | 11.91576 | 98° | 20km/h | 1604m | 3.6m/s | 0°C | 0% | 0hPa | 0V | 00:00:00 | 00:00:00 | 00:00:00 | |
| DB0NH | 2026-09-02 08:41:46 | 49.43141 | 11.91538 | 79° | 20km/h | 1587m | 3.4m/s | 0°C | 0% | 0hPa | 0V | 00:00:00 | 00:00:00 | 00:00:00 | |
| DO3MHA-11 | 2026-09-02 08:41:41 | 49.43140 | 11.91497 | 96° | 20km/h | 1561m | 5.8m/s | 0°C | 0% | 0hPa | 0V | 00:00:00 | 00:00:00 | 00:00:00 | |
| NBG1-10 | 2026-09-02 08:41:35 | 49.43141 | 11.91449 | 96° | 18km/h | 1540m | 2.2m/s | 0°C | 0% | 0hPa | 0V | 00:00:00 | 00:00:00 | 00:00:00 | |
| DO3MHA-11 | 2026-09-02 08:41:31 | 49.43143 | 11.91416 | 88° | 20km/h | 1529m | 3.2m/s | 0°C | 0% | 0hPa | 0V | 00:00:00 | 00:00:00 | 00:00:00 | |
| DO3MHA-11 | 2026-09-02 08:41:21 | 49.43147 | 11.91338 | 99° | 18km/h | 1492m | 4.3m/s | 0°C | 0% | 0hPa | 0V | 00:00:00 | 00:00:00 | 00:00:00 | |
| DB0NH | 2026-09-02 08:41:16 | 49.43150 | 11.91304 | 93° | 20km/h | 1475m | 3.8m/s | 0°C | 0% | 0hPa | 0V | 00:00:00 | 00:00:00 | 00:00:00 | |
| DO3MHA-11 | 2026-09-02 08:41:11 | 49.43150 | 11.91267 | 86° | 16km/h | 1453m | 4.2m/s | 0°C | 0% | 0hPa | 0V | 00:00:00 | 00:00:00 | 00:00:00 | |
| NBG1-10 | 2026-09-02 08:41:02 | 49.43151 | 11.91211 | 70° | 18km/h | 1420m | 2.9m/s | 0°C | 0% | 0hPa | 0V | 00:00:00 | 00:00:00 | 00:00:00 | |
| DO3MHA-11 | 2026-09-02 08:41:00 | 49.43148 | 11.91198 | 98° | 18km/h | 1412m | 2.7m/s | 0°C | 0% | 0hPa | 0V | 00:00:00 | 00:00:00 | 00:00:00 | |
| DO3MHA-11 | 2026-09-02 08:40:50 | 49.43142 | 11.91132 | 82° | 18km/h | 1372m | 4.9m/s | 0°C | 0% | 0hPa | 0V | 00:00:00 | 00:00:00 | 00:00:00 | |
| DO3MHA-11 | 2026-09-02 08:40:41 | 49.43139 | 11.91068 | 81° | 16km/h | 1327m | 4.5m/s | 0°C | 0% | 0hPa | 0V | 00:00:00 | 00:00:00 | 00:00:00 | |
| DO3MHA-11 | 2026-09-02 08:40:30 | 49.43128 | 11.90998 | 82° | 16km/h | 1282m | 4.0m/s | 0°C | 0% | 0hPa | 0V | 00:00:00 | 00:00:00 | 00:00:00 |